# Wetter Temperatur Luftdruck Luftfeuchtigkeit Sichtweite Windgeschwindigkeit Windrichtung Zeit
1 Rain 25 1007 71 10000 2.45 201 15:55 01.02.2023
2 Clouds 35 1005 34 10000 1.43 330 13:43 01.02.2023
3 Clouds 31 1009 44 10000 1.02 141 13:19 01.02.2023
4 Clouds 32 1011 46 10000 1.13 213 12:26 01.02.2023
5 Clouds 29 1013 56 10000 1.61 225 09:54 01.02.2023
6 Clouds 20 1012 88 10000 0.41 166 06:19 01.02.2023
7 Clear 23 1009 69 10000 1.11 220 22:21 31.01.2023
8 Clouds 25 1008 61 10000 1.26 187 20:29 31.01.2023
9 Clouds 26 1008 53 10000 1.58 213 19:24 31.01.2023
10 Clouds 30 1005 41 10000 1.51 255 16:42 31.01.2023
11 Clouds 35 1005 29 10000 1.42 314 15:36 31.01.2023
12 Clouds 34 1004 32 10000 0.66 293 15:18 31.01.2023
13 Clear 37 1006 27 10000 0.14 268 12:48 31.01.2023
14 Clear 35 1009 33 10000 0.91 141 11:21 31.01.2023
15 Clear 33 1010 38 10000 1.04 124 09:54 31.01.2023
16 Clear 33 1010 38 10000 1.04 124 09:54 31.01.2023
17 Clear 30 1011 46 10000 1.3 127 09:24 31.01.2023
18 Clear 30 1011 46 10000 1.3 127 08:35 31.01.2023
19 Clouds 20 1012 90 10000 1.16 166 06:18 31.01.2023
20 Clouds 22 1009 84 10000 0.55 249 23:59 30.01.2023
21 Clouds 21 1009 89 10000 0.47 122 23:23 30.01.2023
22 Clouds 21 1009 89 10000 0.47 122 22:43 30.01.2023
23 Clouds 22 1010 85 10000 1.21 26 21:26 30.01.2023
24 Clouds 22 1010 85 10000 1.21 26 20:39 30.01.2023
25 Rain 23 1008 72 10000 4.57 100 18:25 30.01.2023
26 Clouds 26 1006 65 10000 2.33 122 16:48 30.01.2023
27 Clouds 34 1006 32 10000 2.35 170 14:28 30.01.2023
28 Clouds 36 1007 29 10000 2.35 158 12:45 30.01.2023
29 Clouds 34 1009 35 10000 2 169 11:28 30.01.2023
30 Clouds 32 1010 41 10000 1.8 178 09:54 30.01.2023
31 Clouds 29 1012 51 10000 1.69 180 08:58 30.01.2023
32 Clouds 25 1013 69 10000 1.54 222 07:36 30.01.2023
33 Clouds 20 1008 92 10000 1.73 199 01:42 30.01.2023
34 Clouds 21 1009 90 10000 0.6 73 23:35 29.01.2023
35 Clouds 20 1010 91 10000 0.81 156 22:37 29.01.2023
36 Clouds 20 1010 94 10000 1.12 204 21:41 29.01.2023
37 Rain 20 1010 96 10000 1.11 185 20:50 29.01.2023
38 Clouds 20 1010 96 10000 0.63 73 19:50 29.01.2023
39 Rain 20 1009 95 10000 1.23 60 19:27 29.01.2023
40 Rain 21 1008 90 10000 1.89 170 17:50 29.01.2023
41 Rain 24 1007 77 10000 3.27 127 16:21 29.01.2023
42 Rain 30 1006 50 10000 1.99 190 15:29 29.01.2023
43 Clouds 34 1005 35 10000 1.96 281 13:30 29.01.2023
44 Clouds 32 1007 40 10000 1.78 286 12:45 29.01.2023
45 Clouds 32 1009 41 10000 1.39 272 12:23 29.01.2023
46 Clouds 32 1009 41 10000 1.39 272 11:54 29.01.2023
47 Clouds 33 1010 40 10000 1.39 230 11:27 29.01.2023
48 Clouds 31 1011 47 10000 1.24 233 10:19 29.01.2023
49 Clouds 21 1012 94 10000 0.79 94 07:20 29.01.2023
50 Rain 20 1009 98 10000 0.88 184 03:41 29.01.2023
51 Clouds 22 1008 88 10000 1.35 205 23:39 28.01.2023
52 Clouds 24 1009 78 10000 2.48 214 20:45 28.01.2023
53 Clouds 25 1008 70 10000 1.94 232 19:52 28.01.2023
54 Clouds 27 1006 56 10000 1.86 192 18:35 28.01.2023
55 Clouds 31 1004 45 10000 1.41 261 17:20 28.01.2023
56 Clouds 33 1003 37 10000 1.68 218 16:27 28.01.2023
57 Clouds 33 1003 37 10000 1.68 218 15:49 28.01.2023
58 Clouds 33 1003 38 10000 0.26 229 14:53 28.01.2023
59 Clouds 34 1003 32 10000 0.42 256 13:44 28.01.2023
60 Clouds 36 1006 30 10000 1.51 254 11:55 28.01.2023
61 Clouds 35 1008 34 10000 1.69 243 10:34 28.01.2023
62 Clouds 30 1010 46 10000 2.16 227 08:39 28.01.2023
63 Clouds 23 1006 61 10000 0.78 174 01:48 28.01.2023
64 Clouds 25 1006 51 10000 1.05 196 00:27 28.01.2023
65 Clouds 25 1007 50 10000 1.12 299 21:54 27.01.2023
66 Clouds 27 1005 43 10000 1.12 169 18:54 27.01.2023
67 Clouds 29 1004 37 10000 0.73 220 17:58 27.01.2023
68 Clouds 31 1003 33 10000 0.45 208 17:19 27.01.2023
69 Clouds 31 1003 33 10000 0.45 208 16:35 27.01.2023
70 Clouds 34 1002 31 10000 0.47 176 15:24 27.01.2023
71 Clouds 38 1002 21 10000 1.56 66 14:25 27.01.2023
72 Clouds 38 1002 21 10000 1.56 66 13:32 27.01.2023
73 Clouds 31 1009 42 10000 1.06 112 08:48 27.01.2023
74 Clouds 20 1009 89 10000 1 146 06:29 27.01.2023
75 Clouds 21 1009 91 10000 1.41 114 00:27 27.01.2023
76 Clouds 21 1009 89 10000 1.21 153 21:57 26.01.2023
77 Clouds 22 1009 88 10000 1.36 144 20:55 26.01.2023
78 Rain 23 1009 82 10000 2.1 130 19:57 26.01.2023
79 Rain 24 1006 67 10000 1.01 6 17:56 26.01.2023
80 Clouds 29 1005 46 10000 1.7 341 16:30 26.01.2023
81 Clouds 33 1004 34 10000 1.67 350 16:00 26.01.2023
82 Clouds 33 1004 34 10000 1.67 350 15:41 26.01.2023
83 Clouds 35 1003 30 10000 0.74 70 15:22 26.01.2023
84 Clouds 36 1003 26 10000 1.28 56 13:47 26.01.2023
85 Clouds 38 1005 25 10000 0.61 86 12:31 26.01.2023
86 Clouds 36 1008 31 10000 0.94 113 10:34 26.01.2023
87 Clouds 33 1009 39 10000 1.29 142 09:44 26.01.2023
88 Clouds 31 1010 47 10000 1.77 163 09:19 26.01.2023
89 Clouds 23 1011 75 10000 1.89 151 06:39 26.01.2023
90 Clouds 21 1009 84 10000 1.38 182 23:41 25.01.2023
91 Clouds 22 1009 82 10000 0.85 181 22:48 25.01.2023
92 Clouds 23 1009 74 10000 1.36 169 21:26 25.01.2023
93 Clouds 23 1009 74 10000 1.36 169 20:59 25.01.2023
94 Clouds 26 1007 60 10000 1.45 149 18:30 25.01.2023
95 Clouds 33 1004 35 10000 1.55 209 16:22 25.01.2023
96 Clouds 34 1004 32 10000 1.45 207 15:21 25.01.2023
97 Clouds 34 1008 36 10000 1.8 210 12:29 25.01.2023
98 Clouds 31 1011 46 10000 1.95 187 09:53 25.01.2023
99 Clouds 29 1012 53 10000 1.88 169 09:29 25.01.2023
100 Clouds 23 1011 81 10000 1.85 178 06:52 25.01.2023
101 Clouds 22 1008 80 10000 1.28 130 00:31 25.01.2023
102 Clouds 23 1008 71 10000 1.49 160 21:56 24.01.2023
103 Clouds 25 1008 63 10000 2.09 157 21:28 24.01.2023
104 Clouds 26 1008 52 10000 1.63 127 19:38 24.01.2023
105 Clouds 28 1006 45 10000 0.2 182 18:30 24.01.2023
106 Clouds 29 1004 41 10000 1.34 214 17:19 24.01.2023
107 Clouds 29 1004 41 10000 1.34 214 16:52 24.01.2023
108 Clouds 33 1004 35 10000 0.64 72 14:49 24.01.2023
109 Clouds 38 1007 24 10000 1.08 10 12:28 24.01.2023
110 Clouds 38 1008 28 10000 0.46 29 10:36 24.01.2023
111 Clouds 29 1011 55 10000 1.55 172 08:21 24.01.2023
112 Clouds 29 1011 55 10000 1.55 172 07:50 24.01.2023
113 Clouds 21 1010 91 10000 1.35 139 05:21 24.01.2023
114 Clouds 23 1008 80 10000 0.89 121 00:44 24.01.2023
115 Clouds 23 1009 78 10000 1.21 172 23:35 23.01.2023
116 Clouds 25 1009 67 10000 1.53 191 21:50 23.01.2023
117 Clouds 26 1008 55 10000 1.39 183 19:44 23.01.2023
118 Clouds 29 1006 44 10000 0.84 253 17:44 23.01.2023
119 Clouds 34 1004 31 10000 1.39 52 15:33 23.01.2023
120 Clouds 38 1003 22 10000 1.33 53 13:58 23.01.2023
121 Clouds 38 1005 22 10000 1.12 36 13:22 23.01.2023
122 Clouds 38 1005 22 10000 1.12 36 12:45 23.01.2023
123 Clouds 38 1006 25 10000 0.34 9 11:42 23.01.2023
124 Clouds 29 1010 50 10000 1.65 164 08:27 23.01.2023
125 Clouds 23 1008 64 10000 1.27 165 02:49 23.01.2023
126 Clouds 24 1008 62 10000 0.45 209 23:22 22.01.2023
127 Clouds 24 1008 60 10000 0.45 278 21:33 22.01.2023
128 Clouds 25 1008 59 10000 0.66 304 20:50 22.01.2023
129 Clouds 25 1008 59 10000 0.53 315 19:53 22.01.2023
130 Clouds 25 1007 58 10000 0.78 308 19:19 22.01.2023
131 Clouds 26 1007 56 10000 0.82 291 17:57 22.01.2023
132 Clouds 26 1007 56 10000 0.82 291 17:57 22.01.2023
133 Clouds 28 1006 53 10000 0.89 268 17:26 22.01.2023
134 Clouds 31 1006 42 10000 0.96 311 16:24 22.01.2023
135 Clouds 32 1006 38 10000 1.09 317 14:55 22.01.2023
136 Clouds 32 1006 39 10000 1.52 285 13:48 22.01.2023
137 Clouds 33 1007 39 10000 1.11 275 12:49 22.01.2023
138 Clouds 32 1009 42 10000 0.89 269 11:38 22.01.2023
139 Clouds 29 1011 54 10000 0.65 208 09:36 22.01.2023
140 Clouds 27 1012 60 10000 0.54 163 08:43 22.01.2023
141 Clouds 21 1010 88 10000 1.35 195 02:51 22.01.2023
142 Clouds 22 1010 75 10000 2.04 197 23:41 21.01.2023
143 Clouds 23 1010 69 10000 2.17 207 22:41 21.01.2023
144 Clouds 23 1009 64 10000 1.19 222 20:27 21.01.2023
145 Clouds 23 1008 67 10000 0.95 201 18:48 21.01.2023
146 Clouds 32 1005 42 10000 2.4 251 14:57 21.01.2023
147 Clouds 33 1007 39 10000 1.46 184 12:59 21.01.2023
148 Clouds 33 1007 39 10000 1.46 184 12:40 21.01.2023
149 Clouds 27 1010 66 10000 1.05 236 11:27 21.01.2023
150 Clouds 27 1010 66 10000 1.05 236 10:46 21.01.2023
151 Clouds 27 1010 66 10000 1.05 236 10:46 21.01.2023
152 Clouds 23 1010 74 10000 1 136 04:51 21.01.2023
153 Clouds 26 1008 50 10000 0.41 235 22:47 20.01.2023
154 Clouds 26 1008 45 10000 1.07 239 22:25 20.01.2023
155 Clouds 26 1008 45 10000 1.07 239 21:34 20.01.2023
156 Clouds 27 1008 42 10000 1.48 247 20:39 20.01.2023
157 Clouds 27 1005 42 10000 0.81 225 17:59 20.01.2023
158 Clouds 34 1004 28 10000 2.55 315 15:26 20.01.2023
159 Clouds 34 1004 28 10000 2.55 315 14:32 20.01.2023
160 Clouds 33 1009 39 10000 1.06 39 11:18 20.01.2023
161 Clouds 29 1011 54 10000 1.27 156 08:59 20.01.2023
162 Clouds 27 1011 60 10000 1.23 147 07:40 20.01.2023
163 Clouds 24 1008 68 10000 0.59 112 02:32 20.01.2023
164 Clouds 25 1008 65 10000 0.93 159 22:37 19.01.2023
165 Clouds 25 1008 65 10000 1.18 141 21:47 19.01.2023
166 Clouds 26 1008 61 10000 1.27 179 19:38 19.01.2023
167 Clouds 27 1008 56 10000 1.62 172 18:56 19.01.2023
168 Clouds 35 1006 31 10000 0.71 83 14:26 19.01.2023
169 Clouds 34 1011 41 10000 1.09 334 10:26 19.01.2023
170 Clouds 31 1012 47 10000 0.48 350 08:58 19.01.2023
171 Clouds 24 1010 64 10000 1.43 190 22:41 18.01.2023
172 Clouds 24 1010 62 10000 0.67 184 20:36 18.01.2023
173 Clouds 25 1009 59 10000 1.2 177 20:18 18.01.2023
174 Clouds 25 1009 59 10000 1.2 177 19:35 18.01.2023
175 Clouds 30 1007 45 10000 1.73 189 16:47 18.01.2023
176 Clouds 32 1007 38 10000 1.69 199 14:21 18.01.2023
177 Clouds 32 1007 39 10000 0.83 216 12:50 18.01.2023
178 Clear 33 1011 43 10000 0.93 153 10:29 18.01.2023
179 Clouds 24 1013 78 10000 1.39 159 07:24 18.01.2023
180 Clouds 21 1010 90 10000 0.94 185 01:25 18.01.2023
181 Clouds 23 1010 75 10000 1.85 184 22:30 17.01.2023
182 Clouds 24 1009 63 10000 1.55 188 20:25 17.01.2023
183 Clouds 25 1008 60 10000 1.6 195 19:18 17.01.2023
184 Clouds 28 1007 47 10000 1.79 233 17:47 17.01.2023
185 Clouds 35 1004 24 10000 0.74 8 15:38 17.01.2023
186 Clouds 37 1004 22 10000 0.3 14 14:52 17.01.2023
187 Clouds 38 1005 22 10000 0.24 332 13:34 17.01.2023
188 Clouds 37 1008 26 10000 0.05 149 11:50 17.01.2023
189 Clouds 36 1009 31 10000 0.56 221 10:35 17.01.2023
190 Clouds 30 1012 49 10000 1.22 226 09:27 17.01.2023
191 Clouds 27 1012 59 10000 1.35 250 07:50 17.01.2023
192 Clouds 21 1010 82 10000 1.11 171 03:52 17.01.2023
193 Clouds 22 1008 79 10000 1.25 218 00:51 17.01.2023
194 Clouds 25 1009 68 10000 1.25 227 22:40 16.01.2023
195 Clouds 25 1009 68 10000 0.69 192 21:47 16.01.2023
196 Clouds 25 1007 60 10000 1.3 206 19:59 16.01.2023
197 Clouds 27 1006 53 10000 1.14 202 19:26 16.01.2023
198 Clouds 27 1006 53 10000 1.14 202 18:49 16.01.2023
199 Clouds 28 1005 50 10000 1.05 167 18:19 16.01.2023
200 Clouds 30 1005 46 10000 1.35 178 17:20 16.01.2023
201 Clouds 35 1005 30 10000 1.43 180 14:28 16.01.2023
202 Clouds 35 1005 30 10000 1.43 180 13:37 16.01.2023
203 Clouds 31 1011 47 10000 0.59 244 10:27 16.01.2023
204 Clouds 27 1013 63 10000 0.3 181 08:53 16.01.2023
205 Rain 22 1011 82 10000 0.32 43 23:21 15.01.2023
206 Clouds 25 1010 65 10000 1.31 151 21:32 15.01.2023
207 Clouds 25 1010 60 10000 1.51 177 20:32 15.01.2023
208 Clouds 25 1009 58 10000 1.31 204 19:38 15.01.2023
209 Clouds 26 1007 58 10000 1.04 181 17:38 15.01.2023
210 Clouds 33 1005 34 10000 0.9 81 15:18 15.01.2023
211 Clouds 35 1008 31 10000 1.26 43 12:29 15.01.2023
212 Clouds 35 1009 34 10000 1.16 47 11:29 15.01.2023
213 Clouds 33 1011 40 10000 0.61 105 10:27 15.01.2023
214 Clouds 33 1011 40 10000 0.61 105 09:34 15.01.2023
215 Clouds 21 1010 94 10000 1.17 163 01:42 15.01.2023
216 Clouds 22 1010 88 10000 1.36 196 22:44 14.01.2023
217 Clouds 22 1011 88 10000 1.35 202 21:55 14.01.2023
218 Clouds 22 1011 88 10000 1.35 202 21:36 14.01.2023
219 Clouds 22 1011 88 10000 1.35 202 21:36 14.01.2023
220 Clouds 22 1011 87 10000 1.08 185 21:18 14.01.2023
221 Clouds 22 1011 87 10000 1.08 185 21:18 14.01.2023
222 Clouds 23 1010 83 10000 1.19 176 20:28 14.01.2023
223 Clouds 26 1008 66 10000 2.05 199 18:19 14.01.2023
224 Clouds 32 1006 41 10000 1.94 219 15:43 14.01.2023
225 Clouds 32 1005 40 10000 1.35 213 15:24 14.01.2023
226 Clouds 31 1006 44 10000 1.1 153 14:22 14.01.2023
227 Clouds 31 1006 44 10000 1.1 153 13:32 14.01.2023
228 Clouds 35 1010 34 10000 0.31 341 10:51 14.01.2023
229 Clouds 34 1011 40 10000 0.53 291 09:43 14.01.2023
230 Clouds 21 1010 73 10000 0.35 135 02:50 14.01.2023
231 Clear 22 1010 68 10000 1.05 159 23:21 13.01.2023
232 Clear 22 1010 68 10000 1.05 159 22:42 13.01.2023
233 Clear 23 1011 66 10000 1.16 133 21:58 13.01.2023
234 Clear 24 1010 63 10000 0.96 138 20:52 13.01.2023
235 Clouds 25 1010 62 10000 1.24 164 19:34 13.01.2023
236 Clouds 27 1008 55 10000 1.13 217 17:43 13.01.2023
237 Clouds 30 1006 45 10000 0.3 190 16:24 13.01.2023
238 Clouds 34 1007 31 10000 0.57 352 12:36 13.01.2023
239 Clouds 35 1009 31 10000 0.22 312 12:18 13.01.2023
240 Clouds 32 1012 43 10000 0.76 156 10:23 13.01.2023
241 Clouds 32 1012 43 10000 0.76 156 09:45 13.01.2023
242 Clouds 29 1013 51 10000 1.29 169 08:52 13.01.2023
243 Clouds 26 1013 61 10000 1.39 177 07:49 13.01.2023
244 Clouds 24 1013 70 10000 1.24 180 06:52 13.01.2023
245 Clouds 21 1010 77 10000 1.16 174 03:26 13.01.2023
246 Clouds 23 1010 72 10000 1.12 168 23:43 12.01.2023
247 Clouds 24 1010 68 10000 0.94 168 22:31 12.01.2023
248 Clouds 25 1010 66 10000 0.96 172 20:55 12.01.2023
249 Clouds 26 1009 63 10000 1.3 197 18:53 12.01.2023
250 Clouds 26 1008 63 10000 0.9 170 17:33 12.01.2023
251 Clouds 26 1008 63 10000 0.9 170 17:33 12.01.2023
252 Clouds 28 1007 55 10000 1.97 169 15:54 12.01.2023
253 Clouds 30 1007 46 10000 2.05 169 14:44 12.01.2023
254 Clouds 32 1007 38 10000 0.67 164 14:22 12.01.2023
255 Clouds 31 1009 43 10000 1.6 134 12:45 12.01.2023
256 Clouds 32 1012 44 10000 1.13 165 10:34 12.01.2023
257 Clouds 25 1014 71 10000 1.84 175 08:21 12.01.2023
258 Clouds 20 1011 96 10000 0.72 206 01:49 12.01.2023
259 Clouds 21 1012 93 10000 0.84 292 23:59 11.01.2023
260 Clouds 21 1012 93 10000 0.84 292 23:40 11.01.2023
261 Clouds 21 1013 92 10000 0.53 259 23:20 11.01.2023
262 Clouds 22 1013 89 10000 0.88 199 21:44 11.01.2023
263 Clouds 23 1013 84 10000 2.11 230 19:47 11.01.2023
264 Rain 22 1011 90 10000 2.44 245 18:35 11.01.2023
265 Clouds 28 1009 63 10000 2.03 216 16:42 11.01.2023
266 Clouds 28 1008 62 10000 1.93 204 14:47 11.01.2023
267 Clouds 34 1009 37 10000 0.71 165 12:43 11.01.2023
268 Clouds 34 1011 39 10000 0.28 111 11:54 11.01.2023
269 Clouds 31 1014 52 10000 0.65 44 10:20 11.01.2023
270 Clouds 24 1014 80 10000 0.65 50 07:59 11.01.2023
271 Clouds 24 1013 77 10000 0.82 207 07:22 11.01.2023
272 Clouds 23 1014 86 10000 0.21 184 07:22 11.01.2023
273 Clouds 22 1011 77 10000 1.14 103 00:34 11.01.2023
274 Clouds 24 1011 70 10000 1.43 141 22:45 10.01.2023
275 Clouds 24 1012 69 10000 1.16 138 21:32 10.01.2023
276 Clouds 25 1012 65 10000 0.99 118 20:39 10.01.2023
277 Clouds 26 1011 63 10000 0.7 121 19:38 10.01.2023
278 Clouds 25 1010 64 10000 1.5 172 18:47 10.01.2023
279 Clouds 26 1010 61 10000 1.27 199 17:58 10.01.2023
280 Clouds 28 1009 55 10000 1.6 237 16:39 10.01.2023
281 Clouds 32 1008 40 10000 0.9 211 15:31 10.01.2023
282 Clouds 34 1007 33 10000 0.79 94 14:31 10.01.2023
283 Clouds 37 1010 29 10000 0.45 338 12:22 10.01.2023
284 Clouds 31 1014 50 10000 1.19 177 09:25 10.01.2023
285 Clouds 28 1014 60 10000 1.19 191 08:29 10.01.2023
286 Clouds 25 1014 69 10000 1.32 207 07:27 10.01.2023
287 Clouds 22 1014 80 10000 1.01 185 04:54 10.01.2023
288 Clouds 22 1012 75 10000 1.26 160 23:28 09.01.2023
289 Clouds 22 1012 71 10000 1.47 174 21:51 09.01.2023
290 Clouds 23 1012 70 10000 1.5 182 20:45 09.01.2023
291 Clouds 25 1010 65 10000 1.25 175 19:22 09.01.2023
292 Clouds 26 1009 59 10000 1.46 151 17:54 09.01.2023
293 Clouds 28 1009 52 10000 1.55 126 17:24 09.01.2023
294 Clouds 28 1009 52 10000 1.55 126 16:32 09.01.2023
295 Clouds 32 1007 38 10000 1.13 76 15:26 09.01.2023
296 Clouds 34 1007 31 10000 1.48 72 14:45 09.01.2023
297 Clouds 36 1008 27 10000 1.12 351 13:25 09.01.2023
298 Clouds 36 1008 27 10000 1.12 351 12:49 09.01.2023
299 Clouds 35 1011 34 10000 0.21 46 11:21 09.01.2023
300 Clear 30 1014 53 10000 1.03 156 08:43 09.01.2023
301 Clouds 24 1015 72 10000 0.56 49 06:39 09.01.2023
302 Clouds 21 1010 77 10000 1.35 166 02:54 09.01.2023
303 Clouds 22 1011 59 10000 0.97 232 23:52 08.01.2023
304 Clouds 23 1011 48 10000 1.34 201 21:24 08.01.2023
305 Clouds 23 1011 48 10000 1.34 201 20:58 08.01.2023
306 Clouds 24 1010 43 10000 0.19 111 19:48 08.01.2023
307 Clouds 26 1009 43 10000 1.29 39 17:42 08.01.2023
308 Clouds 27 1008 44 10000 1.46 42 17:19 08.01.2023
309 Clouds 29 1007 39 10000 1.47 42 15:39 08.01.2023
310 Clouds 32 1007 30 10000 2.07 32 14:35 08.01.2023
311 Clouds 34 1007 25 10000 1.96 19 13:55 08.01.2023
312 Clouds 35 1008 25 10000 1.77 5 13:21 08.01.2023
313 Clouds 34 1009 27 10000 1.53 1 11:50 08.01.2023
314 Clouds 32 1012 37 10000 0.5 247 09:38 08.01.2023
315 Clouds 30 1013 47 10000 1.44 197 08:42 08.01.2023
316 Clouds 21 1012 61 10000 0.68 156 06:20 08.01.2023
317 Clouds 23 1010 54 10000 1.18 182 23:25 07.01.2023
318 Clouds 23 1010 54 10000 1.18 182 22:44 07.01.2023
319 Clouds 23 1010 52 10000 1.31 196 22:18 07.01.2023
320 Clouds 23 1010 52 10000 1.31 196 21:32 07.01.2023
321 Clouds 24 1010 49 10000 0.81 155 20:29 07.01.2023
322 Clouds 25 1009 47 10000 1 146 19:25 07.01.2023
323 Clouds 27 1008 44 10000 0.89 156 18:21 07.01.2023
324 Clouds 27 1008 44 10000 0.89 156 17:41 07.01.2023
325 Clouds 29 1006 41 10000 0.59 156 16:49 07.01.2023
326 Clouds 34 1006 27 10000 0.7 96 16:28 07.01.2023
327 Clouds 34 1006 27 10000 0.7 96 15:40 07.01.2023
328 Clouds 36 1005 22 10000 1.06 62 15:22 07.01.2023
329 Clouds 36 1006 21 10000 1.17 48 13:59 07.01.2023
330 Clouds 36 1006 21 10000 1.17 48 13:41 07.01.2023
331 Clouds 36 1007 22 10000 1.53 47 13:19 07.01.2023
332 Clouds 36 1009 24 10000 1.5 42 12:21 07.01.2023
333 Clouds 33 1012 31 10000 1.39 49 10:29 07.01.2023
334 Clouds 30 1013 37 10000 1.36 56 09:23 07.01.2023
335 Clouds 27 1013 46 10000 1.1 67 08:18 07.01.2023
336 Clouds 27 1013 46 10000 1.1 67 07:41 07.01.2023
337 Clouds 24 1013 65 10000 0.56 71 06:31 07.01.2023
338 Clouds 22 1010 64 10000 0.94 159 23:34 06.01.2023
339 Clear 23 1010 59 10000 1.17 176 22:21 06.01.2023
340 Clear 23 1010 59 10000 1.17 176 21:50 06.01.2023
341 Clear 24 1011 58 10000 0.79 170 20:38 06.01.2023
342 Clear 25 1010 55 10000 0.92 158 19:56 06.01.2023
343 Clear 25 1010 55 10000 0.92 158 19:38 06.01.2023
344 Clouds 26 1008 51 10000 0.81 166 19:19 06.01.2023
345 Clouds 28 1008 47 10000 0.83 174 17:55 06.01.2023
346 Clouds 29 1007 45 10000 1.06 178 16:53 06.01.2023
347 Clouds 34 1006 31 10000 0.81 139 16:23 06.01.2023
348 Clouds 34 1006 31 10000 0.81 139 15:52 06.01.2023
349 Clouds 34 1006 31 10000 0.81 139 15:30 06.01.2023
350 Clouds 34 1007 30 10000 1.33 29 13:42 06.01.2023
351 Clouds 35 1009 27 10000 1.78 8 11:52 06.01.2023
352 Clouds 34 1011 30 10000 1.84 10 10:34 06.01.2023
353 Clouds 30 1013 43 10000 0.99 18 08:49 06.01.2023
354 Clouds 20 1012 88 10000 0.69 208 05:22 06.01.2023
355 Clouds 22 1009 82 10000 0.74 208 22:57 05.01.2023
356 Clouds 22 1009 82 10000 0.74 208 22:30 05.01.2023
357 Clouds 23 1009 69 10000 1.43 190 20:34 05.01.2023
358 Clouds 27 1007 53 10000 1.25 150 17:30 05.01.2023
359 Clouds 29 1006 47 10000 1.22 134 16:48 05.01.2023
360 Clouds 34 1005 32 10000 1.18 113 15:56 05.01.2023
361 Clouds 34 1005 32 10000 1.18 113 15:34 05.01.2023
362 Clouds 36 1005 26 10000 1.38 53 13:35 05.01.2023
363 Clouds 36 1006 23 10000 1.7 41 12:40 05.01.2023
364 Clouds 34 1009 30 10000 2.05 28 10:37 05.01.2023
365 Clouds 32 1011 35 10000 1.96 25 09:40 05.01.2023
366 Clouds 27 1012 54 10000 1.33 33 07:44 05.01.2023
367 Clouds 24 1012 66 10000 1.14 31 06:42 05.01.2023
368 Clouds 21 1008 77 10000 0.65 48 02:23 05.01.2023
369 Clouds 24 1010 66 10000 0.73 43 22:26 04.01.2023
370 Clouds 24 1010 66 10000 0.73 43 21:30 04.01.2023
371 Clouds 25 1009 65 10000 0.72 131 19:58 04.01.2023
372 Clouds 25 1009 65 10000 0.72 131 19:37 04.01.2023
373 Clouds 24 1009 66 10000 0.65 47 19:18 04.01.2023
374 Clouds 26 1008 61 10000 1.07 359 17:38 04.01.2023
375 Clouds 28 1007 54 10000 0.9 55 16:30 04.01.2023
376 Clouds 33 1006 39 10000 1.03 48 14:50 04.01.2023
377 Clouds 34 1008 37 10000 1.66 54 12:19 04.01.2023
378 Clouds 31 1010 46 10000 1.35 70 11:23 04.01.2023
379 Clouds 31 1010 46 10000 1.35 70 10:44 04.01.2023
380 Clouds 31 1011 48 10000 1.45 65 10:24 04.01.2023
381 Clouds 25 1012 73 10000 0.79 91 09:24 04.01.2023
382 Clouds 22 1011 84 10000 0.72 42 05:39 04.01.2023
383 Clouds 23 1010 78 10000 1.07 87 01:40 04.01.2023
384 Clouds 23 1010 77 10000 0.87 14 23:42 03.01.2023
385 Clouds 23 1010 77 10000 0.15 150 22:56 03.01.2023
386 Clouds 24 1010 73 10000 0.57 307 21:37 03.01.2023
387 Clear 24 1010 76 10000 1.04 48 20:28 03.01.2023
388 Clouds 26 1008 66 10000 0.75 212 18:22 03.01.2023
389 Clouds 28 1007 62 10000 0.52 248 16:39 03.01.2023
390 Clouds 33 1006 41 10000 0.99 353 14:23 03.01.2023
391 Clouds 33 1006 41 10000 0.99 353 13:32 03.01.2023
392 Clouds 33 1006 41 10000 0.99 353 13:32 03.01.2023
393 Clear 36 1007 32 10000 0.48 131 12:59 03.01.2023
394 Clear 36 1007 32 10000 0.48 131 12:31 03.01.2023
395 Clear 36 1009 35 10000 0.43 89 11:53 03.01.2023
396 Clear 30 1013 53 10000 0.94 127 09:26 03.01.2023
397 Clouds 21 1011 90 10000 1.12 97 04:26 03.01.2023
398 Clouds 21 1011 90 10000 1.12 97 03:47 03.01.2023
399 Clouds 21 1010 88 10000 0.8 101 03:27 03.01.2023
400 Clouds 22 1010 73 10000 0.63 171 23:19 02.01.2023
401 Clouds 23 1010 69 10000 1.12 167 22:26 02.01.2023
402 Clouds 24 1010 66 10000 1.15 170 20:51 02.01.2023
403 Clouds 24 1009 63 10000 1.25 165 20:26 02.01.2023
404 Clouds 25 1008 60 10000 1.33 165 18:45 02.01.2023
405 Clouds 32 1006 40 10000 1.63 112 15:43 02.01.2023
406 Clouds 35 1006 30 10000 1.47 84 13:51 02.01.2023
407 Clouds 34 1009 34 10000 1.49 56 12:19 02.01.2023
408 Clouds 33 1010 38 10000 1.26 56 11:25 02.01.2023
409 Clouds 29 1012 54 10000 1.12 52 08:38 02.01.2023
410 Clouds 21 1011 86 10000 1.05 147 04:38 02.01.2023
411 Clouds 22 1010 86 10000 1.2 170 23:18 01.01.2023
412 Clouds 23 1009 81 10000 1.24 173 21:46 01.01.2023
413 Clouds 23 1009 81 10000 1.38 211 20:49 01.01.2023
414 Clouds 23 1009 77 10000 1.33 227 20:18 01.01.2023
415 Clouds 24 1008 73 10000 1.22 217 18:47 01.01.2023
416 Clouds 27 1006 65 10000 1.44 160 17:23 01.01.2023
417 Clouds 27 1006 65 10000 1.44 160 16:49 01.01.2023
418 Clouds 31 1006 47 10000 1.6 132 15:31 01.01.2023
419 Clouds 34 1006 36 10000 0.87 154 13:48 01.01.2023
420 Clouds 32 1007 42 10000 0.93 170 12:45 01.01.2023
421 Clouds 29 1009 51 10000 1.24 116 11:40 01.01.2023
422 Clouds 30 1011 47 10000 1.76 83 10:53 01.01.2023
423 Clouds 25 1013 73 10000 1.08 102 09:29 01.01.2023
424 Clouds 22 1013 89 10000 1.03 116 08:25 01.01.2023
425 Clouds 23 1013 86 10000 0.87 61 07:30 01.01.2023
426 Clouds 22 1013 90 10000 1.23 70 06:39 01.01.2023
427 Clouds 21 1011 93 10000 0.97 141 23:45 31.12.2022
428 Clouds 22 1012 93 10000 0.93 150 23:20 31.12.2022
429 Clouds 22 1012 93 10000 0.71 135 21:45 31.12.2022
430 Clouds 22 1012 93 10000 0.59 116 21:22 31.12.2022
431 Clouds 22 1011 93 10000 1.12 122 20:20 31.12.2022
432 Clouds 22 1010 91 10000 0.84 140 18:45 31.12.2022
433 Clouds 23 1010 91 10000 0.83 158 18:20 31.12.2022
434 Clouds 23 1010 91 10000 0.83 158 17:55 31.12.2022
435 Clouds 24 1009 88 10000 0.97 162 17:22 31.12.2022
436 Clouds 24 1009 88 10000 0.97 162 16:31 31.12.2022
437 Rain 26 1009 84 10000 0.44 197 15:28 31.12.2022
438 Rain 25 1010 87 10000 0.72 118 13:55 31.12.2022
439 Rain 23 1011 92 10000 0.94 12 13:24 31.12.2022
440 Rain 25 1011 82 10000 1.21 111 12:21 31.12.2022
441 Rain 25 1011 82 10000 1.21 111 11:51 31.12.2022
442 Rain 28 1011 66 7462 1.39 153 10:49 31.12.2022
443 Clouds 29 1012 61 10000 1.43 178 09:56 31.12.2022
444 Clouds 29 1012 61 10000 1.43 178 09:36 31.12.2022
445 Clouds 24 1013 82 10000 1.34 143 07:58 31.12.2022
446 Clouds 23 1011 75 10000 0.3 192 00:59 31.12.2022
447 Clouds 24 1011 72 10000 0.27 177 00:24 31.12.2022
448 Clouds 23 1012 73 10000 0.55 233 22:52 30.12.2022
449 Clouds 23 1012 72 10000 0.79 227 21:54 30.12.2022
450 Clouds 23 1012 72 10000 0.79 227 21:31 30.12.2022
451 Clouds 24 1012 66 10000 0.99 289 20:20 30.12.2022
452 Clouds 26 1010 66 10000 0.67 340 18:28 30.12.2022
453 Clouds 26 1010 66 10000 0.67 340 17:33 30.12.2022
454 Clouds 28 1009 61 10000 1.26 2 15:58 30.12.2022
455 Clouds 30 1008 55 10000 1.06 343 14:54 30.12.2022
456 Clouds 34 1009 35 10000 0.23 24 12:52 30.12.2022
457 Clouds 25 1013 67 10000 1.01 168 08:23 30.12.2022
458 Clouds 20 1012 94 10000 0.5 13 03:47 30.12.2022
459 Clouds 21 1011 94 10000 1.13 161 02:25 30.12.2022
460 Clouds 22 1011 88 10000 1.91 180 23:18 29.12.2022
461 Clouds 23 1011 84 10000 1.52 166 21:32 29.12.2022
462 Clouds 24 1012 78 10000 1.69 160 20:54 29.12.2022
463 Clouds 25 1011 71 10000 1.9 162 20:26 29.12.2022
464 Clouds 26 1010 60 10000 1.13 135 18:32 29.12.2022
465 Clouds 27 1009 56 10000 1.25 131 17:37 29.12.2022
466 Clouds 28 1008 54 10000 1.06 132 17:18 29.12.2022
467 Clouds 28 1008 54 10000 1.06 132 16:44 29.12.2022
468 Clouds 32 1007 42 10000 0.81 150 15:44 29.12.2022
469 Clouds 34 1007 32 10000 0.27 52 13:34 29.12.2022
470 Clouds 34 1007 32 10000 0.27 52 13:34 29.12.2022
471 Clouds 33 1009 35 10000 1.19 27 11:48 29.12.2022
472 Clouds 29 1012 49 10000 1.85 34 09:20 29.12.2022
473 Clouds 22 1010 67 10000 0.42 287 00:37 29.12.2022
474 Clouds 22 1011 67 10000 0.41 157 23:28 28.12.2022
475 Clouds 22 1011 67 10000 0.84 137 21:44 28.12.2022
476 Clouds 22 1011 66 10000 0.85 122 21:18 28.12.2022
477 Clouds 23 1011 63 10000 0.75 97 19:38 28.12.2022
478 Clouds 26 1008 56 10000 0.63 29 16:57 28.12.2022
479 Clouds 32 1007 33 10000 1.48 31 15:25 28.12.2022
480 Clouds 33 1009 29 10000 1.88 23 12:56 28.12.2022
481 Clouds 32 1010 30 10000 1.99 20 12:24 28.12.2022
482 Clouds 31 1012 33 10000 2.08 20 11:29 28.12.2022
483 Clouds 28 1013 44 10000 1.72 44 09:18 28.12.2022
484 Clouds 22 1014 66 10000 1.19 77 07:27 28.12.2022
485 Clouds 22 1013 64 10000 1.16 91 06:43 28.12.2022
486 Clouds 21 1012 67 10000 0.55 111 23:37 27.12.2022
487 Clouds 22 1013 65 10000 0.89 96 20:31 27.12.2022
488 Clouds 22 1012 66 10000 1.15 82 19:40 27.12.2022
489 Clouds 24 1010 65 10000 1.44 106 17:47 27.12.2022
490 Clouds 25 1009 63 10000 1.4 99 16:43 27.12.2022
491 Clouds 29 1009 52 10000 0.94 84 15:31 27.12.2022
492 Clouds 32 1010 36 10000 1.51 36 12:36 27.12.2022
493 Clouds 31 1012 41 10000 1.74 37 11:29 27.12.2022
494 Clouds 30 1013 46 10000 1.7 37 09:47 27.12.2022
495 Clouds 28 1014 52 10000 1.58 35 09:23 27.12.2022
496 Clouds 23 1013 74 10000 0.56 94 06:51 27.12.2022
497 Clouds 20 1012 89 10000 0.96 77 04:31 27.12.2022
498 Clouds 22 1013 81 10000 1.08 156 22:28 26.12.2022
499 Clouds 22 1013 78 10000 1.14 168 21:24 26.12.2022
500 Clouds 22 1013 78 10000 1.14 168 20:39 26.12.2022
501 Clouds 23 1011 68 10000 0.73 109 18:44 26.12.2022
502 Clouds 24 1010 66 10000 0.83 82 17:46 26.12.2022
503 Clouds 31 1009 49 10000 0.82 39 16:21 26.12.2022
504 Clouds 32 1008 37 10000 1.78 39 14:30 26.12.2022
505 Clouds 33 1009 36 10000 1.89 28 12:47 26.12.2022
506 Clouds 26 1014 70 10000 0.98 52 07:59 26.12.2022
507 Clouds 22 1011 87 10000 0.95 159 23:56 25.12.2022
508 Clouds 22 1011 87 10000 0.95 159 23:38 25.12.2022
509 Clouds 22 1012 84 10000 1.3 153 22:27 25.12.2022
510 Clouds 22 1012 84 10000 1.3 153 22:27 25.12.2022
511 Clouds 22 1012 84 10000 1.3 153 21:48 25.12.2022
512 Clouds 24 1010 71 10000 0.79 70 18:50 25.12.2022
513 Clouds 24 1009 73 10000 0.95 44 17:52 25.12.2022
514 Clouds 24 1009 73 10000 0.95 44 17:34 25.12.2022
515 Clouds 30 1007 54 10000 1.33 23 15:21 25.12.2022
516 Clouds 33 1008 39 10000 1.45 10 12:42 25.12.2022
517 Clouds 29 1014 58 10000 1.21 95 08:44 25.12.2022
518 Clouds 21 1012 96 10000 0.51 110 23:40 24.12.2022
519 Clouds 21 1013 96 10000 0.76 52 21:41 24.12.2022
520 Clouds 23 1010 91 10000 1.16 29 18:18 24.12.2022
521 Rain 24 1009 90 10000 1.53 359 16:45 24.12.2022
522 Rain 29 1007 60 10000 0.79 46 14:53 24.12.2022
523 Clouds 31 1008 48 10000 1.21 132 12:43 24.12.2022
524 Clouds 31 1011 53 10000 1.82 141 10:45 24.12.2022
525 Clouds 29 1012 60 10000 1.99 136 10:20 24.12.2022
526 Clouds 29 1012 60 10000 1.99 136 09:36 24.12.2022
527 Clouds 21 1012 95 10000 1.06 168 06:21 24.12.2022
528 Clouds 22 1010 95 10000 0.86 184 02:24 24.12.2022
529 Clouds 21 1011 96 10000 1.32 175 23:37 23.12.2022
530 Clouds 21 1012 96 10000 1.18 161 22:27 23.12.2022
531 Rain 21 1013 96 10000 1.07 145 20:41 23.12.2022
532 Rain 22 1013 93 10000 0.66 165 19:39 23.12.2022
533 Rain 22 1012 92 10000 0.12 105 19:21 23.12.2022
534 Rain 22 1012 92 10000 0.12 105 18:46 23.12.2022
535 Clouds 22 1011 89 10000 1.12 205 18:19 23.12.2022
536 Rain 24 1010 83 10000 0.73 209 16:34 23.12.2022
537 Clouds 27 1009 68 10000 1.19 205 15:30 23.12.2022
538 Clouds 27 1011 65 10000 0.95 198 11:57 23.12.2022
539 Clouds 24 1014 85 10000 1.1 213 09:37 23.12.2022
540 Clouds 21 1013 98 10000 0.42 196 07:59 23.12.2022
541 Rain 21 1013 98 10000 0.55 170 06:52 23.12.2022
542 Clouds 21 1012 97 10000 0.71 174 06:23 23.12.2022
543 Rain 21 1012 98 10000 1.89 267 23:23 22.12.2022
544 Rain 21 1012 98 10000 1.89 267 22:57 22.12.2022
545 Clouds 22 1013 98 10000 1.2 286 21:23 22.12.2022
546 Rain 22 1012 96 6551 1.92 338 19:26 22.12.2022
547 Rain 21 1011 98 7338 2 59 18:41 22.12.2022
548 Rain 23 1008 94 10000 1.52 127 17:23 22.12.2022
549 Rain 23 1008 94 10000 1.52 127 16:39 22.12.2022
550 Rain 25 1007 87 10000 1.51 138 15:35 22.12.2022
551 Rain 26 1007 80 10000 1.05 221 14:51 22.12.2022
552 Rain 27 1006 69 10000 1.67 192 13:34 22.12.2022
553 Rain 32 1007 47 10000 1.16 266 12:59 22.12.2022
554 Clouds 31 1010 53 10000 1.81 217 10:51 22.12.2022
555 Clouds 31 1010 53 10000 1.81 217 10:30 22.12.2022
556 Clouds 28 1012 66 10000 1.24 213 09:20 22.12.2022
557 Clouds 25 1012 85 10000 0.76 214 08:27 22.12.2022
558 Clouds 21 1010 98 10000 1.09 172 05:28 22.12.2022
559 Clouds 21 1009 98 10000 1.15 189 04:18 22.12.2022
560 Rain 21 1010 98 10000 1.08 206 23:50 21.12.2022
561 Rain 21 1011 97 10000 0.66 97 21:58 21.12.2022
562 Rain 21 1011 96 9840 0.76 128 21:23 21.12.2022
563 Rain 21 1011 96 9840 0.76 128 20:50 21.12.2022
564 Rain 22 1010 91 10000 0.73 163 20:18 21.12.2022
565 Rain 22 1010 91 10000 0.73 163 19:43 21.12.2022
566 Rain 22 1009 93 10000 0.91 61 19:23 21.12.2022
567 Rain 22 1009 93 10000 0.91 61 18:45 21.12.2022
568 Clouds 25 1008 79 10000 1.3 21 17:36 21.12.2022
569 Clouds 31 1006 49 10000 0.62 301 14:41 21.12.2022
570 Clouds 32 1007 47 10000 0.82 290 12:58 21.12.2022
571 Clouds 32 1008 48 10000 0.83 250 11:42 21.12.2022
572 Clouds 31 1010 53 10000 1.06 222 11:19 21.12.2022
573 Clouds 27 1012 70 10000 1.01 192 09:25 21.12.2022
574 Clouds 24 1012 84 10000 1.13 187 07:32 21.12.2022
575 Clouds 21 1009 97 10000 1.1 214 01:56 21.12.2022
576 Clouds 21 1010 98 10000 0.96 197 22:43 20.12.2022
577 Clouds 21 1010 98 10000 1.1 176 21:21 20.12.2022
578 Clouds 22 1010 97 10000 1.84 181 20:22 20.12.2022
579 Clouds 22 1010 97 10000 1.84 181 19:33 20.12.2022
580 Rain 23 1008 96 10000 1.42 186 18:29 20.12.2022
581 Rain 23 1008 96 10000 1.42 186 17:55 20.12.2022
582 Rain 23 1008 96 10000 1.42 186 17:32 20.12.2022
583 Rain 23 1007 94 7664 0.84 172 16:32 20.12.2022
584 Rain 25 1006 91 10000 0.98 255 15:29 20.12.2022
585 Rain 25 1006 91 10000 0.98 255 14:43 20.12.2022
586 Rain 26 1006 86 10000 1.44 257 14:25 20.12.2022
587 Rain 30 1006 61 10000 1.41 223 12:44 20.12.2022
588 Rain 29 1008 67 9749 0.93 228 12:25 20.12.2022
589 Rain 29 1008 67 9749 0.93 228 11:31 20.12.2022
590 Clouds 25 1012 83 10000 1.44 195 08:27 20.12.2022
591 Clouds 22 1008 97 10000 1.17 220 00:32 20.12.2022
592 Clouds 22 1008 97 10000 1.07 198 22:37 19.12.2022
593 Clouds 22 1009 98 10000 1.12 222 21:41 19.12.2022
594 Rain 22 1009 97 10000 0.9 46 19:56 19.12.2022
595 Rain 22 1009 97 10000 0.9 46 19:38 19.12.2022
596 Rain 22 1008 95 10000 1.07 82 18:24 19.12.2022
597 Rain 25 1006 82 10000 0.97 114 16:35 19.12.2022
598 Clouds 29 1007 63 10000 1.67 82 13:26 19.12.2022
599 Clouds 30 1008 57 10000 0.87 82 11:55 19.12.2022
600 Clouds 23 1010 93 10000 0.3 155 10:34 19.12.2022
601 Clouds 22 1011 95 10000 0.36 172 07:40 19.12.2022
602 Clouds 21 1009 99 10000 0.98 130 02:48 19.12.2022
603 Clouds 21 1009 98 10000 1.19 235 22:33 18.12.2022
604 Clouds 21 1010 97 10000 1.21 239 21:43 18.12.2022
605 Clouds 23 1010 91 10000 1.15 195 21:21 18.12.2022
606 Clouds 23 1010 90 10000 0.72 183 19:50 18.12.2022
607 Clouds 23 1010 90 10000 0.72 183 19:31 18.12.2022
608 Clouds 24 1008 87 10000 0.3 311 17:53 18.12.2022
609 Rain 27 1007 75 10000 0.35 257 16:28 18.12.2022
610 Rain 27 1007 75 10000 0.35 257 15:39 18.12.2022
611 Clouds 29 1006 59 10000 0.63 134 15:19 18.12.2022
612 Clouds 31 1006 50 10000 0.58 357 13:37 18.12.2022
613 Clouds 33 1007 43 10000 0.75 23 12:52 18.12.2022
614 Rain 33 1008 47 10000 0.98 1 12:19 18.12.2022
615 Rain 30 1010 61 10000 0.88 341 10:20 18.12.2022
616 Clouds 29 1011 62 10000 0.22 188 08:47 18.12.2022
617 Clouds 25 1010 78 10000 0.86 193 07:21 18.12.2022
618 Clouds 22 1010 91 10000 0.69 184 06:20 18.12.2022
619 Clouds 21 1008 93 10000 0.58 135 03:38 18.12.2022
620 Clouds 22 1007 87 10000 0.72 200 23:40 17.12.2022
621 Clouds 22 1008 85 10000 1.16 205 21:54 17.12.2022
622 Clouds 24 1007 78 10000 0.13 308 19:27 17.12.2022
623 Clouds 27 1005 71 10000 0.83 64 16:49 17.12.2022
624 Clouds 30 1004 57 10000 0.97 45 14:30 17.12.2022
625 Clouds 34 1007 41 10000 1.26 48 11:38 17.12.2022
626 Clouds 33 1008 45 10000 1.15 61 10:47 17.12.2022
627 Clouds 32 1009 49 10000 0.99 78 09:46 17.12.2022
628 Clouds 27 1011 67 10000 0.73 124 07:48 17.12.2022
629 Clouds 24 1010 79 10000 0.75 129 06:46 17.12.2022
630 Clouds 21 1008 93 10000 0.32 122 23:57 16.12.2022
631 Clear 22 1009 91 10000 0.45 74 21:22 16.12.2022
632 Clear 23 1008 91 10000 0.96 47 19:57 16.12.2022
633 Clouds 26 1006 73 10000 0.59 58 16:55 16.12.2022
634 Clouds 28 1005 66 10000 0.8 35 14:49 16.12.2022
635 Clouds 28 1005 64 10000 0.76 82 13:48 16.12.2022
636 Clouds 33 1007 43 10000 1.04 88 11:59 16.12.2022
637 Clouds 30 1010 53 10000 1.44 112 10:22 16.12.2022
638 Clouds 28 1011 61 10000 1.33 132 09:25 16.12.2022
639 Clouds 25 1011 79 10000 1.13 160 08:25 16.12.2022
640 Clouds 25 1011 79 10000 1.13 160 07:53 16.12.2022
641 Rain 20 1010 96 10000 1.08 161 23:31 15.12.2022
642 Rain 21 1011 93 10000 0.73 297 22:29 15.12.2022
643 Rain 21 1011 90 10000 0.04 134 20:40 15.12.2022
644 Rain 23 1010 83 10000 1.08 177 19:37 15.12.2022
645 Clouds 24 1008 76 10000 0.43 237 18:25 15.12.2022
646 Clouds 26 1007 70 10000 0.17 111 17:26 15.12.2022
647 Clouds 27 1006 66 10000 0.85 16 15:36 15.12.2022
648 Clouds 33 1006 41 10000 1.58 34 13:52 15.12.2022
649 Clouds 32 1007 45 10000 1.2 38 12:34 15.12.2022
650 Clouds 27 1011 63 10000 1.09 111 09:42 15.12.2022
651 Clouds 23 1012 82 10000 0.86 170 08:54 15.12.2022
652 Clouds 20 1012 96 10000 1.1 169 06:24 15.12.2022
653 Clouds 19 1011 99 10000 0.98 147 04:54 15.12.2022
654 Rain 21 1012 97 10000 0.87 154 21:25 14.12.2022
655 Rain 21 1012 97 10000 0.87 154 20:59 14.12.2022
656 Rain 21 1012 97 10000 0.87 154 20:31 14.12.2022
657 Rain 22 1011 91 10000 0.7 147 18:26 14.12.2022
658 Clouds 24 1010 84 10000 0.51 112 16:57 14.12.2022
659 Clouds 26 1009 74 10000 0.79 72 15:40 14.12.2022
660 Clouds 27 1009 64 10000 0.65 69 14:22 14.12.2022
661 Clouds 25 1011 72 10000 0.42 95 12:21 14.12.2022
662 Clouds 25 1012 70 10000 0.91 143 10:36 14.12.2022
663 Clouds 25 1014 71 10000 1.4 146 09:25 14.12.2022
664 Clouds 19 1012 99 10000 0.61 63 00:51 14.12.2022
665 Clouds 19 1014 98 10000 0.96 85 21:49 13.12.2022
666 Clouds 19 1014 99 10000 0.92 80 21:19 13.12.2022
667 Clouds 19 1014 99 10000 0.92 80 20:46 13.12.2022
668 Clouds 20 1011 98 10000 0.85 343 17:55 13.12.2022
669 Clouds 20 1011 98 10000 0.79 42 16:22 13.12.2022
670 Clouds 21 1011 97 10000 1.04 70 14:52 13.12.2022
671 Rain 21 1012 97 10000 0.86 81 12:43 13.12.2022
672 Clouds 21 1014 98 10000 0.85 76 10:38 13.12.2022
673 Clouds 21 1014 97 10000 0.54 130 09:44 13.12.2022
674 Clouds 21 1014 98 10000 1.22 159 07:43 13.12.2022
675 Rain 22 1011 98 10000 1.3 201 22:23 12.12.2022
676 Rain 22 1011 98 10000 0.62 152 21:28 12.12.2022
677 Clouds 22 1010 98 10000 0.88 180 19:28 12.12.2022
678 Clouds 22 1009 97 10000 1.12 198 17:34 12.12.2022
679 Rain 26 1006 76 10000 0.73 198 15:23 12.12.2022
680 Clouds 25 1009 81 10000 0.32 193 12:26 12.12.2022
681 Clouds 30 1010 56 10000 1.15 132 09:20 12.12.2022
682 Clouds 22 1009 91 10000 1.08 126 05:42 12.12.2022
683 Clouds 21 1009 94 10000 0.85 124 03:53 12.12.2022
684 Clouds 23 1009 90 10000 0.9 217 23:21 11.12.2022
685 Rain 23 1010 88 10000 0.78 129 21:29 11.12.2022
686 Clouds 24 1009 78 10000 0.51 124 19:54 11.12.2022
687 Clouds 24 1009 78 10000 0.51 124 19:36 11.12.2022
688 Clouds 26 1007 68 10000 0.33 91 18:24 11.12.2022
689 Clouds 26 1007 68 10000 0.33 91 17:33 11.12.2022
690 Clouds 27 1006 70 10000 0.66 41 16:52 11.12.2022
691 Clouds 29 1006 62 10000 0.71 14 15:47 11.12.2022
692 Clouds 30 1005 56 10000 0.78 39 14:50 11.12.2022
693 Clouds 34 1006 39 10000 1.57 56 13:21 11.12.2022
694 Clouds 34 1006 39 10000 1.57 56 12:40 11.12.2022
695 Clouds 30 1011 55 10000 1.17 121 08:56 11.12.2022
696 Rain 22 1010 92 10000 0.73 114 00:35 11.12.2022
697 Clouds 22 1010 91 10000 0.53 109 23:32 10.12.2022
698 Clouds 22 1011 90 10000 0.83 135 22:33 10.12.2022
699 Rain 23 1011 89 10000 0.67 53 21:22 10.12.2022
700 Rain 23 1011 89 10000 0.67 53 20:39 10.12.2022
701 Clouds 23 1011 83 10000 0.66 134 19:54 10.12.2022
702 Clouds 25 1008 75 10000 0.92 134 16:59 10.12.2022
703 Clouds 25 1008 75 10000 0.92 134 16:34 10.12.2022
704 Clouds 29 1007 62 10000 0.9 135 15:39 10.12.2022
705 Clouds 30 1007 53 10000 0.96 147 14:58 10.12.2022
706 Clouds 29 1009 58 10000 1.13 170 12:54 10.12.2022
707 Clouds 27 1010 65 10000 1.41 155 11:46 10.12.2022
708 Clouds 28 1011 58 10000 1.47 151 10:45 10.12.2022
709 Clouds 28 1012 58 10000 1.5 159 09:38 10.12.2022
710 Clouds 23 1013 88 10000 1.43 147 07:20 10.12.2022
711 Clouds 21 1011 97 10000 0.96 182 01:58 10.12.2022
712 Clouds 21 1012 97 10000 1.01 148 23:19 09.12.2022
713 Clouds 21 1012 97 10000 1.01 148 22:40 09.12.2022
714 Clouds 21 1012 95 10000 1.15 149 21:26 09.12.2022
715 Clouds 21 1012 95 10000 1.15 149 20:42 09.12.2022
716 Clouds 21 1012 97 10000 0.97 128 18:59 09.12.2022
717 Rain 22 1011 96 10000 0.89 110 17:55 09.12.2022
718 Rain 23 1011 95 10000 1.07 93 16:32 09.12.2022
719 Rain 25 1010 90 10000 0.91 88 15:45 09.12.2022
720 Rain 26 1010 87 10000 1.01 87 15:18 09.12.2022
721 Rain 27 1012 67 10000 1.02 168 11:34 09.12.2022
722 Clouds 27 1013 63 10000 1 182 10:37 09.12.2022
723 Clouds 25 1015 73 10000 1.38 157 08:55 09.12.2022
724 Clouds 20 1012 99 10000 1.29 184 03:19 09.12.2022
725 Clouds 20 1012 99 10000 0.52 230 00:32 09.12.2022
726 Rain 21 1014 99 10000 0.64 284 22:20 08.12.2022
727 Rain 21 1014 98 10000 0.54 279 20:51 08.12.2022
728 Clouds 21 1012 97 10000 1.28 308 17:51 08.12.2022
729 Clouds 23 1010 91 10000 1.47 298 15:39 08.12.2022
730 Rain 25 1010 73 10000 1.74 278 14:25 08.12.2022
731 Rain 23 1012 87 10000 1.16 237 11:32 08.12.2022
732 Rain 21 1014 98 10000 1.32 225 09:51 08.12.2022
733 Rain 22 1014 94 10000 1.21 197 09:23 08.12.2022
734 Rain 21 1009 98 10000 0.69 157 02:26 08.12.2022
735 Rain 21 1011 98 10000 1.64 126 22:19 07.12.2022
736 Rain 21 1011 98 10000 1.64 126 21:50 07.12.2022
737 Rain 21 1011 98 10000 1.64 126 21:31 07.12.2022
738 Rain 22 1009 95 10000 0.89 104 19:38 07.12.2022
739 Rain 24 1007 91 9315 1.39 156 17:27 07.12.2022
740 Clouds 28 1006 65 10000 1.86 223 14:41 07.12.2022
741 Rain 32 1008 50 10000 1.44 127 11:43 07.12.2022
742 Rain 32 1009 51 10000 1.18 134 10:40 07.12.2022
743 Clouds 31 1010 55 10000 1.29 150 09:51 07.12.2022
744 Clouds 29 1011 63 10000 1.43 151 08:47 07.12.2022
745 Clouds 23 1011 91 10000 1.58 149 06:48 07.12.2022
746 Clouds 20 1010 99 10000 1.09 161 05:23 07.12.2022
747 Clouds 22 1010 90 10000 1.19 62 22:40 06.12.2022
748 Clouds 23 1010 85 10000 0.92 130 20:35 06.12.2022
749 Clouds 25 1008 74 10000 0.68 33 18:21 06.12.2022
750 Clouds 26 1007 70 10000 0.99 9 16:41 06.12.2022
751 Clouds 29 1007 64 10000 0.79 40 15:51 06.12.2022
752 Clouds 30 1007 53 10000 0.91 71 15:20 06.12.2022
753 Clouds 32 1007 46 10000 1.1 56 14:25 06.12.2022
754 Clouds 33 1008 45 10000 1.17 60 12:58 06.12.2022
755 Clouds 33 1008 45 10000 1.17 60 12:40 06.12.2022
756 Clouds 28 1012 63 10000 1.39 140 08:44 06.12.2022
757 Clouds 21 1012 98 10000 0.75 165 05:57 06.12.2022
758 Clouds 20 1011 99 10000 0.99 165 01:26 06.12.2022
759 Rain 21 1013 99 10000 1.03 143 22:34 05.12.2022
760 Rain 21 1013 99 10000 1.13 155 20:55 05.12.2022
761 Rain 21 1013 99 10000 1.07 136 20:26 05.12.2022
762 Rain 21 1013 99 10000 1.07 136 19:45 05.12.2022
763 Clouds 22 1010 96 10000 1.45 162 17:49 05.12.2022
764 Clouds 24 1009 90 10000 1.19 194 16:47 05.12.2022
765 Clouds 26 1008 80 10000 0.75 284 15:22 05.12.2022
766 Clouds 28 1009 62 10000 0.66 155 12:59 05.12.2022
767 Clouds 28 1009 62 10000 0.66 155 12:40 05.12.2022
768 Clouds 29 1011 62 10000 0.91 122 12:19 05.12.2022
769 Clouds 25 1012 82 10000 0.81 129 10:58 05.12.2022
770 Clouds 21 1010 99 10000 1.31 193 00:21 05.12.2022
771 Rain 21 1010 99 10000 0.99 192 22:45 04.12.2022
772 Clouds 21 1010 99 10000 0.81 184 22:20 04.12.2022
773 Clouds 21 1010 99 10000 0.81 184 21:59 04.12.2022
774 Rain 22 1010 98 10000 1.28 190 20:49 04.12.2022
775 Rain 22 1010 96 10000 1.8 195 19:28 04.12.2022
776 Rain 22 1010 96 10000 1.8 195 18:59 04.12.2022
777 Rain 24 1007 87 10000 1.48 203 17:23 04.12.2022
778 Rain 24 1007 87 10000 1.48 203 16:54 04.12.2022
779 Rain 24 1007 87 10000 1.48 203 16:36 04.12.2022
780 Rain 27 1006 74 10000 1.44 247 16:18 04.12.2022
781 Rain 29 1004 62 10000 0.45 257 14:44 04.12.2022
782 Clouds 29 1004 58 10000 1.38 338 13:37 04.12.2022
783 Clouds 32 1005 46 10000 2.43 338 12:44 04.12.2022
784 Clouds 32 1006 46 10000 1.8 351 11:58 04.12.2022
785 Clouds 32 1008 52 10000 0.84 20 09:33 04.12.2022
786 Clouds 24 1009 85 10000 0.87 151 07:31 04.12.2022
787 Clouds 21 1007 96 10000 0.7 17 00:59 04.12.2022
788 Clouds 22 1007 95 10000 0.76 166 23:43 03.12.2022
789 Rain 22 1008 91 10000 0.35 286 22:22 03.12.2022
790 Rain 23 1008 90 10000 0.76 20 21:21 03.12.2022
791 Rain 23 1007 87 10000 1.03 267 20:23 03.12.2022
792 Clouds 25 1005 75 10000 0.96 156 18:40 03.12.2022
793 Clouds 27 1004 68 10000 1.37 118 16:57 03.12.2022
794 Clouds 34 1003 37 10000 1.82 71 14:28 03.12.2022
795 Clouds 34 1004 39 10000 1.4 81 12:55 03.12.2022
796 Clouds 34 1005 43 10000 1.16 102 12:24 03.12.2022
797 Clouds 30 1007 56 10000 1.5 119 10:26 03.12.2022
798 Clouds 27 1008 67 10000 1.33 120 07:39 03.12.2022
799 Rain 20 1007 97 10000 0.44 180 01:30 03.12.2022
800 Clouds 21 1008 85 10000 0.24 80 22:50 02.12.2022
801 Clouds 23 1007 80 10000 1.07 98 20:54 02.12.2022
802 Clouds 23 1007 80 10000 1.07 98 20:54 02.12.2022
803 Clouds 24 1006 75 10000 1.1 57 19:26 02.12.2022
804 Clouds 27 1004 66 10000 1.36 69 15:59 02.12.2022
805 Clouds 30 1004 55 10000 1.7 76 14:44 02.12.2022
806 Clouds 33 1004 41 10000 2.02 69 14:26 02.12.2022
807 Clouds 32 1005 43 10000 1.5 100 13:26 02.12.2022
808 Clouds 32 1006 45 10000 1.34 105 11:41 02.12.2022
809 Clouds 27 1011 65 10000 1.45 129 08:48 02.12.2022
810 Clouds 22 1011 86 10000 1.12 137 07:24 02.12.2022
811 Clouds 20 1010 99 10000 0.72 150 23:54 01.12.2022
812 Clouds 20 1011 98 10000 1.3 145 21:59 01.12.2022
813 Clouds 20 1011 98 10000 1.3 145 21:37 01.12.2022
814 Clouds 21 1011 95 10000 1.26 127 20:18 01.12.2022
815 Clouds 22 1009 91 10000 1.13 137 18:23 01.12.2022
816 Rain 26 1007 78 10000 0.82 148 16:20 01.12.2022
817 Clouds 28 1008 59 10000 2.17 166 12:35 01.12.2022
818 Rain 26 1012 75 10000 2.59 151 10:28 01.12.2022
819 Rain 26 1012 75 10000 2.59 151 09:54 01.12.2022
820 Rain 26 1012 75 10000 2.59 151 09:36 01.12.2022
821 Clouds 20 1010 99 10000 0.59 175 03:33 01.12.2022
822 Clouds 20 1012 99 10000 0.8 300 22:39 30.11.2022
823 Clouds 20 1012 98 10000 0.83 258 21:19 30.11.2022
824 Clouds 20 1012 98 10000 0.83 258 20:47 30.11.2022
825 Clouds 21 1012 95 10000 0.94 298 20:23 30.11.2022
826 Clouds 21 1010 94 10000 0.54 202 18:34 30.11.2022
827 Clouds 22 1009 93 10000 0.44 200 17:36 30.11.2022
828 Clouds 25 1007 79 10000 0.87 248 16:19 30.11.2022
829 Clouds 25 1007 73 10000 1.17 250 14:39 30.11.2022
830 Clouds 26 1007 71 10000 1.27 237 14:20 30.11.2022
831 Clouds 25 1009 77 10000 1.98 192 11:34 30.11.2022
832 Clouds 21 1012 96 10000 1.67 190 08:40 30.11.2022
833 Clouds 21 1012 96 10000 1.67 190 08:40 30.11.2022
834 Rain 21 1011 98 10000 2.16 196 07:58 30.11.2022
835 Rain 20 1009 94 10000 1.18 150 23:42 29.11.2022
836 Clouds 21 1009 90 10000 0.88 155 23:21 29.11.2022
837 Clouds 21 1009 88 10000 0.62 179 21:39 29.11.2022
838 Clouds 21 1009 86 10000 1.08 187 20:37 29.11.2022
839 Clouds 22 1007 88 10000 1.05 152 19:18 29.11.2022
840 Rain 22 1007 87 10000 1.04 123 17:36 29.11.2022
841 Clouds 26 1005 67 10000 1.68 60 16:26 29.11.2022
842 Clouds 27 1005 60 10000 2.6 50 14:50 29.11.2022
843 Clouds 29 1004 56 10000 2.46 53 13:35 29.11.2022
844 Clouds 32 1006 44 10000 1.72 73 11:57 29.11.2022
845 Clouds 31 1008 45 10000 1.67 93 11:18 29.11.2022
846 Clouds 23 1018 64 8000 4.12 180 09:47 29.11.2022
847 Clouds 28 1010 56 10000 1.59 100 08:42 29.11.2022
848 Clouds 20 1007 87 10000 0.82 107 01:30 29.11.2022
849 Clouds 19 1009 93 10000 0.97 120 23:35 28.11.2022
850 Clouds 19 1009 94 10000 1.12 119 22:53 28.11.2022
851 Clouds 19 1010 93 10000 1.14 94 21:44 28.11.2022
852 Clouds 19 1010 91 10000 1.33 83 21:21 28.11.2022
853 Clouds 19 1009 91 10000 1.34 97 19:39 28.11.2022
854 Clouds 21 1007 84 10000 1.06 99 18:29 28.11.2022
855 Clouds 26 1006 83 8000 0 0 17:51 28.11.2022
856 Clouds 23 1006 81 10000 1.15 147 16:25 28.11.2022
857 Clouds 24 1006 76 10000 1.5 191 14:24 28.11.2022
858 Clouds 24 1006 76 10000 1.5 191 13:51 28.11.2022
859 Clouds 28 1010 69 10000 3.09 340 12:35 28.11.2022
860 Clouds 24 1011 94 7000 3.09 180 09:27 28.11.2022
861 Clouds 22 1011 88 10000 1.58 135 07:19 28.11.2022
862 Clouds 19 1010 98 10000 1 156 04:42 28.11.2022
863 Clouds 19 1009 99 10000 0.94 167 03:58 28.11.2022
864 Clouds 19 1009 98 10000 1.05 180 01:27 28.11.2022
865 Clouds 19 1010 99 10000 0.82 150 22:42 27.11.2022
866 Clouds 20 1010 98 10000 1.04 155 21:28 27.11.2022
867 Clouds 20 1010 98 10000 1.05 159 20:22 27.11.2022
868 Clouds 21 1008 92 10000 1.18 160 17:34 27.11.2022
869 Clouds 25 1007 75 10000 1.27 196 14:33 27.11.2022
870 Rain 23 1009 93 10000 1.41 191 12:32 27.11.2022
871 Rain 22 1011 95 10000 0.7 205 10:44 27.11.2022
872 Clouds 21 1011 99 10000 2.36 178 07:57 27.11.2022
873 Clouds 21 1010 98 10000 0.5 124 00:36 27.11.2022
874 Clouds 21 1011 94 10000 0.76 208 22:22 26.11.2022
875 Clouds 22 1011 94 10000 0.79 200 20:51 26.11.2022
876 Clouds 22 1010 94 10000 1.15 204 19:23 26.11.2022
877 Clouds 23 1008 87 10000 1.59 218 16:59 26.11.2022
878 Clouds 24 1008 81 10000 1.83 186 15:39 26.11.2022
879 Rain 27 1007 67 10000 2.51 193 13:31 26.11.2022
880 Clouds 24 1010 88 10000 1.56 189 11:24 26.11.2022
881 Rain 23 1011 97 10000 0.86 199 09:45 26.11.2022
882 Rain 23 1011 97 9564 0.68 195 08:49 26.11.2022
883 Rain 22 1008 94 10000 0.65 18 00:20 26.11.2022
884 Clouds 24 1008 84 10000 0.75 3 21:41 25.11.2022
885 Clouds 24 1008 82 10000 0.77 21 21:19 25.11.2022
886 Clouds 25 1008 78 10000 0.87 41 19:44 25.11.2022
887 Clouds 27 1005 72 10000 0.68 73 16:40 25.11.2022
888 Clouds 30 1008 66 10000 3.09 340 13:43 25.11.2022
889 Clouds 30 1010 57 10000 1.39 49 09:19 25.11.2022
890 Clouds 30 1010 57 10000 1.39 49 08:38 25.11.2022
891 Rain 24 1011 89 10000 0.74 53 06:52 25.11.2022
892 Clouds 21 1008 97 10000 0.96 80 02:31 25.11.2022
893 Clouds 22 1008 92 10000 0.54 54 23:47 24.11.2022
894 Clouds 22 1008 91 10000 0.78 184 22:42 24.11.2022
895 Clouds 22 1009 91 10000 0.75 158 21:45 24.11.2022
896 Rain 23 1009 90 10000 0.52 91 19:49 24.11.2022
897 Clouds 25 1007 79 10000 0.21 35 17:48 24.11.2022
898 Clouds 26 1006 76 10000 0.52 56 17:24 24.11.2022
899 Clouds 26 1006 76 10000 0.52 56 16:40 24.11.2022
900 Clouds 29 1006 63 10000 0.75 130 14:26 24.11.2022
901 Clouds 31 1007 50 10000 1.36 93 13:19 24.11.2022
902 Clouds 32 1008 44 10000 1.8 60 11:46 24.11.2022
903 Clouds 32 1008 44 10000 1.8 60 11:45 24.11.2022
904 Clouds 32 1008 44 10000 1.8 60 11:45 24.11.2022
905 Clouds 29 1012 60 10000 1.11 68 09:23 24.11.2022
906 Clouds 21 1012 96 10000 0.53 106 06:23 24.11.2022
907 Clouds 21 1010 98 10000 0.28 18 00:48 24.11.2022
908 Rain 21 1011 98 10000 0.33 0 23:32 23.11.2022
909 Rain 22 1011 95 10000 0.27 160 21:53 23.11.2022
910 Rain 22 1011 94 10000 0.95 137 21:18 23.11.2022
911 Clouds 22 1011 93 10000 1.08 128 19:55 23.11.2022
912 Rain 23 1010 85 10000 0.41 141 18:57 23.11.2022
913 Clouds 24 1008 78 10000 0.62 207 18:19 23.11.2022
914 Clouds 28 1008 62 10000 0.93 131 14:28 23.11.2022
915 Clouds 27 1009 67 10000 1.62 140 13:24 23.11.2022
916 Clouds 31 1008 48 10000 0.36 62 12:41 23.11.2022
917 Clouds 32 1009 46 10000 0.46 85 11:51 23.11.2022
918 Clouds 32 1011 48 10000 0.71 85 10:48 23.11.2022
919 Clouds 30 1012 53 10000 0.71 90 10:18 23.11.2022
920 Clouds 30 1012 53 10000 0.71 90 09:40 23.11.2022
921 Clouds 28 1013 60 10000 0.77 72 09:21 23.11.2022
922 Clouds 28 1013 60 10000 0.77 72 08:36 23.11.2022
923 Clouds 20 1013 99 10000 0.46 138 05:20 23.11.2022
924 Clouds 20 1011 98 10000 0.17 129 01:53 23.11.2022
925 Clouds 20 1013 98 10000 0.69 105 22:37 22.11.2022
926 Clouds 20 1013 98 10000 0.93 94 21:51 22.11.2022
927 Clouds 20 1013 98 10000 0.93 94 21:31 22.11.2022
928 Clouds 21 1013 98 10000 1.03 113 20:44 22.11.2022
929 Clouds 21 1013 98 10000 0.81 146 19:47 22.11.2022
930 Clouds 22 1012 95 10000 1.07 158 17:54 22.11.2022
931 Clouds 22 1011 93 10000 0.77 144 16:48 22.11.2022
932 Clouds 27 1011 69 10000 5.14 180 14:43 22.11.2022
933 Clouds 24 1011 81 10000 1.91 234 12:56 22.11.2022
934 Clouds 25 1015 78 8000 4.12 180 09:42 22.11.2022
935 Clouds 22 1014 95 10000 1.43 209 08:58 22.11.2022
936 Clouds 23 1013 94 6000 2.06 90 06:45 22.11.2022
937 Rain 21 1010 100 4517 0.63 253 00:59 22.11.2022
938 Rain 21 1011 99 10000 1.15 220 23:23 21.11.2022
939 Rain 21 1012 99 10000 1.13 206 22:26 21.11.2022
940 Rain 21 1012 99 10000 1.13 206 21:33 21.11.2022
941 Rain 21 1011 98 10000 0.33 220 20:34 21.11.2022
942 Rain 23 1010 83 10000 0.28 145 19:39 21.11.2022
943 Clouds 24 1008 79 10000 0.75 96 18:52 21.11.2022
944 Clouds 28 1009 74 8000 1.54 0 17:44 21.11.2022
945 Clouds 26 1006 71 10000 0.87 25 16:44 21.11.2022
946 Clouds 27 1005 67 10000 1.24 41 16:23 21.11.2022
947 Clouds 30 1008 58 10000 1.54 0 15:24 21.11.2022
948 Clouds 29 1011 65 7000 2.06 210 13:54 21.11.2022
949 Clouds 34 1006 39 10000 2.03 46 13:27 21.11.2022
950 Clouds 32 1010 49 10000 1.48 56 10:19 21.11.2022
951 Clouds 27 1012 71 10000 1.31 77 07:52 21.11.2022
952 Clouds 21 1009 98 10000 0.89 50 00:50 21.11.2022
953 Rain 21 1010 95 10000 0.98 0 21:47 20.11.2022
954 Rain 22 1010 93 10000 1.17 21 20:48 20.11.2022
955 Clouds 23 1009 81 10000 0.83 12 19:57 20.11.2022
956 Clouds 29 1009 70 10000 0 0 17:43 20.11.2022
957 Clouds 27 1007 70 10000 1.75 335 15:50 20.11.2022
958 Clouds 27 1006 69 10000 1.64 1 15:24 20.11.2022
959 Clouds 30 1006 57 10000 1.52 25 14:25 20.11.2022
960 Clouds 32 1010 51 10000 4.12 90 13:32 20.11.2022
961 Clouds 34 1008 41 10000 1.34 61 12:23 20.11.2022
962 Clouds 33 1010 45 10000 1 100 10:58 20.11.2022
963 Clouds 32 1011 51 10000 0.87 101 09:44 20.11.2022
964 Clouds 30 1012 59 10000 0.68 79 08:55 20.11.2022
965 Clouds 30 1012 59 10000 0.68 79 08:55 20.11.2022
966 Clouds 30 1012 59 10000 0.68 79 08:32 20.11.2022
967 Clouds 30 1012 59 10000 0.68 79 08:32 20.11.2022
968 Clouds 23 1012 91 10000 1.03 154 07:27 20.11.2022
969 Clouds 20 1011 98 10000 1.01 90 01:30 20.11.2022
970 Clouds 20 1011 98 10000 0.66 71 00:57 20.11.2022
971 Clouds 20 1011 98 10000 0.66 71 00:38 20.11.2022
972 Clouds 20 1011 98 10000 0.68 104 00:19 20.11.2022
973 Clouds 20 1011 98 10000 0.68 104 23:34 19.11.2022
974 Clouds 21 1012 97 10000 1.12 127 22:49 19.11.2022
975 Clouds 21 1012 97 10000 1.1 122 22:18 19.11.2022
976 Clouds 21 1012 96 10000 0.42 115 21:28 19.11.2022
977 Clouds 21 1012 92 10000 0.68 150 20:41 19.11.2022
978 Clouds 22 1011 90 10000 0.54 159 20:22 19.11.2022
979 Clouds 22 1011 91 10000 0.4 208 18:54 19.11.2022
980 Thunderstorm 26 1010 83 8000 0 0 17:39 19.11.2022
981 Clouds 24 1009 85 10000 0.88 39 17:18 19.11.2022
982 Rain 27 1008 73 10000 0.75 46 15:33 19.11.2022
983 Clouds 30 1008 53 10000 1.43 147 13:36 19.11.2022
984 Clouds 30 1012 62 10000 2.06 160 11:57 19.11.2022
985 Clouds 25 1013 78 10000 1.79 152 10:19 19.11.2022
986 Clouds 22 1014 96 10000 1.23 154 08:19 19.11.2022
987 Clouds 22 1014 96 10000 1.23 154 08:19 19.11.2022
988 Rain 20 1012 100 10000 1.2 143 04:45 19.11.2022
989 Clouds 20 1011 98 10000 1.06 148 01:50 19.11.2022
990 Clouds 20 1012 97 10000 1.04 124 23:37 18.11.2022
991 Clouds 20 1012 97 10000 1.04 124 23:37 18.11.2022
992 Clouds 20 1012 97 10000 1.04 124 23:37 18.11.2022
993 Clouds 21 1013 97 10000 0.78 167 22:25 18.11.2022
994 Clouds 21 1013 97 10000 0.78 167 21:36 18.11.2022
995 Clouds 21 1013 96 10000 0.67 166 20:58 18.11.2022
996 Clouds 21 1013 97 10000 0.86 170 20:25 18.11.2022
997 Clouds 21 1013 97 10000 0.86 170 19:44 18.11.2022
998 Clouds 21 1012 97 10000 1.13 176 17:46 18.11.2022
999 Clouds 24 1011 88 8000 3.09 180 16:37 18.11.2022
1000 Clouds 23 1011 86 10000 1.3 166 13:36 18.11.2022
1001 Clouds 22 1013 92 10000 1.12 135 11:22 18.11.2022
1002 Rain 22 1014 93 10000 1.12 171 07:58 18.11.2022
1003 Rain 21 1013 98 10000 0.91 150 06:18 18.11.2022
1004 Clouds 20 1012 99 10000 0.99 151 04:53 18.11.2022
1005 Clouds 20 1011 99 10000 0.23 132 23:52 17.11.2022
1006 Clouds 21 1012 99 10000 0.24 131 20:48 17.11.2022
1007 Clouds 21 1012 99 10000 0.39 112 20:25 17.11.2022
1008 Clouds 21 1012 99 10000 0.39 112 19:49 17.11.2022
1009 Clouds 21 1011 99 10000 0.72 84 18:34 17.11.2022
1010 Clouds 21 1010 99 10000 0.75 80 17:32 17.11.2022
1011 Clouds 22 1009 99 10000 0.38 43 16:33 17.11.2022
1012 Rain 22 1012 99 10000 0.44 132 12:27 17.11.2022
1013 Rain 22 1013 99 10000 0.58 123 11:20 17.11.2022
1014 Rain 22 1015 95 10000 0.41 121 07:59 17.11.2022
1015 Rain 20 1011 100 10000 0.14 349 01:39 17.11.2022
1016 Rain 20 1011 97 9812 0.22 39 23:33 16.11.2022
1017 Clouds 21 1012 93 10000 0.72 115 22:27 16.11.2022
1018 Clouds 21 1012 92 10000 0.5 127 20:35 16.11.2022
1019 Clouds 22 1010 90 10000 0.46 242 19:29 16.11.2022
1020 Clouds 22 1010 90 10000 0.53 173 18:33 16.11.2022
1021 Clouds 23 1008 86 10000 0.51 205 16:36 16.11.2022
1022 Clouds 28 1008 58 10000 1.34 357 12:56 16.11.2022
1023 Clouds 21 1013 96 10000 0.74 110 08:45 16.11.2022
1024 Clouds 21 1011 99 10000 0.81 145 01:54 16.11.2022
1025 Clouds 21 1011 99 10000 1.18 164 00:40 16.11.2022
1026 Clouds 21 1012 96 10000 1.12 168 21:54 15.11.2022
1027 Clouds 21 1013 97 10000 1.17 173 20:32 15.11.2022
1028 Clouds 21 1011 96 10000 1.42 162 19:18 15.11.2022
1029 Clouds 22 1010 96 10000 1.5 156 17:38 15.11.2022
1030 Clouds 23 1009 93 10000 1.52 143 16:52 15.11.2022
1031 Rain 25 1008 87 10000 1.25 125 16:18 15.11.2022
1032 Rain 26 1008 78 10000 0.9 83 14:41 15.11.2022
1033 Clouds 23 1009 89 10000 0.76 56 12:59 15.11.2022
1034 Rain 22 1011 89 10000 0.69 103 11:29 15.11.2022
1035 Rain 22 1011 89 10000 0.69 103 10:35 15.11.2022
1036 Rain 20 1012 99 10000 0.29 81 05:19 15.11.2022
1037 Rain 21 1012 99 10000 0.84 88 00:28 15.11.2022
1038 Rain 21 1012 98 10000 1.3 51 22:52 14.11.2022
1039 Clouds 23 1011 90 10000 0.45 347 21:18 14.11.2022
1040 Clouds 23 1011 90 10000 0.45 347 20:30 14.11.2022
1041 Clouds 24 1010 82 10000 0.75 0 18:28 14.11.2022
1042 Clouds 30 1008 55 10000 0.96 31 14:59 14.11.2022
1043 Rain 28 1011 63 10000 1.05 22 11:49 14.11.2022
1044 Clouds 24 1013 88 10000 1.03 11 11:28 14.11.2022
1045 Clouds 24 1013 88 10000 1.03 11 11:28 14.11.2022
1046 Clouds 27 1013 64 10000 1.54 74 08:48 14.11.2022
1047 Clouds 26 1014 69 10000 1.5 102 07:53 14.11.2022
1048 Clouds 21 1013 87 10000 0.77 113 05:59 14.11.2022
1049 Clouds 20 1012 99 10000 0.93 121 23:51 13.11.2022
1050 Clouds 21 1013 98 10000 1.23 137 21:46 13.11.2022
1051 Clouds 21 1013 97 10000 1.21 133 20:55 13.11.2022
1052 Clouds 22 1012 92 10000 1.11 150 19:24 13.11.2022
1053 Thunderstorm 26 1011 73 8000 0 0 17:55 13.11.2022
1054 Clouds 24 1010 84 10000 0.37 86 17:00 13.11.2022
1055 Thunderstorm 31 1011 58 8000 4.12 120 14:58 13.11.2022
1056 Rain 31 1012 55 10000 3.09 160 13:26 13.11.2022
1057 Clouds 29 1011 55 10000 1.72 148 12:34 13.11.2022
1058 Clouds 29 1011 55 10000 1.72 148 12:34 13.11.2022
1059 Clouds 29 1011 55 10000 1.72 148 12:34 13.11.2022
1060 Clouds 29 1011 55 10000 1.72 148 12:34 13.11.2022
1061 Clouds 25 1014 78 10000 1.72 155 10:48 13.11.2022
1062 Clouds 23 1015 94 8000 3.09 160 07:39 13.11.2022
1063 Rain 20 1013 99 10000 0.63 19 00:44 13.11.2022
1064 Clouds 20 1014 99 10000 1.11 77 21:59 12.11.2022
1065 Clouds 20 1014 98 10000 0.85 88 21:23 12.11.2022
1066 Clouds 21 1014 97 10000 0.55 91 19:53 12.11.2022
1067 Clouds 27 1011 74 8000 2.06 180 17:53 12.11.2022
1068 Rain 24 1011 95 10000 0.49 56 16:21 12.11.2022
1069 Rain 27 1013 74 8000 2.06 180 14:59 12.11.2022
1070 Rain 25 1014 90 10000 1.16 137 11:24 12.11.2022
1071 Rain 21 1015 94 5000 2.06 160 08:28 12.11.2022
1072 Clouds 20 1013 100 10000 0.24 297 01:59 12.11.2022
1073 Clouds 20 1015 100 10000 0.84 262 21:43 11.11.2022
1074 Clouds 20 1015 99 10000 0.78 266 20:45 11.11.2022
1075 Clouds 20 1014 99 10000 0.49 279 19:39 11.11.2022
1076 Clouds 21 1013 99 10000 0.72 286 19:19 11.11.2022
1077 Clouds 21 1012 99 10000 1.01 256 17:42 11.11.2022
1078 Clouds 27 1010 74 10000 3.09 320 15:50 11.11.2022
1079 Rain 23 1011 96 10000 1.28 206 14:20 11.11.2022
1080 Rain 23 1011 96 9986 1.38 197 13:24 11.11.2022
1081 Rain 21 1014 99 10000 0.18 175 09:37 11.11.2022
1082 Rain 21 1014 100 8965 0.36 114 08:27 11.11.2022
1083 Rain 21 1012 100 8145 0.39 147 04:39 11.11.2022
1084 Rain 20 1012 99 8921 0.77 115 23:21 10.11.2022
1085 Rain 21 1013 99 6497 0.9 139 22:27 10.11.2022
1086 Rain 21 1013 99 6497 0.9 139 21:32 10.11.2022
1087 Rain 21 1012 99 10000 1.07 154 20:50 10.11.2022
1088 Rain 21 1012 99 10000 0.9 136 20:20 10.11.2022
1089 Rain 21 1012 99 10000 0.9 136 19:42 10.11.2022
1090 Rain 21 1010 99 10000 1.42 155 18:32 10.11.2022
1091 Rain 25 1007 94 10000 0.41 335 16:26 10.11.2022
1092 Rain 25 1007 90 6646 0.71 48 13:56 10.11.2022
1093 Rain 32 1008 49 10000 1.39 80 11:38 10.11.2022
1094 Clouds 23 1014 88 10000 2.06 200 08:43 10.11.2022
1095 Clouds 21 1010 98 10000 0.64 119 01:31 10.11.2022
1096 Clouds 21 1011 99 10000 1.02 135 23:39 09.11.2022
1097 Clouds 21 1012 99 10000 1.03 150 22:36 09.11.2022
1098 Clouds 21 1012 99 10000 1.19 169 20:48 09.11.2022
1099 Clouds 21 1012 99 10000 1.36 153 20:29 09.11.2022
1100 Clouds 21 1012 99 10000 1.36 153 19:42 09.11.2022
1101 Clouds 21 1011 98 10000 1.28 175 19:18 09.11.2022
1102 Rain 24 1009 94 10000 1.94 171 16:19 09.11.2022
1103 Rain 24 1013 83 10000 3.09 180 14:48 09.11.2022
1104 Rain 26 1009 90 8639 2.45 173 14:25 09.11.2022
1105 Rain 26 1009 90 8639 2.45 173 13:30 09.11.2022
1106 Rain 30 1010 54 10000 2.39 165 11:46 09.11.2022
1107 Clouds 28 1013 61 10000 1.21 120 08:44 09.11.2022
1108 Clouds 26 1014 69 10000 1.12 97 07:46 09.11.2022
1109 Clouds 26 1014 69 10000 1.12 97 07:46 09.11.2022
1110 Clouds 21 1011 97 10000 0.83 41 00:56 09.11.2022
1111 Clouds 21 1012 93 10000 1.17 32 21:49 08.11.2022
1112 Clouds 21 1012 93 10000 1.17 32 21:31 08.11.2022
1113 Clouds 21 1012 92 10000 1.21 24 20:41 08.11.2022
1114 Clouds 21 1011 92 10000 1.22 18 19:40 08.11.2022
1115 Clouds 21 1011 93 10000 1.17 43 18:57 08.11.2022
1116 Clouds 23 1010 86 10000 1.14 23 17:26 08.11.2022
1117 Clouds 28 1011 69 10000 1.54 0 14:56 08.11.2022
1118 Clouds 26 1009 69 10000 1.45 15 13:42 08.11.2022
1119 Clouds 25 1010 82 10000 0.99 356 13:23 08.11.2022
1120 Rain 26 1014 81 9607 1.94 50 09:46 08.11.2022
1121 Rain 22 1015 98 10000 1.29 77 07:25 08.11.2022
1122 Clouds 20 1012 99 10000 0.76 7 00:34 08.11.2022
1123 Clouds 21 1012 99 10000 0.23 59 22:44 07.11.2022
1124 Clouds 21 1013 99 10000 0.4 51 21:32 07.11.2022
1125 Clouds 21 1013 98 10000 0.42 79 20:40 07.11.2022
1126 Clouds 21 1013 96 10000 0.65 48 19:30 07.11.2022
1127 Clouds 23 1011 88 10000 0.79 357 17:39 07.11.2022
1128 Clouds 28 1008 67 10000 0.77 239 15:36 07.11.2022
1129 Clouds 30 1011 66 10000 4.12 250 14:49 07.11.2022
1130 Rain 27 1010 70 10000 0.68 12 12:55 07.11.2022
1131 Rain 26 1012 77 10000 0.61 99 11:49 07.11.2022
1132 Rain 28 1014 67 10000 1.01 60 09:49 07.11.2022
1133 Clouds 22 1015 94 6000 2.06 210 07:54 07.11.2022
1134 Clouds 20 1014 99 10000 0.61 50 06:25 07.11.2022
1135 Clouds 20 1012 99 10000 0.69 149 01:42 07.11.2022
1136 Clouds 20 1013 98 10000 0.67 168 22:39 06.11.2022
1137 Clouds 21 1014 98 10000 1.05 137 21:21 06.11.2022
1138 Clouds 21 1014 98 10000 1.05 137 20:34 06.11.2022
1139 Clouds 21 1013 97 10000 1.14 127 19:55 06.11.2022
1140 Clouds 21 1013 95 10000 1.12 138 18:41 06.11.2022
1141 Clouds 22 1012 92 10000 0.87 149 18:20 06.11.2022
1142 Clouds 23 1011 88 10000 0.6 138 17:22 06.11.2022
1143 Clouds 23 1011 88 10000 0.6 138 16:46 06.11.2022
1144 Clouds 27 1011 78 8000 3.09 160 15:54 06.11.2022
1145 Clouds 25 1010 76 10000 1.44 115 14:36 06.11.2022
1146 Clouds 27 1010 65 10000 1.16 163 12:42 06.11.2022
1147 Clouds 25 1013 73 10000 1.36 171 10:48 06.11.2022
1148 Clouds 24 1015 84 10000 1.27 164 09:51 06.11.2022
1149 Rain 21 1015 98 10000 0.46 130 06:40 06.11.2022
1150 Clouds 20 1013 95 10000 0.76 104 23:22 05.11.2022
1151 Clouds 22 1013 94 7000 0 0 19:57 05.11.2022
1152 Clouds 22 1011 94 8000 0 0 18:21 05.11.2022
1153 Clouds 21 1010 97 10000 0.43 29 16:21 05.11.2022
1154 Clouds 21 1010 97 10000 0.49 343 14:34 05.11.2022
1155 Clouds 21 1011 98 10000 0.53 210 13:18 05.11.2022
1156 Clouds 22 1013 97 10000 0.56 96 10:42 05.11.2022
1157 Rain 22 1014 97 10000 0.6 75 08:48 05.11.2022
1158 Rain 22 1014 89 10000 1.13 35 07:22 05.11.2022
1159 Rain 22 1014 89 10000 1.13 35 06:54 05.11.2022
1160 Clouds 20 1012 98 10000 0.71 71 23:35 04.11.2022
1161 -273 0 0 0 0 0 22:35 04.11.2022
1162 Clouds 21 1011 97 10000 0.29 14 20:29 04.11.2022
1163 -273 0 0 0 0 0 20:28 04.11.2022
1164 Clouds 21 1011 97 10000 0.29 14 20:26 04.11.2022
1165 Clouds 21 1011 97 10000 0.29 14 20:26 04.11.2022
1166 Clouds 21 1010 95 10000 0.98 65 17:46 04.11.2022
1167 Clouds 22 1009 95 10000 0.87 48 16:46 04.11.2022
1168 Clouds 22 1009 94 10000 0.7 212 13:39 04.11.2022
1169 Rain 22 1012 93 10000 0.54 93 12:25 04.11.2022
1170 Clouds 23 1013 86 10000 1.08 88 10:38 04.11.2022
1171 Rain 23 1014 85 10000 1.84 97 08:39 04.11.2022
1172 Rain 24 1014 83 10000 1.74 95 07:42 04.11.2022
1173 Rain 22 1014 95 10000 1.39 95 07:42 04.11.2022
1174 Rain 21 1011 99 10000 0.34 151 02:28 04.11.2022
1175 Clouds 21 1012 98 10000 0.65 42 22:47 03.11.2022
1176 Clouds 21 1012 96 10000 0.71 18 20:50 03.11.2022
1177 Clouds 21 1012 96 10000 0.71 18 20:50 03.11.2022
1178 Clouds 21 1012 96 10000 0.75 22 19:44 03.11.2022
1179 Clouds 21 1012 98 10000 0.49 89 19:18 03.11.2022
1180 Clouds 21 1011 97 10000 0.49 142 17:42 03.11.2022
1181 Clouds 22 1010 95 10000 0.4 168 16:51 03.11.2022
1182 Clouds 22 1010 92 10000 0.23 259 14:18 03.11.2022
1183 Clouds 22 1010 95 10000 0.2 193 12:37 03.11.2022
1184 Clouds 22 1012 96 10000 0.11 75 11:44 03.11.2022
1185 Rain 22 1014 93 10000 0.27 99 09:18 03.11.2022
1186 Clouds 22 1014 94 10000 0.49 156 07:24 03.11.2022
1187 Rain 21 1012 99 10000 1.08 311 21:24 02.11.2022
1188 Rain 21 1012 99 10000 1.08 311 20:37 02.11.2022
1189 Rain 22 1011 98 10000 1.02 277 19:47 02.11.2022
1190 Clouds 24 1008 86 10000 1.37 284 16:36 02.11.2022
1191 Clouds 30 1008 70 10000 0 0 15:36 02.11.2022
1192 Clouds 28 1008 66 10000 1.49 229 14:29 02.11.2022
1193 Clouds 29 1011 70 10000 2.06 260 12:43 02.11.2022
1194 Rain 22 1012 99 10000 1.35 254 10:46 02.11.2022
1195 Rain 22 1014 98 10000 0.79 157 08:49 02.11.2022
1196 Rain 21 1012 100 2169 1 144 04:48 02.11.2022
1197 Rain 21 1011 98 10000 0.13 81 23:52 01.11.2022
1198 Rain 22 1012 97 10000 0.16 351 22:19 01.11.2022
1199 Rain 22 1012 97 10000 0.16 351 21:37 01.11.2022
1200 Clouds 22 1011 95 10000 0.41 8 20:25 01.11.2022
1201 Clouds 22 1011 95 10000 0.41 8 19:42 01.11.2022
1202 Rain 22 1010 98 10000 0.32 216 18:33 01.11.2022
1203 Clouds 24 1008 95 10000 0.69 82 17:21 01.11.2022
1204 Clouds 26 1008 92 10000 0.53 141 15:54 01.11.2022
1205 Rain 28 1008 77 10000 1.56 16 13:35 01.11.2022
1206 Rain 30 1010 62 10000 1.4 309 12:27 01.11.2022
1207 Clouds 26 1011 78 10000 1.44 350 11:21 01.11.2022
1208 Clouds 25 1012 83 10000 0.94 338 09:49 01.11.2022
1209 Clouds 25 1013 85 10000 0.81 19 08:38 01.11.2022
1210 Clouds 23 1012 95 10000 0.6 316 07:29 01.11.2022
1211 Clouds 24 1012 85 10000 0.84 327 06:46 01.11.2022
1212 Clouds 22 1012 95 10000 0.67 280 05:56 01.11.2022
1213 Clouds 21 1011 99 10000 0.39 244 03:32 01.11.2022
1214 Clouds 21 1012 96 10000 0.56 251 21:36 31.10.2022
1215 Clouds 22 1011 92 10000 0.89 281 20:25 31.10.2022
1216 Clouds 22 1010 96 10000 0.96 275 18:48 31.10.2022
1217 Clouds 23 1009 94 10000 0.98 279 17:26 31.10.2022
1218 Clouds 23 1009 94 10000 0.98 279 16:39 31.10.2022
1219 Clouds 29 1009 58 10000 1.68 259 13:23 31.10.2022
1220 Clouds 24 1013 88 10000 1.9 221 09:54 31.10.2022
1221 Rain 21 1013 99 10000 2.34 227 08:24 31.10.2022
1222 Rain 21 1010 100 2786 0.5 86 02:51 31.10.2022
1223 Rain 21 1009 99 10000 0.73 20 01:49 31.10.2022
1224 Rain 21 1011 99 10000 0.57 322 22:59 30.10.2022
1225 Clouds 21 1010 98 10000 0.46 169 20:46 30.10.2022
1226 Rain 22 1009 96 10000 0.93 153 19:54 30.10.2022
1227 Rain 24 1007 87 10000 0.74 110 17:53 30.10.2022
1228 Clouds 30 1006 53 10000 0.52 327 15:29 30.10.2022
1229 Clouds 30 1007 55 10000 0.54 218 13:52 30.10.2022
1230 Clouds 30 1008 56 10000 0.71 180 12:46 30.10.2022
1231 Clouds 25 1011 76 10000 0.68 138 11:21 30.10.2022
1232 Clouds 22 1012 94 10000 0.34 150 09:36 30.10.2022
1233 Rain 21 1012 99 10000 1.64 301 08:20 30.10.2022
1234 Rain 21 1010 99 10000 0.28 185 00:50 30.10.2022
1235 Rain 21 1010 99 10000 0.77 157 00:27 30.10.2022
1236 Rain 21 1010 99 10000 0.77 157 23:44 29.10.2022
1237 Clouds 22 1010 94 10000 0.21 275 20:54 29.10.2022
1238 Rain 23 1007 94 10000 1.07 211 17:34 29.10.2022
1239 Rain 29 1006 60 10000 0.58 295 16:22 29.10.2022
1240 Rain 29 1006 60 10000 0.58 295 15:37 29.10.2022
1241 Clouds 31 1006 50 10000 1.49 341 14:47 29.10.2022
1242 Rain 30 1009 54 10000 2.23 334 12:34 29.10.2022
1243 Clouds 29 1012 56 10000 2.02 356 10:40 29.10.2022
1244 Clouds 23 1011 91 10000 1 334 07:37 29.10.2022
1245 Clouds 21 1011 99 10000 0.68 333 05:56 29.10.2022
1246 Rain 21 1010 97 10000 0.89 5 03:54 29.10.2022
1247 Rain 21 1011 98 10000 0.12 108 23:32 28.10.2022
1248 Clouds 22 1010 91 10000 0.84 203 20:46 28.10.2022
1249 Clouds 24 1007 89 10000 1.31 183 19:26 28.10.2022
1250 Clouds 24 1007 89 10000 1.31 183 18:31 28.10.2022
1251 Clouds 31 1007 52 10000 0.44 266 15:31 28.10.2022
1252 Clouds 31 1007 50 10000 0.07 313 14:43 28.10.2022
1253 Clouds 30 1009 54 10000 0.66 355 12:53 28.10.2022
1254 Clouds 29 1011 59 10000 0.94 358 11:34 28.10.2022
1255 Clouds 27 1012 69 10000 0.61 7 10:59 28.10.2022
1256 Clouds 24 1012 85 10000 0.18 63 09:48 28.10.2022
1257 Rain 21 1013 99 10000 1.58 219 08:29 28.10.2022
1258 Rain 22 1010 99 10000 1.2 155 03:51 28.10.2022
1259 Clouds 22 1011 98 10000 0.56 169 23:49 27.10.2022
1260 Clouds 22 1011 98 10000 0.87 161 22:41 27.10.2022
1261 Clouds 22 1011 98 10000 0.7 186 21:55 27.10.2022
1262 Rain 23 1010 93 7331 0.47 162 20:30 27.10.2022
1263 Rain 23 1010 93 7331 0.47 162 20:30 27.10.2022
1264 Clouds 26 1008 77 10000 0.5 130 18:23 27.10.2022
1265 Clouds 33 1006 44 10000 1.54 63 14:30 27.10.2022
1266 Clouds 32 1011 51 10000 1.43 37 11:29 27.10.2022
1267 Clouds 23 1012 91 10000 0.42 9 07:30 27.10.2022
1268 Clouds 21 1011 98 10000 0.86 351 00:22 27.10.2022
1269 Clouds 21 1011 98 10000 0.86 351 23:46 26.10.2022
1270 Clouds 22 1011 98 10000 0.85 57 22:38 26.10.2022
1271 Rain 22 1010 98 5982 0.37 79 19:58 26.10.2022
1272 Rain 25 1008 92 10000 0.38 236 17:27 26.10.2022
1273 Rain 26 1007 89 9130 0.99 149 14:53 26.10.2022
1274 Rain 27 1009 84 10000 0.92 193 12:39 26.10.2022
1275 Rain 29 1010 72 8657 0.89 260 11:32 26.10.2022
1276 Clouds 24 1013 88 10000 0.42 247 09:18 26.10.2022
1277 Clouds 24 1013 88 10000 0.42 247 08:43 26.10.2022
1278 Rain 21 1011 100 7811 1.16 9 00:48 26.10.2022
1279 Rain 21 1011 99 10000 0.17 11 00:29 26.10.2022
1280 Rain 22 1011 97 10000 0.22 351 21:57 25.10.2022
1281 Rain 22 1011 95 10000 0.41 132 21:24 25.10.2022
1282 Clouds 23 1009 94 10000 0.35 176 20:26 25.10.2022
1283 Rain 24 1008 94 10000 0.51 69 18:38 25.10.2022
1284 Rain 29 1007 74 10000 1.09 37 15:28 25.10.2022
1285 Rain 30 1010 65 10000 0.75 12 11:40 25.10.2022
1286 Clouds 31 1011 55 10000 1.09 339 10:46 25.10.2022
1287 Clouds 30 1012 62 10000 1.21 326 10:28 25.10.2022
1288 Clouds 23 1012 93 10000 0.85 282 08:19 25.10.2022
1289 Clouds 24 1012 90 10000 1.02 277 07:59 25.10.2022
1290 Clouds 24 1012 90 10000 1.02 277 07:41 25.10.2022
1291 Rain 21 1009 99 10000 0.46 326 04:27 25.10.2022
1292 Rain 21 1009 99 10000 0.3 77 03:21 25.10.2022
1293 Clouds 22 1009 89 10000 0.56 8 00:31 25.10.2022
1294 Clouds 23 1010 86 10000 0.32 89 22:25 24.10.2022
1295 Clouds 23 1010 86 10000 0.32 89 21:34 24.10.2022
1296 Clouds 23 1009 85 10000 0.1 79 20:44 24.10.2022
1297 Clouds 23 1009 89 10000 0.21 171 20:19 24.10.2022
1298 Rain 23 1008 91 10000 1.63 286 17:53 24.10.2022
1299 Rain 25 1008 84 10000 2.01 302 16:54 24.10.2022
1300 Clouds 29 1007 65 10000 1.17 69 15:19 24.10.2022
1301 Clouds 31 1008 56 10000 0.77 60 14:18 24.10.2022
1302 Clouds 33 1011 45 10000 1.19 21 12:26 24.10.2022
1303 Clouds 26 1014 74 10000 1.06 14 08:51 24.10.2022
1304 Clouds 22 1011 98 10000 0.7 51 00:58 24.10.2022
1305 Clouds 22 1013 98 10000 0.17 291 22:19 23.10.2022
1306 Rain 22 1011 99 10000 0.44 238 20:25 23.10.2022
1307 Rain 24 1010 90 10000 1.13 357 18:26 23.10.2022
1308 Rain 28 1009 75 10000 0.69 176 17:27 23.10.2022
1309 Clouds 29 1009 65 10000 0.97 116 15:24 23.10.2022
1310 Clouds 29 1009 65 10000 0.97 116 14:46 23.10.2022
1311 Clouds 31 1013 54 10000 1.04 9 11:25 23.10.2022
1312 Clouds 26 1014 75 10000 0.94 13 09:18 23.10.2022
1313 Clouds 21 1011 98 10000 0.91 14 03:52 23.10.2022
1314 Clouds 22 1013 94 10000 1.13 101 22:48 22.10.2022
1315 Clouds 22 1013 92 10000 0.91 86 21:43 22.10.2022
1316 Clouds 22 1013 91 10000 0.95 66 20:56 22.10.2022
1317 Clouds 23 1012 91 10000 0.82 34 19:52 22.10.2022
1318 Clouds 23 1011 90 10000 0.84 25 19:29 22.10.2022
1319 Rain 24 1010 85 10000 0.54 12 17:39 22.10.2022
1320 Clouds 29 1008 59 10000 1.4 3 15:58 22.10.2022
1321 Clouds 29 1008 59 10000 1.4 3 15:58 22.10.2022
1322 Clouds 31 1008 51 10000 1.02 358 14:47 22.10.2022
1323 Clouds 31 1009 50 10000 1.08 310 13:57 22.10.2022
1324 Clouds 24 1014 84 10000 1.04 288 10:30 22.10.2022
1325 Clouds 22 1015 97 10000 0.4 300 09:39 22.10.2022
1326 Clouds 22 1015 98 10000 0.62 258 08:30 22.10.2022
1327 Clouds 21 1011 99 10000 0.69 349 04:21 22.10.2022
1328 Clouds 21 1012 99 10000 0.62 207 00:18 22.10.2022
1329 Clouds 21 1013 99 10000 0.4 240 21:41 21.10.2022
1330 Clouds 22 1012 99 10000 0.25 230 21:23 21.10.2022
1331 Clouds 22 1011 99 10000 0.61 351 19:56 21.10.2022
1332 Clouds 23 1010 97 10000 1.16 340 17:20 21.10.2022
1333 Rain 23 1010 97 6813 0.77 32 14:23 21.10.2022
1334 Rain 25 1011 94 8548 0.48 106 12:59 21.10.2022
1335 Rain 25 1012 92 8846 0.39 39 11:33 21.10.2022
1336 Rain 26 1013 78 10000 0.39 340 10:20 21.10.2022
1337 Clouds 24 1014 89 10000 0.16 351 08:39 21.10.2022
1338 Rain 22 1014 98 10000 0.71 298 07:32 21.10.2022
1339 Clouds 21 1010 99 10000 0.67 272 01:20 21.10.2022
1340 Clouds 22 1010 97 10000 0.77 272 22:26 20.10.2022
1341 Rain 22 1010 98 10000 1.04 315 20:38 20.10.2022
1342 Rain 23 1009 97 10000 0.81 185 19:39 20.10.2022
1343 Rain 23 1007 96 10000 1.21 195 17:54 20.10.2022
1344 Rain 23 1007 96 10000 1.21 195 17:33 20.10.2022
1345 Clouds 29 1011 65 10000 3.09 340 12:37 20.10.2022
1346 Clouds 25 1011 83 10000 1.44 11 12:18 20.10.2022
1347 Clouds 28 1012 69 10000 4.12 340 11:23 20.10.2022
1348 Clouds 26 1012 77 10000 1.09 1 10:50 20.10.2022
1349 Clouds 22 1012 96 10000 0.54 339 08:22 20.10.2022
1350 Rain 20 1011 99 10000 0.45 334 05:43 20.10.2022
1351 Clouds 21 1010 99 10000 0.43 281 01:50 20.10.2022
1352 Rain 22 1011 96 10000 0.65 217 22:46 19.10.2022
1353 Clouds 22 1010 96 10000 0.69 180 21:58 19.10.2022
1354 Clouds 22 1010 96 10000 0.4 33 21:18 19.10.2022
1355 Clouds 23 1009 95 10000 0.87 310 18:51 19.10.2022
1356 Rain 23 1008 95 10000 0.76 21 17:38 19.10.2022
1357 Rain 24 1008 91 10000 1.22 312 15:58 19.10.2022
1358 Rain 28 1008 71 10000 1.82 319 13:53 19.10.2022
1359 Clouds 30 1012 56 10000 0.86 111 10:18 19.10.2022
1360 Clouds 28 1013 67 10000 0.64 159 08:35 19.10.2022
1361 Clouds 22 1013 91 10000 0.8 154 06:31 19.10.2022
1362 Clouds 24 1010 77 10000 0.1 251 01:26 19.10.2022
1363 Clouds 24 1011 78 10000 0.54 152 23:19 18.10.2022
1364 Clouds 24 1010 76 10000 0.11 185 21:48 18.10.2022
1365 Clouds 24 1010 74 10000 0.22 36 20:59 18.10.2022
1366 Clouds 24 1009 74 10000 0.45 119 20:19 18.10.2022
1367 Clouds 27 1008 62 10000 0.64 349 18:25 18.10.2022
1368 Clouds 30 1007 55 10000 0.2 348 16:52 18.10.2022
1369 Clouds 32 1011 55 10000 3.09 360 14:53 18.10.2022
1370 Clouds 33 1010 42 10000 0.46 297 12:35 18.10.2022
1371 Clouds 30 1013 50 10000 0.19 107 11:22 18.10.2022
1372 Clouds 29 1014 55 10000 0.63 83 09:59 18.10.2022
1373 Clouds 23 1014 73 10000 0.98 88 07:57 18.10.2022
1374 Clouds 19 1013 94 10000 0.46 52 04:35 18.10.2022
1375 Clouds 20 1014 87 10000 1.13 152 22:54 17.10.2022
1376 Clouds 21 1013 87 10000 0.62 106 20:55 17.10.2022
1377 Clouds 21 1013 87 10000 0.62 106 20:33 17.10.2022
1378 Clouds 22 1013 86 10000 0.78 100 19:52 17.10.2022
1379 Clouds 22 1013 86 10000 0.78 100 19:30 17.10.2022
1380 Clouds 27 1010 67 10000 0.73 118 17:28 17.10.2022
1381 Clouds 29 1010 54 10000 0.49 144 15:46 17.10.2022
1382 Clouds 27 1013 74 10000 3.09 280 14:35 17.10.2022
1383 Clouds 23 1015 82 10000 0.65 16 11:56 17.10.2022
1384 Clouds 21 1014 93 10000 0.31 111 06:42 17.10.2022
1385 Clouds 20 1013 99 10000 0.75 146 00:24 17.10.2022
1386 Clouds 21 1013 96 10000 0.75 122 22:21 16.10.2022
1387 Clouds 21 1012 97 10000 0.34 147 20:59 16.10.2022
1388 Clouds 21 1011 98 10000 0.52 24 19:47 16.10.2022
1389 Clouds 22 1011 95 10000 0.86 324 17:58 16.10.2022
1390 Clouds 22 1011 95 10000 0.86 324 17:39 16.10.2022
1391 Clouds 22 1011 95 10000 0.86 324 17:39 16.10.2022
1392 Clouds 23 1011 87 10000 1.78 269 15:58 16.10.2022
1393 Clouds 23 1011 92 10000 1.48 257 14:45 16.10.2022
1394 Rain 21 1013 99 10000 2 262 12:23 16.10.2022
1395 Rain 21 1015 99 10000 1.7 265 10:28 16.10.2022
1396 Rain 22 1015 99 10000 1.25 255 09:26 16.10.2022
1397 Rain 21 1010 100 10000 1.05 239 02:37 16.10.2022
1398 Rain 21 1011 99 10000 0.65 358 23:41 15.10.2022
1399 Rain 22 1009 94 6090 1.1 149 21:29 15.10.2022
1400 Rain 22 1009 94 6090 1.1 149 20:57 15.10.2022
1401 Clouds 25 1006 81 10000 0.62 57 19:28 15.10.2022
1402 Clouds 31 1005 55 10000 0.69 341 15:59 15.10.2022
1403 Clouds 31 1005 55 10000 0.69 341 15:38 15.10.2022
1404 Clouds 30 1007 56 10000 1.5 345 12:33 15.10.2022
1405 Clouds 29 1011 70 10000 0 0 11:27 15.10.2022
1406 Clouds 26 1011 73 10000 0.91 347 09:22 15.10.2022
1407 Clouds 20 1009 97 10000 1.02 355 05:46 15.10.2022
1408 Clouds 21 1008 97 10000 0.99 308 00:40 15.10.2022
1409 Rain 22 1010 99 10000 1.67 357 22:25 14.10.2022
1410 Rain 22 1010 99 10000 1.67 357 21:37 14.10.2022
1411 Rain 22 1008 97 10000 2.35 75 20:27 14.10.2022
1412 Clouds 26 1006 73 10000 1.59 180 17:35 14.10.2022
1413 Clouds 32 1004 44 10000 1.58 221 15:30 14.10.2022
1414 Clouds 33 1008 46 10000 0.83 274 12:45 14.10.2022
1415 Clouds 25 1011 81 10000 0.35 75 10:36 14.10.2022
1416 Clouds 23 1011 95 10000 0.95 6 08:25 14.10.2022
1417 Clouds 20 1010 99 10000 0.45 307 06:18 14.10.2022
1418 Clouds 20 1010 99 10000 0.45 307 05:59 14.10.2022
1419 Clouds 20 1010 99 10000 0.45 307 05:41 14.10.2022
1420 Rain 21 1009 99 10000 0.68 306 01:30 14.10.2022
1421 Clouds 22 1010 93 10000 1.18 100 23:18 13.10.2022
1422 Clouds 22 1009 91 10000 0.64 96 21:30 13.10.2022
1423 Rain 23 1008 88 10000 0.79 140 20:20 13.10.2022
1424 Rain 24 1008 80 10000 1.56 151 19:41 13.10.2022
1425 Clouds 25 1007 77 10000 0.38 72 18:45 13.10.2022
1426 Clouds 27 1006 72 10000 1.04 1 17:46 13.10.2022
1427 Clouds 31 1005 56 10000 0.5 177 15:49 13.10.2022
1428 Clouds 34 1005 43 10000 0.51 89 14:30 13.10.2022
1429 Clouds 35 1008 39 10000 0.72 44 13:26 13.10.2022
1430 Clouds 34 1009 44 10000 0.9 28 11:40 13.10.2022
1431 Clouds 30 1013 66 7000 3.09 30 09:48 13.10.2022
1432 Clouds 27 1012 70 10000 1.17 32 08:33 13.10.2022
1433 Clouds 24 1012 83 10000 0.88 41 07:36 13.10.2022
1434 Clouds 20 1010 97 10000 0.99 34 03:23 13.10.2022
1435 Clouds 20 1010 98 10000 1.04 84 01:38 13.10.2022
1436 Rain 21 1011 96 10000 1.54 29 23:20 12.10.2022
1437 Rain 21 1011 96 10000 1.54 29 22:43 12.10.2022
1438 Clouds 23 1010 90 10000 1.25 83 21:25 12.10.2022
1439 Clouds 23 1010 90 10000 1.25 83 20:54 12.10.2022
1440 Clouds 23 1009 87 10000 1.53 105 20:26 12.10.2022
1441 Clouds 24 1009 84 10000 1.19 123 18:51 12.10.2022
1442 Clouds 25 1008 80 10000 1.15 151 17:54 12.10.2022
1443 Clouds 29 1008 61 10000 1.58 119 16:28 12.10.2022
1444 Clouds 26 1010 69 10000 1.11 1 13:58 12.10.2022
1445 Clouds 26 1010 69 10000 1.11 1 13:34 12.10.2022
1446 Clouds 27 1014 74 10000 0 0 10:39 12.10.2022
1447 Rain 23 1013 88 6000 0 0 08:54 12.10.2022
1448 Rain 20 1015 99 10000 2.03 216 07:41 12.10.2022
1449 Rain 20 1014 99 10000 2.02 193 06:43 12.10.2022
1450 Rain 21 1012 100 4254 1.77 140 02:46 12.10.2022
1451 Rain 21 1013 97 10000 0.98 98 22:43 11.10.2022
1452 Clouds 22 1012 92 10000 0.85 96 20:57 11.10.2022
1453 Clouds 23 1012 92 10000 0.7 84 19:58 11.10.2022
1454 Clouds 23 1010 94 10000 0.97 341 17:38 11.10.2022
1455 Rain 29 1009 58 10000 1.07 323 15:34 11.10.2022
1456 Clouds 26 1012 74 10000 0.83 320 13:29 11.10.2022
1457 Clouds 23 1014 93 10000 0.75 301 10:32 11.10.2022
1458 Clouds 23 1015 92 10000 0.61 329 09:55 11.10.2022
1459 Clouds 21 1015 99 10000 0.16 260 08:22 11.10.2022
1460 Rain 20 1013 100 7271 0.11 284 02:46 11.10.2022
1461 Rain 20 1013 98 8491 0.23 6 00:34 11.10.2022
1462 Clouds 22 1013 93 10000 0.58 10 21:47 10.10.2022
1463 Clouds 22 1013 91 10000 0.43 13 20:32 10.10.2022
1464 Clouds 23 1011 86 10000 0.71 325 18:50 10.10.2022
1465 Clouds 28 1009 69 10000 0.78 292 17:24 10.10.2022
1466 Clouds 31 1010 55 10000 3.09 330 16:22 10.10.2022
1467 Clouds 34 1008 39 10000 0.69 307 13:31 10.10.2022
1468 Clouds 32 1012 45 10000 0.9 316 12:22 10.10.2022
1469 Clouds 26 1014 65 10000 1.02 8 09:26 10.10.2022
1470 Clouds 19 1013 97 10000 1.07 56 05:53 10.10.2022
1471 Clouds 19 1013 97 10000 1.07 56 05:32 10.10.2022
1472 Clouds 20 1012 96 10000 0.21 20 01:25 10.10.2022
1473 Clouds 20 1012 95 10000 0.52 56 23:36 09.10.2022
1474 Clouds 21 1012 95 10000 0.68 86 22:25 09.10.2022
1475 Clouds 21 1012 95 10000 0.79 105 21:27 09.10.2022
1476 Clouds 21 1012 95 10000 0.79 105 20:42 09.10.2022
1477 Rain 23 1011 87 10000 0.82 102 19:48 09.10.2022
1478 Rain 23 1010 85 10000 1.33 102 18:49 09.10.2022
1479 Clouds 24 1008 83 10000 1.29 333 17:39 09.10.2022
1480 Rain 28 1007 69 10000 0.27 288 16:48 09.10.2022
1481 Clouds 29 1007 60 10000 1.29 68 16:19 09.10.2022
1482 Clouds 31 1007 51 10000 1.76 43 14:54 09.10.2022
1483 Clouds 27 1010 72 10000 0.93 20 14:26 09.10.2022
1484 Clouds 27 1011 69 10000 1.06 20 12:49 09.10.2022
1485 Clouds 28 1012 63 10000 1.34 348 11:27 09.10.2022
1486 Clouds 25 1013 76 10000 0.95 349 08:32 09.10.2022
1487 Clouds 19 1012 99 10000 1 49 05:59 09.10.2022
1488 Clouds 19 1011 99 10000 0.18 325 03:26 09.10.2022
1489 Clouds 19 1012 99 10000 0.6 146 00:47 09.10.2022
1490 Clouds 20 1012 99 10000 0.3 156 23:33 08.10.2022
1491 Clouds 20 1012 99 10000 0.3 156 23:33 08.10.2022
1492 Clouds 20 1013 99 10000 0.56 25 22:51 08.10.2022
1493 Rain 20 1012 99 10000 1.05 36 20:43 08.10.2022
1494 Rain 20 1012 97 10000 0.98 60 19:38 08.10.2022
1495 Rain 22 1009 91 10000 1.56 45 17:44 08.10.2022
1496 Clouds 26 1008 72 10000 1.75 32 15:36 08.10.2022
1497 Clouds 32 1008 45 10000 1.56 340 13:53 08.10.2022
1498 Clouds 29 1010 53 10000 1.87 349 12:30 08.10.2022
1499 Clouds 27 1013 63 10000 1.65 322 10:35 08.10.2022
1500 Clouds 24 1013 74 10000 1.52 319 09:42 08.10.2022
1501 Rain 20 1013 99 10000 0.94 15 07:29 08.10.2022
1502 Clouds 19 1011 100 10000 0.82 335 02:41 08.10.2022
1503 Clouds 20 1012 99 10000 0.5 39 00:24 08.10.2022
1504 Clouds 20 1012 99 10000 0.35 244 23:20 07.10.2022
1505 Clouds 20 1013 98 10000 0.54 254 22:19 07.10.2022
1506 Clouds 20 1012 98 10000 0.92 319 20:37 07.10.2022
1507 Clouds 21 1010 97 10000 0.33 210 18:40 07.10.2022
1508 Clouds 23 1009 84 10000 0.38 290 16:58 07.10.2022
1509 Clouds 23 1009 87 10000 0.71 257 15:50 07.10.2022
1510 Clouds 22 1009 93 10000 1.01 266 14:35 07.10.2022
1511 Rain 22 1012 98 10000 2.42 329 11:48 07.10.2022
1512 Rain 21 1014 100 3825 1.32 358 09:26 07.10.2022
1513 Rain 21 1013 100 6000 2.06 250 08:49 07.10.2022
1514 Clouds 21 1011 99 10000 1.09 329 05:51 07.10.2022
1515 Rain 21 1009 98 10000 0.9 239 00:41 07.10.2022
1516 Clouds 23 1010 84 10000 0.67 209 22:50 06.10.2022
1517 Clouds 24 1009 81 10000 1.13 282 21:42 06.10.2022
1518 Clouds 24 1008 77 10000 0.3 307 21:21 06.10.2022
1519 Clouds 27 1009 78 8000 2.06 310 19:50 06.10.2022
1520 Clouds 26 1006 72 10000 0.86 156 18:37 06.10.2022
1521 Clouds 26 1006 72 10000 0.86 156 18:37 06.10.2022
1522 Clouds 30 1005 61 10000 0.47 116 17:26 06.10.2022
1523 Clouds 34 1007 42 10000 1.01 358 14:19 06.10.2022
1524 Clouds 30 1012 55 10000 1.31 18 11:24 06.10.2022
1525 Clouds 21 1013 98 10000 0.28 82 06:53 06.10.2022
1526 Clouds 20 1010 99 10000 0.98 80 03:29 06.10.2022
1527 Rain 21 1012 98 9258 0.66 39 22:55 05.10.2022
1528 Clouds 22 1010 94 10000 0.48 357 19:57 05.10.2022
1529 Rain 23 1008 94 8157 1.24 25 17:58 05.10.2022
1530 Rain 23 1008 94 8157 1.24 25 17:34 05.10.2022
1531 Rain 23 1008 94 8157 1.24 25 17:33 05.10.2022
1532 Clouds 27 1008 70 10000 1.47 238 15:54 05.10.2022
1533 Rain 27 1009 73 10000 1.25 269 14:46 05.10.2022
1534 Clouds 26 1011 66 10000 2.08 290 13:54 05.10.2022
1535 Clouds 24 1014 84 10000 2.1 296 12:19 05.10.2022
1536 Rain 22 1015 98 10000 1.3 330 08:49 05.10.2022
1537 Rain 21 1013 99 10000 0.86 333 07:29 05.10.2022
1538 Rain 21 1013 99 10000 0.81 338 05:35 05.10.2022
1539 Rain 21 1011 99 10000 0.85 16 02:42 05.10.2022
1540 Rain 21 1011 99 10000 1.43 2 00:41 05.10.2022
1541 Rain 21 1011 99 5182 1.24 6 00:23 05.10.2022
1542 Clouds 22 1012 96 10000 1.11 62 21:59 04.10.2022
1543 Clouds 24 1009 88 10000 1.35 51 20:29 04.10.2022
1544 Clouds 24 1009 87 10000 0.89 63 18:57 04.10.2022
1545 Clouds 24 1009 87 10000 0.89 63 18:35 04.10.2022
1546 Clouds 25 1008 86 10000 0.28 87 17:41 04.10.2022
1547 Clouds 26 1007 79 10000 0.2 305 16:28 04.10.2022
1548 Clouds 33 1008 42 10000 1.41 281 12:41 04.10.2022
1549 Clouds 26 1013 74 10000 1.4 265 08:52 04.10.2022
1550 Clouds 20 1012 99 10000 1.11 277 06:28 04.10.2022
1551 Rain 21 1010 98 10000 0.27 140 01:28 04.10.2022
1552 Clouds 21 1011 97 10000 0.5 153 23:37 03.10.2022
1553 Clouds 22 1012 95 10000 0.53 166 21:52 03.10.2022
1554 Clouds 20 1012 98 10000 0.35 208 20:52 03.10.2022
1555 Clouds 21 1011 94 10000 0.81 218 18:57 03.10.2022
1556 Clouds 22 1010 90 10000 1.01 233 17:48 03.10.2022
1557 Clouds 24 1010 80 10000 1.14 260 16:41 03.10.2022
1558 Clouds 28 1009 59 10000 2.22 297 15:27 03.10.2022
1559 Clouds 29 1010 58 10000 2.17 307 13:44 03.10.2022
1560 Clouds 26 1013 70 10000 1.57 319 12:20 03.10.2022
1561 Rain 23 1014 91 10000 1.09 316 10:38 03.10.2022
1562 Rain 23 1015 94 10000 1.28 330 09:33 03.10.2022
1563 Rain 21 1012 99 10000 0.7 327 04:51 03.10.2022
1564 Rain 21 1011 99 10000 0.6 281 02:36 03.10.2022
1565 Rain 22 1013 98 10000 0.57 223 22:24 02.10.2022
1566 Clouds 22 1012 98 10000 1.05 257 20:37 02.10.2022
1567 Clouds 23 1010 97 10000 1.6 239 18:30 02.10.2022
1568 Rain 24 1009 95 10000 1.88 249 17:35 02.10.2022
1569 Rain 25 1008 91 10000 1.7 234 16:33 02.10.2022
1570 Rain 26 1008 84 10000 1.41 221 15:40 02.10.2022
1571 Clouds 31 1009 51 10000 1.08 248 13:51 02.10.2022
1572 Rain 30 1011 57 10000 0.89 272 12:52 02.10.2022
1573 Clouds 31 1012 54 10000 0.5 266 12:28 02.10.2022
1574 Clouds 28 1015 69 10000 4.12 260 11:36 02.10.2022
1575 Clouds 28 1014 63 10000 0.69 216 10:37 02.10.2022
1576 Clouds 23 1015 90 10000 0.88 90 08:53 02.10.2022
1577 Clouds 21 1013 99 10000 0.94 107 07:29 02.10.2022
1578 Rain 20 1012 99 10000 0.89 29 02:54 02.10.2022
1579 Rain 21 1011 96 10000 1.42 63 00:45 02.10.2022
1580 Clouds 21 1011 92 10000 1.3 60 00:20 02.10.2022
1581 Rain 22 1011 88 10000 1.09 47 22:36 01.10.2022
1582 Clouds 25 1008 72 10000 0.95 354 20:21 01.10.2022
1583 Clouds 27 1007 69 10000 0.34 231 17:55 01.10.2022
1584 Clouds 28 1007 67 10000 0.74 189 16:30 01.10.2022
1585 Rain 33 1008 45 10000 0.9 247 14:25 01.10.2022
1586 Clouds 34 1009 40 10000 0.61 258 12:59 01.10.2022
1587 Clouds 34 1009 40 10000 0.61 258 12:30 01.10.2022
1588 Clouds 32 1012 47 10000 0.44 277 11:19 01.10.2022
1589 Clouds 32 1012 47 10000 0.44 277 10:31 01.10.2022
1590 Clouds 28 1013 63 10000 0.41 74 09:27 01.10.2022
1591 Clouds 28 1013 63 10000 0.41 74 08:57 01.10.2022
1592 Clouds 20 1011 93 10000 0.75 155 04:19 01.10.2022
1593 Clouds 20 1011 92 10000 0.72 158 03:29 01.10.2022
1594 Clouds 22 1012 89 10000 0.06 85 23:59 30.09.2022
1595 Clouds 22 1012 88 10000 0.45 5 22:36 30.09.2022
1596 Clouds 22 1011 87 10000 0.45 334 21:28 30.09.2022
1597 Clouds 22 1011 87 10000 0.45 334 20:43 30.09.2022
1598 Clouds 23 1010 86 10000 0.19 8 19:43 30.09.2022
1599 Clouds 27 1008 73 10000 1.18 326 17:28 30.09.2022
1600 Clouds 29 1008 62 10000 1.32 309 15:32 30.09.2022
1601 Rain 31 1010 54 10000 1.36 264 13:29 30.09.2022
1602 Rain 30 1011 59 10000 0.97 248 11:57 30.09.2022
1603 Rain 27 1012 78 10000 0.68 232 10:30 30.09.2022
1604 Mist 22 1014 94 3000 0 0 08:24 30.09.2022
1605 Clouds 21 1012 99 10000 0.68 350 05:47 30.09.2022
1606 Rain 21 1010 97 10000 0.3 295 02:31 30.09.2022
1607 Rain 22 1011 94 10000 0.87 321 22:26 29.09.2022
1608 Rain 22 1011 93 10000 0.67 263 21:26 29.09.2022
1609 Rain 22 1011 93 10000 0.67 263 20:35 29.09.2022
1610 Rain 22 1010 93 10000 0.8 221 18:34 29.09.2022
1611 Rain 27 1008 76 10000 1.55 212 17:23 29.09.2022
1612 Clouds 29 1008 60 10000 0.57 170 16:28 29.09.2022
1613 Clouds 29 1008 60 10000 0.57 170 15:35 29.09.2022
1614 Clouds 32 1009 45 10000 1.35 299 14:25 29.09.2022
1615 Clouds 27 1014 64 10000 1.54 292 09:45 29.09.2022
1616 Clouds 20 1014 99 10000 0.37 321 06:46 29.09.2022
1617 Clouds 19 1012 99 10000 0.46 253 02:47 29.09.2022
1618 Clouds 20 1013 99 10000 0.64 236 23:54 28.09.2022
1619 Clouds 20 1013 99 10000 0.6 228 22:32 28.09.2022
1620 Clouds 21 1012 99 10000 1.27 230 21:29 28.09.2022
1621 Clouds 20 1012 94 10000 1.03 238 20:22 28.09.2022
1622 Clouds 20 1012 93 10000 1.3 241 18:31 28.09.2022
1623 Clouds 24 1011 79 10000 2.17 265 14:52 28.09.2022
1624 Clouds 22 1012 98 10000 1.93 269 12:56 28.09.2022
1625 Rain 21 1015 99 10000 1.24 259 10:51 28.09.2022
1626 Rain 21 1015 99 6457 0.99 108 08:33 28.09.2022
1627 Rain 21 1014 99 1843 0.8 171 06:50 28.09.2022
1628 Rain 21 1011 100 7581 0.93 350 02:36 28.09.2022
1629 Rain 21 1011 99 10000 0.9 324 01:33 28.09.2022
1630 Clouds 22 1012 99 10000 1.2 297 23:20 27.09.2022
1631 Rain 21 1012 99 10000 0.86 301 21:44 27.09.2022
1632 Rain 22 1012 98 10000 0.9 282 20:38 27.09.2022
1633 Clouds 25 1010 83 8000 0 0 19:47 27.09.2022
1634 Rain 23 1009 96 10000 1.55 263 18:40 27.09.2022
1635 Rain 24 1008 87 10000 1.2 258 17:44 27.09.2022
1636 Rain 27 1007 75 10000 1.99 264 15:31 27.09.2022
1637 Rain 29 1011 65 10000 2.06 350 14:55 27.09.2022
1638 Rain 26 1013 78 10000 5.14 200 12:50 27.09.2022
1639 Clouds 31 1010 53 10000 1.74 284 11:34 27.09.2022
1640 Clouds 25 1013 83 10000 1.24 328 08:50 27.09.2022
1641 Clouds 21 1012 99 10000 0.69 26 06:46 27.09.2022
1642 Rain 21 1009 90 10000 1.39 20 01:57 27.09.2022
1643 Clouds 22 1009 86 10000 0.95 357 01:29 27.09.2022
1644 Clouds 23 1009 78 10000 0.71 306 23:26 26.09.2022
1645 Clouds 23 1009 78 10000 0.71 306 22:38 26.09.2022
1646 Clouds 25 1008 71 10000 0.2 283 20:46 26.09.2022
1647 Clouds 28 1008 78 10000 0 0 19:31 26.09.2022
1648 Clouds 25 1007 74 10000 1.69 104 18:32 26.09.2022
1649 Clouds 29 1006 62 10000 0.74 335 16:36 26.09.2022
1650 Clouds 33 1006 43 10000 1.01 120 14:37 26.09.2022
1651 Clouds 33 1009 46 10000 0.36 129 11:30 26.09.2022
1652 Clouds 32 1011 51 10000 0.53 152 10:39 26.09.2022
1653 Clouds 29 1012 59 10000 0.73 136 10:20 26.09.2022
1654 Clouds 29 1012 59 10000 0.73 136 09:55 26.09.2022
1655 Clouds 26 1012 71 10000 0.44 149 09:24 26.09.2022
1656 Clouds 23 1012 87 10000 0.41 297 07:56 26.09.2022
1657 Clouds 19 1009 96 10000 0.81 31 02:54 26.09.2022
1658 Clouds 20 1009 96 10000 1.08 134 23:57 25.09.2022
1659 Clouds 21 1010 97 10000 1.3 148 22:45 25.09.2022
1660 Rain 21 1010 97 10000 0.47 135 21:35 25.09.2022
1661 Clouds 22 1009 89 10000 1.39 117 20:48 25.09.2022
1662 Clouds 23 1009 80 10000 0.67 111 19:43 25.09.2022
1663 Clouds 24 1007 73 10000 0.95 146 18:43 25.09.2022
1664 Clouds 26 1007 70 10000 0.82 56 18:20 25.09.2022
1665 Clouds 30 1006 57 10000 0.99 173 16:36 25.09.2022
1666 Clouds 32 1006 45 10000 0.67 154 15:45 25.09.2022
1667 Clouds 25 1009 81 10000 0.92 134 14:22 25.09.2022
1668 Clouds 29 1012 70 10000 3.09 50 12:57 25.09.2022
1669 Clouds 26 1014 73 8000 3.09 0 10:36 25.09.2022
1670 Clouds 21 1013 99 10000 0.68 349 08:24 25.09.2022
1671 Clouds 21 1011 99 10000 0.21 276 05:47 25.09.2022
1672 Rain 21 1010 100 5989 1.15 60 01:55 25.09.2022
1673 Clouds 21 1011 96 10000 0.58 318 22:35 24.09.2022
1674 Rain 22 1011 95 10000 0.94 299 20:55 24.09.2022
1675 Clouds 22 1010 95 10000 0.91 310 19:23 24.09.2022
1676 Rain 23 1009 93 10000 1.03 316 17:50 24.09.2022
1677 Rain 27 1007 78 10000 1.07 319 16:27 24.09.2022
1678 Rain 27 1008 75 10000 1.18 313 15:21 24.09.2022
1679 Rain 29 1008 64 10000 1.4 311 13:35 24.09.2022
1680 Rain 30 1009 58 10000 2.18 295 12:51 24.09.2022
1681 Clouds 28 1013 64 10000 1.96 297 11:21 24.09.2022
1682 Clouds 25 1014 78 10000 1.7 294 09:46 24.09.2022
1683 Rain 23 1014 94 10000 1.52 281 08:45 24.09.2022
1684 Rain 21 1014 99 2697 1.05 267 07:38 24.09.2022
1685 Rain 20 1012 100 10000 0.93 311 04:46 24.09.2022
1686 Rain 20 1011 100 10000 0.49 11 02:24 24.09.2022
1687 Clouds 22 1011 94 10000 1.06 21 22:36 23.09.2022
1688 Clouds 23 1010 87 10000 0.21 60 21:28 23.09.2022
1689 Clouds 23 1010 87 10000 0.21 60 20:56 23.09.2022
1690 Clouds 23 1010 84 10000 0.35 95 20:20 23.09.2022
1691 Clouds 24 1009 80 10000 0.36 202 18:50 23.09.2022
1692 Clouds 32 1007 45 10000 0.73 286 14:33 23.09.2022
1693 Clouds 24 1013 87 10000 1.17 288 10:55 23.09.2022
1694 Rain 21 1014 98 10000 0.76 277 09:32 23.09.2022
1695 Rain 21 1012 99 10000 1.02 184 05:20 23.09.2022
1696 Clouds 21 1010 98 10000 0.78 229 00:31 23.09.2022
1697 Rain 22 1011 94 10000 1.53 233 23:21 22.09.2022
1698 Rain 22 1011 94 10000 1.55 245 22:26 22.09.2022
1699 Clouds 22 1010 93 10000 1.53 229 20:46 22.09.2022
1700 Clouds 24 1008 87 10000 1.15 213 19:27 22.09.2022
1701 Rain 27 1007 74 10000 1.44 250 16:57 22.09.2022
1702 Clouds 28 1011 63 10000 1.32 236 12:19 22.09.2022
1703 Clouds 25 1013 84 10000 1.17 251 10:20 22.09.2022
1704 Clouds 22 1013 96 10000 1.05 238 08:46 22.09.2022
1705 Rain 21 1012 97 10000 0.32 27 06:42 22.09.2022
1706 Clouds 21 1010 98 10000 0.12 42 02:43 22.09.2022
1707 Rain 22 1011 97 10000 0.62 44 23:25 21.09.2022
1708 Rain 22 1011 97 10000 0.64 118 21:41 21.09.2022
1709 Clouds 22 1009 87 10000 0.8 352 19:55 21.09.2022
1710 Clouds 25 1007 77 10000 1.74 350 17:48 21.09.2022
1711 Clouds 30 1007 58 10000 1.4 322 16:30 21.09.2022
1712 Clouds 31 1008 48 10000 2 317 14:00 21.09.2022
1713 Clouds 30 1009 51 10000 2.25 329 12:42 21.09.2022
1714 Clouds 27 1013 69 10000 1.86 347 11:29 21.09.2022
1715 Clouds 23 1014 91 10000 0.99 359 09:50 21.09.2022
1716 Clouds 22 1013 97 10000 0.83 358 09:00 21.09.2022
1717 Clouds 22 1011 99 10000 1.47 326 07:18 21.09.2022
1718 Rain 21 1010 99 6263 0.69 63 02:47 21.09.2022
1719 Rain 22 1009 99 10000 1.09 357 02:25 21.09.2022
1720 Rain 22 1010 99 10000 1.48 86 00:34 21.09.2022
1721 Rain 22 1011 99 10000 0.69 328 22:43 20.09.2022
1722 Rain 23 1010 96 10000 1 52 20:51 20.09.2022
1723 Rain 24 1008 86 10000 0.32 94 19:32 20.09.2022
1724 Clouds 32 1005 48 10000 1.47 234 16:25 20.09.2022
1725 Clouds 33 1006 43 10000 1.28 224 14:45 20.09.2022
1726 Clouds 33 1008 46 10000 1.83 324 12:58 20.09.2022
1727 Rain 30 1011 63 10000 0.18 20 09:34 20.09.2022
1728 Clouds 23 1012 93 10000 0.52 123 08:26 20.09.2022
1729 Rain 21 1010 99 10000 0.3 165 04:50 20.09.2022
1730 Rain 21 1009 99 10000 0.5 135 03:48 20.09.2022
1731 Clouds 24 1010 82 10000 1.02 223 22:55 19.09.2022
1732 Clouds 24 1010 81 10000 0.73 216 21:40 19.09.2022
1733 Clouds 25 1009 79 10000 0.55 120 20:51 19.09.2022
1734 Clouds 25 1009 76 10000 0.68 165 20:30 19.09.2022
1735 Clouds 27 1007 72 10000 0.62 122 17:44 19.09.2022
1736 Clouds 32 1007 49 10000 0.94 159 14:54 19.09.2022
1737 Clouds 32 1010 50 10000 1.26 167 13:18 19.09.2022
1738 Clouds 28 1013 64 10000 1.49 150 11:25 19.09.2022
1739 Clouds 24 1014 91 10000 1.03 152 08:51 19.09.2022
1740 Clouds 21 1013 99 10000 0.3 164 06:42 19.09.2022
1741 Clouds 21 1011 99 10000 0.5 262 01:54 19.09.2022
1742 Clouds 22 1012 99 10000 0.56 306 23:22 18.09.2022
1743 Clouds 22 1012 98 10000 0.61 285 21:44 18.09.2022
1744 Clouds 22 1011 98 10000 0.87 286 20:25 18.09.2022
1745 Rain 23 1010 94 10000 1.12 297 18:18 18.09.2022
1746 Rain 23 1010 94 10000 1.12 297 17:37 18.09.2022
1747 Rain 27 1008 74 10000 1.52 341 15:44 18.09.2022
1748 Rain 27 1010 72 10000 1.82 323 13:50 18.09.2022
1749 Clouds 24 1012 87 10000 1.14 340 12:35 18.09.2022
1750 Rain 23 1014 91 10000 1.52 10 10:55 18.09.2022
1751 Rain 21 1010 99 10000 1.01 346 04:26 18.09.2022
1752 Rain 21 1010 99 10000 0.76 331 01:25 18.09.2022
1753 Rain 21 1011 98 6787 1.52 347 00:23 18.09.2022
1754 Clouds 23 1009 86 10000 0.88 66 21:40 17.09.2022
1755 Clouds 26 1008 75 10000 0.76 58 19:43 17.09.2022
1756 Clouds 26 1008 75 10000 0.76 58 19:43 17.09.2022
1757 Clouds 26 1007 74 10000 0.54 5 18:57 17.09.2022
1758 Clouds 26 1007 74 10000 0.54 5 18:57 17.09.2022
1759 Clouds 28 1006 66 10000 0.67 265 16:18 17.09.2022
1760 Clouds 33 1007 42 10000 1.19 354 13:56 17.09.2022
1761 Clouds 32 1010 49 10000 1.33 334 11:31 17.09.2022
1762 Clouds 25 1012 75 10000 1.2 4 09:27 17.09.2022
1763 Rain 20 1011 98 10000 0.79 22 06:25 17.09.2022
1764 Clouds 21 1011 94 10000 0.68 59 00:20 17.09.2022
1765 Clouds 21 1011 94 10000 0.98 66 22:52 16.09.2022
1766 Clouds 22 1011 97 10000 0.88 101 21:23 16.09.2022
1767 Rain 22 1010 94 10000 2.07 128 19:50 16.09.2022
1768 Clouds 30 1006 56 10000 1.49 336 16:56 16.09.2022
1769 Clouds 33 1007 40 10000 1.21 344 15:26 16.09.2022
1770 Clouds 30 1012 66 9000 4.12 270 13:57 16.09.2022
1771 Clouds 31 1011 53 10000 1.04 0 11:31 16.09.2022
1772 Clouds 23 1013 90 10000 0.49 12 08:26 16.09.2022
1773 Clouds 21 1012 96 10000 0.05 120 07:19 16.09.2022
1774 Clouds 21 1012 96 10000 0.05 120 06:47 16.09.2022
1775 Clear 21 1011 97 10000 0.95 138 02:40 16.09.2022
1776 Clouds 22 1012 88 10000 1.27 114 22:52 15.09.2022
1777 Clouds 23 1011 83 10000 0.7 114 21:18 15.09.2022
1778 Clouds 27 1011 78 8000 0 0 19:49 15.09.2022
1779 Clouds 25 1009 84 10000 1.01 152 18:29 15.09.2022
1780 Clouds 25 1009 84 10000 1.01 152 17:32 15.09.2022
1781 Clouds 28 1009 71 10000 1.12 170 16:42 15.09.2022
1782 Rain 29 1009 63 10000 0.91 187 14:30 15.09.2022
1783 Clouds 31 1012 53 10000 1.36 153 12:21 15.09.2022
1784 Clouds 29 1014 60 10000 0.95 155 09:54 15.09.2022
1785 Clouds 23 1014 83 10000 0.93 153 07:50 15.09.2022
1786 Clouds 20 1012 99 10000 0.59 246 03:52 15.09.2022
1787 Clouds 21 1013 99 10000 0.87 245 23:44 14.09.2022
1788 Clouds 21 1013 98 10000 0.52 286 21:30 14.09.2022
1789 Rain 22 1011 94 10000 0.67 318 19:34 14.09.2022
1790 Rain 22 1011 94 10000 0.67 318 19:34 14.09.2022
1791 Clouds 23 1011 88 10000 0.9 321 18:32 14.09.2022
1792 Clouds 26 1009 76 10000 0.84 305 16:46 14.09.2022
1793 Clouds 27 1009 67 10000 1.12 314 15:38 14.09.2022
1794 Rain 28 1011 66 10000 1.03 228 13:54 14.09.2022
1795 Clouds 23 1015 90 10000 0.92 189 11:30 14.09.2022
1796 Clouds 21 1016 97 10000 0.73 156 09:48 14.09.2022
1797 Rain 21 1014 99 6239 0.96 129 07:29 14.09.2022
1798 Rain 21 1014 99 6239 0.96 129 06:34 14.09.2022
1799 Rain 21 1011 99 10000 0.81 43 04:24 14.09.2022
1800 Rain 20 1011 99 10000 0.67 56 01:46 14.09.2022
1801 Rain 20 1012 99 10000 1.18 18 01:27 14.09.2022
1802 Rain 20 1012 99 10000 1.18 18 00:42 14.09.2022
1803 Rain 21 1012 99 9863 0.78 25 23:54 13.09.2022
1804 Rain 21 1012 99 9863 0.78 25 23:36 13.09.2022
1805 Rain 21 1012 98 10000 1.32 48 23:18 13.09.2022
1806 Rain 21 1012 98 10000 1.23 59 21:45 13.09.2022
1807 Clouds 22 1010 90 10000 1.35 47 19:38 13.09.2022
1808 Clouds 24 1008 82 10000 1.56 83 17:41 13.09.2022
1809 Clouds 28 1007 68 10000 0.33 106 15:54 13.09.2022
1810 Clouds 26 1009 68 10000 1.27 351 14:31 13.09.2022
1811 Clouds 23 1011 92 10000 1.75 355 12:30 13.09.2022
1812 Rain 22 1015 99 10000 0.97 86 08:34 13.09.2022
1813 Rain 21 1011 99 10000 0.75 96 05:22 13.09.2022
1814 Rain 22 1012 98 10000 1.11 38 23:37 12.09.2022
1815 Rain 22 1012 98 10000 0.63 58 22:49 12.09.2022
1816 Rain 22 1012 96 10000 0.82 18 21:37 12.09.2022
1817 Rain 22 1011 96 10000 0.32 317 20:25 12.09.2022
1818 Rain 23 1010 95 10000 0.94 297 18:43 12.09.2022
1819 Rain 29 1008 66 10000 1.56 250 16:23 12.09.2022
1820 Rain 29 1009 64 10000 1.49 254 13:57 12.09.2022
1821 Clouds 27 1013 69 10000 1.89 274 11:29 12.09.2022
1822 Clouds 26 1014 75 10000 1.69 266 09:45 12.09.2022
1823 Rain 21 1011 98 10000 1.03 265 04:49 12.09.2022
1824 Clouds 21 1011 98 10000 1.06 252 03:33 12.09.2022
1825 Clouds 22 1012 95 10000 0.82 282 23:23 11.09.2022
1826 Rain 22 1012 95 10000 0.59 220 21:59 11.09.2022
1827 Rain 22 1012 94 10000 0.6 245 20:47 11.09.2022
1828 Clouds 22 1011 96 10000 0.98 290 19:53 11.09.2022
1829 Clouds 23 1010 95 10000 1.11 282 19:22 11.09.2022
1830 Rain 23 1009 94 10000 1.2 297 18:20 11.09.2022
1831 Rain 25 1009 91 10000 1.11 261 16:34 11.09.2022
1832 Rain 27 1009 81 6679 0.97 286 14:33 11.09.2022
1833 Rain 29 1011 74 10000 1.3 272 12:40 11.09.2022
1834 Mist 22 1015 94 4000 0 0 08:48 11.09.2022
1835 Clouds 21 1013 98 10000 0.16 278 06:56 11.09.2022
1836 Clouds 21 1012 98 10000 0.42 67 00:50 11.09.2022
1837 Rain 21 1013 99 10000 0.66 149 22:55 10.09.2022
1838 Rain 22 1012 97 10000 1.25 138 21:25 10.09.2022
1839 Rain 23 1011 94 10000 0.39 165 19:47 10.09.2022
1840 Rain 23 1010 92 10000 0.37 173 19:28 10.09.2022
1841 Rain 23 1010 92 10000 0.37 173 18:51 10.09.2022
1842 Rain 29 1008 68 10000 1.23 349 16:39 10.09.2022
1843 Rain 31 1009 56 10000 1.23 350 14:42 10.09.2022
1844 Rain 30 1011 61 10000 1.08 341 12:52 10.09.2022
1845 Clouds 30 1014 58 10000 1.1 347 10:58 10.09.2022
1846 Clouds 28 1015 66 10000 0.8 351 09:37 10.09.2022
1847 Clouds 26 1015 78 10000 1.14 324 08:36 10.09.2022
1848 Clouds 21 1014 98 10000 0.65 356 06:43 10.09.2022
1849 Clouds 21 1012 99 10000 1.18 24 00:40 10.09.2022
1850 Clouds 21 1012 99 10000 1.11 13 23:32 09.09.2022
1851 Rain 22 1013 99 10000 1.38 336 21:50 09.09.2022
1852 Rain 22 1013 99 10000 1.24 315 20:41 09.09.2022
1853 Rain 22 1011 97 9002 1.59 282 19:24 09.09.2022
1854 Rain 22 1011 97 9002 1.59 282 18:46 09.09.2022
1855 Rain 29 1008 66 10000 0.85 227 16:23 09.09.2022
1856 Clouds 33 1008 46 10000 0.54 263 13:48 09.09.2022
1857 Clouds 32 1010 50 10000 0.37 332 12:30 09.09.2022
1858 Clouds 26 1014 76 10000 0.77 325 09:53 09.09.2022
1859 Rain 20 1012 99 10000 0.73 253 04:57 09.09.2022
1860 Rain 20 1011 99 10000 2.38 276 02:54 09.09.2022
1861 Rain 22 1011 98 10000 1.73 265 21:52 08.09.2022
1862 Rain 23 1010 96 5241 0.88 203 20:51 08.09.2022
1863 Rain 22 1010 98 10000 1.87 286 20:31 08.09.2022
1864 Rain 22 1009 97 10000 0.31 115 19:49 08.09.2022
1865 Rain 24 1006 87 10000 1.29 321 18:22 08.09.2022
1866 Rain 30 1004 56 10000 1.73 64 16:19 08.09.2022
1867 Clouds 32 1018 58 10000 3.09 270 14:40 08.09.2022
1868 Clouds 33 1008 46 10000 1.43 353 13:26 08.09.2022
1869 Clouds 30 1012 66 10000 3.09 360 11:57 08.09.2022
1870 Clouds 31 1011 57 10000 1.83 7 10:52 08.09.2022
1871 Haze 24 1012 88 5000 0 0 08:21 08.09.2022
1872 Clouds 22 1012 97 10000 1.29 353 06:41 08.09.2022
1873 Clouds 22 1009 91 10000 0.43 202 02:36 08.09.2022
1874 Clouds 22 1009 90 10000 0.51 108 02:18 08.09.2022
1875 Clouds 23 1010 88 10000 1.13 89 00:27 08.09.2022
1876 Clouds 23 1010 86 10000 1.32 90 22:42 07.09.2022
1877 Clouds 24 1010 85 10000 0.69 105 21:42 07.09.2022
1878 Clouds 24 1009 83 10000 0.4 145 20:42 07.09.2022
1879 Clouds 25 1008 77 10000 0.67 235 19:40 07.09.2022
1880 Clouds 27 1008 75 10000 0.83 234 17:49 07.09.2022
1881 Clouds 34 1009 43 10000 0.35 356 12:52 07.09.2022
1882 Clouds 31 1013 55 10000 1.58 29 10:47 07.09.2022
1883 Clouds 26 1014 75 10000 1.21 34 08:38 07.09.2022
1884 Clouds 23 1012 89 10000 0.39 29 06:57 07.09.2022
1885 Clouds 23 1011 84 10000 0.35 247 02:46 07.09.2022
1886 Clouds 25 1012 79 10000 0.87 242 22:44 06.09.2022
1887 Clouds 25 1011 77 10000 0.59 313 21:39 06.09.2022
1888 Clouds 25 1010 82 10000 1.03 5 20:24 06.09.2022
1889 Clouds 27 1010 74 9000 2.06 0 18:45 06.09.2022
1890 Clouds 27 1008 74 10000 0.35 265 18:21 06.09.2022
1891 Clouds 29 1008 64 10000 0.91 300 17:21 06.09.2022
1892 Clouds 29 1008 64 10000 0.91 300 16:37 06.09.2022
1893 Clouds 30 1008 57 10000 0.56 321 14:59 06.09.2022
1894 Clouds 33 1009 44 10000 0.2 313 13:45 06.09.2022
1895 Clear 35 1011 40 10000 0.41 352 13:22 06.09.2022
1896 Clear 34 1013 44 10000 0.8 10 11:54 06.09.2022
1897 Clear 32 1014 50 10000 1.27 16 10:41 06.09.2022
1898 Clear 27 1015 70 10000 1.37 28 08:41 06.09.2022
1899 Clouds 25 1015 82 10000 1.07 27 07:37 06.09.2022
1900 Clouds 23 1012 89 10000 0.41 273 02:43 06.09.2022
1901 Clouds 24 1014 80 10000 0.72 303 23:22 05.09.2022
1902 Clouds 25 1014 78 10000 0.25 276 21:52 05.09.2022
1903 Clouds 25 1012 76 10000 0.47 4 20:33 05.09.2022
1904 Clouds 26 1011 71 10000 0.75 69 19:19 05.09.2022
1905 Clouds 30 1012 62 10000 0 0 18:45 05.09.2022
1906 Clouds 26 1010 69 10000 0.32 134 18:21 05.09.2022
1907 Clouds 28 1009 65 10000 0.79 288 16:35 05.09.2022
1908 Clouds 30 1009 57 10000 1.01 265 15:46 05.09.2022
1909 Clouds 34 1012 39 10000 0.58 199 13:25 05.09.2022
1910 Clouds 33 1013 42 10000 0.62 231 12:27 05.09.2022
1911 Clouds 30 1015 53 10000 0.95 311 09:44 05.09.2022
1912 Clouds 21 1015 88 10000 0.66 318 06:40 05.09.2022
1913 Clouds 21 1014 88 10000 0.22 185 01:56 05.09.2022
1914 Clear 22 1015 84 10000 0.51 276 22:59 04.09.2022
1915 Clear 22 1015 82 10000 0.49 264 22:27 04.09.2022
1916 Clouds 23 1014 83 10000 0.17 86 20:44 04.09.2022
1917 Clouds 24 1012 78 10000 0.53 190 19:29 04.09.2022
1918 Clouds 25 1011 75 10000 0.36 209 17:50 04.09.2022
1919 Clouds 31 1013 51 8888 2.06 120 16:42 04.09.2022
1920 Clouds 32 1012 44 10000 1.53 281 14:29 04.09.2022
1921 Clouds 32 1013 45 10000 1.11 280 13:28 04.09.2022
1922 Clouds 32 1013 45 10000 1.11 280 13:28 04.09.2022
1923 Clouds 31 1014 49 10000 0.78 254 11:52 04.09.2022
1924 Clouds 24 1018 88 10000 2.06 120 09:56 04.09.2022
1925 Clouds 20 1016 97 10000 0.45 208 07:29 04.09.2022
1926 Clouds 20 1014 99 10000 0.63 246 04:44 04.09.2022
1927 Clouds 20 1015 98 10000 0.44 309 00:42 04.09.2022
1928 Clouds 20 1015 96 10000 0.32 250 22:21 03.09.2022
1929 Clouds 21 1015 94 10000 0.3 231 21:23 03.09.2022
1930 Clouds 21 1013 92 10000 0.79 132 18:59 03.09.2022
1931 Clouds 24 1012 82 10000 0.75 129 17:26 03.09.2022
1932 Clouds 25 1012 74 10000 0.53 147 16:27 03.09.2022
1933 Clouds 27 1014 74 10000 0 0 14:44 03.09.2022
1934 Clouds 26 1014 65 10000 1.3 218 13:55 03.09.2022
1935 Clouds 23 1017 83 10000 1.06 180 11:51 03.09.2022
1936 Clouds 20 1018 95 10000 0.79 164 09:56 03.09.2022
1937 Clouds 19 1017 98 10000 0.43 158 08:27 03.09.2022
1938 Clouds 19 1017 99 10000 0.78 157 06:53 03.09.2022
1939 Clouds 19 1016 99 10000 1.06 136 04:31 03.09.2022
1940 Clouds 19 1015 99 10000 0.38 112 23:49 02.09.2022
1941 Clouds 19 1015 100 10000 0.12 251 22:45 02.09.2022
1942 Clouds 20 1014 99 10000 1.08 271 20:59 02.09.2022
1943 Clouds 20 1014 99 10000 1.08 271 20:59 02.09.2022
1944 Clouds 20 1013 99 10000 1.17 292 20:27 02.09.2022
1945 Clouds 20 1013 98 10000 1.09 268 18:59 02.09.2022
1946 Clouds 20 1014 97 10000 1.4 279 18:28 02.09.2022
1947 Clouds 20 1014 97 10000 1.4 279 17:36 02.09.2022
1948 Clouds 21 1013 97 10000 1.19 292 16:46 02.09.2022
1949 Rain 21 1014 97 10000 1.08 275 13:51 02.09.2022
1950 Rain 21 1016 99 10000 1.34 272 12:24 02.09.2022
1951 Rain 20 1017 100 2030 0.98 254 09:50 02.09.2022
1952 Rain 20 1015 99 4027 0.55 36 08:56 02.09.2022
1953 Rain 20 1014 99 8028 1.39 157 07:24 02.09.2022
1954 Rain 20 1014 99 8028 1.39 157 06:35 02.09.2022
1955 Rain 21 1010 99 1280 0.88 47 02:37 02.09.2022
1956 Rain 21 1011 99 7817 0.9 55 22:30 01.09.2022
1957 Rain 22 1011 98 10000 1.22 11 21:43 01.09.2022
1958 Rain 22 1010 96 7442 1.37 33 21:23 01.09.2022
1959 Rain 22 1010 96 7442 1.37 33 20:37 01.09.2022
1960 Clouds 26 1007 74 10000 0.65 141 18:49 01.09.2022
1961 Clouds 28 1006 68 10000 0.89 123 17:21 01.09.2022
1962 Clouds 30 1005 56 10000 0.83 105 15:47 01.09.2022
1963 Clouds 30 1007 58 10000 1.94 98 13:55 01.09.2022
1964 Clouds 31 1009 52 10000 1.52 88 12:57 01.09.2022
1965 Clouds 29 1012 70 10000 1.54 0 11:52 01.09.2022
1966 Clouds 31 1010 52 10000 1.2 69 11:30 01.09.2022
1967 Clouds 27 1012 71 10000 1.33 35 10:19 01.09.2022
1968 Clouds 22 1012 96 10000 1.15 72 07:51 01.09.2022
1969 Clouds 20 1011 99 10000 1.17 30 06:21 01.09.2022
1970 Rain 21 1010 98 10000 0.91 11 01:31 01.09.2022
1971 Clouds 22 1012 96 10000 1.11 51 23:19 31.08.2022
1972 Clouds 22 1012 95 10000 1.05 44 21:30 31.08.2022
1973 Clouds 23 1010 91 10000 0.91 13 19:46 31.08.2022
1974 Clouds 25 1008 81 10000 0.71 14 17:52 31.08.2022
1975 Clouds 29 1008 61 10000 1.07 359 15:44 31.08.2022
1976 Rain 31 1012 62 10000 0 0 13:56 31.08.2022
1977 Rain 27 1012 76 7947 2.47 28 12:20 31.08.2022
1978 Rain 27 1013 69 10000 1.98 57 10:30 31.08.2022
1979 Clouds 24 1014 85 10000 0.95 92 08:34 31.08.2022
1980 Clouds 21 1010 98 10000 0.66 160 03:46 31.08.2022
1981 Clouds 22 1013 98 10000 0.81 161 22:44 30.08.2022
1982 Clouds 22 1013 98 10000 0.83 157 21:33 30.08.2022
1983 Clouds 22 1012 97 10000 0.94 151 20:38 30.08.2022
1984 Rain 26 1009 80 10000 1.45 210 17:25 30.08.2022
1985 Rain 27 1010 75 10000 1.82 183 14:41 30.08.2022
1986 Rain 28 1015 65 10000 4.12 200 12:54 30.08.2022
1987 Rain 25 1014 85 10000 1.08 157 11:20 30.08.2022
1988 Rain 25 1014 85 10000 1.08 157 10:35 30.08.2022
1989 Rain 21 1014 99 10000 0.33 209 06:49 30.08.2022
1990 Rain 20 1012 99 10000 0.78 301 01:45 30.08.2022
1991 Rain 21 1013 98 10000 2.5 238 22:47 29.08.2022
1992 Rain 21 1013 98 10000 2.31 241 22:18 29.08.2022
1993 Rain 22 1011 98 10000 1.05 225 21:23 29.08.2022
1994 Rain 22 1011 97 5568 1.68 227 19:42 29.08.2022
1995 Rain 23 1009 91 10000 0.86 249 17:42 29.08.2022
1996 Rain 24 1008 85 10000 0.84 203 17:24 29.08.2022
1997 Rain 24 1008 89 10000 0.99 184 15:42 29.08.2022
1998 Rain 31 1008 51 10000 0.64 326 14:18 29.08.2022
1999 Clouds 32 1009 46 10000 1.26 339 12:42 29.08.2022
2000 Clouds 30 1012 55 10000 1.47 353 10:51 29.08.2022
2001 Clouds 25 1014 88 10000 4.12 130 09:41 29.08.2022
2002 Clouds 23 1014 92 10000 0.88 51 08:27 29.08.2022
2003 Clouds 21 1011 99 10000 0.49 229 02:42 29.08.2022
2004 Clouds 22 1013 98 10000 0.85 249 23:52 28.08.2022
2005 Rain 22 1013 96 10000 0.53 53 22:22 28.08.2022
2006 Rain 22 1013 98 10000 1.69 140 21:32 28.08.2022
2007 Rain 22 1012 96 10000 1.44 113 20:39 28.08.2022
2008 Rain 23 1010 95 10000 1.11 43 18:51 28.08.2022
2009 Rain 23 1009 94 10000 1.06 55 18:19 28.08.2022
2010 Rain 25 1008 92 10000 0.83 39 16:55 28.08.2022
2011 Rain 26 1008 87 5886 0.47 310 15:50 28.08.2022
2012 Rain 28 1008 67 10000 1.74 240 13:47 28.08.2022
2013 Rain 30 1009 60 10000 1.71 275 12:31 28.08.2022
2014 Rain 29 1012 56 10000 1.59 354 10:40 28.08.2022
2015 Rain 28 1012 64 10000 1.56 1 09:40 28.08.2022
2016 Clouds 24 1013 83 10000 1.29 2 08:32 28.08.2022
2017 Clouds 22 1013 93 10000 1.11 353 07:34 28.08.2022
2018 Clouds 21 1010 96 10000 0.82 354 01:28 28.08.2022
2019 Clouds 21 1011 96 10000 0.37 53 00:20 28.08.2022
2020 Clouds 21 1011 95 10000 0.63 56 22:31 27.08.2022
2021 Rain 22 1010 93 10000 0.8 73 20:53 27.08.2022
2022 Rain 22 1009 91 10000 0.41 100 19:38 27.08.2022
2023 Clouds 30 1006 56 10000 0.6 74 16:37 27.08.2022
2024 Clouds 31 1006 50 10000 0.94 91 15:31 27.08.2022
2025 Clouds 31 1008 48 10000 1.47 117 14:18 27.08.2022
2026 Clouds 30 1011 53 10000 1.18 129 12:22 27.08.2022
2027 Clouds 28 1012 60 10000 1.1 115 10:33 27.08.2022
2028 Clouds 25 1013 75 10000 0.9 116 09:40 27.08.2022
2029 Clouds 25 1013 75 10000 0.9 116 09:40 27.08.2022
2030 Clouds 20 1012 98 10000 0.59 87 06:55 27.08.2022
2031 Clouds 20 1010 99 10000 0.48 187 02:31 27.08.2022
2032 Clouds 20 1012 99 10000 0.26 256 23:51 26.08.2022
2033 Clouds 21 1012 98 10000 0.16 26 22:24 26.08.2022
2034 Clouds 21 1011 97 10000 0.52 4 20:25 26.08.2022
2035 Clouds 21 1011 97 10000 0.45 350 18:59 26.08.2022
2036 Clouds 22 1011 96 10000 0.92 318 16:42 26.08.2022
2037 Rain 22 1011 96 10000 1.59 301 15:27 26.08.2022
2038 Rain 24 1011 88 10000 2.07 306 13:44 26.08.2022
2039 Rain 24 1013 88 10000 2.32 303 12:35 26.08.2022
2040 Rain 23 1015 90 10000 2.19 301 11:22 26.08.2022
2041 Clouds 23 1015 91 10000 2.09 296 09:59 26.08.2022
2042 Rain 20 1012 99 10000 1.21 288 05:26 26.08.2022
2043 Clouds 21 1011 96 10000 0.82 244 01:18 26.08.2022
2044 Rain 20 1011 96 10000 1.16 324 22:57 25.08.2022
2045 Rain 22 1011 98 10000 2.3 92 20:59 25.08.2022
2046 Rain 23 1010 92 10000 0.87 121 19:54 25.08.2022
2047 Rain 25 1008 79 10000 0.45 335 18:47 25.08.2022
2048 Clouds 27 1007 72 10000 1.11 315 17:32 25.08.2022
2049 Clouds 31 1006 55 10000 1.17 315 16:46 25.08.2022
2050 Clouds 31 1006 49 10000 1.53 315 15:37 25.08.2022
2051 Clouds 32 1007 49 10000 1.45 286 14:30 25.08.2022
2052 Rain 30 1011 61 10000 0.87 271 11:34 25.08.2022
2053 Rain 29 1012 66 10000 1.3 3 10:45 25.08.2022
2054 Clouds 25 1014 82 10000 1.77 9 08:41 25.08.2022
2055 Rain 21 1012 99 10000 0.89 12 04:40 25.08.2022
2056 Rain 21 1012 97 10000 1.34 326 23:56 24.08.2022
2057 Rain 21 1013 98 10000 0.52 228 23:25 24.08.2022
2058 Rain 21 1013 98 10000 1.48 197 21:59 24.08.2022
2059 Rain 21 1013 98 10000 1.48 197 21:31 24.08.2022
2060 Rain 22 1011 95 10000 2.38 158 20:18 24.08.2022
2061 Rain 24 1009 89 10000 1.79 166 17:32 24.08.2022
2062 Clouds 29 1007 60 10000 0.8 222 16:22 24.08.2022
2063 Clouds 29 1007 60 10000 0.8 222 15:40 24.08.2022
2064 Clouds 35 1009 39 10000 0.96 84 12:52 24.08.2022
2065 Clouds 31 1011 50 10000 1.27 58 11:22 24.08.2022
2066 Clouds 26 1013 65 10000 0.83 44 09:19 24.08.2022
2067 Clouds 20 1013 87 10000 0.73 17 06:52 24.08.2022
2068 Clouds 20 1012 91 10000 0.96 51 01:43 24.08.2022
2069 Clouds 20 1013 92 10000 0.92 34 22:51 23.08.2022
2070 Clouds 21 1013 92 10000 1.05 29 22:21 23.08.2022
2071 Clouds 21 1013 90 10000 1.29 6 21:21 23.08.2022
2072 Clouds 23 1012 86 10000 1.45 3 19:28 23.08.2022
2073 Clouds 23 1012 86 10000 1.45 3 18:30 23.08.2022
2074 Clouds 25 1012 78 10000 1.49 346 17:43 23.08.2022
2075 Clouds 26 1011 72 10000 1.37 344 16:31 23.08.2022
2076 Clouds 25 1013 78 10000 4.12 20 14:54 23.08.2022
2077 Clouds 25 1013 75 10000 1.77 339 13:25 23.08.2022
2078 Clouds 23 1015 86 10000 1.43 359 11:19 23.08.2022
2079 Clouds 23 1015 86 10000 1.43 359 10:33 23.08.2022
2080 Clouds 22 1014 91 10000 1.05 10 09:46 23.08.2022
2081 Clouds 21 1014 96 10000 0.73 8 08:47 23.08.2022
2082 Clouds 20 1013 98 10000 0.83 305 08:19 23.08.2022
2083 Mist 20 1014 100 3000 0 0 07:33 23.08.2022
2084 Rain 20 1012 99 10000 1.65 269 06:26 23.08.2022
2085 Rain 21 1011 99 6337 0.81 186 01:52 23.08.2022
2086 Rain 21 1012 98 8285 2.02 191 00:27 23.08.2022
2087 Rain 21 1012 98 8285 2.02 191 23:32 22.08.2022
2088 Rain 23 1011 94 7091 1.86 195 22:29 22.08.2022
2089 Rain 22 1010 97 3751 0.75 257 20:58 22.08.2022
2090 Rain 23 1009 94 10000 1.71 281 19:46 22.08.2022
2091 Rain 24 1008 85 10000 0.74 304 18:38 22.08.2022
2092 Clouds 29 1004 65 10000 1.04 329 16:26 22.08.2022
2093 Clouds 29 1004 65 10000 1.04 329 15:36 22.08.2022
2094 Clouds 34 1008 45 10000 0.82 291 12:56 22.08.2022
2095 Clouds 28 1012 65 10000 1.36 356 09:57 22.08.2022
2096 Clouds 21 1011 98 10000 0.53 316 07:21 22.08.2022
2097 Clouds 22 1008 91 10000 0.09 140 02:42 22.08.2022
2098 Clouds 22 1009 90 10000 0.16 274 00:37 22.08.2022
2099 Clouds 22 1010 91 10000 0.28 211 23:43 21.08.2022
2100 Rain 22 1010 94 10000 0.67 307 21:57 21.08.2022
2101 Rain 23 1010 90 10000 1.72 18 21:21 21.08.2022
2102 Rain 25 1009 77 10000 1.36 51 20:21 21.08.2022
2103 Clouds 27 1008 67 10000 0.53 115 19:18 21.08.2022
2104 Clouds 32 1009 48 8000 3.09 340 16:52 21.08.2022
2105 Clouds 34 1006 39 10000 0.85 224 15:53 21.08.2022
2106 Clouds 35 1006 38 10000 0.66 226 14:59 21.08.2022
2107 Clouds 34 1008 39 10000 0.62 286 13:51 21.08.2022
2108 Clouds 34 1010 41 10000 0.47 335 12:57 21.08.2022
2109 Clouds 31 1012 51 10000 1.07 21 10:48 21.08.2022
2110 Clouds 26 1013 68 10000 0.92 43 09:21 21.08.2022
2111 Clouds 26 1013 68 10000 0.92 43 08:56 21.08.2022
2112 Clouds 26 1014 73 10000 1.4 45 08:38 21.08.2022
2113 Clouds 20 1014 93 10000 0.97 35 07:26 21.08.2022
2114 Rain 20 1013 93 10000 0.3 51 02:52 21.08.2022
2115 Clouds 21 1014 91 10000 0.7 96 23:44 20.08.2022
2116 Clouds 21 1013 93 10000 0.73 38 22:23 20.08.2022
2117 Clouds 22 1013 91 10000 0.95 20 21:26 20.08.2022
2118 Clouds 22 1012 90 10000 0.77 29 19:58 20.08.2022
2119 Clouds 22 1012 90 10000 0.77 29 19:39 20.08.2022
2120 Clouds 26 1011 76 10000 1.15 47 18:27 20.08.2022
2121 Clouds 29 1010 62 10000 0.78 47 17:25 20.08.2022
2122 Clouds 30 1010 55 10000 0.91 12 16:23 20.08.2022
2123 Clouds 29 1013 61 10000 2.06 0 14:55 20.08.2022
2124 Clouds 25 1015 75 10000 1.3 27 12:28 20.08.2022
2125 Clouds 27 1015 69 10000 3.09 30 11:46 20.08.2022
2126 Clouds 22 1016 93 10000 1.97 55 09:25 20.08.2022
2127 Clouds 21 1015 96 10000 1.91 55 07:31 20.08.2022
2128 Clouds 21 1014 98 10000 1.6 52 05:48 20.08.2022
2129 Clouds 21 1013 97 10000 1.03 346 00:58 20.08.2022
2130 Rain 21 1014 96 10000 1.25 334 23:51 19.08.2022
2131 Rain 22 1013 92 10000 1.24 20 22:48 19.08.2022
2132 Clouds 22 1013 91 10000 1.47 55 21:34 19.08.2022
2133 Clouds 22 1012 94 10000 1.07 54 19:40 19.08.2022
2134 Clouds 26 1010 75 10000 0.95 64 16:28 19.08.2022
2135 Rain 25 1011 86 10000 1.26 147 14:22 19.08.2022
2136 Rain 28 1012 65 10000 0.26 262 12:19 19.08.2022
2137 Rain 25 1014 79 10000 0.33 51 10:39 19.08.2022
2138 Clouds 24 1014 83 10000 0.2 96 09:36 19.08.2022
2139 Clouds 20 1012 99 10000 0.56 325 04:56 19.08.2022
2140 Clouds 20 1012 93 10000 0.92 301 00:43 19.08.2022
2141 Clouds 20 1012 91 10000 0.96 273 00:19 19.08.2022
2142 Clear 20 1012 89 10000 1.06 286 22:58 18.08.2022
2143 Clear 21 1012 88 10000 0.78 252 22:26 18.08.2022
2144 Clear 21 1012 88 10000 0.78 252 21:50 18.08.2022
2145 Clear 21 1011 87 10000 1.01 218 20:55 18.08.2022
2146 Clouds 21 1011 88 10000 0.74 209 19:40 18.08.2022
2147 Clouds 22 1010 87 10000 1.14 181 19:20 18.08.2022
2148 Clouds 22 1009 86 10000 1.36 177 17:38 18.08.2022
2149 Rain 25 1009 73 10000 1.86 190 16:18 18.08.2022
2150 Clouds 29 1010 56 10000 2.29 189 14:22 18.08.2022
2151 Clouds 29 1009 53 10000 1.23 226 13:44 18.08.2022
2152 Clouds 29 1009 53 10000 1.23 226 13:44 18.08.2022
2153 Clouds 29 1009 53 10000 1.23 226 13:44 18.08.2022
2154 Clouds 30 1010 52 10000 0.51 240 12:30 18.08.2022
2155 Clouds 27 1013 64 10000 1.07 105 11:21 18.08.2022
2156 Clouds 24 1014 80 10000 1.27 122 09:43 18.08.2022
2157 Clouds 21 1014 96 10000 0.56 143 07:53 18.08.2022
2158 Clouds 20 1013 98 10000 0.73 156 06:37 18.08.2022
2159 Clouds 20 1012 98 10000 0.73 183 02:22 18.08.2022
2160 Clouds 20 1013 99 10000 0.93 158 22:47 17.08.2022
2161 Clouds 20 1011 99 10000 0.82 83 20:37 17.08.2022
2162 Clouds 20 1011 98 10000 0.83 76 19:59 17.08.2022
2163 Clouds 21 1011 98 10000 0.82 88 18:37 17.08.2022
2164 Clouds 21 1011 97 10000 0.36 102 17:21 17.08.2022
2165 Clouds 22 1011 96 10000 0.31 100 16:20 17.08.2022
2166 Rain 22 1012 95 10000 0.44 97 14:41 17.08.2022
2167 Rain 21 1013 96 10000 0.86 95 12:30 17.08.2022
2168 Rain 22 1015 91 10000 1.62 72 11:25 17.08.2022
2169 Clouds 22 1015 95 10000 1.49 64 09:22 17.08.2022
2170 Rain 21 1014 99 10000 0.97 49 06:34 17.08.2022
2171 Clouds 21 1013 99 10000 0.94 330 01:22 17.08.2022
2172 Rain 21 1014 99 10000 1.2 350 23:32 16.08.2022
2173 Clouds 21 1014 98 10000 1.49 7 21:33 16.08.2022
2174 Clouds 21 1013 98 10000 1.16 355 20:22 16.08.2022
2175 Clouds 22 1012 97 10000 0.93 354 19:27 16.08.2022
2176 Clouds 23 1011 93 10000 1.06 338 17:56 16.08.2022
2177 Rain 23 1011 88 10000 0.86 332 16:55 16.08.2022
2178 Rain 25 1010 81 10000 1.19 304 15:45 16.08.2022
2179 Clouds 28 1013 69 8000 0 0 14:54 16.08.2022
2180 Clouds 28 1013 69 8000 0 0 14:36 16.08.2022
2181 Rain 22 1013 93 10000 1.63 24 12:39 16.08.2022
2182 Clouds 22 1015 91 10000 0.69 1 10:23 16.08.2022
2183 Mist 22 1014 94 4000 0 0 08:55 16.08.2022
2184 Mist 22 1014 94 4000 0 0 08:26 16.08.2022
2185 Clouds 20 1014 98 10000 0.82 73 06:48 16.08.2022
2186 Rain 21 1012 99 10000 2 270 00:32 16.08.2022
2187 Rain 21 1013 99 9992 0.74 278 22:24 15.08.2022
2188 Rain 21 1013 99 9992 0.74 278 21:50 15.08.2022
2189 Rain 21 1012 98 8420 0.36 268 20:32 15.08.2022
2190 Rain 21 1011 96 8690 1.8 200 19:59 15.08.2022
2191 Rain 23 1009 93 10000 1.54 139 17:59 15.08.2022
2192 Rain 25 1008 80 10000 1.72 46 16:25 15.08.2022
2193 Rain 25 1008 80 10000 1.72 46 15:52 15.08.2022
2194 Clouds 33 1008 44 10000 0.81 225 13:50 15.08.2022
2195 Clouds 30 1012 56 10000 0.5 257 11:24 15.08.2022
2196 Clouds 27 1013 67 10000 0.66 307 09:40 15.08.2022
2197 Clouds 22 1012 94 10000 0.29 311 07:32 15.08.2022
2198 Clouds 20 1010 99 10000 0.45 351 04:34 15.08.2022
2199 Clouds 21 1011 99 10000 0.64 329 00:33 15.08.2022
2200 Clouds 21 1012 98 10000 0.95 277 22:30 14.08.2022
2201 Clouds 21 1012 98 10000 1.26 268 21:37 14.08.2022
2202 Rain 22 1010 94 9200 0.43 252 19:47 14.08.2022
2203 Rain 23 1009 87 10000 0.36 206 18:57 14.08.2022
2204 Clouds 25 1008 78 10000 0.64 154 18:18 14.08.2022
2205 Clouds 28 1007 63 10000 0.72 165 16:52 14.08.2022
2206 Clouds 29 1008 58 10000 0.46 160 15:48 14.08.2022
2207 Rain 24 1011 83 10000 0.83 305 14:24 14.08.2022
2208 Rain 24 1011 83 10000 0.83 305 13:49 14.08.2022
2209 Clouds 24 1012 83 10000 0.66 347 13:19 14.08.2022
2210 Clouds 23 1012 84 10000 0.98 24 11:56 14.08.2022
2211 Clouds 24 1013 82 10000 1.2 34 10:40 14.08.2022
2212 Clouds 23 1013 84 10000 0.81 44 08:50 14.08.2022
2213 Clouds 21 1012 94 10000 1.01 40 06:21 14.08.2022
2214 Clouds 21 1011 97 10000 0.42 92 02:47 14.08.2022
2215 Clouds 21 1013 96 10000 0.5 290 23:49 13.08.2022
2216 Clouds 21 1013 97 10000 0.1 115 22:52 13.08.2022
2217 Clouds 21 1012 98 10000 0.42 196 20:58 13.08.2022
2218 Clouds 21 1012 98 10000 0.42 196 20:31 13.08.2022
2219 Clouds 21 1011 95 10000 0.83 115 19:29 13.08.2022
2220 Clouds 23 1010 89 10000 0.89 123 17:40 13.08.2022
2221 Clouds 24 1011 87 10000 1.37 87 15:23 13.08.2022
2222 Rain 23 1012 93 10000 1.53 71 14:26 13.08.2022
2223 Clouds 24 1011 81 10000 1.78 54 13:38 13.08.2022
2224 Clouds 23 1014 92 10000 1.31 47 11:52 13.08.2022
2225 Clouds 23 1014 91 10000 1.41 40 10:21 13.08.2022
2226 Clouds 22 1013 96 10000 0.99 23 08:23 13.08.2022
2227 Clouds 22 1013 96 10000 0.99 23 08:23 13.08.2022
2228 Clouds 22 1013 96 10000 0.99 23 08:23 13.08.2022
2229 Rain 21 1012 97 10000 0.91 100 05:22 13.08.2022
2230 Rain 21 1014 98 10000 1.34 265 23:52 12.08.2022
2231 Rain 22 1014 99 2960 2.25 245 21:42 12.08.2022
2232 Rain 22 1013 98 7609 2.17 227 20:51 12.08.2022
2233 Rain 26 1010 89 6000 0 0 19:39 12.08.2022
2234 Rain 24 1009 86 10000 1.46 337 18:46 12.08.2022
2235 Clouds 28 1008 66 10000 1.36 341 16:37 12.08.2022
2236 Clouds 28 1010 74 8000 3.09 340 15:49 12.08.2022
2237 Clouds 33 1008 45 10000 1.12 340 14:29 12.08.2022
2238 Rain 28 1012 69 8000 4.12 280 12:53 12.08.2022
2239 Clouds 27 1012 66 10000 1.18 5 10:35 12.08.2022
2240 Clouds 24 1011 81 10000 1.1 24 07:47 12.08.2022
2241 Clouds 22 1011 93 10000 0.89 20 06:38 12.08.2022
2242 Clouds 21 1008 95 10000 0.56 0 02:33 12.08.2022
2243 Clouds 22 1010 90 10000 1.33 5 00:24 12.08.2022
2244 Clouds 22 1010 90 10000 1.33 5 23:35 11.08.2022
2245 Clouds 23 1010 87 10000 0.97 14 22:26 11.08.2022
2246 Clouds 23 1010 87 10000 0.97 14 21:40 11.08.2022
2247 Clouds 24 1010 83 10000 1.62 47 20:51 11.08.2022
2248 Clouds 24 1009 79 10000 1.88 51 20:19 11.08.2022
2249 Clouds 25 1008 74 10000 0.97 48 19:32 11.08.2022
2250 Clouds 27 1007 70 10000 1.26 12 17:48 11.08.2022
2251 Clouds 28 1006 63 10000 1.88 329 16:35 11.08.2022
2252 Clouds 33 1005 44 10000 0.49 214 15:24 11.08.2022
2253 Clouds 26 1012 78 6000 2.06 330 13:37 11.08.2022
2254 Clouds 25 1013 78 6000 2.06 330 10:27 11.08.2022
2255 Clouds 25 1010 70 10000 0.73 342 07:38 11.08.2022
2256 Clouds 23 1008 80 10000 1.05 318 03:52 11.08.2022
2257 Clouds 24 1009 73 10000 0.71 11 00:50 11.08.2022
2258 Clouds 25 1009 68 10000 0.77 7 22:32 10.08.2022
2259 Clouds 26 1009 63 10000 0.4 292 21:25 10.08.2022
2260 Clouds 26 1009 63 10000 0.4 292 20:55 10.08.2022
2261 Clouds 27 1008 58 10000 0.33 98 19:31 10.08.2022
2262 Clouds 29 1006 55 10000 0.19 246 18:22 10.08.2022
2263 Clouds 32 1006 47 10000 0.36 67 16:41 10.08.2022
2264 Haze 31 1010 66 5000 4.12 300 13:36 10.08.2022
2265 Clouds 31 1011 66 5000 3.09 300 12:44 10.08.2022
2266 Clouds 28 1012 56 10000 0.76 175 09:25 10.08.2022
2267 Clouds 28 1012 56 10000 0.76 175 08:34 10.08.2022
2268 Clouds 22 1011 79 10000 0.59 67 07:19 10.08.2022
2269 Clouds 22 1010 77 10000 0.52 1 03:32 10.08.2022
2270 Clouds 24 1010 66 10000 0.37 145 23:51 09.08.2022
2271 Clouds 24 1011 65 10000 0.41 105 23:24 09.08.2022
2272 Clouds 25 1010 63 10000 0.45 119 21:36 09.08.2022
2273 Clouds 25 1010 61 10000 0.54 115 20:36 09.08.2022
2274 Clouds 30 1009 66 6000 0 0 18:45 09.08.2022
2275 Clouds 29 1007 55 10000 0.9 358 17:31 09.08.2022
2276 Clouds 33 1007 42 10000 0.85 338 16:42 09.08.2022
2277 Clouds 33 1009 52 6000 2.06 360 15:59 09.08.2022
2278 Clouds 35 1007 32 10000 0.9 205 14:28 09.08.2022
2279 Clouds 32 1012 44 10000 0.77 279 10:39 09.08.2022
2280 Clear 28 1013 60 10000 0.4 272 08:51 09.08.2022
2281 Clouds 25 1012 70 10000 0.45 350 07:54 09.08.2022
2282 Clouds 21 1010 82 10000 0.27 227 04:28 09.08.2022
2283 Clouds 23 1010 78 10000 0.43 10 23:46 08.08.2022
2284 Clouds 24 1013 94 6000 0 0 22:57 08.08.2022
2285 Clouds 24 1013 94 6000 0 0 22:35 08.08.2022
2286 Clouds 25 1010 69 10000 0.56 320 21:27 08.08.2022
2287 Haze 27 1010 89 5000 0 0 19:57 08.08.2022
2288 Clouds 25 1009 72 10000 0.65 332 19:22 08.08.2022
2289 Clouds 27 1008 67 10000 1.16 293 17:34 08.08.2022
2290 Clouds 31 1006 49 10000 0.62 168 15:45 08.08.2022
2291 Clouds 32 1007 49 10000 1.01 190 14:33 08.08.2022
2292 Clouds 33 1010 44 10000 1.09 220 12:29 08.08.2022
2293 Clouds 30 1012 57 10000 0.4 226 10:19 08.08.2022
2294 Clouds 22 1011 90 10000 0.28 285 06:56 08.08.2022
2295 Clouds 21 1009 91 10000 0.88 293 03:34 08.08.2022
2296 Clouds 23 1010 84 10000 0.88 287 22:44 07.08.2022
2297 Clouds 24 1010 81 10000 0.42 309 21:40 07.08.2022
2298 Clouds 23 1010 89 10000 0.99 329 20:42 07.08.2022
2299 Clouds 24 1009 85 10000 0.61 32 20:18 07.08.2022
2300 Clouds 24 1009 85 10000 0.61 32 19:41 07.08.2022
2301 Rain 26 1011 78 6000 0 0 18:36 07.08.2022
2302 Rain 28 1007 69 10000 1.27 232 16:55 07.08.2022
2303 Rain 28 1007 69 10000 1.27 232 16:35 07.08.2022
2304 Clouds 31 1007 53 10000 1.63 166 15:24 07.08.2022
2305 Clouds 31 1008 52 10000 2.26 158 13:37 07.08.2022
2306 Clouds 32 1010 51 10000 0.45 277 11:58 07.08.2022
2307 Clouds 30 1011 57 10000 0.56 304 10:35 07.08.2022
2308 Clouds 22 1012 95 10000 0.99 3 07:59 07.08.2022
2309 Clouds 21 1010 97 10000 0.86 338 03:32 07.08.2022
2310 Clouds 21 1010 98 10000 0.96 355 01:45 07.08.2022
2311 Rain 21 1012 98 10000 1.24 358 22:25 06.08.2022
2312 Rain 21 1012 97 10000 1.11 359 21:28 06.08.2022
2313 Rain 22 1011 96 10000 0.88 316 19:41 06.08.2022
2314 Rain 23 1010 94 10000 1.34 337 18:33 06.08.2022
2315 Rain 24 1010 89 10000 1.49 18 17:37 06.08.2022
2316 Rain 30 1008 62 10000 0.68 65 14:52 06.08.2022
2317 Rain 28 1010 77 10000 0.81 270 13:49 06.08.2022
2318 Rain 29 1011 65 4921 1.52 304 12:19 06.08.2022
2319 Clouds 28 1012 69 10000 1.59 327 10:33 06.08.2022
2320 Clouds 24 1013 88 10000 1.11 360 09:21 06.08.2022
2321 Clouds 21 1010 96 10000 0.68 333 03:54 06.08.2022
2322 Clouds 23 1011 86 10000 0.82 320 23:54 05.08.2022
2323 Clouds 24 1011 85 10000 0.83 307 22:33 05.08.2022
2324 Clouds 25 1009 78 10000 0.54 312 19:59 05.08.2022
2325 Clouds 25 1008 73 10000 0.28 121 18:47 05.08.2022
2326 Clouds 27 1008 69 10000 0.65 119 18:27 05.08.2022
2327 Clouds 28 1007 64 10000 0.77 102 16:50 05.08.2022
2328 Clouds 31 1010 66 10000 3.09 230 15:23 05.08.2022
2329 Clouds 29 1007 59 10000 0.71 115 14:32 05.08.2022
2330 Clouds 34 1009 41 10000 1.08 187 13:25 05.08.2022
2331 Clouds 34 1009 41 10000 1.08 187 12:44 05.08.2022
2332 Clouds 32 1011 50 10000 0.87 119 10:55 05.08.2022
2333 Clouds 27 1012 69 10000 0.1 310 08:36 05.08.2022
2334 Clouds 22 1011 92 10000 0.48 305 07:28 05.08.2022
2335 Clouds 22 1011 91 10000 0.46 326 01:46 05.08.2022
2336 Clouds 22 1012 89 10000 0.94 314 22:40 04.08.2022
2337 Clouds 23 1011 87 10000 0.94 73 21:27 04.08.2022
2338 Clouds 23 1011 87 10000 0.94 73 20:45 04.08.2022
2339 Rain 24 1010 84 10000 0.77 135 19:58 04.08.2022
2340 Rain 24 1009 84 10000 0.92 115 18:52 04.08.2022
2341 Rain 24 1009 84 10000 0.92 115 18:32 04.08.2022
2342 Clouds 30 1007 57 10000 1.29 276 14:45 04.08.2022
2343 Rain 34 1009 41 10000 0.98 235 13:22 04.08.2022
2344 Clear 33 1010 44 10000 0.43 196 11:37 04.08.2022
2345 Clouds 30 1012 60 10000 0.61 145 09:58 04.08.2022
2346 Clouds 23 1012 88 10000 0.33 189 07:31 04.08.2022
2347 Clouds 22 1010 91 10000 0.73 206 02:42 04.08.2022
2348 Clouds 24 1011 78 10000 0.81 167 23:52 03.08.2022
2349 Clouds 24 1011 78 10000 0.81 167 23:33 03.08.2022
2350 Clouds 24 1011 76 10000 0.45 45 21:26 03.08.2022
2351 Clouds 25 1010 74 10000 0.69 161 20:19 03.08.2022
2352 Clouds 26 1009 71 10000 0.82 84 18:40 03.08.2022
2353 Clouds 28 1008 63 10000 0.81 211 16:27 03.08.2022
2354 Clouds 28 1008 63 10000 0.81 211 15:53 03.08.2022
2355 Clouds 31 1009 50 10000 0.57 179 13:32 03.08.2022
2356 Clouds 31 1012 51 10000 0.65 69 10:44 03.08.2022
2357 Clouds 23 1012 80 10000 0.36 348 07:21 03.08.2022
2358 Clouds 23 1011 81 10000 0.59 318 04:22 03.08.2022
2359 Clouds 23 1011 81 10000 0.71 304 03:22 03.08.2022
2360 Clouds 22 1011 83 10000 0.41 238 00:46 03.08.2022
2361 Clouds 23 1012 80 10000 0.24 58 22:33 02.08.2022
2362 Clouds 23 1012 78 10000 0.59 37 21:50 02.08.2022
2363 Clouds 24 1011 73 10000 0.24 36 20:27 02.08.2022
2364 Clouds 30 1008 51 10000 0.37 339 16:52 02.08.2022
2365 Clouds 32 1008 42 10000 0.37 325 14:39 02.08.2022
2366 Clouds 28 1014 59 10000 1.32 24 10:49 02.08.2022
2367 Clouds 23 1015 79 10000 0.91 42 08:38 02.08.2022
2368 Clouds 21 1015 87 10000 0.97 44 07:51 02.08.2022
2369 Clouds 19 1013 98 10000 0.72 41 04:57 02.08.2022
2370 Clouds 19 1013 99 10000 0.66 37 03:30 02.08.2022
2371 Clouds 19 1013 97 10000 1.14 136 23:26 01.08.2022
2372 Clouds 20 1013 97 10000 1.5 131 21:53 01.08.2022
2373 Clouds 20 1013 96 10000 1.28 140 20:34 01.08.2022
2374 Clouds 21 1012 95 10000 0.53 124 19:22 01.08.2022
2375 Clouds 22 1011 94 10000 1.2 125 17:22 01.08.2022
2376 Clouds 22 1011 94 10000 1.2 125 16:49 01.08.2022
2377 Clouds 22 1011 94 10000 1.26 95 15:48 01.08.2022
2378 Clouds 22 1012 95 10000 0.72 88 15:28 01.08.2022
2379 Clouds 22 1013 94 10000 0.74 294 13:44 01.08.2022
2380 Rain 21 1016 95 10000 0.09 114 11:38 01.08.2022
2381 Rain 21 1017 100 7000 0 0 09:38 01.08.2022
2382 Rain 21 1016 99 8304 0.65 120 08:20 01.08.2022
2383 Rain 21 1014 99 6578 0.24 324 04:44 01.08.2022
2384 Rain 21 1013 97 10000 1.26 256 02:31 01.08.2022
2385 Rain 22 1014 97 10000 0.84 338 22:54 31.07.2022
2386 Rain 22 1014 97 10000 0.84 338 22:36 31.07.2022
2387 Rain 22 1013 95 10000 0.9 30 20:46 31.07.2022
2388 Rain 22 1012 94 10000 0.96 3 18:52 31.07.2022
2389 Clouds 24 1011 91 10000 0.94 25 17:43 31.07.2022
2390 Rain 25 1011 87 10000 1.06 303 15:30 31.07.2022
2391 Rain 28 1012 72 6150 0.92 301 13:21 31.07.2022
2392 Rain 25 1016 83 8000 1.54 0 11:45 31.07.2022
2393 Rain 24 1015 89 10000 0.8 62 09:18 31.07.2022
2394 Rain 21 1013 99 10000 0.32 8 06:31 31.07.2022
2395 Rain 21 1013 99 10000 0.58 43 02:56 31.07.2022
2396 Clouds 21 1014 97 10000 0.25 49 23:23 30.07.2022
2397 Clouds 22 1014 96 10000 0.92 101 21:55 30.07.2022
2398 Clouds 22 1014 96 10000 0.92 101 21:37 30.07.2022
2399 Clouds 22 1013 95 10000 1.09 85 20:38 30.07.2022
2400 Clouds 22 1013 95 10000 1.04 93 19:57 30.07.2022
2401 Clouds 25 1011 75 10000 1.02 58 18:23 30.07.2022
2402 Clouds 27 1011 63 10000 1.46 56 16:44 30.07.2022
2403 Clouds 28 1012 78 8000 2.06 160 15:34 30.07.2022
2404 Clouds 29 1012 56 10000 1.78 30 14:26 30.07.2022
2405 Clouds 26 1013 70 10000 1.98 28 12:43 30.07.2022
2406 Clouds 24 1015 81 10000 1.87 24 11:55 30.07.2022
2407 Clouds 22 1016 93 10000 1.06 34 10:20 30.07.2022
2408 Clouds 22 1016 93 10000 1.06 34 09:42 30.07.2022
2409 Clouds 21 1014 98 10000 1.32 44 07:44 30.07.2022
2410 Rain 21 1012 98 10000 0.39 111 02:34 30.07.2022
2411 Clouds 21 1013 97 10000 0.66 302 01:21 30.07.2022
2412 Rain 22 1014 96 10000 0.14 290 21:39 29.07.2022
2413 Clouds 22 1013 95 10000 0.3 142 20:58 29.07.2022
2414 Clouds 25 1013 94 6000 0 0 19:48 29.07.2022
2415 Clouds 24 1011 85 10000 0.59 77 17:40 29.07.2022
2416 Clouds 28 1010 62 10000 1.31 320 14:53 29.07.2022
2417 Clouds 24 1013 83 10000 0.85 51 12:59 29.07.2022
2418 Clouds 23 1015 87 10000 1.33 357 09:49 29.07.2022
2419 Clouds 23 1014 90 10000 1.78 353 08:48 29.07.2022
2420 Clouds 22 1014 96 10000 1.59 21 07:39 29.07.2022
2421 Rain 21 1012 98 10000 1.09 297 01:46 29.07.2022
2422 Clouds 22 1013 96 10000 0.66 287 21:57 28.07.2022
2423 Clouds 22 1013 96 10000 1 294 20:59 28.07.2022
2424 Clouds 22 1012 96 10000 0.64 342 20:27 28.07.2022
2425 Clouds 22 1012 96 10000 0.64 342 19:42 28.07.2022
2426 Clouds 23 1011 95 10000 0.32 98 18:27 28.07.2022
2427 Clouds 23 1011 95 10000 0.32 98 17:43 28.07.2022
2428 Rain 23 1010 93 10000 0.35 77 16:41 28.07.2022
2429 Rain 25 1010 86 10000 0.49 314 15:24 28.07.2022
2430 Rain 23 1011 92 10000 1.06 331 12:51 28.07.2022
2431 Rain 25 1013 80 10000 1.3 297 09:45 28.07.2022
2432 Clouds 21 1011 98 10000 0.9 341 06:25 28.07.2022
2433 Clouds 21 1010 98 10000 1.04 348 05:27 28.07.2022
2434 Clouds 21 1010 98 10000 0.95 315 00:45 28.07.2022
2435 Rain 21 1012 98 10000 0.06 340 22:34 27.07.2022
2436 Clouds 22 1010 95 10000 1.21 33 21:27 27.07.2022
2437 Rain 22 1009 94 10000 0.96 5 19:37 27.07.2022
2438 Rain 25 1009 85 10000 0.99 322 17:39 27.07.2022
2439 Clouds 28 1007 64 10000 1.28 313 15:52 27.07.2022
2440 Rain 25 1011 78 7000 1.54 0 14:55 27.07.2022
2441 Rain 28 1008 65 10000 1.11 334 14:33 27.07.2022
2442 Rain 26 1010 79 10000 1.09 9 12:49 27.07.2022
2443 Clouds 22 1011 96 10000 0.87 2 07:53 27.07.2022
2444 Clouds 22 1012 94 10000 1.06 359 07:53 27.07.2022
2445 Clouds 21 1011 99 10000 0.62 33 06:19 27.07.2022
2446 Clouds 21 1010 98 10000 1.04 344 01:34 27.07.2022
2447 Rain 21 1011 98 10000 1.27 343 22:26 26.07.2022
2448 Rain 22 1012 98 9623 1.27 258 21:20 26.07.2022
2449 Rain 22 1011 96 10000 1.24 285 20:25 26.07.2022
2450 Rain 23 1010 92 10000 1.08 327 18:42 26.07.2022
2451 Rain 23 1009 91 10000 0.87 33 17:58 26.07.2022
2452 Haze 29 1009 70 5000 5.14 330 15:59 26.07.2022
2453 Rain 26 1008 85 10000 0.66 66 15:18 26.07.2022
2454 Rain 30 1010 62 10000 0.72 230 13:20 26.07.2022
2455 Rain 26 1012 79 10000 0.08 242 11:20 26.07.2022
2456 Clouds 24 1012 89 10000 1.2 339 08:55 26.07.2022
2457 Clouds 21 1010 98 10000 0.38 74 05:49 26.07.2022
2458 Clouds 22 1010 97 10000 0.48 270 00:37 26.07.2022
2459 Clouds 22 1011 96 10000 0.86 8 22:53 25.07.2022
2460 Clouds 22 1011 97 10000 1.07 110 22:25 25.07.2022
2461 Clouds 22 1011 97 10000 1.07 110 21:41 25.07.2022
2462 Rain 23 1011 96 10000 0.99 281 20:41 25.07.2022
2463 Rain 22 1010 96 10000 0.68 183 19:33 25.07.2022
2464 Rain 22 1009 96 10000 1.2 355 18:18 25.07.2022
2465 Rain 22 1009 94 7211 2.27 27 17:27 25.07.2022
2466 Rain 32 1010 58 10000 5.14 280 14:59 25.07.2022
2467 Rain 30 1010 64 10000 1.79 199 12:22 25.07.2022
2468 Clouds 29 1012 64 10000 1.39 18 09:50 25.07.2022
2469 Clouds 22 1010 93 10000 0.67 134 04:25 25.07.2022
2470 Clouds 23 1011 85 10000 0.33 144 23:54 24.07.2022
2471 Clouds 24 1011 84 10000 0.1 186 22:59 24.07.2022
2472 Clouds 24 1011 82 10000 0.52 120 22:29 24.07.2022
2473 Clouds 25 1010 78 10000 0.71 98 21:23 24.07.2022
2474 Clouds 25 1010 78 10000 0.71 98 20:50 24.07.2022
2475 Clouds 25 1010 77 10000 1.03 107 20:26 24.07.2022
2476 Clouds 26 1009 76 10000 1.08 111 18:46 24.07.2022
2477 Clouds 28 1008 69 10000 0.52 110 16:29 24.07.2022
2478 Clouds 30 1010 62 10000 3.09 250 15:50 24.07.2022
2479 Clouds 31 1011 58 10000 3.09 230 14:35 24.07.2022
2480 Clouds 30 1013 62 8000 3.09 270 12:54 24.07.2022
2481 Rain 31 1011 52 10000 0.9 324 11:40 24.07.2022
2482 Rain 30 1012 57 10000 0.83 284 11:18 24.07.2022
2483 Clouds 25 1014 82 10000 0.39 283 08:33 24.07.2022
2484 Fog 20 1013 100 800 0 0 07:52 24.07.2022
2485 Clouds 21 1012 98 10000 0.65 341 06:18 24.07.2022
2486 Clouds 21 1011 97 10000 1.1 354 01:27 24.07.2022
2487 Rain 22 1012 96 10000 0.86 337 22:21 23.07.2022
2488 Rain 22 1011 93 10000 0.69 343 20:28 23.07.2022
2489 Rain 26 1011 65 7000 0 0 18:51 23.07.2022
2490 Rain 25 1009 82 10000 0.04 76 17:29 23.07.2022
2491 Rain 25 1009 82 10000 0.04 76 16:36 23.07.2022
2492 Rain 27 1008 71 10000 0.46 142 15:32 23.07.2022
2493 Clouds 30 1008 53 10000 0.11 171 14:59 23.07.2022
2494 Clouds 30 1008 53 10000 0.11 171 14:30 23.07.2022
2495 Clouds 25 1013 83 10000 3.09 260 13:39 23.07.2022
2496 Clouds 29 1013 59 10000 1.87 340 11:18 23.07.2022
2497 Clouds 26 1014 71 10000 1.69 345 10:22 23.07.2022
2498 Clouds 24 1014 83 10000 1.1 352 08:50 23.07.2022
2499 Rain 21 1010 97 10000 1.07 297 03:40 23.07.2022
2500 Clouds 22 1010 96 10000 1.33 318 01:58 23.07.2022
2501 Clouds 23 1012 94 10000 1.31 304 23:19 22.07.2022
2502 Clouds 23 1011 93 10000 1.34 317 20:57 22.07.2022
2503 Clouds 22 1011 95 10000 0.99 274 19:46 22.07.2022
2504 Clouds 24 1009 90 10000 0.88 283 18:28 22.07.2022
2505 Clouds 25 1009 84 10000 1.18 300 17:28 22.07.2022
2506 Rain 25 1009 83 10000 1.46 307 14:57 22.07.2022
2507 Rain 25 1014 83 8000 3.09 340 11:49 22.07.2022
2508 Clouds 22 1012 93 10000 0.99 7 09:27 22.07.2022
2509 Rain 23 1022 94 6000 2.06 320 08:43 22.07.2022
2510 Clouds 22 1012 97 10000 1.4 22 07:20 22.07.2022
2511 Clouds 22 1010 95 10000 1.05 31 03:59 22.07.2022
2512 Clouds 22 1012 95 10000 0.39 344 22:53 21.07.2022
2513 Rain 22 1011 94 10000 0.62 122 21:34 21.07.2022
2514 Clouds 24 1009 82 10000 1.21 170 19:30 21.07.2022
2515 Clouds 26 1008 75 10000 1.42 182 17:45 21.07.2022
2516 Clouds 28 1008 64 10000 1.64 172 17:19 21.07.2022
2517 Clouds 30 1007 54 10000 1.47 157 15:39 21.07.2022
2518 Clouds 32 1008 49 10000 0.94 128 14:39 21.07.2022
2519 Rain 28 1011 69 10000 0.33 8 12:46 21.07.2022
2520 Rain 26 1012 75 10000 0.74 349 11:19 21.07.2022
2521 Clouds 25 1013 78 10000 0.86 48 09:41 21.07.2022
2522 Clouds 24 1012 86 10000 0.74 47 08:52 21.07.2022
2523 Clouds 22 1012 92 10000 0.98 32 07:50 21.07.2022
2524 Clouds 20 1011 97 10000 1.24 32 06:24 21.07.2022
2525 Clouds 21 1010 96 10000 1.02 357 01:42 21.07.2022
2526 Clouds 22 1011 94 10000 0.98 5 22:22 20.07.2022
2527 Clouds 22 1011 94 10000 0.98 5 21:30 20.07.2022
2528 Clouds 23 1010 92 10000 1.07 359 19:54 20.07.2022
2529 Clouds 23 1009 91 10000 1.12 2 19:25 20.07.2022
2530 Clouds 23 1009 91 10000 1.12 2 18:52 20.07.2022
2531 Rain 25 1009 86 10000 1.15 5 18:27 20.07.2022
2532 Rain 25 1008 80 10000 1.18 23 16:46 20.07.2022
2533 Rain 27 1008 71 10000 0.55 66 15:32 20.07.2022
2534 Clouds 32 1009 48 10000 0.63 109 14:26 20.07.2022
2535 Clouds 32 1010 47 10000 0.48 60 12:34 20.07.2022
2536 Clouds 27 1013 67 10000 0.42 59 10:24 20.07.2022
2537 Clouds 20 1012 99 10000 0.34 341 04:50 20.07.2022
2538 Clouds 21 1013 97 10000 0.73 285 00:54 20.07.2022
2539 Clouds 21 1013 95 10000 0.75 291 00:25 20.07.2022
2540 Clouds 21 1014 95 10000 0.56 309 22:34 19.07.2022
2541 Clouds 21 1013 94 10000 0.69 349 21:53 19.07.2022
2542 Clouds 21 1013 94 10000 0.37 359 20:48 19.07.2022
2543 Clouds 21 1012 94 10000 0.43 61 19:21 19.07.2022
2544 Clouds 21 1012 94 10000 0.43 61 18:34 19.07.2022
2545 Clouds 22 1012 92 10000 0.33 36 17:51 19.07.2022
2546 Clouds 22 1012 89 10000 0.91 307 15:21 19.07.2022
2547 Rain 21 1015 96 10000 0.98 316 12:27 19.07.2022
2548 Rain 21 1015 96 10000 0.98 316 11:31 19.07.2022
2549 Clouds 21 1016 97 10000 0.67 326 09:51 19.07.2022
2550 Rain 21 1016 98 10000 1 318 08:42 19.07.2022
2551 Rain 21 1014 99 10000 0.97 350 07:19 19.07.2022
2552 Rain 21 1013 99 10000 0.82 315 05:50 19.07.2022
2553 Rain 21 1013 99 10000 0.69 304 05:18 19.07.2022
2554 Rain 21 1013 99 10000 0.7 333 02:33 19.07.2022
2555 Clouds 21 1014 97 10000 0.73 277 23:50 18.07.2022
2556 Clouds 21 1014 97 10000 1.01 273 23:19 18.07.2022
2557 Rain 21 1014 98 10000 1.17 292 22:23 18.07.2022
2558 Rain 22 1014 97 10000 1.15 287 21:20 18.07.2022
2559 Rain 22 1013 97 10000 1.09 296 19:54 18.07.2022
2560 Clouds 23 1011 95 10000 0.78 291 18:24 18.07.2022
2561 Rain 24 1010 90 10000 1.08 317 16:28 18.07.2022
2562 Rain 24 1011 88 10000 1.33 314 15:26 18.07.2022
2563 Rain 27 1011 69 10000 1.49 288 13:31 18.07.2022
2564 Rain 24 1013 90 10000 1.42 352 11:34 18.07.2022
2565 Rain 25 1014 80 10000 1.1 327 09:54 18.07.2022
2566 Clouds 22 1013 94 10000 0.25 227 07:54 18.07.2022
2567 Clouds 21 1012 96 10000 1.43 294 03:32 18.07.2022
2568 Rain 22 1013 97 10000 1.03 140 22:56 17.07.2022
2569 Rain 22 1013 95 10000 1.48 162 22:29 17.07.2022
2570 Rain 22 1013 95 10000 1.48 162 21:35 17.07.2022
2571 Rain 23 1012 91 10000 2.24 209 20:45 17.07.2022
2572 Rain 22 1011 94 10000 1.03 202 19:49 17.07.2022
2573 Rain 23 1010 91 8901 1.36 222 19:20 17.07.2022
2574 Rain 26 1009 77 10000 0.52 168 17:43 17.07.2022
2575 Rain 28 1008 68 10000 0.66 53 17:25 17.07.2022
2576 Rain 28 1008 68 10000 0.66 53 16:32 17.07.2022
2577 Rain 28 1009 69 10000 1.13 96 15:49 17.07.2022
2578 Rain 27 1011 71 10000 1.45 175 13:51 17.07.2022
2579 Clouds 28 1011 65 10000 1.27 190 12:42 17.07.2022
2580 Clouds 26 1014 71 10000 0.39 311 10:20 17.07.2022
2581 Clouds 22 1012 94 10000 0.64 347 06:59 17.07.2022
2582 Clouds 22 1012 94 10000 0.64 347 06:59 17.07.2022
2583 Clouds 21 1011 95 10000 1.16 343 02:35 17.07.2022
2584 Clouds 21 1012 94 10000 0.81 328 23:26 16.07.2022
2585 Clouds 21 1012 95 10000 0.69 281 22:20 16.07.2022
2586 Rain 21 1012 94 10000 1.51 84 20:40 16.07.2022
2587 Rain 21 1010 92 10000 0.4 189 18:58 16.07.2022
2588 Rain 22 1010 88 10000 1.47 333 17:38 16.07.2022
2589 Rain 25 1008 75 10000 3.75 227 15:54 16.07.2022
2590 Rain 30 1011 62 10000 1.25 301 12:37 16.07.2022
2591 Clouds 28 1013 67 10000 1.6 17 10:28 16.07.2022
2592 Clouds 25 1013 80 10000 1.71 18 09:25 16.07.2022
2593 Clouds 25 1013 80 10000 1.71 18 08:40 16.07.2022
2594 Clouds 22 1012 95 10000 1.2 31 06:59 16.07.2022
2595 Clouds 22 1010 95 10000 0.5 62 03:33 16.07.2022
2596 Clouds 22 1011 91 10000 1.03 33 00:23 16.07.2022
2597 Clouds 22 1012 91 10000 1.13 37 22:54 15.07.2022
2598 Clouds 23 1011 89 10000 0.53 69 21:55 15.07.2022
2599 Rain 23 1011 88 10000 0.81 95 20:40 15.07.2022
2600 Clouds 26 1009 72 10000 0.51 227 18:55 15.07.2022
2601 Clouds 28 1008 64 10000 0.67 280 18:22 15.07.2022
2602 Clouds 31 1007 51 10000 0.11 306 16:46 15.07.2022
2603 Clouds 34 1009 39 10000 0.31 132 14:19 15.07.2022
2604 Clouds 33 1011 44 10000 0.73 23 12:28 15.07.2022
2605 Clouds 31 1012 50 10000 0.97 33 10:52 15.07.2022
2606 Mist 19 1013 100 2000 0 0 07:48 15.07.2022
2607 Clouds 20 1010 96 10000 1.11 318 02:51 15.07.2022
2608 Clouds 21 1011 95 10000 0.66 333 00:40 15.07.2022
2609 Clouds 21 1012 94 10000 1.06 322 22:56 14.07.2022
2610 Clouds 21 1012 93 10000 1.22 319 22:19 14.07.2022
2611 Clouds 21 1012 93 10000 1.22 319 21:39 14.07.2022
2612 Clouds 22 1012 92 10000 1.34 300 21:19 14.07.2022
2613 Clouds 22 1012 92 10000 1.34 300 20:42 14.07.2022
2614 Clouds 22 1011 91 10000 1.17 302 20:18 14.07.2022
2615 Rain 24 1010 82 10000 2.38 300 17:59 14.07.2022
2616 Rain 27 1008 67 10000 1.22 327 16:19 14.07.2022
2617 Clouds 26 1009 71 10000 0.46 32 14:56 14.07.2022
2618 Rain 24 1011 83 10000 0.9 34 13:51 14.07.2022
2619 Rain 24 1012 83 10000 1.94 62 12:34 14.07.2022
2620 Clouds 28 1013 63 10000 1.62 53 11:26 14.07.2022
2621 Clouds 28 1013 63 10000 1.62 53 10:51 14.07.2022
2622 Clouds 27 1014 67 10000 1.11 36 08:52 14.07.2022
2623 Clouds 21 1012 90 10000 0.54 115 04:45 14.07.2022
2624 Clouds 23 1011 79 10000 1.11 12 01:19 14.07.2022
2625 Clouds 23 1011 79 10000 1.11 12 00:51 14.07.2022
2626 Clouds 23 1012 80 10000 1.13 61 22:31 13.07.2022
2627 Clouds 23 1012 79 10000 1 46 21:42 13.07.2022
2628 Clouds 23 1012 77 10000 1.02 33 20:41 13.07.2022
2629 Clouds 25 1011 70 10000 1.3 60 18:40 13.07.2022
2630 Clouds 28 1009 59 10000 1.27 110 17:31 13.07.2022
2631 Clouds 28 1009 59 10000 1.27 110 17:31 13.07.2022
2632 Clouds 28 1009 59 10000 1.27 110 17:31 13.07.2022
2633 Clouds 30 1008 48 10000 0.57 70 16:19 13.07.2022
2634 Clouds 33 1008 38 10000 0.23 114 14:46 13.07.2022
2635 Clouds 33 1008 38 10000 0.23 114 14:46 13.07.2022
2636 Rain 30 1013 52 10000 0.96 307 11:54 13.07.2022
2637 Clouds 25 1014 80 10000 1.08 324 10:45 13.07.2022
2638 Rain 22 1014 92 10000 0.16 24 09:54 13.07.2022
2639 Clouds 22 1014 94 10000 0.44 333 09:20 13.07.2022
2640 Clouds 22 1011 95 10000 0.65 303 05:22 13.07.2022
2641 Clouds 22 1012 94 10000 0.76 339 01:22 13.07.2022
2642 Clouds 22 1012 94 10000 0.69 267 23:35 12.07.2022
2643 Rain 22 1012 95 10000 1.02 55 21:53 12.07.2022
2644 Rain 22 1013 95 10000 1.16 52 20:58 12.07.2022
2645 Rain 22 1013 95 10000 1.16 52 20:37 12.07.2022
2646 Rain 24 1011 84 10000 1.76 217 18:53 12.07.2022
2647 Clouds 28 1009 58 10000 1.55 226 17:32 12.07.2022
2648 Clouds 32 1008 42 10000 1.83 261 15:37 12.07.2022
2649 Clouds 31 1010 48 10000 1.22 291 13:55 12.07.2022
2650 Clouds 26 1013 74 10000 0.84 32 11:59 12.07.2022
2651 Clouds 25 1014 80 10000 0.65 45 10:47 12.07.2022
2652 Clouds 23 1014 92 10000 0.62 163 09:22 12.07.2022
2653 Clouds 22 1013 93 10000 0.52 28 08:18 12.07.2022
2654 Clouds 22 1012 92 10000 0.92 43 05:57 12.07.2022
2655 Clouds 22 1012 92 10000 0.92 43 05:39 12.07.2022
2656 Clouds 22 1010 92 10000 0.76 7 01:56 12.07.2022
2657 Clouds 22 1010 92 10000 0.76 7 01:56 12.07.2022
2658 Clouds 22 1010 92 10000 0.76 7 01:56 12.07.2022
2659 Clouds 23 1011 89 10000 0.7 312 22:59 11.07.2022
2660 Clouds 23 1011 88 10000 1.23 3 21:45 11.07.2022
2661 Rain 23 1011 87 10000 1.59 343 20:33 11.07.2022
2662 Clouds 24 1010 83 10000 1.14 24 19:33 11.07.2022
2663 Clouds 24 1009 83 10000 1 5 18:32 11.07.2022
2664 Clouds 25 1009 79 10000 1.43 348 17:36 11.07.2022
2665 Clouds 31 1007 47 10000 1.65 307 16:18 11.07.2022
2666 Clouds 33 1008 39 10000 0.74 83 14:32 11.07.2022
2667 Clouds 30 1011 49 10000 0.58 205 11:40 11.07.2022
2668 Clouds 29 1013 53 10000 0.47 48 10:22 11.07.2022
2669 Clouds 30 1012 52 10000 0.3 295 09:42 11.07.2022
2670 Clouds 27 1012 61 10000 0.19 172 08:33 11.07.2022
2671 Clouds 21 1010 79 10000 0.78 38 04:34 11.07.2022
2672 Clouds 23 1011 70 10000 0.76 339 00:20 11.07.2022
2673 Clouds 23 1011 68 10000 0.38 318 22:56 10.07.2022
2674 Clouds 24 1011 67 10000 0.26 280 21:41 10.07.2022
2675 Clouds 25 1010 64 10000 0.31 38 20:54 10.07.2022
2676 Clouds 25 1009 67 10000 1.01 15 19:50 10.07.2022
2677 Clouds 25 1009 65 10000 1.46 35 18:48 10.07.2022
2678 Clouds 28 1008 57 10000 0.94 31 17:37 10.07.2022
2679 Clouds 30 1007 48 10000 0.06 165 16:45 10.07.2022
2680 Clouds 31 1007 44 10000 1.03 154 15:28 10.07.2022
2681 Clouds 33 1008 40 10000 1.57 141 14:21 10.07.2022
2682 Rain 33 1011 48 10000 0.79 119 12:28 10.07.2022
2683 Rain 27 1013 73 10000 0.72 68 10:20 10.07.2022
2684 Rain 25 1014 80 10000 0.77 43 08:45 10.07.2022
2685 Rain 25 1014 80 10000 0.77 43 08:45 10.07.2022
2686 Clouds 23 1013 85 10000 0.75 45 07:30 10.07.2022
2687 Clouds 24 1010 68 10000 0.76 318 02:47 10.07.2022
2688 Clouds 26 1011 42 10000 1.12 308 22:51 09.07.2022
2689 Clouds 25 1011 42 10000 0.51 162 22:24 09.07.2022
2690 Clear 26 1010 41 10000 0.66 160 20:50 09.07.2022
2691 Clouds 27 1009 37 10000 0.95 20 18:38 09.07.2022
2692 Clouds 30 1008 35 10000 0.51 18 17:45 09.07.2022
2693 Clouds 34 1008 24 10000 0.57 297 16:44 09.07.2022
2694 Clouds 35 1008 21 10000 1.21 273 15:41 09.07.2022
2695 Clouds 36 1008 20 10000 1.48 265 14:43 09.07.2022
2696 Clouds 36 1009 21 10000 1.94 242 13:51 09.07.2022
2697 Clouds 35 1010 21 10000 1.85 232 12:48 09.07.2022
2698 Clouds 35 1012 24 10000 1.58 206 11:32 09.07.2022
2699 Clouds 30 1013 34 10000 1.89 181 10:23 09.07.2022
2700 Clouds 25 1013 53 10000 0.63 213 07:54 09.07.2022
2701 Clouds 21 1012 67 10000 0.09 111 05:37 09.07.2022
2702 Clouds 22 1011 64 10000 0.54 165 03:29 09.07.2022
2703 Clouds 25 1012 51 10000 0.93 195 23:18 08.07.2022
2704 Clouds 26 1012 50 10000 0.86 188 21:59 08.07.2022
2705 Clouds 26 1011 49 10000 0.73 197 20:55 08.07.2022
2706 Clouds 27 1011 47 10000 0.8 179 20:24 08.07.2022
2707 Clouds 29 1009 44 10000 1 181 18:29 08.07.2022
2708 Clouds 33 1008 32 10000 1.32 188 17:25 08.07.2022
2709 Clouds 36 1008 26 10000 1.92 177 14:55 08.07.2022
2710 Clouds 35 1010 28 10000 2.17 186 13:56 08.07.2022
2711 Clouds 34 1012 32 10000 1.71 171 12:28 08.07.2022
2712 Clouds 33 1012 37 10000 1.37 159 10:37 08.07.2022
2713 Clouds 28 1013 53 10000 0.33 184 08:51 08.07.2022
2714 Clouds 21 1014 77 10000 0.21 175 06:54 08.07.2022
2715 Clouds 22 1012 73 10000 0.16 218 02:53 08.07.2022
2716 Clouds 23 1012 73 10000 0.79 355 23:41 07.07.2022
2717 Clouds 23 1012 72 10000 0.94 10 22:40 07.07.2022
2718 Clouds 24 1011 67 10000 0.97 338 20:56 07.07.2022
2719 Clouds 26 1010 59 10000 0.9 317 18:42 07.07.2022
2720 Clouds 29 1009 54 10000 0.55 236 17:41 07.07.2022
2721 Clouds 34 1009 35 10000 1.84 196 15:22 07.07.2022
2722 Clouds 35 1010 30 10000 1.66 164 13:26 07.07.2022
2723 Clouds 35 1010 30 10000 1.66 164 12:40 07.07.2022
2724 Clear 35 1012 33 10000 1.44 169 12:20 07.07.2022
2725 Clear 35 1012 33 10000 1.44 169 11:31 07.07.2022
2726 Clear 33 1012 38 10000 1.25 185 10:44 07.07.2022
2727 Clear 31 1013 46 10000 1.05 175 10:25 07.07.2022
2728 Clear 25 1013 68 10000 0.55 341 07:40 07.07.2022
2729 Clear 22 1012 80 10000 0.52 324 04:42 07.07.2022
2730 Clouds 24 1012 67 10000 0.5 150 23:37 06.07.2022
2731 Clouds 24 1012 66 10000 0.72 159 23:19 06.07.2022
2732 Clouds 24 1012 66 10000 0.72 159 22:57 06.07.2022
2733 Clouds 24 1012 66 10000 0.72 159 22:38 06.07.2022
2734 Clouds 24 1012 64 10000 1.06 148 21:46 06.07.2022
2735 Clouds 26 1011 58 10000 0.17 281 19:41 06.07.2022
2736 Clouds 27 1010 57 10000 0.48 207 18:32 06.07.2022
2737 Clouds 29 1009 55 10000 1.21 219 16:27 06.07.2022
2738 Clouds 31 1009 49 10000 1.51 221 15:28 06.07.2022
2739 Clear 35 1011 36 10000 0.7 259 12:43 06.07.2022
2740 Clear 34 1013 41 10000 0.56 242 11:49 06.07.2022
2741 Clear 30 1014 55 10000 0.62 319 10:20 06.07.2022
2742 Clouds 24 1014 74 10000 0.25 305 08:26 06.07.2022
2743 Clouds 24 1014 71 10000 0.15 337 07:36 06.07.2022
2744 Clouds 20 1012 87 10000 0.71 334 05:31 06.07.2022
2745 Clear 23 1012 74 10000 0.56 51 22:48 05.07.2022
2746 Clear 23 1012 74 10000 0.78 42 21:59 05.07.2022
2747 Clear 23 1011 74 10000 0.8 43 20:41 05.07.2022
2748 Clouds 24 1011 70 10000 1.04 43 19:43 05.07.2022
2749 Clouds 25 1010 69 10000 1.21 12 19:22 05.07.2022
2750 Clouds 28 1009 59 10000 1.98 16 17:48 05.07.2022
2751 Clouds 32 1008 41 10000 1.6 42 16:56 05.07.2022
2752 Clouds 33 1008 35 10000 0.65 171 15:37 05.07.2022
2753 Clouds 33 1009 37 10000 0.8 213 14:31 05.07.2022
2754 Clouds 34 1012 38 10000 0.36 144 12:47 05.07.2022
2755 Clouds 33 1013 44 10000 0.51 28 11:49 05.07.2022
2756 Clouds 31 1014 51 10000 0.79 45 10:40 05.07.2022
2757 Clouds 27 1014 67 10000 0.97 136 09:24 05.07.2022
2758 Clouds 24 1014 79 10000 0.54 52 07:52 05.07.2022
2759 Clear 21 1012 92 10000 0.88 8 05:29 05.07.2022
2760 Clear 21 1011 91 10000 1.09 25 04:24 05.07.2022
2761 Clouds 23 1012 77 10000 0.75 24 00:26 05.07.2022
2762 Clouds 23 1012 77 10000 0.75 24 23:31 04.07.2022
2763 Clouds 23 1013 74 10000 1.03 30 22:47 04.07.2022
2764 Clouds 24 1012 68 10000 0.95 29 21:46 04.07.2022
2765 Clouds 25 1012 64 10000 0.15 171 20:53 04.07.2022
2766 Clouds 25 1012 64 10000 0.15 171 20:34 04.07.2022
2767 Clouds 25 1011 60 10000 0.51 141 19:55 04.07.2022
2768 Clouds 25 1011 60 10000 0.48 98 19:35 04.07.2022
2769 Clouds 26 1010 61 10000 1.03 219 17:58 04.07.2022
2770 Clouds 29 1010 55 10000 1.12 157 15:58 04.07.2022
2771 Clouds 29 1010 55 10000 1.12 157 15:33 04.07.2022
2772 Clouds 34 1012 40 10000 0.97 149 13:29 04.07.2022
2773 Clouds 34 1012 40 10000 0.97 149 12:30 04.07.2022
2774 Clouds 31 1014 48 10000 1.14 136 10:34 04.07.2022
2775 Clouds 30 1014 54 10000 1.12 111 09:52 04.07.2022
2776 Clouds 24 1014 75 10000 0.46 61 07:37 04.07.2022
2777 Clear 21 1013 86 10000 0.89 6 04:57 04.07.2022
2778 Clouds 22 1012 80 10000 0.77 23 00:39 04.07.2022
2779 Clouds 23 1013 75 10000 0.51 139 22:59 03.07.2022
2780 Clouds 25 1012 67 10000 0.96 193 20:58 03.07.2022
2781 Clouds 25 1012 67 10000 0.96 193 20:31 03.07.2022
2782 Clouds 25 1012 79 10000 0.43 359 19:28 03.07.2022
2783 Clouds 25 1012 79 10000 0.43 359 18:43 03.07.2022
2784 Clouds 26 1011 77 10000 0.71 12 17:44 03.07.2022
2785 Clouds 27 1011 69 10000 0.9 35 15:54 03.07.2022
2786 Clouds 27 1011 66 10000 0.77 70 14:59 03.07.2022
2787 Clouds 31 1011 49 10000 0.72 108 14:18 03.07.2022
2788 Clouds 32 1012 43 10000 0.98 132 13:48 03.07.2022
2789 Clouds 33 1013 42 10000 0.6 124 12:33 03.07.2022
2790 Clouds 30 1015 52 10000 0.18 332 11:28 03.07.2022
2791 Clouds 30 1015 52 10000 0.18 332 10:38 03.07.2022
2792 Clouds 28 1015 58 10000 0.3 133 09:42 03.07.2022
2793 Clouds 23 1015 86 10000 0.17 14 07:35 03.07.2022
2794 Clouds 21 1013 96 10000 0.8 315 03:46 03.07.2022
2795 Clouds 21 1014 96 10000 0.99 316 00:21 03.07.2022
2796 Clouds 21 1014 96 10000 1.23 325 22:33 02.07.2022
2797 Clouds 22 1014 94 10000 0.84 262 21:28 02.07.2022
2798 Clouds 22 1014 95 10000 0.3 330 19:52 02.07.2022
2799 Clouds 22 1012 95 10000 1.02 217 19:20 02.07.2022
2800 Rain 23 1012 94 10000 1.39 282 17:42 02.07.2022
2801 Rain 24 1011 91 10000 1.68 261 16:53 02.07.2022
2802 Rain 26 1011 83 7606 1.49 257 14:40 02.07.2022
2803 Rain 30 1013 61 10000 1.15 259 12:21 02.07.2022
2804 Clouds 30 1014 58 10000 0.94 259 11:27 02.07.2022
2805 Clouds 30 1014 58 10000 0.94 259 10:43 02.07.2022
2806 Clouds 25 1015 84 10000 1.37 353 09:25 02.07.2022
2807 Rain 23 1014 93 10000 1.29 341 08:20 02.07.2022
2808 Mist 21 1015 100 2500 2.06 320 07:48 02.07.2022
2809 Clouds 21 1011 95 10000 0.93 329 02:50 02.07.2022
2810 Clouds 21 1012 94 10000 1.05 331 23:59 01.07.2022
2811 Clouds 22 1013 94 10000 1.07 299 22:41 01.07.2022
2812 Clouds 22 1013 91 10000 0.5 339 21:49 01.07.2022
2813 Rain 23 1012 88 10000 1.24 106 21:29 01.07.2022
2814 Rain 23 1012 88 10000 1.24 106 20:43 01.07.2022
2815 Clouds 24 1011 84 10000 1.32 127 19:47 01.07.2022
2816 Rain 24 1010 80 10000 0.85 65 17:53 01.07.2022
2817 Rain 28 1009 61 10000 2.07 54 16:22 01.07.2022
2818 Clouds 32 1010 44 10000 1.99 161 13:55 01.07.2022
2819 Clouds 33 1011 45 10000 1.19 171 12:55 01.07.2022
2820 Clouds 27 1014 65 10000 0.54 53 10:20 01.07.2022
2821 Clouds 27 1014 65 10000 0.54 53 09:47 01.07.2022
2822 Clear 21 1011 82 10000 1.24 339 05:25 01.07.2022
2823 Clouds 23 1011 71 10000 0.64 161 00:42 01.07.2022
2824 Clouds 23 1011 69 10000 0.57 161 23:22 30.06.2022
2825 Clouds 23 1011 69 10000 0.57 161 22:44 30.06.2022
2826 Clouds 24 1011 68 10000 1.04 142 22:25 30.06.2022
2827 Clouds 24 1011 68 10000 1.04 142 21:45 30.06.2022
2828 Clouds 24 1011 66 10000 1.2 151 20:30 30.06.2022
2829 Clouds 25 1010 64 10000 1.14 169 19:55 30.06.2022
2830 Clouds 26 1010 62 10000 1.33 172 19:26 30.06.2022
2831 Clouds 26 1010 62 10000 1.33 172 18:42 30.06.2022
2832 Clouds 28 1009 57 10000 1.33 157 17:44 30.06.2022
2833 Clouds 32 1008 43 10000 1.28 154 16:55 30.06.2022
2834 Clouds 33 1008 35 10000 1.25 136 15:44 30.06.2022
2835 Clouds 35 1009 35 10000 0.64 130 13:49 30.06.2022
2836 Clouds 34 1010 37 10000 0.36 137 12:36 30.06.2022
2837 Clouds 33 1011 40 10000 0.54 55 11:56 30.06.2022
2838 Clouds 29 1013 56 10000 0.8 46 09:55 30.06.2022
2839 Clouds 29 1013 56 10000 0.8 46 09:37 30.06.2022
2840 Clouds 23 1013 83 10000 0.65 41 08:19 30.06.2022
2841 Clouds 23 1013 83 10000 0.65 41 08:19 30.06.2022
2842 Clouds 21 1013 92 10000 0.84 58 07:24 30.06.2022
2843 Clouds 21 1011 95 10000 0.57 60 02:49 30.06.2022
2844 Clouds 21 1012 94 10000 0.81 82 23:38 29.06.2022
2845 Clouds 21 1013 94 10000 0.45 92 22:41 29.06.2022
2846 Clouds 21 1013 94 10000 0.29 52 21:58 29.06.2022
2847 Clouds 22 1013 94 10000 0.48 78 20:34 29.06.2022
2848 Clouds 22 1012 92 10000 0.79 37 19:55 29.06.2022
2849 Rain 24 1011 83 10000 1.44 359 17:55 29.06.2022
2850 Clouds 26 1011 73 10000 1.09 31 16:51 29.06.2022
2851 Clouds 28 1010 61 10000 0.54 78 15:33 29.06.2022
2852 Clouds 31 1010 46 10000 1.48 145 13:36 29.06.2022
2853 Rain 31 1013 50 10000 0.7 240 12:24 29.06.2022
2854 Clouds 28 1015 64 10000 0.34 306 09:43 29.06.2022
2855 Clouds 24 1015 79 10000 0.35 5 09:21 29.06.2022
2856 Clouds 20 1014 97 10000 0.76 3 06:27 29.06.2022
2857 Clouds 20 1013 91 10000 0.78 277 02:21 29.06.2022
2858 Clouds 21 1013 81 10000 0.61 309 00:38 29.06.2022
2859 Clouds 22 1013 70 10000 0.82 317 23:55 28.06.2022
2860 Clouds 22 1013 65 10000 1.4 328 22:48 28.06.2022
2861 Clouds 22 1013 64 10000 0.5 321 21:55 28.06.2022
2862 Clouds 22 1013 64 10000 0.5 321 21:33 28.06.2022
2863 Clouds 22 1013 64 10000 0.29 295 20:57 28.06.2022
2864 Clouds 23 1011 83 10000 0.18 47 19:50 28.06.2022
2865 Clouds 23 1010 84 10000 0.38 80 19:24 28.06.2022
2866 Clouds 23 1010 84 10000 0.38 80 18:37 28.06.2022
2867 Clouds 25 1010 76 10000 0.85 31 16:35 28.06.2022
2868 Clouds 24 1010 82 10000 0.85 29 15:54 28.06.2022
2869 Clouds 24 1010 83 10000 1 69 14:48 28.06.2022
2870 Clouds 25 1011 78 10000 1.31 64 14:18 28.06.2022
2871 Clouds 26 1011 76 10000 0.82 74 13:45 28.06.2022
2872 Clouds 26 1012 70 10000 0.89 78 11:58 28.06.2022
2873 Clouds 27 1013 67 10000 0.82 40 09:50 28.06.2022
2874 Clouds 26 1014 72 10000 0.73 35 08:54 28.06.2022
2875 Clouds 23 1013 84 10000 0.33 83 07:58 28.06.2022
2876 Clouds 21 1013 93 10000 0.93 180 07:20 28.06.2022
2877 Clouds 22 1010 92 10000 0.5 354 02:41 28.06.2022
2878 Clouds 21 1012 90 10000 0.31 16 23:49 27.06.2022
2879 Clouds 22 1012 89 10000 0.57 57 22:56 27.06.2022
2880 Clouds 22 1012 88 10000 0.23 58 21:39 27.06.2022
2881 Clouds 22 1012 87 10000 0.23 73 21:21 27.06.2022
2882 Clouds 23 1011 86 10000 0.44 263 19:54 27.06.2022
2883 Rain 23 1011 86 10000 0.17 0 18:45 27.06.2022
2884 Rain 29 1009 60 10000 0.95 312 17:26 27.06.2022
2885 Clouds 30 1009 53 10000 1.37 265 15:43 27.06.2022
2886 Clouds 31 1010 48 10000 2.01 339 14:18 27.06.2022
2887 Clouds 30 1011 52 10000 1.52 341 12:58 27.06.2022
2888 Clouds 29 1012 60 10000 1.39 351 11:30 27.06.2022
2889 Clouds 28 1013 65 10000 0.48 35 09:45 27.06.2022
2890 Clouds 24 1014 80 10000 0.46 105 08:40 27.06.2022
2891 Mist 21 1013 94 1500 2.06 20 07:39 27.06.2022
2892 Clouds 20 1012 95 10000 0.74 61 05:19 27.06.2022
2893 Clouds 21 1012 93 10000 0.44 146 01:21 27.06.2022
2894 Clouds 22 1012 93 10000 0.41 219 22:58 26.06.2022
2895 Clouds 21 1013 93 10000 1.01 215 21:37 26.06.2022
2896 Rain 21 1012 94 10000 0.98 49 20:28 26.06.2022
2897 Rain 21 1011 93 10000 1.35 67 18:33 26.06.2022
2898 Rain 22 1011 93 10000 0.79 252 17:38 26.06.2022
2899 Rain 26 1009 77 10000 1.44 78 15:36 26.06.2022
2900 Clouds 32 1010 45 10000 1.41 62 13:59 26.06.2022
2901 Clouds 33 1011 43 10000 0.93 110 13:23 26.06.2022
2902 Clouds 32 1012 45 10000 0.75 117 11:39 26.06.2022
2903 Clouds 31 1013 51 10000 0.79 84 10:42 26.06.2022
2904 Clouds 29 1013 59 10000 0.87 59 09:55 26.06.2022
2905 Clouds 22 1014 95 10000 0.78 10 07:47 26.06.2022
2906 Clouds 22 1014 95 10000 0.78 10 07:47 26.06.2022
2907 Rain 21 1012 96 10000 1.39 25 05:26 26.06.2022
2908 Clouds 21 1012 93 10000 0.39 72 00:36 26.06.2022
2909 Clouds 22 1012 92 10000 0.82 56 00:18 26.06.2022
2910 Clouds 22 1013 93 10000 0.8 43 23:29 25.06.2022
2911 Clouds 22 1013 93 10000 0.8 43 22:42 25.06.2022
2912 Rain 22 1012 93 10000 0.77 38 22:24 25.06.2022
2913 Rain 23 1012 90 10000 0.99 74 21:21 25.06.2022
2914 Rain 23 1012 90 10000 0.99 74 20:36 25.06.2022
2915 Clouds 23 1011 87 10000 1.06 75 19:56 25.06.2022
2916 Clouds 23 1010 83 10000 0.9 94 18:22 25.06.2022
2917 Clouds 24 1010 81 10000 0.59 35 17:26 25.06.2022
2918 Clouds 25 1010 76 10000 0.85 359 16:26 25.06.2022
2919 Clouds 26 1011 66 10000 0.6 61 14:29 25.06.2022
2920 Clouds 26 1012 67 10000 0.84 31 12:45 25.06.2022
2921 Clouds 25 1013 70 10000 1.01 29 11:55 25.06.2022
2922 Clouds 23 1014 83 10000 1.71 32 09:24 25.06.2022
2923 Clouds 23 1014 83 10000 1.71 32 08:49 25.06.2022
2924 Clouds 23 1013 87 10000 1.83 41 08:20 25.06.2022
2925 Rain 21 1013 97 10000 1.57 31 06:34 25.06.2022
2926 Clouds 23 1010 84 10000 1.23 44 00:44 25.06.2022
2927 Clouds 23 1010 84 10000 1.23 44 00:44 25.06.2022
2928 Clouds 23 1011 82 10000 1.08 20 23:46 24.06.2022
2929 Clouds 24 1011 74 10000 1.32 25 22:25 24.06.2022
2930 Clouds 25 1010 70 10000 0.32 348 21:22 24.06.2022
2931 Clouds 25 1009 73 10000 0.78 346 20:23 24.06.2022
2932 Clouds 25 1008 73 10000 0.85 326 19:24 24.06.2022
2933 Clouds 25 1008 73 10000 0.85 326 18:51 24.06.2022
2934 Clouds 25 1008 73 10000 0.85 326 18:31 24.06.2022
2935 Clouds 27 1008 69 10000 1.07 318 17:47 24.06.2022
2936 Clouds 29 1007 62 10000 0.76 321 16:34 24.06.2022
2937 Clouds 32 1008 47 10000 0.92 223 14:30 24.06.2022
2938 Clouds 33 1008 41 10000 1.18 207 13:58 24.06.2022
2939 Clouds 33 1008 41 10000 1.18 207 13:58 24.06.2022
2940 Clouds 33 1010 44 10000 0.91 219 12:49 24.06.2022
2941 Clouds 32 1011 49 10000 0.86 226 11:40 24.06.2022
2942 Clouds 30 1012 55 10000 0.97 212 10:34 24.06.2022
2943 Clouds 28 1012 66 10000 0.84 230 09:41 24.06.2022
2944 Clouds 25 1012 81 10000 0.71 261 08:53 24.06.2022
2945 Clouds 25 1012 81 10000 0.71 261 08:53 24.06.2022
2946 Mist 22 1012 94 3000 0 0 07:39 24.06.2022
2947 Clouds 21 1012 95 10000 0.73 241 06:42 24.06.2022
2948 Clouds 20 1012 97 10000 0.4 271 06:18 24.06.2022
2949 Clouds 21 1010 96 10000 0.43 310 03:33 24.06.2022
2950 Clouds 21 1011 95 10000 0.28 243 22:59 23.06.2022
2951 Clouds 21 1011 95 10000 0.28 243 22:40 23.06.2022
2952 Clouds 22 1011 95 10000 1.33 226 20:58 23.06.2022
2953 Clouds 22 1011 95 10000 1.33 226 20:35 23.06.2022
2954 Rain 22 1011 95 10000 0.62 270 19:40 23.06.2022
2955 Rain 24 1010 88 10000 1.23 266 17:53 23.06.2022
2956 Rain 26 1009 78 10000 1.08 190 17:23 23.06.2022
2957 Clouds 27 1008 68 10000 1.22 192 15:57 23.06.2022
2958 Clouds 31 1008 54 10000 1.43 213 15:24 23.06.2022
2959 Clouds 33 1009 43 10000 0.82 187 13:45 23.06.2022
2960 Clouds 29 1012 61 10000 0.87 328 11:27 23.06.2022
2961 Clouds 29 1012 61 10000 0.87 328 10:37 23.06.2022
2962 Clouds 25 1012 80 10000 0.62 1 09:18 23.06.2022
2963 Rain 21 1010 99 10000 0.34 312 03:40 23.06.2022
2964 Clouds 22 1011 96 10000 0.78 153 00:27 23.06.2022
2965 Clouds 22 1011 96 10000 0.78 153 23:41 22.06.2022
2966 Rain 22 1011 96 10000 1.02 167 22:41 22.06.2022
2967 Rain 23 1010 86 10000 0.62 166 21:22 22.06.2022
2968 Rain 23 1010 86 10000 0.62 166 20:45 22.06.2022
2969 Rain 23 1009 87 10000 0.94 273 19:58 22.06.2022
2970 Rain 23 1009 85 10000 1.39 263 18:49 22.06.2022
2971 Clouds 25 1008 78 10000 0.7 76 17:28 22.06.2022
2972 Clouds 25 1008 78 10000 0.7 76 17:28 22.06.2022
2973 Clouds 25 1008 78 10000 0.7 76 16:33 22.06.2022
2974 Clouds 29 1008 60 10000 1.46 140 15:27 22.06.2022
2975 Clouds 32 1008 49 10000 1.38 173 14:21 22.06.2022
2976 Clouds 33 1008 45 10000 0.56 194 13:42 22.06.2022
2977 Clouds 33 1009 45 10000 0.47 214 13:23 22.06.2022
2978 Rain 32 1010 50 10000 0.31 313 11:50 22.06.2022
2979 Rain 32 1010 50 10000 0.31 313 11:50 22.06.2022
2980 Rain 32 1010 50 10000 0.31 313 11:50 22.06.2022
2981 Rain 30 1011 57 10000 1.27 1 10:57 22.06.2022
2982 Clouds 28 1012 64 10000 1.37 21 10:19 22.06.2022
2983 Clouds 25 1012 80 10000 0.93 10 08:37 22.06.2022
2984 Rain 20 1011 97 10000 0.99 50 05:38 22.06.2022
2985 Clouds 21 1010 88 10000 0.97 19 01:39 22.06.2022
2986 Clouds 22 1010 85 10000 0.51 317 00:36 22.06.2022
2987 Clouds 22 1011 84 10000 0.57 201 22:37 21.06.2022
2988 Clouds 23 1010 83 10000 1.58 197 19:57 21.06.2022
2989 Clouds 23 1010 81 10000 1.41 182 18:51 21.06.2022
2990 Clouds 25 1009 76 10000 1.32 166 17:40 21.06.2022
2991 Clouds 29 1009 57 10000 1.41 206 14:42 21.06.2022
2992 Rain 28 1012 73 6571 0.49 104 11:52 21.06.2022
2993 Rain 28 1014 68 10000 0.46 279 10:19 21.06.2022
2994 Clouds 24 1014 85 10000 0.34 219 08:48 21.06.2022
2995 Clouds 22 1014 93 10000 0.57 81 07:35 21.06.2022
2996 Clouds 21 1013 97 10000 0.75 183 02:27 21.06.2022
2997 Rain 21 1014 98 10000 0.71 142 23:26 20.06.2022
2998 Rain 21 1014 97 10000 0.79 173 21:58 20.06.2022
2999 Rain 21 1014 97 10000 0.79 173 21:30 20.06.2022
3000 Clouds 22 1012 91 10000 0.86 162 19:49 20.06.2022
3001 Clouds 23 1012 90 10000 1.01 185 18:53 20.06.2022
3002 Clouds 24 1012 87 10000 1.14 180 18:23 20.06.2022
3003 Clouds 24 1012 87 10000 1.14 180 17:36 20.06.2022
3004 Rain 28 1011 69 10000 0.96 191 15:58 20.06.2022
3005 Clouds 28 1012 63 10000 0.38 13 14:18 20.06.2022
3006 Clouds 26 1015 70 10000 0.37 293 11:30 20.06.2022
3007 Clouds 25 1016 81 10000 0.27 168 09:48 20.06.2022
3008 Clouds 23 1016 89 10000 0.16 128 08:45 20.06.2022
3009 Clouds 21 1014 98 10000 0.56 83 06:59 20.06.2022
3010 Clouds 20 1013 99 10000 0.72 108 03:29 20.06.2022
3011 Clouds 21 1013 98 10000 0.19 316 00:37 20.06.2022
3012 Clouds 21 1014 98 10000 0.4 20 23:25 19.06.2022
3013 Clouds 21 1014 98 10000 0.54 30 22:19 19.06.2022
3014 Clouds 21 1014 98 10000 0.54 30 21:41 19.06.2022
3015 Rain 21 1014 97 10000 0.79 59 20:46 19.06.2022
3016 Rain 22 1013 95 10000 0.56 294 19:48 19.06.2022
3017 Rain 22 1012 93 10000 0.85 295 19:24 19.06.2022
3018 Rain 22 1012 93 10000 0.85 295 18:31 19.06.2022
3019 Rain 24 1012 87 10000 0.9 306 17:39 19.06.2022
3020 Rain 26 1011 74 10000 1.4 302 16:38 19.06.2022
3021 Rain 27 1011 70 10000 1.53 310 15:44 19.06.2022
3022 Rain 27 1011 72 10000 1.43 316 15:26 19.06.2022
3023 Rain 27 1011 73 10000 0.94 296 14:30 19.06.2022
3024 Rain 26 1012 76 10000 1.2 283 13:43 19.06.2022
3025 Clouds 25 1014 77 10000 0.17 208 11:53 19.06.2022
3026 Clouds 24 1015 86 10000 0.54 41 10:52 19.06.2022
3027 Clouds 22 1015 94 10000 0.49 332 08:55 19.06.2022
3028 Clouds 22 1015 94 10000 0.49 332 08:30 19.06.2022
3029 Clouds 20 1014 99 10000 0.49 2 06:48 19.06.2022
3030 Clouds 20 1013 99 10000 0.57 321 03:37 19.06.2022
3031 Clouds 20 1013 99 10000 0.86 261 00:28 19.06.2022
3032 Clouds 20 1013 99 10000 0.86 261 23:52 18.06.2022
3033 Clouds 20 1013 99 10000 0.86 261 23:34 18.06.2022
3034 Clouds 20 1013 99 10000 0.68 295 21:54 18.06.2022
3035 Clouds 21 1013 99 10000 1.02 282 20:51 18.06.2022
3036 Rain 21 1013 99 10000 1.14 294 20:18 18.06.2022
3037 Rain 21 1012 99 10000 1.37 350 18:55 18.06.2022
3038 Rain 21 1012 99 10000 1.37 350 18:30 18.06.2022
3039 Rain 21 1012 98 10000 1.84 340 17:29 18.06.2022
3040 Rain 22 1011 96 7898 1.42 324 15:46 18.06.2022
3041 Rain 24 1011 90 7801 1.56 311 14:54 18.06.2022
3042 Rain 24 1011 90 7801 1.56 311 14:35 18.06.2022
3043 Rain 24 1013 81 10000 1.82 275 12:30 18.06.2022
3044 Clouds 24 1014 85 10000 1.45 288 11:20 18.06.2022
3045 Clouds 22 1014 93 10000 1.07 309 09:39 18.06.2022
3046 Rain 21 1014 98 10000 1.13 326 08:46 18.06.2022
3047 Rain 21 1013 99 10000 1.4 290 07:34 18.06.2022
3048 Rain 21 1011 99 5683 0.89 206 05:20 18.06.2022
3049 Clouds 21 1010 99 10000 0.69 283 01:50 18.06.2022
3050 Rain 21 1011 99 10000 0.87 341 01:21 18.06.2022
3051 Clouds 21 1011 98 10000 1.21 313 00:23 18.06.2022
3052 Clouds 21 1011 98 10000 1.21 313 00:23 18.06.2022
3053 Clouds 21 1011 98 10000 1.21 313 23:37 17.06.2022
3054 Rain 22 1011 98 10000 1.53 280 22:29 17.06.2022
3055 Rain 22 1009 97 10000 1.04 50 20:29 17.06.2022
3056 Rain 23 1007 93 10000 0.64 213 19:24 17.06.2022
3057 Rain 23 1007 93 10000 0.64 213 19:24 17.06.2022
3058 Rain 24 1007 91 10000 1.2 255 17:58 17.06.2022
3059 Rain 24 1006 89 10000 2.37 239 16:44 17.06.2022
3060 Rain 24 1007 86 10000 1.86 227 16:25 17.06.2022
3061 Rain 24 1007 86 10000 1.86 227 15:40 17.06.2022
3062 Clouds 33 1008 45 10000 1.34 260 14:23 17.06.2022
3063 Clouds 33 1008 45 10000 1.34 260 13:58 17.06.2022
3064 Clouds 33 1008 45 10000 1.34 260 13:38 17.06.2022
3065 Clouds 30 1010 55 10000 1.43 270 12:28 17.06.2022
3066 Clouds 30 1010 55 10000 1.43 270 11:55 17.06.2022
3067 Clouds 30 1010 55 10000 1.43 270 11:33 17.06.2022
3068 Clouds 23 1012 94 10000 0.72 326 09:36 17.06.2022
3069 Clouds 23 1010 94 10000 1.07 331 08:26 17.06.2022
3070 Rain 22 1010 98 10000 0.68 298 06:45 17.06.2022
3071 Rain 21 1009 98 10000 0.59 319 03:59 17.06.2022
3072 Clouds 22 1009 96 10000 0.86 4 01:56 17.06.2022
3073 Clouds 22 1010 95 10000 1.15 8 23:47 16.06.2022
3074 Clouds 22 1010 92 10000 0.33 323 22:42 16.06.2022
3075 Rain 22 1010 91 10000 0.91 346 21:22 16.06.2022
3076 Rain 22 1010 91 10000 0.91 346 20:52 16.06.2022
3077 Rain 22 1010 91 10000 0.91 346 20:33 16.06.2022
3078 Rain 25 1008 75 10000 1.6 99 19:41 16.06.2022
3079 Clouds 28 1006 63 10000 1.23 162 18:24 16.06.2022
3080 Clouds 28 1006 63 10000 1.23 162 17:42 16.06.2022
3081 Clouds 32 1005 47 10000 2.15 134 16:35 16.06.2022
3082 Clouds 33 1005 42 10000 1.28 123 15:22 16.06.2022
3083 Clouds 33 1005 42 10000 1.28 123 14:37 16.06.2022
3084 Clouds 35 1008 38 10000 0.95 145 13:20 16.06.2022
3085 Clouds 30 1011 70 7000 2.06 150 12:36 16.06.2022
3086 Clouds 34 1009 43 10000 0.69 153 11:51 16.06.2022
3087 Clouds 32 1010 50 10000 0.57 131 10:55 16.06.2022
3088 Clouds 29 1011 61 10000 0.6 69 09:53 16.06.2022
3089 Clouds 25 1011 81 10000 0.37 51 09:21 16.06.2022
3090 Clouds 23 1011 94 10000 0.45 12 08:28 16.06.2022
3091 Clouds 21 1011 97 10000 0.77 16 07:24 16.06.2022
3092 Clouds 21 1009 98 10000 0.19 22 04:50 16.06.2022
3093 Rain 21 1009 96 10000 0.62 330 02:20 16.06.2022
3094 Rain 21 1009 96 10000 0.62 330 01:35 16.06.2022
3095 Rain 21 1009 96 10000 0.62 330 01:35 16.06.2022
3096 Rain 22 1010 91 10000 0.33 338 00:56 16.06.2022
3097 Clouds 22 1010 87 10000 0.9 216 23:43 15.06.2022
3098 Clouds 23 1010 84 10000 0.12 322 22:35 15.06.2022
3099 Rain 24 1010 80 10000 0.63 69 21:22 15.06.2022
3100 Rain 24 1010 80 10000 0.63 69 20:42 15.06.2022
3101 Clouds 25 1009 77 10000 0.94 59 20:23 15.06.2022
3102 Rain 24 1009 82 10000 1.51 175 19:29 15.06.2022
3103 Clouds 26 1008 74 10000 1.11 143 17:56 15.06.2022
3104 Clouds 29 1007 60 10000 1.42 9 17:25 15.06.2022
3105 Clouds 29 1007 59 10000 0.35 292 15:38 15.06.2022
3106 Clouds 33 1008 42 10000 0.24 133 14:18 15.06.2022
3107 Clouds 34 1009 40 10000 0.25 189 12:54 15.06.2022
3108 Clouds 33 1010 44 10000 0.33 80 11:58 15.06.2022
3109 Clouds 28 1012 62 10000 0.53 102 10:24 15.06.2022
3110 Clouds 28 1012 62 10000 0.53 102 10:24 15.06.2022
3111 Clouds 28 1012 62 10000 0.53 102 09:43 15.06.2022
3112 Clouds 25 1012 79 10000 0.33 73 08:40 15.06.2022
3113 Clouds 22 1011 90 10000 0.16 218 06:34 15.06.2022
3114 Clouds 21 1010 91 10000 0.37 155 04:46 15.06.2022
3115 Clouds 22 1010 85 10000 0.72 344 01:55 15.06.2022
3116 Clouds 23 1009 82 10000 0.52 179 00:51 15.06.2022
3117 Clouds 23 1010 80 10000 0.68 226 23:39 14.06.2022
3118 Clouds 23 1011 79 10000 0.76 210 23:21 14.06.2022
3119 Clouds 24 1011 77 10000 1.06 196 22:23 14.06.2022
3120 Clouds 24 1011 77 10000 1.06 196 21:38 14.06.2022
3121 Clouds 24 1010 75 10000 0.71 317 20:56 14.06.2022
3122 Clouds 24 1010 75 10000 0.71 317 20:31 14.06.2022
3123 Clouds 26 1009 69 10000 0.5 64 19:20 14.06.2022
3124 Clouds 27 1008 67 10000 0.76 5 18:20 14.06.2022
3125 Clouds 28 1008 65 10000 0.64 355 16:48 14.06.2022
3126 Clouds 29 1008 61 10000 0.29 338 15:50 14.06.2022
3127 Clouds 32 1008 47 10000 0.26 32 15:28 14.06.2022
3128 Clouds 32 1008 47 10000 0.26 32 14:37 14.06.2022
3129 Clouds 33 1009 44 10000 0.21 29 13:46 14.06.2022
3130 Clouds 33 1010 44 10000 0.18 350 12:48 14.06.2022
3131 Clouds 32 1011 49 10000 0.42 296 11:41 14.06.2022
3132 Clouds 31 1012 55 10000 0.29 301 10:48 14.06.2022
3133 Clouds 28 1013 65 10000 0.88 297 10:22 14.06.2022
3134 Clouds 26 1013 78 10000 0.87 294 08:49 14.06.2022
3135 Clouds 23 1014 90 10000 0.67 243 07:49 14.06.2022
3136 Rain 20 1013 99 10000 0.55 27 05:46 14.06.2022
3137 Clouds 21 1011 96 10000 0.73 314 03:20 14.06.2022
3138 Clouds 21 1011 89 10000 1.05 305 01:31 14.06.2022
3139 Clouds 22 1011 83 10000 0.15 345 23:48 13.06.2022
3140 Clouds 23 1012 79 10000 0.84 203 22:26 13.06.2022
3141 Clouds 23 1012 79 10000 0.84 203 21:54 13.06.2022
3142 Clouds 23 1011 79 10000 0.47 220 20:42 13.06.2022
3143 Clouds 24 1010 79 10000 0.42 263 19:39 13.06.2022
3144 Clouds 25 1009 77 10000 0.39 194 18:36 13.06.2022
3145 Clouds 27 1008 73 10000 0.95 238 17:48 13.06.2022
3146 Clouds 30 1009 58 10000 0.89 256 16:54 13.06.2022
3147 Clouds 31 1007 50 10000 1.43 237 15:41 13.06.2022
3148 Clouds 29 1008 58 10000 2.25 178 14:47 13.06.2022
3149 Clouds 33 1009 43 10000 1.87 180 13:59 13.06.2022
3150 Clouds 33 1010 44 10000 1.22 211 12:59 13.06.2022
3151 Clouds 31 1011 51 10000 1.12 234 11:38 13.06.2022
3152 Clouds 29 1012 62 10000 0.74 220 10:34 13.06.2022
3153 Clouds 28 1013 64 10000 0.84 202 09:42 13.06.2022
3154 Clouds 23 1013 91 10000 0.47 153 08:27 13.06.2022
3155 Clouds 21 1012 97 10000 0.41 18 06:34 13.06.2022
3156 Rain 21 1011 99 10000 0.45 225 04:18 13.06.2022
3157 Clouds 21 1011 98 10000 0.65 242 01:39 13.06.2022
3158 Clouds 21 1011 97 10000 0.5 249 00:59 13.06.2022
3159 Clouds 21 1011 97 10000 0.71 281 23:33 12.06.2022
3160 Clouds 22 1011 96 10000 0.24 286 22:29 12.06.2022
3161 Clouds 22 1011 96 10000 0.24 286 21:41 12.06.2022
3162 Clouds 23 1011 92 10000 0.74 350 20:43 12.06.2022
3163 Clouds 23 1011 92 10000 1.11 319 19:42 12.06.2022
3164 Clouds 23 1010 91 10000 0.59 292 18:46 12.06.2022
3165 Rain 26 1009 82 10000 0.49 222 16:57 12.06.2022
3166 Rain 27 1009 81 10000 0.19 296 15:33 12.06.2022
3167 Rain 27 1010 84 10000 0.43 248 14:41 12.06.2022
3168 Rain 30 1010 59 10000 1.37 259 14:18 12.06.2022
3169 Rain 30 1010 59 10000 1.37 259 13:43 12.06.2022
3170 Clouds 27 1013 73 10000 1.56 305 11:58 12.06.2022
3171 Clouds 22 1013 96 10000 0.65 337 10:46 12.06.2022
3172 Rain 22 1014 98 10000 1.32 335 09:36 12.06.2022
3173 Rain 22 1014 97 5414 1.47 15 08:49 12.06.2022
3174 Rain 22 1013 96 10000 1.19 32 07:49 12.06.2022
3175 Clouds 21 1011 96 10000 0.64 16 06:21 12.06.2022
3176 Rain 22 1011 92 10000 0.94 27 03:38 12.06.2022
3177 Clouds 21 1010 94 10000 0.45 231 01:49 12.06.2022
3178 Clouds 22 1010 94 10000 0.23 242 01:23 12.06.2022
3179 Clouds 22 1010 94 10000 0.23 242 00:36 12.06.2022
3180 Clear 22 1011 94 10000 0.49 251 00:18 12.06.2022
3181 Clear 22 1011 93 10000 0.24 231 22:58 11.06.2022
3182 Clear 22 1011 93 10000 0.24 231 22:31 11.06.2022
3183 Rain 23 1011 88 10000 1.25 266 21:18 11.06.2022
3184 Clouds 24 1011 81 10000 1.31 254 20:26 11.06.2022
3185 Clouds 26 1010 70 10000 0.72 242 19:33 11.06.2022
3186 Clouds 26 1010 67 10000 0.33 324 18:42 11.06.2022
3187 Clouds 27 1009 66 10000 0.43 44 18:24 11.06.2022
3188 Clouds 27 1009 66 10000 0.43 44 17:38 11.06.2022
3189 Clouds 30 1008 57 10000 0.14 184 17:19 11.06.2022
3190 Clouds 30 1008 57 10000 0.14 184 16:42 11.06.2022
3191 Clouds 29 1008 61 10000 0.66 228 15:47 11.06.2022
3192 Clouds 33 1009 41 10000 0.89 167 14:23 11.06.2022
3193 Clouds 33 1009 41 10000 0.89 167 13:47 11.06.2022
3194 Clouds 33 1012 46 10000 0.7 182 11:36 11.06.2022
3195 Clouds 26 1014 70 10000 0.62 70 10:29 11.06.2022
3196 Clouds 26 1014 70 10000 0.62 70 09:40 11.06.2022
3197 Clouds 24 1013 83 10000 0.42 74 08:21 11.06.2022
3198 Clouds 21 1012 95 10000 0.75 79 06:32 11.06.2022
3199 Clouds 20 1012 97 10000 1.04 80 05:26 11.06.2022
3200 Clouds 21 1011 96 10000 1.04 109 02:34 11.06.2022
3201 Clouds 21 1010 91 10000 1.33 144 01:41 11.06.2022
3202 Clouds 21 1011 90 10000 0.79 135 00:37 11.06.2022
3203 Rain 22 1011 82 10000 1.28 138 22:38 10.06.2022
3204 Clouds 24 1011 75 10000 1.04 158 22:20 10.06.2022
3205 Clouds 25 1011 71 10000 0.89 172 21:22 10.06.2022
3206 Clouds 25 1011 71 10000 0.89 172 20:36 10.06.2022
3207 Clouds 25 1010 71 10000 0.82 151 20:18 10.06.2022
3208 Clouds 26 1009 64 10000 0.93 178 19:18 10.06.2022
3209 Clouds 27 1009 66 10000 0.9 172 18:20 10.06.2022
3210 Clouds 27 1009 66 10000 0.9 172 17:41 10.06.2022
3211 Clouds 27 1009 64 10000 1.1 168 16:59 10.06.2022
3212 Clouds 30 1008 54 10000 1.07 142 16:20 10.06.2022
3213 Clouds 30 1008 54 10000 1.07 142 15:36 10.06.2022
3214 Clouds 33 1009 40 10000 0.97 93 13:55 10.06.2022
3215 Clouds 32 1010 44 10000 1.37 108 12:48 10.06.2022
3216 Clouds 31 1012 47 10000 1.32 95 11:41 10.06.2022
3217 Clouds 30 1013 53 10000 1.15 83 10:44 10.06.2022
3218 Clouds 27 1013 64 10000 1.01 58 09:44 10.06.2022
3219 Clouds 24 1014 81 10000 0.91 53 08:33 10.06.2022
3220 Clouds 21 1013 94 10000 0.82 55 07:24 10.06.2022
3221 Clouds 21 1013 94 10000 0.82 55 06:43 10.06.2022
3222 Clouds 21 1013 95 10000 0.37 105 06:24 10.06.2022
3223 Clouds 21 1012 95 10000 0.46 36 03:52 10.06.2022
3224 Clouds 21 1012 95 10000 1.07 50 01:41 10.06.2022
3225 Clouds 21 1013 95 10000 0.95 36 00:28 10.06.2022
3226 Clouds 21 1013 95 10000 0.95 36 23:38 09.06.2022
3227 Clouds 21 1013 94 10000 0.98 48 22:18 09.06.2022
3228 Clouds 21 1013 94 10000 0.98 48 21:33 09.06.2022
3229 Clouds 21 1013 95 10000 1.26 24 20:54 09.06.2022
3230 Clouds 22 1012 95 10000 1.36 7 20:21 09.06.2022
3231 Clouds 22 1012 94 10000 1.41 17 19:19 09.06.2022
3232 Rain 23 1011 93 10000 1.22 20 18:28 09.06.2022
3233 Rain 25 1011 89 10000 0.94 8 16:51 09.06.2022
3234 Rain 25 1011 84 10000 0.67 353 15:48 09.06.2022
3235 Rain 26 1011 82 10000 0.46 325 14:35 09.06.2022
3236 Rain 26 1012 80 8092 0.07 335 13:54 09.06.2022
3237 Rain 27 1012 67 10000 0.96 41 13:27 09.06.2022
3238 Rain 26 1013 72 10000 1.42 63 11:54 09.06.2022
3239 Clouds 25 1014 76 10000 1.37 64 11:18 09.06.2022
3240 Clouds 23 1015 85 10000 1.1 50 09:44 09.06.2022
3241 Clouds 23 1015 86 10000 1.3 41 09:23 09.06.2022
3242 Clouds 22 1014 86 10000 1.09 33 07:45 09.06.2022
3243 Clouds 22 1014 86 10000 1.09 33 07:45 09.06.2022
3244 Clouds 21 1013 93 10000 1.02 22 06:28 09.06.2022
3245 Clouds 21 1012 91 10000 0.89 347 02:52 09.06.2022
3246 Clouds 22 1012 86 10000 0.24 244 23:39 08.06.2022
3247 Clouds 22 1012 85 10000 0.65 320 22:58 08.06.2022
3248 Clouds 23 1012 84 10000 0.86 1 22:27 08.06.2022
3249 Clouds 23 1012 84 10000 0.86 1 21:54 08.06.2022
3250 Clouds 23 1012 83 10000 1.25 13 21:21 08.06.2022
3251 Clouds 23 1012 82 10000 1.46 29 20:20 08.06.2022
3252 Clouds 23 1012 83 10000 1.98 8 19:38 08.06.2022
3253 Clouds 24 1011 78 10000 1.71 28 18:43 08.06.2022
3254 Clouds 27 1009 63 10000 1.36 34 16:54 08.06.2022
3255 Clouds 30 1009 48 10000 0.58 302 15:44 08.06.2022
3256 Clouds 32 1009 40 10000 1.38 195 13:51 08.06.2022
3257 Clouds 32 1011 40 10000 2.22 183 11:52 08.06.2022
3258 Clouds 31 1012 44 10000 2.11 179 11:29 08.06.2022
3259 Clouds 29 1013 49 10000 1.74 177 09:55 08.06.2022
3260 Clouds 27 1013 57 10000 1.6 176 09:21 08.06.2022
3261 Clouds 24 1012 67 10000 1.28 172 08:26 08.06.2022
3262 Clouds 21 1012 79 10000 1.07 145 05:51 08.06.2022
3263 Clouds 21 1010 78 10000 0.63 144 03:52 08.06.2022
3264 Clouds 23 1011 72 10000 0.61 152 00:38 08.06.2022
3265 Clouds 24 1010 66 10000 1.29 168 23:28 07.06.2022
3266 Clouds 24 1010 66 10000 1.29 168 22:45 07.06.2022
3267 Clouds 24 1010 65 10000 0.74 190 22:23 07.06.2022
3268 Clouds 24 1010 65 10000 0.74 190 21:33 07.06.2022
3269 Clouds 24 1010 67 10000 1.02 235 20:58 07.06.2022
3270 Clouds 24 1010 67 10000 1.02 235 20:32 07.06.2022
3271 Clouds 25 1009 64 10000 1.28 182 19:38 07.06.2022
3272 Clouds 26 1008 62 10000 1.13 193 18:22 07.06.2022
3273 Clouds 27 1008 61 10000 1.14 200 17:26 07.06.2022
3274 Clouds 27 1008 61 10000 1.14 200 16:43 07.06.2022
3275 Clouds 28 1008 57 10000 1.39 200 15:47 07.06.2022
3276 Clouds 28 1008 55 10000 1.32 202 15:26 07.06.2022
3277 Clouds 28 1008 55 10000 1.32 202 15:26 07.06.2022
3278 Clouds 28 1008 55 10000 1.32 202 14:47 07.06.2022
3279 Clouds 32 1008 39 10000 1.83 202 14:29 07.06.2022
3280 Clouds 33 1008 35 10000 1.87 200 13:30 07.06.2022
3281 Clouds 33 1010 36 10000 1.81 200 12:45 07.06.2022
3282 Clouds 32 1011 38 10000 1.77 194 11:47 07.06.2022
3283 Clouds 29 1013 50 10000 1.38 189 10:26 07.06.2022
3284 Clouds 29 1013 50 10000 1.38 189 10:26 07.06.2022
3285 Clouds 27 1013 59 10000 1.23 189 08:49 07.06.2022
3286 Clouds 24 1013 72 10000 0.74 165 07:33 07.06.2022
3287 Clouds 21 1011 86 10000 0.78 156 05:58 07.06.2022
3288 Clouds 21 1010 85 10000 1.03 210 03:31 07.06.2022
3289 Clouds 21 1010 85 10000 1.03 210 03:31 07.06.2022
3290 Clouds 23 1010 80 10000 1.28 233 00:45 07.06.2022
3291 Clouds 23 1010 78 10000 1.12 232 23:41 06.06.2022
3292 Clouds 24 1011 75 10000 0.93 221 22:47 06.06.2022
3293 Clouds 24 1010 73 10000 0.84 246 21:56 06.06.2022
3294 Clouds 25 1010 71 10000 1 279 20:35 06.06.2022
3295 Clouds 26 1009 67 10000 0.41 320 19:24 06.06.2022
3296 Clouds 26 1009 67 10000 0.41 320 18:47 06.06.2022
3297 Clouds 27 1008 66 10000 0.65 358 17:55 06.06.2022
3298 Clouds 30 1008 57 10000 0.74 344 16:51 06.06.2022
3299 Clouds 32 1007 45 10000 0.91 321 15:45 06.06.2022
3300 Clouds 32 1008 46 10000 1.71 302 14:59 06.06.2022
3301 Clouds 32 1009 44 10000 1.7 311 13:43 06.06.2022
3302 Clouds 32 1010 46 10000 1.54 316 13:19 06.06.2022
3303 Clouds 32 1010 46 10000 1.54 316 12:33 06.06.2022
3304 Clouds 31 1011 53 10000 1.4 331 11:45 06.06.2022
3305 Rain 28 1012 65 10000 0.18 177 09:51 06.06.2022
3306 Clouds 26 1013 78 10000 0.15 214 08:44 06.06.2022
3307 Clouds 23 1013 91 10000 0.13 47 07:44 06.06.2022
3308 Clouds 21 1012 97 10000 0.27 234 07:19 06.06.2022
3309 Rain 21 1011 99 10000 0.85 342 04:38 06.06.2022
3310 Clouds 22 1010 94 10000 1.04 296 01:53 06.06.2022
3311 Clouds 22 1010 93 10000 0.67 266 00:57 06.06.2022
3312 Clouds 22 1010 93 10000 0.67 266 00:34 06.06.2022
3313 Clouds 23 1011 92 10000 0.88 264 22:59 05.06.2022
3314 Clouds 22 1011 93 10000 1.09 286 22:19 05.06.2022
3315 Clouds 25 1010 80 10000 1.32 286 20:23 05.06.2022
3316 Clouds 26 1009 76 10000 0.9 249 19:23 05.06.2022
3317 Clouds 27 1008 72 10000 0.83 230 18:18 05.06.2022
3318 Clouds 27 1008 72 10000 0.83 230 17:39 05.06.2022
3319 Clouds 30 1007 61 10000 0.74 248 17:20 05.06.2022
3320 Clouds 30 1007 61 10000 0.74 248 16:47 05.06.2022
3321 Clouds 33 1007 44 10000 1.11 332 15:28 05.06.2022
3322 Clouds 33 1008 43 10000 0.89 330 14:21 05.06.2022
3323 Rain 32 1010 52 10000 0.38 82 11:59 05.06.2022
3324 Rain 31 1011 56 10000 0.66 170 10:45 05.06.2022
3325 Clouds 29 1012 60 10000 0.55 26 10:24 05.06.2022
3326 Clouds 29 1012 60 10000 0.55 26 09:42 05.06.2022
3327 Clouds 23 1012 90 10000 0.57 25 08:25 05.06.2022
3328 Rain 21 1011 93 10000 0.42 10 06:25 05.06.2022
3329 Clouds 21 1010 92 10000 0.26 150 05:19 05.06.2022
3330 Clouds 22 1009 87 10000 0.31 84 02:48 05.06.2022
3331 Clouds 22 1009 84 10000 0.87 253 01:24 05.06.2022
3332 Clouds 23 1009 81 10000 1.14 263 23:36 04.06.2022
3333 Clouds 25 1009 72 10000 0.85 243 21:30 04.06.2022
3334 Clouds 26 1009 70 10000 0.9 132 19:36 04.06.2022
3335 Clouds 28 1007 66 10000 1.01 187 17:28 04.06.2022
3336 Clouds 29 1006 62 10000 0.87 210 16:22 04.06.2022
3337 Clouds 29 1006 62 10000 0.87 210 15:45 04.06.2022
3338 Clouds 33 1007 40 10000 1.39 160 14:18 04.06.2022
3339 Clouds 32 1009 45 10000 1.43 170 11:43 04.06.2022
3340 Clouds 31 1010 52 10000 1.54 177 10:55 04.06.2022
3341 Clouds 28 1011 63 10000 1.44 170 10:19 04.06.2022
3342 Clouds 28 1011 63 10000 1.44 170 09:39 04.06.2022
3343 Clouds 25 1012 83 10000 0.96 166 08:39 04.06.2022
3344 Rain 21 1011 98 10000 0.55 186 07:18 04.06.2022
3345 Rain 21 1009 97 10000 0.52 203 04:29 04.06.2022
3346 Clouds 22 1009 94 10000 0.78 237 00:37 04.06.2022
3347 Clouds 23 1010 88 10000 1.13 251 23:28 03.06.2022
3348 Clouds 23 1010 86 10000 1.04 267 22:20 03.06.2022
3349 Clouds 23 1010 87 10000 1.12 235 20:42 03.06.2022
3350 Clouds 24 1009 80 10000 1.23 204 19:58 03.06.2022
3351 Clouds 26 1007 72 10000 0.95 178 17:31 03.06.2022
3352 Clouds 30 1007 58 10000 0.61 124 16:34 03.06.2022
3353 Clouds 33 1007 42 10000 1 112 14:52 03.06.2022
3354 Clouds 28 1011 63 10000 2.21 176 12:28 03.06.2022
3355 Clouds 26 1011 74 10000 1.91 166 10:36 03.06.2022
3356 Clouds 23 1012 89 10000 1.89 154 09:30 03.06.2022
3357 Rain 22 1012 98 10000 1.69 138 07:54 03.06.2022
3358 Rain 22 1011 98 9832 0.72 82 07:20 03.06.2022
3359 Rain 22 1011 98 9832 0.72 82 06:30 03.06.2022
3360 Clouds 22 1009 98 10000 0.72 52 04:40 03.06.2022
3361 Clouds 22 1009 96 10000 0.32 153 00:22 03.06.2022
3362 Clouds 22 1010 96 10000 0.28 85 22:35 02.06.2022
3363 Clouds 22 1009 95 10000 0.38 313 21:29 02.06.2022
3364 Rain 22 1009 95 10000 0.21 280 20:22 02.06.2022
3365 Rain 22 1009 95 10000 0.21 280 19:41 02.06.2022
3366 Clouds 23 1008 84 10000 1.04 297 19:19 02.06.2022
3367 Clouds 25 1007 79 10000 1.29 287 16:46 02.06.2022
3368 Clouds 27 1007 73 10000 1.66 277 16:20 02.06.2022
3369 Clouds 27 1008 69 10000 1.38 288 13:47 02.06.2022
3370 Clouds 25 1009 86 10000 1.35 299 13:26 02.06.2022
3371 Rain 25 1011 92 7382 0.68 325 11:18 02.06.2022
3372 Rain 25 1011 87 10000 0.32 232 10:19 02.06.2022
3373 Clouds 24 1011 89 10000 0.84 239 09:27 02.06.2022
3374 Clouds 23 1011 95 10000 0.74 245 08:25 02.06.2022
3375 Clouds 22 1010 98 10000 0.77 216 06:50 02.06.2022
3376 Rain 22 1009 98 10000 0.68 83 04:40 02.06.2022
3377 Clouds 22 1009 98 10000 1.09 161 02:30 02.06.2022
3378 Clouds 23 1010 97 10000 0.65 149 23:43 01.06.2022
3379 Clouds 23 1010 97 10000 0.65 149 23:43 01.06.2022
3380 Clouds 23 1010 97 10000 0.65 149 23:43 01.06.2022
3381 Clouds 23 1010 97 10000 0.65 149 23:43 01.06.2022
3382 Clouds 23 1010 97 10000 0.65 149 23:43 01.06.2022
3383 Clouds 23 1010 96 10000 0.87 171 22:23 01.06.2022
3384 Clouds 23 1010 96 10000 0.87 171 21:32 01.06.2022
3385 Rain 23 1010 96 10000 0.26 109 20:40 01.06.2022
3386 Clouds 23 1009 94 10000 1.38 148 19:53 01.06.2022
3387 Rain 23 1008 93 10000 0.45 243 18:58 01.06.2022
3388 Rain 24 1007 90 10000 0.84 220 17:40 01.06.2022
3389 Rain 25 1006 80 10000 0.06 88 16:33 01.06.2022
3390 Clouds 31 1006 53 10000 1.14 176 14:52 01.06.2022
3391 Clouds 34 1007 42 10000 0.56 186 13:44 01.06.2022
3392 Clouds 33 1010 47 10000 0.37 110 12:25 01.06.2022
3393 Clouds 29 1012 61 10000 0.35 90 09:36 01.06.2022
3394 Clouds 23 1012 93 10000 0.55 119 08:29 01.06.2022
3395 Clouds 21 1011 97 10000 0.75 31 07:22 01.06.2022
3396 Clouds 20 1010 98 10000 1.11 127 05:22 01.06.2022
3397 Clouds 23 1009 77 10000 0.64 263 00:20 01.06.2022
3398 Clouds 24 1009 75 10000 0.56 218 22:59 31.05.2022
3399 Clouds 24 1009 75 10000 0.56 218 22:33 31.05.2022
3400 Clouds 24 1010 75 10000 0.25 130 21:45 31.05.2022
3401 Clouds 25 1009 71 10000 0.14 168 20:45 31.05.2022
3402 Clouds 25 1009 71 10000 0.14 168 20:45 31.05.2022
3403 Clouds 25 1008 68 10000 1.14 180 19:57 31.05.2022
3404 Clouds 26 1008 62 10000 0.3 120 18:50 31.05.2022
3405 Clouds 28 1007 59 10000 0.39 86 17:50 31.05.2022
3406 Clouds 31 1006 50 10000 0.42 81 16:53 31.05.2022
3407 Clouds 34 1006 37 10000 0.43 90 15:40 31.05.2022
3408 Clouds 35 1007 33 10000 0.69 101 13:45 31.05.2022
3409 Clouds 34 1010 39 10000 0.71 165 12:20 31.05.2022
3410 Clouds 32 1011 44 10000 0.91 172 10:53 31.05.2022
3411 Clouds 27 1012 61 10000 0.83 106 08:49 31.05.2022
3412 Clouds 21 1012 88 10000 0.48 105 07:21 31.05.2022
3413 Clouds 20 1012 92 10000 0.74 114 04:53 31.05.2022
3414 Clear 21 1011 89 10000 1.08 137 00:36 31.05.2022
3415 Clear 22 1012 84 10000 1.21 115 23:26 30.05.2022
3416 Clear 22 1012 84 10000 1.21 115 22:53 30.05.2022
3417 Clear 23 1012 80 10000 0.99 124 21:52 30.05.2022
3418 Clear 23 1012 80 10000 0.99 124 21:32 30.05.2022
3419 Clouds 23 1011 81 10000 0.94 111 19:57 30.05.2022
3420 Clouds 24 1011 80 10000 0.95 116 18:39 30.05.2022
3421 Clouds 25 1010 76 10000 1.15 112 17:35 30.05.2022
3422 Clouds 28 1010 62 10000 1.87 111 16:40 30.05.2022
3423 Clouds 27 1012 66 10000 2.23 96 14:23 30.05.2022
3424 Clouds 26 1014 72 10000 1.75 78 12:24 30.05.2022
3425 Clouds 25 1015 78 10000 2.08 68 10:41 30.05.2022
3426 Clouds 23 1016 92 10000 1.95 74 09:19 30.05.2022
3427 Clouds 21 1014 98 10000 0.92 91 06:40 30.05.2022
3428 Rain 20 1014 99 10000 1.13 94 05:48 30.05.2022
3429 Clouds 22 1012 87 10000 1.14 108 01:42 30.05.2022
3430 Clouds 23 1012 80 10000 0.84 197 22:57 29.05.2022
3431 Clouds 23 1012 80 10000 0.84 197 22:36 29.05.2022
3432 Clouds 24 1012 76 10000 0.76 160 20:54 29.05.2022
3433 Clouds 24 1011 77 10000 1.13 227 19:32 29.05.2022
3434 Clouds 24 1010 76 10000 1.22 249 18:53 29.05.2022
3435 Clouds 26 1010 73 10000 1.47 268 17:31 29.05.2022
3436 Clouds 32 1008 45 10000 1.15 248 15:48 29.05.2022
3437 Clouds 32 1008 43 10000 1.11 225 14:58 29.05.2022
3438 Clouds 30 1010 52 10000 1.1 241 13:53 29.05.2022
3439 Clouds 30 1013 51 10000 0.98 156 11:41 29.05.2022
3440 Clouds 29 1014 57 10000 0.73 138 10:38 29.05.2022
3441 Clouds 23 1015 83 10000 0.62 97 09:18 29.05.2022
3442 Clouds 19 1014 99 10000 0.46 81 06:18 29.05.2022
3443 Clouds 19 1014 99 10000 0.25 53 04:45 29.05.2022
3444 Clouds 19 1013 99 10000 0.17 95 03:47 29.05.2022
3445 Clouds 20 1014 100 10000 0.54 319 23:50 28.05.2022
3446 Clouds 20 1014 100 10000 0.54 319 23:50 28.05.2022
3447 Clouds 20 1014 100 10000 0.57 23 23:26 28.05.2022
3448 Clouds 20 1014 100 10000 0.57 23 22:39 28.05.2022
3449 Clouds 20 1014 99 10000 0.42 7 21:38 28.05.2022
3450 Clouds 20 1013 99 10000 1.18 296 19:49 28.05.2022
3451 Clouds 20 1013 99 10000 1.36 250 18:50 28.05.2022
3452 Clouds 20 1013 99 10000 1.71 215 17:37 28.05.2022
3453 Rain 21 1013 99 10000 1.25 203 16:43 28.05.2022
3454 Clouds 21 1013 99 10000 1.33 205 15:43 28.05.2022
3455 Rain 21 1014 99 10000 0.34 283 14:26 28.05.2022
3456 Clouds 22 1014 97 10000 0.49 84 12:51 28.05.2022
3457 Clouds 22 1014 97 10000 0.49 84 12:33 28.05.2022
3458 Rain 21 1016 99 10000 1.27 70 11:21 28.05.2022
3459 Rain 21 1016 99 8244 1.55 69 09:59 28.05.2022
3460 Rain 21 1016 99 4626 1.6 69 09:21 28.05.2022
3461 Rain 21 1014 99 10000 1.67 109 07:23 28.05.2022
3462 Rain 21 1014 99 10000 1.58 100 05:36 28.05.2022
3463 Clouds 21 1012 99 10000 0.68 214 02:44 28.05.2022
3464 Rain 22 1011 89 10000 0.73 232 00:33 28.05.2022
3465 Clouds 23 1012 86 10000 0.15 215 23:20 27.05.2022
3466 Clouds 23 1012 85 10000 0.36 205 21:46 27.05.2022
3467 Clouds 24 1011 84 10000 0.93 192 20:56 27.05.2022
3468 Clouds 24 1011 84 10000 1.08 192 20:25 27.05.2022
3469 Clouds 24 1011 79 10000 1.19 209 19:42 27.05.2022
3470 Clouds 25 1010 77 10000 1.3 209 19:24 27.05.2022
3471 Clouds 26 1010 75 10000 1.24 214 17:58 27.05.2022
3472 Clouds 26 1010 73 10000 1.35 217 16:39 27.05.2022
3473 Clouds 32 1009 47 10000 0.98 224 15:22 27.05.2022
3474 Clouds 33 1010 45 10000 1.16 249 14:26 27.05.2022
3475 Clouds 26 1013 73 10000 0.65 287 13:18 27.05.2022
3476 Clouds 25 1014 81 10000 0.46 200 11:34 27.05.2022
3477 Clouds 24 1015 87 10000 1.29 195 10:57 27.05.2022
3478 Clouds 24 1015 87 10000 1.29 195 10:31 27.05.2022
3479 Clouds 23 1016 94 10000 0.84 180 09:37 27.05.2022
3480 Rain 21 1016 95 10000 0.71 187 07:55 27.05.2022
3481 Clouds 20 1015 98 10000 0.6 131 05:47 27.05.2022
3482 Clouds 21 1014 92 10000 0.84 173 02:47 27.05.2022
3483 Clouds 21 1014 96 10000 1.34 215 00:29 27.05.2022
3484 Rain 22 1014 95 10000 1.07 210 22:43 26.05.2022
3485 Rain 23 1014 86 10000 0.43 148 21:40 26.05.2022
3486 Clouds 24 1013 79 10000 0.83 249 20:53 26.05.2022
3487 Clouds 25 1012 79 10000 0.81 236 19:24 26.05.2022
3488 Clouds 25 1012 79 10000 0.81 236 19:24 26.05.2022
3489 Clouds 26 1012 77 10000 0.8 246 18:18 26.05.2022
3490 Clouds 28 1011 70 10000 1.27 241 16:42 26.05.2022
3491 Clouds 28 1011 66 10000 1.5 243 15:46 26.05.2022
3492 Clouds 31 1011 49 10000 1.39 253 14:43 26.05.2022
3493 Clouds 32 1013 48 10000 1.64 256 12:37 26.05.2022
3494 Clouds 29 1015 59 10000 1.29 217 11:29 26.05.2022
3495 Clouds 26 1016 72 10000 1.27 209 09:44 26.05.2022
3496 Clouds 22 1017 92 10000 0.83 211 09:26 26.05.2022
3497 Clouds 22 1017 92 10000 0.83 211 08:35 26.05.2022
3498 Clouds 20 1015 99 10000 0.74 157 04:41 26.05.2022
3499 Clouds 21 1015 94 10000 0.51 176 00:48 26.05.2022
3500 Clouds 22 1015 92 10000 0.3 149 23:40 25.05.2022
3501 Clouds 21 1015 93 10000 1.16 167 21:59 25.05.2022
3502 Clouds 21 1015 93 10000 1.16 167 21:32 25.05.2022
3503 Clouds 21 1015 92 10000 1.43 161 20:37 25.05.2022
3504 Clouds 23 1014 83 10000 0.9 144 19:24 25.05.2022
3505 Clouds 25 1013 77 10000 0.29 148 17:43 25.05.2022
3506 Clouds 27 1012 65 10000 0.26 257 16:38 25.05.2022
3507 Clouds 28 1012 59 10000 0.39 264 15:54 25.05.2022
3508 Clouds 28 1012 57 10000 0.61 334 14:54 25.05.2022
3509 Clouds 28 1012 57 10000 0.61 334 14:33 25.05.2022
3510 Clouds 28 1016 65 10000 0 0 13:54 25.05.2022
3511 Clouds 28 1015 62 10000 0.69 70 12:39 25.05.2022
3512 Clouds 25 1017 74 10000 1.13 80 10:49 25.05.2022
3513 Clouds 23 1018 84 10000 1.12 77 10:18 25.05.2022
3514 Clouds 22 1018 92 10000 0.92 62 08:41 25.05.2022
3515 Clouds 20 1016 99 10000 0.48 82 07:23 25.05.2022
3516 Clouds 20 1015 99 10000 0.45 12 04:23 25.05.2022
3517 Clouds 20 1015 99 10000 0.11 116 00:23 25.05.2022
3518 Clouds 20 1015 99 10000 0.11 116 23:47 24.05.2022
3519 Clouds 20 1015 100 10000 0.42 231 22:33 24.05.2022
3520 Clouds 20 1015 100 10000 0.36 199 21:41 24.05.2022
3521 Clouds 20 1014 100 10000 0.7 259 21:21 24.05.2022
3522 Clouds 20 1014 100 10000 1.3 271 20:23 24.05.2022
3523 Clouds 21 1014 99 10000 1.19 289 18:56 24.05.2022
3524 Rain 21 1013 98 10000 1.47 288 16:58 24.05.2022
3525 Rain 21 1013 98 10000 1.68 289 16:23 24.05.2022
3526 Rain 21 1013 98 10000 1.73 287 14:59 24.05.2022
3527 Rain 21 1014 98 10000 1.7 301 14:21 24.05.2022
3528 Rain 21 1015 99 10000 1.3 302 13:18 24.05.2022
3529 Rain 21 1016 99 10000 0.91 310 11:40 24.05.2022
3530 Rain 21 1017 99 10000 0.27 347 09:46 24.05.2022
3531 Rain 21 1016 99 10000 0.36 300 08:50 24.05.2022
3532 Rain 21 1014 99 5469 0.71 306 06:58 24.05.2022
3533 Rain 20 1012 99 10000 1.34 278 04:59 24.05.2022
3534 Rain 21 1012 98 10000 1.25 273 02:42 24.05.2022
3535 Rain 21 1011 99 10000 1.12 268 01:43 24.05.2022
3536 Clouds 22 1011 99 10000 1.38 258 23:43 23.05.2022
3537 Clouds 22 1011 98 10000 1.04 244 21:59 23.05.2022
3538 Clouds 22 1011 98 10000 1.04 244 21:41 23.05.2022
3539 Clouds 22 1010 98 10000 1.02 209 20:45 23.05.2022
3540 Clouds 22 1010 97 10000 0.98 166 19:41 23.05.2022
3541 Clouds 22 1009 97 10000 0.94 139 19:00 23.05.2022
3542 Clouds 22 1009 97 10000 0.94 139 18:37 23.05.2022
3543 Clouds 23 1007 94 10000 0.69 138 17:55 23.05.2022
3544 Clouds 24 1009 93 10000 1.07 128 15:47 23.05.2022
3545 Rain 25 1010 90 10000 0.87 100 13:44 23.05.2022
3546 Rain 29 1011 71 10000 1.07 119 11:40 23.05.2022
3547 Rain 28 1012 76 10000 0.12 213 10:44 23.05.2022
3548 Rain 25 1014 84 10000 0.38 70 09:45 23.05.2022
3549 Rain 24 1014 88 10000 0.53 129 08:44 23.05.2022
3550 Clouds 23 1012 90 10000 0.73 167 06:48 23.05.2022
3551 Clouds 22 1012 92 10000 0.71 162 06:24 23.05.2022
3552 Clouds 22 1010 91 10000 0.87 58 02:36 23.05.2022
3553 Clouds 22 1010 92 10000 0.63 257 01:50 23.05.2022
3554 Clouds 23 1011 90 10000 0.9 215 01:23 23.05.2022
3555 Clouds 23 1011 89 10000 0.95 171 22:48 22.05.2022
3556 Clouds 23 1011 91 10000 1.2 159 22:21 22.05.2022
3557 Clouds 23 1011 91 10000 1.2 159 21:50 22.05.2022
3558 Rain 23 1011 85 10000 1.89 156 20:42 22.05.2022
3559 Clouds 24 1010 86 10000 1.36 156 20:20 22.05.2022
3560 Clouds 25 1009 79 10000 1.52 132 18:58 22.05.2022
3561 Clouds 25 1009 79 10000 1.52 132 18:37 22.05.2022
3562 Clouds 26 1009 73 10000 0.78 204 18:19 22.05.2022
3563 Clouds 28 1008 67 10000 0.92 153 16:51 22.05.2022
3564 Clouds 32 1008 50 10000 0.31 27 15:24 22.05.2022
3565 Clouds 32 1008 50 10000 0.31 27 14:44 22.05.2022
3566 Clouds 34 1010 40 10000 0.44 274 12:54 22.05.2022
3567 Clouds 34 1010 40 10000 0.44 274 12:31 22.05.2022
3568 Clouds 32 1013 48 10000 0.49 28 10:45 22.05.2022
3569 Clouds 27 1014 66 10000 0.98 50 09:29 22.05.2022
3570 Clouds 24 1014 80 10000 0.99 48 07:44 22.05.2022
3571 Clouds 21 1013 90 10000 0.49 37 07:20 22.05.2022
3572 Clouds 21 1011 94 10000 0.21 86 04:19 22.05.2022
3573 Clouds 21 1012 95 10000 0.44 86 00:59 22.05.2022
3574 Clouds 21 1013 96 10000 0.61 51 23:57 21.05.2022
3575 Clouds 21 1013 97 10000 0.94 38 23:29 21.05.2022
3576 Clouds 21 1013 96 10000 0.91 26 21:59 21.05.2022
3577 Clouds 21 1013 96 10000 0.91 26 21:38 21.05.2022
3578 Clouds 22 1013 95 10000 1.06 34 20:47 21.05.2022
3579 Clouds 21 1013 95 10000 1.25 45 19:59 21.05.2022
3580 Clouds 22 1012 94 10000 1.29 47 19:21 21.05.2022
3581 Clouds 25 1011 81 10000 1.27 46 17:29 21.05.2022
3582 Clouds 25 1011 81 10000 1.26 28 14:58 21.05.2022
3583 Clouds 26 1012 77 10000 1.78 11 14:24 21.05.2022
3584 Clouds 28 1011 63 10000 2.13 349 13:34 21.05.2022
3585 Clouds 27 1013 68 10000 2.25 353 12:39 21.05.2022
3586 Clouds 26 1014 74 10000 2.02 354 11:45 21.05.2022
3587 Clouds 23 1016 92 10000 1.45 338 10:22 21.05.2022
3588 Clouds 23 1016 96 10000 1.05 341 09:18 21.05.2022
3589 Clouds 23 1016 96 10000 1.05 341 08:39 21.05.2022
3590 Clouds 22 1013 99 10000 0.42 33 06:21 21.05.2022
3591 Rain 22 1011 99 10000 0.73 172 01:59 21.05.2022
3592 Rain 22 1012 98 10000 0.85 218 23:42 20.05.2022
3593 Clouds 23 1012 96 10000 0.89 217 22:41 20.05.2022
3594 Clouds 23 1011 95 10000 0.99 254 22:18 20.05.2022
3595 Clouds 23 1011 96 10000 1.18 258 21:19 20.05.2022
3596 Clouds 23 1011 96 10000 1.18 258 20:51 20.05.2022
3597 Rain 23 1010 93 10000 1.51 286 19:54 20.05.2022
3598 Clouds 24 1009 90 10000 1.5 293 18:58 20.05.2022
3599 Rain 24 1008 88 10000 2.17 291 18:23 20.05.2022
3600 Rain 27 1007 74 10000 1.33 352 16:27 20.05.2022
3601 Rain 27 1007 74 10000 1.33 352 15:54 20.05.2022
3602 Rain 27 1007 74 10000 1.33 352 15:32 20.05.2022
3603 Clouds 34 1008 42 10000 0.75 248 14:27 20.05.2022
3604 Clouds 35 1009 40 10000 0.48 208 12:45 20.05.2022
3605 Clouds 32 1011 49 10000 0.95 179 10:48 20.05.2022
3606 Clouds 30 1012 60 10000 0.85 184 09:32 20.05.2022
3607 Clouds 27 1012 78 10000 0.6 183 08:37 20.05.2022
3608 Clouds 22 1011 97 10000 0.5 166 06:44 20.05.2022
3609 Clouds 21 1010 99 10000 0.44 148 05:52 20.05.2022
3610 Rain 21 1009 97 10000 1.03 108 02:53 20.05.2022
3611 Clouds 23 1010 90 10000 0.67 249 23:47 19.05.2022
3612 Clouds 23 1010 87 10000 0.14 224 22:39 19.05.2022
3613 Clouds 24 1009 86 10000 1.02 178 21:52 19.05.2022
3614 Clouds 24 1009 85 10000 1.09 173 21:24 19.05.2022
3615 Clouds 24 1009 85 10000 1.09 173 20:53 19.05.2022
3616 Clouds 24 1009 83 10000 1.12 162 19:57 19.05.2022
3617 Clouds 24 1009 80 10000 1.03 165 19:19 19.05.2022
3618 Clouds 26 1008 74 10000 1.15 191 17:47 19.05.2022
3619 Clouds 31 1008 54 10000 0.64 214 16:22 19.05.2022
3620 Clouds 30 1008 60 10000 0.65 235 14:50 19.05.2022
3621 Clouds 26 1010 79 10000 0.53 276 14:21 19.05.2022
3622 Clouds 26 1010 79 10000 0.53 276 14:21 19.05.2022
3623 Rain 24 1013 94 10000 0.61 357 12:19 19.05.2022
3624 Rain 24 1013 91 10000 0.32 21 10:31 19.05.2022
3625 Clouds 24 1014 92 10000 0.23 156 08:51 19.05.2022
3626 Clouds 23 1013 97 10000 0.16 50 07:33 19.05.2022
3627 Rain 22 1011 100 10000 0.5 107 04:23 19.05.2022
3628 Clouds 22 1011 98 10000 0.45 169 01:28 19.05.2022
3629 Rain 22 1011 99 10000 1.35 238 23:49 18.05.2022
3630 Rain 22 1011 99 10000 0.62 273 22:45 18.05.2022
3631 Rain 22 1011 97 10000 0.34 187 21:45 18.05.2022
3632 Rain 23 1011 93 10000 2.25 93 21:24 18.05.2022
3633 Rain 24 1010 89 10000 2.25 110 20:22 18.05.2022
3634 Rain 23 1010 96 10000 1.36 121 19:32 18.05.2022
3635 Rain 25 1008 85 10000 0.52 191 18:20 18.05.2022
3636 Rain 25 1008 85 10000 0.52 191 17:41 18.05.2022
3637 Rain 26 1006 76 10000 0.53 346 17:22 18.05.2022
3638 Clouds 29 1006 64 10000 0.57 81 15:58 18.05.2022
3639 Clouds 29 1006 64 10000 0.57 81 15:37 18.05.2022
3640 Clouds 34 1007 43 10000 0.74 191 14:25 18.05.2022
3641 Clouds 35 1008 40 10000 1 207 12:59 18.05.2022
3642 Clouds 35 1008 40 10000 1 207 12:39 18.05.2022
3643 Clouds 34 1010 43 10000 1.37 206 11:33 18.05.2022
3644 Clouds 32 1011 49 10000 1.41 194 10:49 18.05.2022
3645 Clouds 24 1012 90 10000 0.87 133 08:27 18.05.2022
3646 Clouds 22 1011 97 10000 0.68 162 07:28 18.05.2022
3647 Clouds 21 1010 99 10000 0.81 171 04:26 18.05.2022
3648 Clouds 22 1010 97 10000 0.94 160 00:52 18.05.2022
3649 Rain 22 1011 96 10000 1.08 176 23:41 17.05.2022
3650 Clouds 24 1010 84 10000 1.39 183 21:23 17.05.2022
3651 Clouds 24 1010 84 10000 1.39 183 20:57 17.05.2022
3652 Clouds 25 1010 78 10000 1.34 186 19:45 17.05.2022
3653 Clouds 25 1008 75 10000 0.44 191 19:25 17.05.2022
3654 Clouds 27 1008 68 10000 0.38 239 17:49 17.05.2022
3655 Clouds 31 1007 53 10000 0.52 219 16:58 17.05.2022
3656 Clouds 33 1007 42 10000 0.44 176 16:29 17.05.2022
3657 Clouds 34 1008 40 10000 0.53 165 15:18 17.05.2022
3658 Clouds 34 1009 40 10000 0.94 180 14:29 17.05.2022
3659 Clouds 34 1008 41 10000 0.91 197 13:31 17.05.2022
3660 Clouds 31 1013 51 10000 0.94 120 10:51 17.05.2022
3661 Clouds 25 1014 79 10000 1.31 115 09:23 17.05.2022
3662 Clouds 23 1014 95 10000 0.96 115 07:59 17.05.2022
3663 Clouds 21 1013 99 10000 0.65 123 06:36 17.05.2022
3664 Rain 21 1012 98 10000 0.81 73 02:27 17.05.2022
3665 Clouds 21 1013 98 10000 0.06 86 00:28 17.05.2022
3666 Clouds 21 1013 98 10000 1.42 350 22:41 16.05.2022
3667 Clouds 21 1013 97 10000 1.35 2 21:36 16.05.2022
3668 Rain 21 1013 98 10000 1.15 282 20:46 16.05.2022
3669 Rain 20 1012 99 10000 2.03 205 19:22 16.05.2022
3670 Rain 21 1011 99 690 2.53 205 17:58 16.05.2022
3671 Rain 24 1009 94 3865 0.27 86 15:42 16.05.2022
3672 Rain 33 1009 48 10000 0.75 71 13:49 16.05.2022
3673 Clouds 35 1010 40 10000 0.7 57 12:50 16.05.2022
3674 Clouds 32 1013 51 10000 1.11 51 10:52 16.05.2022
3675 Clouds 26 1015 81 10000 1.06 75 08:55 16.05.2022
3676 Clouds 22 1013 99 10000 0.44 91 06:34 16.05.2022
3677 Rain 21 1012 99 10000 0.27 43 02:38 16.05.2022
3678 Clouds 23 1013 93 10000 1.16 58 23:19 15.05.2022
3679 Clouds 23 1012 89 10000 0.9 56 22:29 15.05.2022
3680 Clouds 23 1012 89 10000 0.9 56 21:39 15.05.2022
3681 Rain 23 1011 86 10000 0.57 149 20:54 15.05.2022
3682 Clouds 26 1009 69 10000 1.02 147 19:28 15.05.2022
3683 Clouds 27 1009 68 10000 0.72 70 17:51 15.05.2022
3684 Clouds 30 1008 61 10000 0.69 155 15:56 15.05.2022
3685 Clouds 34 1009 42 10000 1.04 314 13:50 15.05.2022
3686 Clouds 32 1012 53 10000 1.19 9 12:26 15.05.2022
3687 Clouds 32 1012 53 10000 1.19 9 11:38 15.05.2022
3688 Clouds 29 1014 65 10000 0.46 4 10:25 15.05.2022
3689 Clouds 25 1014 83 10000 0.05 273 08:32 15.05.2022
3690 Clouds 22 1013 99 10000 0.27 206 06:58 15.05.2022
3691 Clouds 21 1013 99 10000 0.35 324 05:33 15.05.2022
3692 Clouds 22 1011 99 10000 0.87 321 00:49 15.05.2022
3693 Rain 22 1012 98 10000 0.69 289 23:38 14.05.2022
3694 Rain 22 1011 98 10000 1.11 328 22:47 14.05.2022
3695 Rain 23 1011 96 9013 1.15 276 21:29 14.05.2022
3696 Rain 23 1011 96 9013 1.15 276 20:53 14.05.2022
3697 Clouds 25 1009 79 10000 0.92 278 19:38 14.05.2022
3698 Clouds 26 1008 70 10000 0.29 312 19:19 14.05.2022
3699 Clouds 26 1008 70 10000 0.29 312 18:41 14.05.2022
3700 Clouds 29 1007 62 10000 0.8 163 16:38 14.05.2022
3701 Clouds 31 1007 52 10000 0.16 8 15:30 14.05.2022
3702 Clouds 34 1007 42 10000 0.6 322 14:34 14.05.2022
3703 Clouds 32 1011 51 10000 1.07 248 12:24 14.05.2022
3704 Clouds 28 1013 67 10000 0.86 223 10:59 14.05.2022
3705 Clouds 24 1013 87 10000 0.68 205 10:21 14.05.2022
3706 Clouds 24 1013 87 10000 0.68 205 09:53 14.05.2022
3707 Clouds 24 1014 89 10000 0.75 192 08:49 14.05.2022
3708 Rain 22 1013 91 10000 0.57 159 06:41 14.05.2022
3709 Clouds 22 1010 84 10000 0.4 53 02:39 14.05.2022
3710 Rain 23 1011 81 10000 0.79 114 23:36 13.05.2022
3711 Clouds 24 1011 76 10000 0.75 124 22:58 13.05.2022
3712 Clouds 24 1010 74 10000 0.7 119 22:27 13.05.2022
3713 Clouds 24 1010 74 10000 0.7 119 21:52 13.05.2022
3714 Clouds 25 1010 69 10000 0.56 14 20:45 13.05.2022
3715 Clouds 26 1009 66 10000 0.89 327 20:27 13.05.2022
3716 Clouds 26 1008 69 10000 1.45 313 19:28 13.05.2022
3717 Clouds 28 1007 63 10000 1.04 275 17:51 13.05.2022
3718 Clouds 31 1006 52 10000 0.69 228 17:28 13.05.2022
3719 Clouds 33 1006 45 10000 0.38 323 16:20 13.05.2022
3720 Clouds 36 1006 33 10000 0.13 51 15:28 13.05.2022
3721 Clouds 36 1008 35 10000 0.41 167 13:41 13.05.2022
3722 Clouds 34 1010 41 10000 0.73 206 12:28 13.05.2022
3723 Clouds 33 1012 47 10000 0.9 209 11:22 13.05.2022
3724 Clouds 30 1012 55 10000 0.87 199 09:34 13.05.2022
3725 Clouds 27 1013 71 10000 0.59 195 08:44 13.05.2022
3726 Clouds 24 1013 82 10000 0.41 159 07:48 13.05.2022
3727 Clouds 22 1013 94 10000 0.28 351 06:33 13.05.2022
3728 Clouds 22 1013 94 10000 0.28 351 06:33 13.05.2022
3729 Clouds 21 1011 96 10000 0.14 236 03:29 13.05.2022
3730 Rain 23 1012 91 10000 0.46 25 00:24 13.05.2022
3731 Clouds 23 1012 87 10000 0.86 80 22:45 12.05.2022
3732 Clouds 24 1011 81 10000 0.68 60 21:56 12.05.2022
3733 Clouds 25 1009 77 10000 0.43 194 20:29 12.05.2022
3734 Clouds 25 1008 77 10000 1.06 222 18:51 12.05.2022
3735 Clouds 30 1008 60 10000 1.13 272 17:23 12.05.2022
3736 Clouds 32 1008 51 10000 1.49 265 15:55 12.05.2022
3737 Clouds 32 1008 46 10000 1.78 259 14:41 12.05.2022
3738 Clouds 32 1010 51 10000 1.32 219 13:41 12.05.2022
3739 Clouds 26 1014 79 10000 1.57 216 10:46 12.05.2022
3740 Clouds 23 1014 97 10000 1.11 204 09:28 12.05.2022
3741 Clouds 23 1014 97 10000 1.11 204 08:51 12.05.2022
3742 Clouds 22 1013 99 10000 0.71 260 07:40 12.05.2022
3743 Rain 22 1012 99 10000 0.86 282 06:19 12.05.2022
3744 Clouds 22 1010 98 10000 0.95 252 02:56 12.05.2022
3745 Clouds 22 1011 97 10000 1.3 242 00:35 12.05.2022
3746 Rain 23 1012 97 10000 0.14 169 22:35 11.05.2022
3747 Rain 23 1011 97 10000 1.09 234 21:46 11.05.2022
3748 Rain 23 1010 96 10000 0.77 210 21:21 11.05.2022
3749 Clouds 25 1009 79 10000 0.42 187 18:49 11.05.2022
3750 Clouds 31 1007 60 10000 0.72 188 16:55 11.05.2022
3751 Clouds 32 1007 49 10000 0.47 234 15:31 11.05.2022
3752 Clouds 32 1007 49 10000 0.47 234 15:31 11.05.2022
3753 Clouds 32 1007 49 10000 0.47 234 15:31 11.05.2022
3754 Clouds 32 1007 49 10000 0.47 234 15:31 11.05.2022
3755 Clouds 32 1007 49 10000 0.47 234 15:31 11.05.2022
3756 Clouds 32 1007 49 10000 0.47 234 15:31 11.05.2022
3757 Clouds 33 1007 48 10000 1.01 226 14:39 11.05.2022
3758 Clouds 33 1008 49 10000 1.44 225 14:18 11.05.2022
3759 Clouds 31 1011 59 10000 0.97 269 11:54 11.05.2022
3760 Clouds 29 1012 64 10000 0.91 264 10:44 11.05.2022
3761 Clouds 24 1013 92 10000 0.53 322 08:40 11.05.2022
3762 Clouds 21 1010 100 10000 0.79 337 05:28 11.05.2022
3763 Rain 23 1009 91 10000 0.29 251 00:45 11.05.2022
3764 Clouds 24 1009 84 10000 0.67 154 22:32 10.05.2022
3765 Rain 24 1010 85 10000 0.42 145 21:57 10.05.2022
3766 Clouds 25 1009 83 10000 0.9 143 20:57 10.05.2022
3767 Rain 24 1007 86 10000 1.06 289 19:47 10.05.2022
3768 Clouds 28 1006 69 10000 0.74 273 17:59 10.05.2022
3769 Clouds 31 1005 58 10000 0.52 202 17:29 10.05.2022
3770 Clouds 33 1005 47 10000 0.36 341 15:31 10.05.2022
3771 Clouds 36 1008 37 10000 1.14 165 12:47 10.05.2022
3772 Clouds 34 1009 41 10000 1.37 171 11:51 10.05.2022
3773 Clouds 32 1010 49 10000 1.18 157 11:21 10.05.2022
3774 Clouds 32 1010 49 10000 1.18 157 10:53 10.05.2022
3775 Clouds 25 1011 83 10000 0.69 158 09:26 10.05.2022
3776 Rain 21 1013 99 10000 0.87 27 07:26 10.05.2022
3777 Rain 21 1012 100 6118 1.58 42 04:32 10.05.2022
3778 Rain 21 1010 92 10000 0.49 140 01:18 10.05.2022
3779 Clouds 22 1010 88 10000 0.22 238 23:26 09.05.2022
3780 Clouds 22 1009 88 10000 1 237 21:58 09.05.2022
3781 Clouds 23 1009 87 10000 0.79 212 21:18 09.05.2022
3782 Rain 23 1008 82 10000 1.35 217 19:37 09.05.2022
3783 Clouds 28 1007 63 10000 1.63 184 17:56 09.05.2022
3784 Clouds 32 1006 49 10000 1.23 183 16:38 09.05.2022
3785 Clouds 34 1006 40 10000 1.16 183 15:52 09.05.2022
3786 Clouds 34 1006 40 10000 1.16 183 15:31 09.05.2022
3787 Clouds 34 1007 39 10000 0.16 272 14:32 09.05.2022
3788 Clouds 34 1008 40 10000 0.54 291 13:50 09.05.2022
3789 Clouds 33 1011 45 10000 1.13 314 12:26 09.05.2022
3790 Clouds 33 1011 45 10000 1.13 314 11:37 09.05.2022
3791 Clouds 31 1012 50 10000 1.36 345 10:43 09.05.2022
3792 Clouds 29 1013 58 10000 1.43 350 09:38 09.05.2022
3793 Clouds 24 1013 82 10000 0.79 39 07:54 09.05.2022
3794 Clouds 21 1011 99 10000 0.35 132 03:40 09.05.2022
3795 Clouds 21 1011 97 10000 1.35 166 00:20 09.05.2022
3796 Clouds 21 1011 96 10000 1.32 152 22:56 08.05.2022
3797 Clouds 22 1011 95 10000 1.39 152 21:56 08.05.2022
3798 Clouds 22 1010 93 10000 1.16 149 20:37 08.05.2022
3799 Clouds 22 1010 94 10000 1.1 143 19:45 08.05.2022
3800 Clouds 23 1009 94 10000 1.15 141 18:57 08.05.2022
3801 Clouds 25 1009 91 10000 1.25 162 18:19 08.05.2022
3802 Rain 26 1008 86 10000 1.44 177 16:56 08.05.2022
3803 Rain 27 1009 86 10000 1.72 180 15:40 08.05.2022
3804 Rain 26 1009 88 10000 1.73 178 15:20 08.05.2022
3805 Rain 26 1009 88 10000 1.73 178 15:20 08.05.2022
3806 Rain 29 1011 72 10000 1.78 167 12:39 08.05.2022
3807 Clouds 28 1013 66 10000 1.52 186 10:32 08.05.2022
3808 Clouds 26 1014 74 10000 1.13 183 09:58 08.05.2022
3809 Clouds 26 1014 74 10000 1.13 183 09:31 08.05.2022
3810 Rain 22 1014 96 10000 0.75 182 07:31 08.05.2022
3811 Rain 20 1010 98 10000 0.51 187 03:55 08.05.2022
3812 Rain 21 1010 96 10000 0.69 55 02:51 08.05.2022
3813 Clouds 22 1010 81 10000 0.97 177 00:28 08.05.2022
3814 Clouds 22 1010 81 10000 0.97 177 23:51 07.05.2022
3815 Clouds 22 1010 81 10000 1.23 148 22:48 07.05.2022
3816 Clouds 22 1009 80 10000 0.72 148 21:59 07.05.2022
3817 Clouds 22 1009 80 10000 0.72 148 21:34 07.05.2022
3818 Clouds 23 1009 81 10000 1.18 197 20:42 07.05.2022
3819 Clouds 24 1008 80 10000 1.33 161 19:57 07.05.2022
3820 Clouds 26 1006 73 10000 1.04 186 17:43 07.05.2022
3821 Clouds 30 1006 53 10000 0.68 127 15:51 07.05.2022
3822 Clouds 29 1008 59 10000 0.88 111 14:19 07.05.2022
3823 Clouds 28 1012 60 10000 0.69 356 10:56 07.05.2022
3824 Clouds 24 1013 80 10000 0.68 6 09:20 07.05.2022
3825 Clouds 22 1012 95 10000 0.49 1 07:52 07.05.2022
3826 Clouds 21 1012 99 10000 0.07 350 06:43 07.05.2022
3827 Clouds 20 1010 99 10000 0.3 353 04:59 07.05.2022
3828 Clouds 20 1010 99 10000 0.8 142 01:46 07.05.2022
3829 Clouds 21 1011 99 10000 0.44 67 23:38 06.05.2022
3830 Clouds 21 1011 99 10000 0.99 8 22:30 06.05.2022
3831 Clouds 21 1011 99 10000 0.54 88 21:43 06.05.2022
3832 Clouds 21 1011 99 10000 0.54 88 21:43 06.05.2022
3833 Clouds 21 1011 99 10000 0.89 163 20:35 06.05.2022
3834 Clouds 21 1011 99 10000 0.63 73 19:31 06.05.2022
3835 Clouds 22 1010 99 10000 0.32 225 18:59 06.05.2022
3836 Clouds 23 1009 95 10000 1.21 223 18:19 06.05.2022
3837 Clouds 23 1009 94 10000 1.83 222 16:44 06.05.2022
3838 Rain 23 1010 96 10000 2.05 231 15:41 06.05.2022
3839 Rain 22 1010 99 10000 1.34 235 14:50 06.05.2022
3840 Rain 26 1011 91 8564 1.57 164 12:55 06.05.2022
3841 Rain 26 1011 91 8564 1.57 164 12:36 06.05.2022
3842 Rain 28 1012 79 10000 1.37 194 11:42 06.05.2022
3843 Clouds 26 1014 82 10000 0.76 325 10:27 06.05.2022
3844 Clouds 26 1014 82 10000 0.76 325 09:45 06.05.2022
3845 Rain 23 1014 98 10000 0.67 16 08:27 06.05.2022
3846 Rain 21 1013 99 10000 0.47 63 06:42 06.05.2022
3847 Rain 21 1011 99 10000 0.47 91 04:53 06.05.2022
3848 Rain 21 1011 98 10000 0.23 341 02:45 06.05.2022
3849 Clouds 23 1010 87 10000 1.25 188 23:45 05.05.2022
3850 Clouds 24 1010 84 10000 0.84 61 21:53 05.05.2022
3851 Clouds 24 1009 81 10000 1.05 49 21:19 05.05.2022
3852 Clouds 24 1010 83 10000 0.82 22 19:53 05.05.2022
3853 Clouds 26 1009 77 10000 1.1 37 18:26 05.05.2022
3854 Clouds 29 1009 64 10000 1.11 91 16:20 05.05.2022
3855 Clouds 29 1009 60 10000 1.2 89 14:43 05.05.2022
3856 Clouds 32 1011 49 10000 2.04 44 13:21 05.05.2022
3857 Clouds 30 1012 54 10000 1.79 62 12:25 05.05.2022
3858 Clouds 29 1013 58 10000 1.89 59 10:37 05.05.2022
3859 Clouds 30 1013 55 10000 1.89 66 09:39 05.05.2022
3860 Clouds 24 1013 77 10000 1.5 76 07:34 05.05.2022
3861 Clouds 22 1011 86 10000 1.22 56 04:28 05.05.2022
3862 Clouds 22 1010 86 10000 1.01 158 01:50 05.05.2022
3863 Clouds 22 1011 85 10000 1.1 175 01:24 05.05.2022
3864 Clouds 23 1011 85 10000 1.04 150 23:47 04.05.2022
3865 Clouds 23 1011 84 10000 1.19 162 22:30 04.05.2022
3866 Clouds 23 1011 84 10000 1.37 162 21:49 04.05.2022
3867 Clouds 23 1010 83 10000 1.5 174 21:26 04.05.2022
3868 Clouds 24 1010 81 10000 1.56 166 20:22 04.05.2022
3869 Clouds 24 1010 81 10000 1.56 166 19:51 04.05.2022
3870 Clouds 25 1009 74 10000 1.57 156 18:51 04.05.2022
3871 Clouds 27 1009 69 10000 1.35 161 18:22 04.05.2022
3872 Clouds 27 1009 69 10000 1.35 161 17:30 04.05.2022
3873 Clouds 32 1008 46 10000 1 177 15:40 04.05.2022
3874 Clouds 32 1008 46 10000 1.05 176 15:22 04.05.2022
3875 Clouds 32 1010 49 10000 0.98 181 14:20 04.05.2022
3876 Clouds 30 1012 55 10000 0.89 170 13:26 04.05.2022
3877 Clouds 25 1013 79 10000 0.79 96 12:29 04.05.2022
3878 Clouds 25 1014 79 10000 1.09 120 10:40 04.05.2022
3879 Clouds 25 1014 81 10000 1.53 144 09:43 04.05.2022
3880 Clouds 24 1014 89 10000 1.85 134 08:41 04.05.2022
3881 Clouds 22 1013 99 10000 1.09 145 06:31 04.05.2022
3882 Rain 21 1012 99 10000 0.14 162 02:58 04.05.2022
3883 Clouds 21 1012 99 10000 0.68 212 00:33 04.05.2022
3884 Rain 22 1012 99 10000 0.56 311 22:34 03.05.2022
3885 Rain 22 1012 99 10000 0.72 350 21:43 03.05.2022
3886 Rain 22 1011 98 10000 0.36 127 20:53 03.05.2022
3887 Clouds 25 1009 81 10000 1.15 202 19:49 03.05.2022
3888 Clouds 25 1009 79 10000 1.36 215 18:52 03.05.2022
3889 Clouds 27 1008 73 10000 0.78 262 18:20 03.05.2022
3890 Clouds 29 1008 65 10000 0.74 166 16:37 03.05.2022
3891 Clouds 28 1007 68 10000 1.43 192 15:35 03.05.2022
3892 Clouds 34 1009 41 10000 0.73 212 12:47 03.05.2022
3893 Clouds 33 1011 45 10000 0.95 217 12:27 03.05.2022
3894 Clouds 31 1012 53 10000 1.02 198 10:57 03.05.2022
3895 Clouds 31 1012 53 10000 1.02 198 10:57 03.05.2022
3896 Rain 25 1014 78 10000 0.77 151 09:29 03.05.2022
3897 Rain 21 1012 96 10000 0.31 38 06:46 03.05.2022
3898 Clouds 20 1012 95 10000 0.42 164 05:58 03.05.2022
3899 Clouds 21 1011 94 10000 0.43 128 00:54 03.05.2022
3900 Clouds 21 1011 92 10000 0.58 120 22:38 02.05.2022
3901 Clouds 22 1011 90 10000 0.74 108 21:52 02.05.2022
3902 Clouds 22 1011 89 10000 0.84 112 20:51 02.05.2022
3903 Clouds 22 1010 90 10000 1.24 133 18:41 02.05.2022
3904 Clouds 24 1009 82 10000 1.43 123 18:21 02.05.2022
3905 Clouds 24 1009 82 10000 1.43 123 17:37 02.05.2022
3906 Clouds 28 1009 59 10000 1.16 96 16:22 02.05.2022
3907 Clouds 28 1009 59 10000 1.16 96 15:31 02.05.2022
3908 Clouds 24 1011 78 10000 0.64 145 13:51 02.05.2022
3909 Clouds 22 1013 95 10000 1.57 115 12:19 02.05.2022
3910 Clouds 22 1015 97 10000 1.26 103 10:47 02.05.2022
3911 Rain 21 1016 99 10000 1.26 124 09:29 02.05.2022
3912 Rain 21 1014 99 10000 1.54 157 07:51 02.05.2022
3913 Rain 21 1012 99 10000 1.64 152 03:53 02.05.2022
3914 Rain 21 1012 99 10000 1.41 151 00:24 02.05.2022
3915 Rain 21 1012 99 10000 1.41 151 23:48 01.05.2022
3916 Rain 22 1012 90 10000 1.17 162 22:25 01.05.2022
3917 Rain 23 1011 88 10000 1.2 166 21:22 01.05.2022
3918 Clouds 25 1010 77 10000 1.84 179 19:53 01.05.2022
3919 Clouds 25 1009 75 10000 1.47 176 18:58 01.05.2022
3920 Clouds 27 1008 72 10000 1.38 190 18:28 01.05.2022
3921 Clouds 29 1008 63 10000 0.9 182 17:29 01.05.2022
3922 Clouds 30 1009 57 10000 0.63 177 16:23 01.05.2022
3923 Clouds 30 1009 57 10000 0.63 177 15:36 01.05.2022
3924 Clouds 33 1009 45 10000 0.84 207 13:47 01.05.2022
3925 Clouds 30 1013 58 10000 1.84 207 11:23 01.05.2022
3926 Clouds 24 1015 89 10000 1.71 191 08:53 01.05.2022
3927 Clouds 24 1015 89 10000 1.71 191 08:34 01.05.2022
3928 Clouds 21 1012 99 10000 0.6 201 03:35 01.05.2022
3929 Clouds 21 1012 98 10000 0.24 148 00:29 01.05.2022
3930 Rain 21 1012 96 10000 0.37 39 21:49 30.04.2022
3931 Rain 21 1011 94 10000 0.66 85 21:18 30.04.2022
3932 Rain 23 1009 79 10000 0.64 147 19:42 30.04.2022
3933 Clouds 28 1007 62 10000 1.21 198 18:21 30.04.2022
3934 Clouds 32 1007 47 10000 0.74 217 16:50 30.04.2022
3935 Clouds 33 1007 39 10000 0.18 205 15:47 30.04.2022
3936 Clouds 34 1008 38 10000 0.25 126 14:48 30.04.2022
3937 Clouds 34 1010 38 10000 0.91 151 13:20 30.04.2022
3938 Clouds 33 1011 42 10000 1.22 162 11:34 30.04.2022
3939 Clouds 30 1013 48 10000 1.41 163 10:45 30.04.2022
3940 Clouds 27 1014 62 10000 1.32 168 09:41 30.04.2022
3941 Clouds 21 1013 95 10000 1 170 06:48 30.04.2022
3942 Clouds 21 1011 97 10000 1.03 181 02:55 30.04.2022
3943 Clouds 21 1013 98 10000 0.37 144 23:37 29.04.2022
3944 Clouds 22 1013 97 10000 0.65 203 22:31 29.04.2022
3945 Clouds 22 1013 97 10000 0.91 162 21:53 29.04.2022
3946 Clouds 22 1013 97 10000 1.08 136 20:49 29.04.2022
3947 Clouds 22 1012 97 10000 0.87 108 19:47 29.04.2022
3948 Clouds 22 1011 95 10000 0.97 137 18:36 29.04.2022
3949 Rain 23 1010 92 10000 0.49 144 17:25 29.04.2022
3950 Rain 25 1010 87 10000 0.32 282 15:50 29.04.2022
3951 Clouds 29 1010 55 10000 1.18 207 14:23 29.04.2022
3952 Rain 23 1012 94 10000 1.4 179 13:22 29.04.2022
3953 Rain 23 1013 98 10000 0.7 166 11:50 29.04.2022
3954 Clouds 23 1014 97 10000 0.41 230 08:53 29.04.2022
3955 Clouds 21 1012 99 10000 1.41 177 07:28 29.04.2022
3956 Clouds 21 1012 99 10000 1.41 177 07:28 29.04.2022
3957 Clouds 21 1012 99 10000 1.41 177 06:45 29.04.2022
3958 Clouds 21 1012 99 10000 0.6 167 05:44 29.04.2022
3959 Rain 21 1011 100 4714 1.29 54 00:46 29.04.2022
3960 Rain 22 1011 97 10000 1.1 23 23:34 28.04.2022
3961 Rain 22 1010 96 10000 0.98 319 22:44 28.04.2022
3962 Rain 23 1011 93 10000 1.54 2 21:47 28.04.2022
3963 Clouds 24 1010 85 10000 1.36 11 21:21 28.04.2022
3964 Clouds 24 1010 85 10000 1.36 11 20:35 28.04.2022
3965 Clouds 24 1008 79 10000 0.3 203 19:45 28.04.2022
3966 Clouds 24 1008 79 10000 0.3 203 19:45 28.04.2022
3967 Clouds 25 1007 75 10000 0.97 209 19:22 28.04.2022
3968 Clouds 25 1007 75 10000 0.97 209 18:36 28.04.2022
3969 Clouds 29 1006 61 10000 0.94 202 17:26 28.04.2022
3970 Clouds 29 1006 61 10000 0.94 202 16:41 28.04.2022
3971 Clouds 32 1006 44 10000 0.74 227 16:19 28.04.2022
3972 Clouds 33 1006 41 10000 0.88 257 15:29 28.04.2022
3973 Clouds 32 1006 43 10000 1.41 288 14:36 28.04.2022
3974 Clouds 30 1009 50 10000 1.27 265 12:55 28.04.2022
3975 Clouds 28 1010 58 10000 0.84 231 11:59 28.04.2022
3976 Clouds 27 1011 62 10000 0.84 185 10:46 28.04.2022
3977 Clouds 27 1012 65 10000 0.84 198 10:26 28.04.2022
3978 Clouds 24 1012 77 10000 0.43 218 08:44 28.04.2022
3979 Clouds 22 1011 100 6000 0 0 07:36 28.04.2022
3980 Rain 21 1011 99 10000 0.14 344 05:56 28.04.2022
3981 Rain 21 1011 99 10000 0.14 344 05:38 28.04.2022
3982 Rain 21 1010 99 10000 0.58 86 04:40 28.04.2022
3983 Rain 21 1009 91 10000 0.69 157 00:36 28.04.2022
3984 Clouds 23 1010 87 10000 0.78 226 22:45 27.04.2022
3985 Clouds 23 1009 85 10000 0.54 227 21:56 27.04.2022
3986 Rain 24 1009 85 10000 0.81 190 21:26 27.04.2022
3987 Rain 24 1009 85 10000 0.81 190 20:38 27.04.2022
3988 Clouds 24 1008 85 10000 0.84 263 19:38 27.04.2022
3989 Rain 24 1008 82 10000 0.92 262 19:18 27.04.2022
3990 Rain 26 1007 79 10000 1.17 243 18:25 27.04.2022
3991 Clouds 28 1007 64 10000 1.23 239 17:26 27.04.2022
3992 Clouds 31 1007 50 10000 0.73 255 15:22 27.04.2022
3993 Clouds 27 1011 67 10000 0.8 268 12:27 27.04.2022
3994 Clouds 27 1012 70 10000 1.27 230 11:21 27.04.2022
3995 Clouds 23 1012 92 10000 0.72 214 09:45 27.04.2022
3996 Clouds 22 1010 95 10000 1 169 07:25 27.04.2022
3997 Clouds 22 1010 96 10000 0.94 161 05:37 27.04.2022
3998 Clouds 21 1009 98 10000 0.8 179 01:35 27.04.2022
3999 Clouds 21 1010 97 10000 0.59 197 00:52 27.04.2022
4000 Clouds 21 1010 98 10000 0.07 211 23:57 26.04.2022
4001 Clouds 21 1010 98 10000 0.66 207 23:23 26.04.2022
4002 Clouds 21 1010 98 10000 0.66 207 22:41 26.04.2022
4003 Clouds 22 1009 95 10000 1.6 208 21:48 26.04.2022
4004 Clouds 22 1009 94 10000 1.69 216 20:54 26.04.2022
4005 Clouds 22 1009 94 10000 1.69 216 20:34 26.04.2022
4006 Clouds 23 1008 85 10000 1.31 214 19:33 26.04.2022
4007 Clouds 24 1007 83 10000 1.54 221 18:51 26.04.2022
4008 Clouds 26 1007 76 10000 1.48 204 18:18 26.04.2022
4009 Clouds 26 1007 76 10000 1.48 204 17:32 26.04.2022
4010 Clouds 29 1006 59 10000 1.22 128 14:46 26.04.2022
4011 Clouds 25 1009 82 10000 0.29 107 13:34 26.04.2022
4012 Rain 22 1012 99 10000 0.42 111 12:25 26.04.2022
4013 Rain 22 1013 99 10000 0.64 95 10:46 26.04.2022
4014 Rain 22 1013 99 10000 0.86 84 09:41 26.04.2022
4015 Rain 21 1012 100 10000 0.86 124 07:59 26.04.2022
4016 Rain 21 1010 100 4252 0.93 126 04:33 26.04.2022
4017 Rain 21 1009 99 6019 0.33 77 02:20 26.04.2022
4018 Rain 21 1010 98 8844 0.19 246 00:26 26.04.2022
4019 Rain 21 1009 92 10000 0.33 302 22:49 25.04.2022
4020 Rain 22 1009 90 10000 0.32 35 21:44 25.04.2022
4021 Clouds 23 1008 86 10000 0.62 42 20:45 25.04.2022
4022 Clouds 23 1008 86 10000 0.62 42 20:45 25.04.2022
4023 Clouds 23 1008 82 10000 0.47 323 19:34 25.04.2022
4024 Clouds 26 1006 73 10000 0.97 330 18:25 25.04.2022
4025 Clouds 26 1006 73 10000 0.97 330 17:32 25.04.2022
4026 Clouds 29 1006 56 10000 1.26 333 15:30 25.04.2022
4027 Clouds 28 1007 65 10000 1.2 6 14:54 25.04.2022
4028 Clouds 30 1008 52 10000 1.82 344 13:41 25.04.2022
4029 Clouds 27 1011 65 10000 1.49 3 11:53 25.04.2022
4030 Clouds 23 1012 86 10000 0.62 72 10:27 25.04.2022
4031 Clouds 22 1012 94 10000 0.53 101 09:20 25.04.2022
4032 Rain 21 1011 99 10000 1.05 88 06:49 25.04.2022
4033 Rain 21 1010 99 10000 0.99 94 05:23 25.04.2022
4034 Clouds 21 1009 99 10000 0.74 63 00:58 25.04.2022
4035 Clouds 21 1010 99 10000 0.94 89 23:52 24.04.2022
4036 Clouds 21 1010 99 10000 1.04 115 22:52 24.04.2022
4037 Clouds 21 1010 99 10000 1.04 115 22:31 24.04.2022
4038 Rain 21 1010 99 10000 1.67 168 21:42 24.04.2022
4039 Rain 21 1011 99 10000 1.75 162 21:18 24.04.2022
4040 Clouds 22 1009 99 10000 1.54 169 20:37 24.04.2022
4041 Clouds 22 1009 99 10000 1.23 171 19:48 24.04.2022
4042 Clouds 23 1008 96 10000 1.6 172 18:20 24.04.2022
4043 Clouds 23 1008 96 10000 1.6 172 17:37 24.04.2022
4044 Rain 25 1008 92 10000 1.99 189 17:19 24.04.2022
4045 Rain 25 1008 92 10000 1.99 189 16:35 24.04.2022
4046 Rain 25 1008 90 10000 2.01 187 15:56 24.04.2022
4047 Rain 25 1008 90 10000 2.01 187 15:31 24.04.2022
4048 Rain 26 1008 92 9167 2.27 185 13:58 24.04.2022
4049 Rain 29 1008 71 10000 2.12 200 13:25 24.04.2022
4050 Rain 29 1008 71 10000 2.12 200 12:32 24.04.2022
4051 Rain 29 1009 63 10000 2.24 223 11:33 24.04.2022
4052 Clouds 26 1012 77 10000 1.83 210 10:27 24.04.2022
4053 Clouds 24 1012 90 10000 1.45 200 09:26 24.04.2022
4054 Clouds 21 1010 99 10000 0.47 191 06:45 24.04.2022
4055 Rain 21 1008 99 6810 0.54 164 03:55 24.04.2022
4056 Rain 22 1007 99 8835 0.47 181 01:38 24.04.2022
4057 Clouds 22 1008 98 10000 1.09 196 00:24 24.04.2022
4058 Clouds 22 1008 98 10000 1.09 196 23:44 23.04.2022
4059 Rain 22 1009 98 10000 0.46 217 23:21 23.04.2022
4060 Rain 22 1008 97 9903 0.62 262 21:51 23.04.2022
4061 Rain 22 1008 97 9903 0.62 262 21:32 23.04.2022
4062 Rain 23 1007 85 10000 1.21 327 20:45 23.04.2022
4063 Rain 23 1007 85 10000 1.21 327 20:45 23.04.2022
4064 Clouds 24 1006 84 10000 0.74 314 19:46 23.04.2022
4065 Rain 25 1005 79 10000 0.77 255 19:19 23.04.2022
4066 Rain 25 1005 79 10000 0.77 255 18:49 23.04.2022
4067 Rain 27 1005 70 10000 0.39 317 17:51 23.04.2022
4068 Clouds 29 1004 62 10000 0.27 247 17:20 23.04.2022
4069 Clouds 29 1004 62 10000 0.27 247 16:40 23.04.2022
4070 Clouds 34 1004 40 10000 0.07 352 14:57 23.04.2022
4071 Clouds 35 1006 40 10000 0.71 16 12:35 23.04.2022
4072 Clouds 32 1010 51 10000 0.44 80 10:41 23.04.2022
4073 Clouds 26 1012 79 10000 0.83 66 08:55 23.04.2022
4074 Rain 21 1010 99 10000 1.11 74 06:29 23.04.2022
4075 Rain 21 1009 94 10000 0.45 357 03:54 23.04.2022
4076 Clouds 21 1009 96 10000 0.33 21 00:53 23.04.2022
4077 Rain 22 1009 93 10000 1.18 28 23:29 22.04.2022
4078 Clouds 24 1009 79 10000 0.74 23 22:19 22.04.2022
4079 Clouds 24 1009 79 10000 0.74 23 21:41 22.04.2022
4080 Clouds 24 1008 76 10000 0.84 310 20:45 22.04.2022
4081 Clouds 24 1007 77 10000 0.73 333 20:25 22.04.2022
4082 Clouds 26 1007 72 10000 1.13 351 19:18 22.04.2022
4083 Clouds 26 1007 72 10000 1.13 351 18:35 22.04.2022
4084 Clouds 28 1006 64 10000 0.65 323 17:39 22.04.2022
4085 Clouds 32 1006 48 10000 0.64 258 16:32 22.04.2022
4086 Clouds 33 1006 45 10000 0.61 254 15:32 22.04.2022
4087 Clouds 32 1006 45 10000 0.86 280 14:43 22.04.2022
4088 Clouds 34 1007 42 10000 0.71 271 13:43 22.04.2022
4089 Clouds 33 1009 44 10000 0.6 300 12:57 22.04.2022
4090 Clouds 31 1010 52 10000 0.83 336 11:43 22.04.2022
4091 Clouds 29 1012 60 10000 1.29 359 11:20 22.04.2022
4092 Clouds 29 1012 60 10000 1.29 359 10:47 22.04.2022
4093 Clouds 27 1013 67 10000 1.27 11 10:27 22.04.2022
4094 Clouds 27 1013 67 10000 1.27 11 09:50 22.04.2022
4095 Clouds 25 1013 75 10000 0.79 4 08:50 22.04.2022
4096 Clouds 22 1012 93 10000 0.02 263 06:56 22.04.2022
4097 Clouds 21 1009 92 10000 0.8 157 01:53 22.04.2022
4098 Clouds 22 1010 91 10000 0.75 159 23:53 21.04.2022
4099 Clouds 22 1010 89 10000 1 168 22:59 21.04.2022
4100 Clouds 23 1011 87 10000 0.96 190 21:59 21.04.2022
4101 Clouds 23 1010 83 10000 1.32 199 20:34 21.04.2022
4102 Clouds 24 1009 78 10000 1.58 175 19:53 21.04.2022
4103 Clouds 26 1008 71 10000 1.43 186 18:35 21.04.2022
4104 Clouds 27 1007 70 10000 1.07 207 17:49 21.04.2022
4105 Clouds 28 1007 66 10000 0.99 204 16:30 21.04.2022
4106 Clouds 31 1007 47 10000 1.35 192 15:21 21.04.2022
4107 Clouds 31 1007 47 10000 1.35 192 14:38 21.04.2022
4108 Clouds 31 1009 47 10000 2.55 178 13:23 21.04.2022
4109 Clouds 31 1009 47 10000 2.55 178 12:42 21.04.2022
4110 Clouds 30 1011 54 10000 1.86 190 10:45 21.04.2022
4111 Clouds 24 1012 84 10000 1.43 194 08:54 21.04.2022
4112 Clouds 21 1012 99 10000 0.81 182 07:24 21.04.2022
4113 Clouds 20 1010 100 10000 0.9 182 04:58 21.04.2022
4114 Clouds 20 1010 100 10000 0.53 173 03:28 21.04.2022
4115 Clouds 20 1010 100 10000 0.53 173 02:47 21.04.2022
4116 Clouds 20 1010 100 10000 0.53 173 02:47 21.04.2022
4117 Clouds 21 1011 100 10000 0.49 156 00:43 21.04.2022
4118 Clouds 21 1011 100 10000 0.63 157 23:50 20.04.2022
4119 Clouds 21 1011 100 10000 0.81 181 23:22 20.04.2022
4120 Clouds 21 1011 100 10000 0.81 181 22:45 20.04.2022
4121 Clouds 21 1011 100 10000 1.03 172 22:26 20.04.2022
4122 Clouds 22 1011 99 10000 1.3 153 21:27 20.04.2022
4123 Clouds 22 1010 97 10000 1.65 160 20:23 20.04.2022
4124 Clouds 22 1010 95 10000 1.22 141 19:51 20.04.2022
4125 Clouds 23 1009 88 10000 1.13 172 19:18 20.04.2022
4126 Clouds 24 1008 83 10000 0.95 212 17:55 20.04.2022
4127 Clouds 27 1007 70 10000 1.8 209 16:48 20.04.2022
4128 Clouds 27 1007 70 10000 1.8 209 16:30 20.04.2022
4129 Clouds 26 1009 74 10000 1.49 177 13:50 20.04.2022
4130 Rain 22 1013 99 10000 0.49 358 11:47 20.04.2022
4131 Rain 21 1013 99 10000 0.34 334 10:56 20.04.2022
4132 Rain 21 1014 99 10000 0.59 60 09:58 20.04.2022
4133 Rain 21 1014 100 7056 0.52 46 09:24 20.04.2022
4134 Rain 21 1013 99 6042 0.87 350 08:22 20.04.2022
4135 Rain 21 1014 100 2906 1.29 358 08:22 20.04.2022
4136 Rain 21 1013 99 6042 0.87 350 07:32 20.04.2022
4137 Rain 22 1011 99 2314 2.04 353 03:34 20.04.2022
4138 Rain 23 1010 93 10000 1.32 2 00:22 20.04.2022
4139 Rain 23 1010 93 10000 1.32 2 23:41 19.04.2022
4140 Clouds 24 1009 88 10000 1.22 187 22:26 19.04.2022
4141 Clouds 24 1009 88 10000 1.22 187 21:56 19.04.2022
4142 Clouds 24 1008 87 10000 1.35 194 21:23 19.04.2022
4143 Clouds 24 1008 87 10000 1.35 194 20:45 19.04.2022
4144 Clouds 25 1007 85 10000 1.22 183 19:56 19.04.2022
4145 Clouds 26 1006 80 10000 1.15 206 18:49 19.04.2022
4146 Clouds 27 1006 77 10000 0.7 283 17:40 19.04.2022
4147 Clouds 30 1006 63 10000 1.52 289 16:43 19.04.2022
4148 Clouds 31 1006 57 10000 2.2 305 16:23 19.04.2022
4149 Rain 32 1007 53 10000 2.09 313 14:50 19.04.2022
4150 Rain 33 1007 47 10000 1.51 289 13:54 19.04.2022
4151 Rain 32 1009 52 10000 1.5 258 12:50 19.04.2022
4152 Clouds 30 1011 60 10000 1.52 240 12:20 19.04.2022
4153 Clouds 25 1012 85 10000 0.67 232 10:46 19.04.2022
4154 Clouds 23 1013 97 10000 0.26 15 09:22 19.04.2022
4155 Clouds 22 1010 99 10000 0.7 262 05:59 19.04.2022
4156 Rain 21 1009 99 10000 0.95 306 03:37 19.04.2022
4157 Rain 21 1010 99 9195 0.38 149 00:55 19.04.2022
4158 Rain 22 1009 99 10000 0.58 220 23:31 18.04.2022
4159 Rain 22 1010 97 10000 1.19 85 21:30 18.04.2022
4160 Rain 22 1008 95 10000 0.11 25 20:56 18.04.2022
4161 Rain 23 1008 90 9183 0.75 236 20:35 18.04.2022
4162 Clouds 26 1007 74 10000 1.35 151 19:54 18.04.2022
4163 Clouds 27 1005 68 10000 0.84 172 18:57 18.04.2022
4164 Clouds 27 1005 68 10000 0.84 172 18:32 18.04.2022
4165 Clouds 29 1004 61 10000 1.36 323 17:36 18.04.2022
4166 Clouds 32 1004 50 10000 1 312 17:18 18.04.2022
4167 Clouds 32 1004 50 10000 1 312 16:34 18.04.2022
4168 Clouds 34 1005 41 10000 1.41 249 15:18 18.04.2022
4169 Clouds 35 1005 39 10000 1.62 251 13:42 18.04.2022
4170 Clouds 36 1007 35 10000 0.99 237 12:34 18.04.2022
4171 Clouds 35 1009 41 10000 1.23 221 11:35 18.04.2022
4172 Clouds 32 1010 49 10000 1.42 218 10:42 18.04.2022
4173 Clouds 29 1011 60 10000 1.27 210 09:31 18.04.2022
4174 Rain 23 1011 91 10000 0.34 202 08:28 18.04.2022
4175 Rain 21 1010 90 10000 0.48 295 05:51 18.04.2022
4176 Clouds 22 1007 77 10000 0.87 157 01:34 18.04.2022
4177 Clouds 23 1008 75 10000 0.91 173 22:43 17.04.2022
4178 Clouds 23 1008 73 10000 1.04 164 21:50 17.04.2022
4179 Clouds 25 1007 69 10000 1.52 161 21:27 17.04.2022
4180 Clouds 25 1007 69 10000 1.52 161 20:50 17.04.2022
4181 Clouds 24 1007 69 10000 1.71 165 19:52 17.04.2022
4182 Clouds 29 1005 53 10000 1.86 168 18:24 17.04.2022
4183 Clouds 33 1004 39 10000 1.74 180 16:33 17.04.2022
4184 Clouds 35 1004 33 10000 1.11 188 15:32 17.04.2022
4185 Clouds 34 1006 38 10000 0.56 188 14:27 17.04.2022
4186 Clouds 26 1010 71 10000 0.5 123 13:20 17.04.2022
4187 Clouds 25 1011 75 10000 0.63 153 12:29 17.04.2022
4188 Clouds 25 1012 77 10000 0.93 151 10:47 17.04.2022
4189 Clouds 24 1013 78 10000 1.01 115 10:29 17.04.2022
4190 Clouds 24 1013 78 10000 1.01 115 09:49 17.04.2022
4191 Clouds 24 1012 78 10000 1.18 118 08:54 17.04.2022
4192 Clouds 23 1012 81 10000 1.22 125 08:26 17.04.2022
4193 Clouds 20 1010 95 10000 1.27 126 04:52 17.04.2022
4194 Clouds 21 1010 97 10000 0.85 100 01:40 17.04.2022
4195 Clouds 21 1011 96 10000 0.74 118 23:59 16.04.2022
4196 Clouds 21 1011 94 10000 0.85 120 22:50 16.04.2022
4197 Clouds 21 1011 93 10000 1.13 150 21:42 16.04.2022
4198 Clouds 22 1010 92 10000 1.25 174 20:45 16.04.2022
4199 Clouds 23 1009 87 10000 1.38 203 19:21 16.04.2022
4200 Clouds 23 1009 87 10000 1.38 203 18:33 16.04.2022
4201 Clouds 27 1008 68 10000 1.32 190 16:42 16.04.2022
4202 Clouds 27 1008 66 10000 1.51 180 15:46 16.04.2022
4203 Clouds 28 1009 66 10000 1.91 163 14:57 16.04.2022
4204 Rain 30 1009 57 10000 1.55 167 14:29 16.04.2022
4205 Rain 30 1009 57 10000 1.55 167 13:41 16.04.2022
4206 Clouds 27 1012 72 10000 0.74 218 12:35 16.04.2022
4207 Clouds 22 1014 96 10000 0.58 162 11:24 16.04.2022
4208 Clouds 21 1015 98 10000 0.81 137 10:25 16.04.2022
4209 Clouds 21 1015 98 10000 0.81 137 09:32 16.04.2022
4210 Rain 21 1015 98 10000 0.83 143 08:41 16.04.2022
4211 Clouds 21 1013 98 10000 0.55 125 06:59 16.04.2022
4212 Rain 21 1012 99 10000 0.91 133 04:36 16.04.2022
4213 Clouds 21 1012 99 10000 0.45 167 00:38 16.04.2022
4214 Clouds 21 1013 99 10000 0.33 211 23:35 15.04.2022
4215 Rain 21 1013 99 10000 0.15 125 22:45 15.04.2022
4216 Rain 22 1012 99 10000 0.53 138 22:27 15.04.2022
4217 Clouds 22 1012 98 10000 1.02 157 21:20 15.04.2022
4218 Clouds 22 1012 98 10000 1.02 157 20:31 15.04.2022
4219 Clouds 22 1010 93 10000 1.09 183 19:41 15.04.2022
4220 Clouds 23 1009 90 10000 1.01 184 18:57 15.04.2022
4221 Clouds 25 1009 83 10000 0.59 182 18:26 15.04.2022
4222 Clouds 25 1009 83 10000 0.59 182 17:49 15.04.2022
4223 Clouds 26 1009 75 10000 0.18 154 17:22 15.04.2022
4224 Clouds 27 1009 68 10000 0.32 290 16:24 15.04.2022
4225 Clouds 27 1009 68 10000 0.32 290 15:40 15.04.2022
4226 Clouds 26 1010 72 10000 0.6 256 13:55 15.04.2022
4227 Rain 22 1012 99 10000 0.88 197 12:48 15.04.2022
4228 Rain 22 1013 99 10000 0.97 188 11:59 15.04.2022
4229 Rain 22 1013 99 10000 0.97 188 11:40 15.04.2022
4230 Rain 22 1013 99 10000 0.92 179 10:45 15.04.2022
4231 Rain 22 1014 99 9631 0.71 184 09:59 15.04.2022
4232 Rain 22 1013 100 4350 0.43 197 09:22 15.04.2022
4233 Rain 22 1013 100 4350 0.43 197 08:37 15.04.2022
4234 Rain 22 1012 100 1108 0.29 333 06:47 15.04.2022
4235 Rain 21 1011 100 1212 0.87 105 04:42 15.04.2022
4236 Clouds 22 1010 99 10000 0.43 275 00:32 15.04.2022
4237 Clouds 22 1010 99 10000 1.07 229 23:20 14.04.2022
4238 Clouds 22 1010 99 10000 1.07 229 22:44 14.04.2022
4239 Clouds 22 1010 99 10000 0.47 243 22:25 14.04.2022
4240 Clouds 22 1010 99 10000 0.47 243 21:46 14.04.2022
4241 Clouds 24 1007 87 10000 1.27 245 19:24 14.04.2022
4242 Clouds 24 1007 87 10000 1.27 245 18:53 14.04.2022
4243 Clouds 26 1006 77 10000 2.4 252 17:45 14.04.2022
4244 Clouds 27 1005 73 10000 1.93 284 16:49 14.04.2022
4245 Rain 27 1006 69 10000 2.19 305 15:51 14.04.2022
4246 Clouds 30 1006 57 10000 2.31 279 13:53 14.04.2022
4247 Clouds 29 1008 62 10000 2.44 265 13:20 14.04.2022
4248 Clouds 29 1008 62 10000 2.44 265 12:32 14.04.2022
4249 Clouds 27 1009 72 10000 2.17 257 11:37 14.04.2022
4250 Clouds 25 1010 83 10000 1.47 255 11:18 14.04.2022
4251 Clouds 25 1010 83 10000 1.47 255 10:31 14.04.2022
4252 Clouds 24 1011 91 10000 0.87 247 09:30 14.04.2022
4253 Rain 22 1009 97 10000 0.84 230 08:23 14.04.2022
4254 Rain 21 1007 99 10000 0.92 256 05:52 14.04.2022
4255 Clouds 22 1007 99 10000 1.48 232 00:29 14.04.2022
4256 Rain 22 1007 98 10000 0.84 304 22:38 13.04.2022
4257 Rain 22 1008 98 10000 0.73 74 21:43 13.04.2022
4258 Clouds 22 1005 94 10000 0.96 319 20:41 13.04.2022
4259 Rain 23 1004 92 10000 0.46 180 19:49 13.04.2022
4260 Rain 23 1004 92 10000 1.02 119 18:37 13.04.2022
4261 Rain 26 1002 76 10000 0.7 359 17:25 13.04.2022
4262 Rain 26 1002 76 10000 0.7 359 16:53 13.04.2022
4263 Rain 27 1001 73 10000 1.68 46 15:47 13.04.2022
4264 Clouds 33 1002 47 10000 0.42 132 15:27 13.04.2022
4265 Clouds 33 1002 47 10000 0.42 132 14:40 13.04.2022
4266 Clouds 34 1004 42 10000 0.24 154 13:38 13.04.2022
4267 Clouds 34 1006 45 10000 0.34 248 12:52 13.04.2022
4268 Clouds 33 1007 49 10000 0.61 253 11:47 13.04.2022
4269 Clouds 30 1008 62 10000 0.82 233 10:31 13.04.2022
4270 Clouds 24 1009 93 10000 0.18 160 08:45 13.04.2022
4271 Clouds 24 1009 91 10000 0.35 122 07:57 13.04.2022
4272 Clouds 22 1008 96 10000 0.62 142 06:48 13.04.2022
4273 Clouds 21 1007 98 10000 0.91 170 06:24 13.04.2022
4274 Clouds 23 1006 89 10000 0.29 159 02:24 13.04.2022
4275 Rain 23 1007 87 10000 1.2 192 00:20 13.04.2022
4276 Clouds 24 1007 81 10000 0.8 170 22:33 12.04.2022
4277 Clouds 24 1007 80 10000 0.49 217 21:54 12.04.2022
4278 Rain 25 1007 78 10000 1.04 226 20:48 12.04.2022
4279 Clouds 25 1006 74 10000 1.01 301 20:20 12.04.2022
4280 Clouds 26 1006 71 10000 0.64 220 19:40 12.04.2022
4281 Clouds 27 1005 64 10000 0.59 205 18:56 12.04.2022
4282 Clouds 28 1005 63 10000 0.64 199 17:39 12.04.2022
4283 Clouds 31 1004 56 10000 0.31 197 16:47 12.04.2022
4284 Clouds 32 1004 51 10000 0.45 327 15:35 12.04.2022
4285 Clouds 31 1005 55 10000 0.48 338 14:53 12.04.2022
4286 Clouds 34 1006 41 10000 0.13 79 13:50 12.04.2022
4287 Clouds 35 1007 39 10000 0.43 165 13:25 12.04.2022
4288 Clouds 34 1009 44 10000 0.71 162 12:21 12.04.2022
4289 Clouds 34 1009 44 10000 0.71 162 11:39 12.04.2022
4290 Clouds 29 1011 62 10000 1.2 113 09:52 12.04.2022
4291 Clouds 25 1012 81 10000 0.89 95 08:51 12.04.2022
4292 Clouds 21 1011 92 10000 0.13 2 07:20 12.04.2022
4293 Clouds 20 1010 93 10000 0.54 103 05:41 12.04.2022
4294 Clouds 20 1010 93 10000 0.3 86 02:37 12.04.2022
4295 Clouds 21 1010 85 10000 0.42 47 23:24 11.04.2022
4296 Clouds 21 1010 85 10000 0.42 47 22:33 11.04.2022
4297 Clouds 22 1009 81 10000 0.22 127 21:23 11.04.2022
4298 Clouds 22 1009 81 10000 0.22 127 20:35 11.04.2022
4299 Clouds 23 1008 81 10000 0.64 129 19:59 11.04.2022
4300 Clouds 23 1009 80 10000 0.82 41 19:27 11.04.2022
4301 Clouds 23 1009 80 10000 0.82 41 18:54 11.04.2022
4302 Clouds 25 1008 73 10000 0.98 18 17:58 11.04.2022
4303 Clouds 25 1008 73 10000 0.98 18 17:39 11.04.2022
4304 Clouds 27 1008 59 10000 1.31 20 16:33 11.04.2022
4305 Clouds 27 1009 60 10000 1.38 29 14:59 11.04.2022
4306 Clouds 25 1011 70 10000 1.28 352 13:36 11.04.2022
4307 Clouds 24 1012 73 10000 1.34 10 12:39 11.04.2022
4308 Clouds 24 1013 78 10000 1.45 28 12:20 11.04.2022
4309 Clouds 22 1013 89 10000 1.76 36 10:37 11.04.2022
4310 Clouds 21 1013 96 10000 1.64 40 09:49 11.04.2022
4311 Rain 20 1014 99 10000 1.19 327 07:58 11.04.2022
4312 Rain 20 1011 99 10000 1.04 300 04:35 11.04.2022
4313 Rain 20 1010 99 10000 0.4 71 23:30 10.04.2022
4314 Rain 20 1010 98 4545 2.42 168 22:27 10.04.2022
4315 Rain 20 1010 98 4545 2.42 168 21:49 10.04.2022
4316 Rain 22 1010 98 4274 3.47 158 20:50 10.04.2022
4317 Rain 23 1007 97 10000 1.24 163 19:56 10.04.2022
4318 Rain 22 1007 98 10000 1.83 134 19:34 10.04.2022
4319 Rain 24 1006 88 7033 1.22 151 18:48 10.04.2022
4320 Rain 24 1006 88 7033 1.22 151 18:48 10.04.2022
4321 Rain 27 1005 70 10000 0.78 311 18:24 10.04.2022
4322 Rain 27 1005 70 10000 0.78 311 17:42 10.04.2022
4323 Clouds 31 1004 55 10000 0.93 292 16:51 10.04.2022
4324 Clouds 30 1003 54 10000 1.87 259 15:38 10.04.2022
4325 Clouds 29 1005 60 10000 1.59 266 14:40 10.04.2022
4326 Clouds 35 1006 38 10000 1.56 278 12:58 10.04.2022
4327 Clouds 34 1008 42 10000 1.59 266 12:26 10.04.2022
4328 Clouds 34 1008 42 10000 1.59 266 11:35 10.04.2022
4329 Clouds 32 1010 48 10000 1.57 255 10:58 10.04.2022
4330 Clouds 30 1010 56 10000 1.68 240 10:22 10.04.2022
4331 Clouds 30 1010 56 10000 1.68 240 09:40 10.04.2022
4332 Clouds 24 1010 79 10000 1.4 225 08:25 10.04.2022
4333 Clouds 25 1010 72 10000 2.05 197 07:47 10.04.2022
4334 Clouds 23 1009 82 10000 0.87 225 06:43 10.04.2022
4335 Clouds 22 1006 79 10000 1.12 171 02:48 10.04.2022
4336 Clouds 23 1006 74 10000 0.99 153 00:51 10.04.2022
4337 Clouds 23 1006 72 10000 1.08 191 23:50 09.04.2022
4338 Clouds 24 1006 71 10000 0.55 229 22:50 09.04.2022
4339 Clouds 24 1006 69 10000 0.36 272 21:48 09.04.2022
4340 Clear 25 1006 68 10000 0.53 232 20:57 09.04.2022
4341 Clouds 25 1006 67 10000 0.83 196 20:26 09.04.2022
4342 Clouds 25 1006 67 10000 0.83 196 19:42 09.04.2022
4343 Clouds 26 1004 64 10000 1.16 223 19:18 09.04.2022
4344 Clouds 28 1004 57 10000 0.68 260 18:22 09.04.2022
4345 Clouds 28 1004 57 10000 0.68 260 17:40 09.04.2022
4346 Clouds 32 1003 44 10000 0.58 359 16:55 09.04.2022
4347 Clouds 34 1002 38 10000 0.76 8 16:24 09.04.2022
4348 Clouds 34 1002 38 10000 0.76 8 15:43 09.04.2022
4349 Clouds 36 1003 31 10000 0.91 2 14:44 09.04.2022
4350 Clouds 36 1003 31 10000 0.91 2 14:44 09.04.2022
4351 Clouds 37 1004 32 10000 0.66 360 14:23 09.04.2022
4352 Clouds 36 1006 35 10000 0.38 204 13:21 09.04.2022
4353 Clouds 36 1006 35 10000 0.38 204 12:51 09.04.2022
4354 Clouds 35 1007 39 10000 0.79 191 11:41 09.04.2022
4355 Clouds 31 1010 51 10000 0.8 234 10:21 09.04.2022
4356 Clouds 31 1010 51 10000 0.8 234 09:52 09.04.2022
4357 Clouds 28 1010 61 10000 0.42 242 08:57 09.04.2022
4358 Clouds 24 1010 75 10000 0.51 201 07:32 09.04.2022
4359 Clouds 20 1007 88 10000 0.35 164 03:21 09.04.2022
4360 Clouds 20 1009 87 10000 1.08 182 00:30 09.04.2022
4361 Clouds 21 1009 86 10000 0.74 223 22:58 08.04.2022
4362 Clouds 21 1009 86 10000 0.79 267 21:35 08.04.2022
4363 Clouds 21 1009 87 10000 1.02 290 20:41 08.04.2022
4364 Clouds 21 1008 86 10000 1.46 300 19:41 08.04.2022
4365 Clouds 23 1009 81 10000 1.85 313 18:34 08.04.2022
4366 Clouds 25 1008 70 10000 1.22 309 17:55 08.04.2022
4367 Clouds 29 1007 53 10000 0.81 238 17:27 08.04.2022
4368 Clouds 29 1007 53 10000 0.81 238 16:51 08.04.2022
4369 Clouds 29 1007 50 10000 0.92 186 16:22 08.04.2022
4370 Clouds 26 1009 65 10000 1.04 182 15:28 08.04.2022
4371 Clouds 26 1009 65 10000 1.04 182 14:40 08.04.2022
4372 Clouds 26 1010 63 10000 0.44 52 13:55 08.04.2022
4373 Clouds 26 1010 63 10000 0.44 52 13:30 08.04.2022
4374 Clouds 23 1011 83 10000 0.46 16 12:42 08.04.2022
4375 Clouds 21 1014 92 10000 1.47 342 10:56 08.04.2022
4376 Rain 20 1015 96 10000 1.53 351 09:41 08.04.2022
4377 Rain 20 1015 98 10000 1.83 335 08:58 08.04.2022
4378 Clouds 20 1013 97 10000 1.22 271 07:42 08.04.2022
4379 Rain 20 1012 98 10000 1.91 326 06:44 08.04.2022
4380 Rain 21 1012 100 2646 0.36 42 02:29 08.04.2022
4381 Rain 22 1013 99 5941 0.8 63 00:28 08.04.2022
4382 Rain 22 1013 99 5941 0.8 63 23:41 07.04.2022
4383 Rain 21 1013 99 3764 1.39 78 22:41 07.04.2022
4384 Rain 23 1010 93 10000 0.49 65 22:22 07.04.2022
4385 Rain 23 1010 93 10000 0.49 65 21:56 07.04.2022
4386 Rain 24 1008 89 10000 1.21 176 21:23 07.04.2022
4387 Rain 24 1008 89 10000 1.21 176 20:42 07.04.2022
4388 Clouds 25 1007 82 10000 1.11 301 19:25 07.04.2022
4389 Clouds 29 1005 64 10000 1.47 342 17:28 07.04.2022
4390 Clouds 29 1005 64 10000 1.47 342 16:51 07.04.2022
4391 Clouds 29 1005 64 10000 1.47 342 16:33 07.04.2022
4392 Clouds 27 1006 71 10000 0.91 335 15:39 07.04.2022
4393 Clouds 30 1009 59 10000 0.84 216 13:52 07.04.2022
4394 Clouds 29 1011 58 10000 1.31 161 13:23 07.04.2022
4395 Clouds 26 1012 78 10000 1.25 162 11:49 07.04.2022
4396 Clouds 23 1013 93 10000 0.51 115 10:40 07.04.2022
4397 Clouds 22 1013 97 10000 0.84 218 08:43 07.04.2022
4398 Clouds 22 1011 98 10000 0.86 70 06:59 07.04.2022
4399 Clouds 22 1010 99 10000 0.46 213 04:36 07.04.2022
4400 Clouds 22 1009 99 10000 0.74 155 02:32 07.04.2022
4401 Clouds 22 1010 98 10000 0.51 126 00:42 07.04.2022
4402 Clouds 22 1011 99 10000 1.24 69 23:21 06.04.2022
4403 Clouds 22 1011 99 10000 1.24 69 22:44 06.04.2022
4404 Clouds 22 1010 98 10000 1.3 70 22:19 06.04.2022
4405 Clouds 22 1010 98 10000 0.79 37 20:47 06.04.2022
4406 Clouds 23 1009 91 10000 1.38 53 19:59 06.04.2022
4407 Clouds 23 1008 90 10000 1.14 336 19:20 06.04.2022
4408 Clouds 23 1008 90 10000 1.14 336 18:48 06.04.2022
4409 Clouds 25 1007 80 10000 1.21 334 17:36 06.04.2022
4410 Clouds 27 1006 72 10000 2.03 215 16:39 06.04.2022
4411 Clouds 27 1007 72 10000 1.94 225 16:19 06.04.2022
4412 Clouds 27 1007 72 10000 1.94 225 15:40 06.04.2022
4413 Rain 34 1007 44 10000 1.05 317 13:34 06.04.2022
4414 Rain 34 1007 44 10000 1.05 317 13:34 06.04.2022
4415 Clouds 34 1010 46 10000 0.31 244 12:29 06.04.2022
4416 Clouds 30 1012 59 10000 0.29 61 10:57 06.04.2022
4417 Clouds 30 1012 59 10000 0.29 61 10:33 06.04.2022
4418 Clouds 26 1013 77 10000 0.64 75 09:46 06.04.2022
4419 Clouds 24 1012 90 10000 0.38 115 08:51 06.04.2022
4420 Rain 23 1012 96 10000 0.47 173 07:58 06.04.2022
4421 Rain 21 1010 99 10000 0.92 191 05:23 06.04.2022
4422 Clouds 23 1010 93 10000 1.3 240 00:45 06.04.2022
4423 Clouds 23 1010 91 10000 1.17 300 23:48 05.04.2022
4424 Clouds 22 1010 89 10000 1.35 24 21:50 05.04.2022
4425 Clouds 23 1009 86 10000 1.41 7 20:59 05.04.2022
4426 Rain 24 1008 81 10000 0.84 9 20:23 05.04.2022
4427 Clouds 28 1006 55 10000 0.72 43 18:31 05.04.2022
4428 Clouds 33 1004 41 10000 0.43 199 17:21 05.04.2022
4429 Clouds 33 1004 41 10000 0.43 199 16:42 05.04.2022
4430 Clouds 35 1005 37 10000 0.62 350 15:51 05.04.2022
4431 Clouds 35 1005 37 10000 0.62 350 15:30 05.04.2022
4432 Clouds 34 1007 41 10000 2.16 339 13:46 05.04.2022
4433 Clouds 36 1009 38 10000 0.84 228 12:29 05.04.2022
4434 Clouds 36 1009 38 10000 0.84 228 11:43 05.04.2022
4435 Clouds 34 1011 44 10000 0.82 219 11:24 05.04.2022
4436 Clouds 31 1012 55 10000 0.82 200 09:31 05.04.2022
4437 Clouds 27 1012 73 10000 0.22 193 08:33 05.04.2022
4438 Clouds 21 1010 95 10000 0.67 205 03:50 05.04.2022
4439 Clouds 22 1010 93 10000 0.62 81 23:42 04.04.2022
4440 Clouds 22 1010 92 10000 0.45 167 22:37 04.04.2022
4441 Clouds 22 1010 91 10000 0.11 316 21:48 04.04.2022
4442 Rain 22 1010 90 10000 0.58 329 21:19 04.04.2022
4443 Rain 22 1010 90 10000 0.58 329 20:47 04.04.2022
4444 Clouds 27 1007 66 10000 1.25 185 19:28 04.04.2022
4445 Clouds 27 1007 66 10000 1.25 185 18:44 04.04.2022
4446 Clouds 32 1006 45 10000 1.54 239 17:21 04.04.2022
4447 Clouds 32 1006 45 10000 1.54 239 16:34 04.04.2022
4448 Clouds 33 1006 40 10000 1.72 231 15:34 04.04.2022
4449 Clouds 34 1006 39 10000 2.01 227 14:46 04.04.2022
4450 Clouds 34 1007 40 10000 2.08 226 14:28 04.04.2022
4451 Clouds 33 1009 41 10000 2.32 211 12:59 04.04.2022
4452 Clouds 29 1012 56 10000 1.63 190 11:29 04.04.2022
4453 Clouds 26 1013 66 10000 1.62 197 10:29 04.04.2022
4454 Clouds 26 1013 66 10000 1.62 197 10:29 04.04.2022
4455 Clouds 21 1011 98 10000 0.53 224 06:58 04.04.2022
4456 Rain 20 1010 99 10000 0.96 68 03:18 04.04.2022
4457 Clouds 21 1010 96 10000 1.08 278 23:47 03.04.2022
4458 Clouds 22 1009 95 10000 1.12 239 22:24 03.04.2022
4459 Clouds 22 1009 95 10000 1.12 239 21:32 03.04.2022
4460 Rain 22 1009 94 10000 1.22 250 20:36 03.04.2022
4461 Rain 25 1007 78 10000 1.73 272 19:29 03.04.2022
4462 Clouds 27 1006 69 10000 1.1 236 18:27 03.04.2022
4463 Clouds 27 1006 69 10000 1.1 236 17:41 03.04.2022
4464 Clouds 29 1005 62 10000 1.29 201 16:50 03.04.2022
4465 Clouds 29 1005 60 10000 1.79 204 16:21 03.04.2022
4466 Clouds 33 1006 44 10000 1.62 197 14:28 03.04.2022
4467 Clouds 33 1006 44 10000 1.62 197 13:44 03.04.2022
4468 Clouds 32 1010 51 10000 1.49 187 12:19 03.04.2022
4469 Clouds 29 1011 61 10000 1.51 196 10:32 03.04.2022
4470 Clouds 24 1012 88 10000 1.44 202 09:23 03.04.2022
4471 Clouds 22 1011 99 10000 0.61 188 07:24 03.04.2022
4472 Rain 21 1009 100 10000 0.79 284 03:46 03.04.2022
4473 Rain 21 1010 100 8064 1.09 341 00:41 03.04.2022
4474 Rain 20 1010 99 10000 1.31 272 22:54 02.04.2022
4475 Rain 20 1011 99 10000 0.82 353 21:57 02.04.2022
4476 Rain 20 1011 99 10000 0.82 353 21:33 02.04.2022
4477 Rain 20 1008 98 10000 0.97 311 20:51 02.04.2022
4478 Clouds 24 1004 88 10000 0.87 231 19:28 02.04.2022
4479 Rain 26 1004 81 10000 1.33 193 18:21 02.04.2022
4480 Rain 26 1004 81 10000 1.33 193 17:47 02.04.2022
4481 Rain 28 1002 69 10000 1 215 16:23 02.04.2022
4482 Clouds 33 1003 46 10000 1.51 226 15:21 02.04.2022
4483 Clouds 33 1003 46 10000 1.51 226 14:47 02.04.2022
4484 Clouds 36 1004 35 10000 0.77 228 13:35 02.04.2022
4485 Clouds 38 1005 32 10000 1.19 217 12:37 02.04.2022
4486 Clouds 34 1009 43 10000 1.82 214 10:58 02.04.2022
4487 Clouds 28 1010 61 10000 1.95 208 08:49 02.04.2022
4488 Clouds 22 1009 90 10000 1.11 177 06:50 02.04.2022
4489 Clouds 22 1007 90 10000 1.46 235 03:45 02.04.2022
4490 Clouds 22 1009 92 10000 1.15 90 23:56 01.04.2022
4491 Clouds 22 1008 90 10000 0.93 222 23:19 01.04.2022
4492 Clouds 23 1008 86 10000 1.52 315 21:34 01.04.2022
4493 Rain 24 1007 80 10000 2.97 309 20:51 01.04.2022
4494 Rain 26 1006 61 10000 2.16 308 20:25 01.04.2022
4495 Clouds 26 1006 59 10000 1.7 83 19:32 01.04.2022
4496 Clouds 27 1005 58 10000 1.97 85 18:45 01.04.2022
4497 Clouds 31 1003 47 10000 1.03 87 17:46 01.04.2022
4498 Clouds 35 1002 34 10000 1.7 128 16:52 01.04.2022
4499 Clouds 36 1003 31 10000 2.35 129 15:39 01.04.2022
4500 Clouds 37 1004 30 10000 1.03 108 14:20 01.04.2022
4501 Clouds 35 1005 36 10000 1.12 104 13:34 01.04.2022
4502 Clouds 37 1006 32 10000 0.71 122 12:32 01.04.2022
4503 Clouds 37 1006 32 10000 0.71 122 12:32 01.04.2022
4504 Clouds 36 1008 35 10000 1 150 11:40 01.04.2022
4505 Clouds 30 1010 49 10000 1.82 158 10:19 01.04.2022
4506 Clouds 28 1010 64 10000 1.89 163 08:58 01.04.2022
4507 Clouds 21 1010 97 10000 0.88 134 06:54 01.04.2022
4508 Clouds 21 1008 99 10000 0.92 154 04:51 01.04.2022
4509 Clouds 21 1008 99 10000 0.92 154 04:31 01.04.2022
4510 Clouds 21 1008 97 10000 1.74 149 01:56 01.04.2022
4511 Rain 21 1010 98 10000 0.49 180 22:58 31.03.2022
4512 Rain 21 1009 98 10000 1.98 167 21:53 31.03.2022
4513 Rain 21 1009 98 10000 1.98 167 21:32 31.03.2022
4514 Rain 21 1008 93 10000 3.29 342 20:29 31.03.2022
4515 Rain 22 1008 96 10000 1.7 346 19:50 31.03.2022
4516 Rain 21 1008 97 6446 3.67 34 18:46 31.03.2022
4517 Rain 23 1007 85 10000 4.26 42 17:50 31.03.2022
4518 Rain 33 1003 42 10000 1.79 63 16:38 31.03.2022
4519 Clouds 33 1003 44 10000 0.79 214 15:45 31.03.2022
4520 Clouds 35 1003 36 10000 0.64 176 15:19 31.03.2022
4521 Clouds 35 1003 36 10000 0.64 176 14:36 31.03.2022
4522 Clouds 34 1008 40 10000 1.55 131 12:19 31.03.2022
4523 Clouds 31 1009 48 10000 1.83 146 11:22 31.03.2022
4524 Clouds 27 1011 63 10000 1.82 157 09:45 31.03.2022
4525 Clouds 22 1011 92 10000 1.35 166 08:20 31.03.2022
4526 Clouds 21 1008 99 10000 1.21 153 05:42 31.03.2022
4527 Clouds 21 1010 99 10000 1.28 156 23:58 30.03.2022
4528 Rain 20 1011 99 10000 0.98 56 22:43 30.03.2022
4529 Rain 21 1010 97 10000 1.18 46 21:39 30.03.2022
4530 Clouds 23 1009 86 10000 0.68 121 20:54 30.03.2022
4531 Clouds 23 1009 86 10000 0.68 121 20:54 30.03.2022
4532 Clouds 23 1009 81 10000 1.25 152 20:20 30.03.2022
4533 Clouds 23 1009 81 10000 1.25 152 20:20 30.03.2022
4534 Clouds 23 1008 82 10000 1.5 147 19:28 30.03.2022
4535 Clouds 25 1008 72 10000 1.32 140 18:19 30.03.2022
4536 Clouds 25 1008 72 10000 1.32 140 17:45 30.03.2022
4537 Clouds 27 1007 62 10000 0.85 118 16:57 30.03.2022
4538 Clouds 27 1007 62 10000 0.85 118 16:33 30.03.2022
4539 Clouds 27 1007 62 10000 1.92 138 15:24 30.03.2022
4540 Clouds 30 1007 52 10000 1.41 168 13:42 30.03.2022
4541 Clouds 25 1009 70 10000 1 178 12:47 30.03.2022
4542 Clouds 24 1012 78 10000 1.71 139 10:58 30.03.2022
4543 Clouds 24 1012 78 10000 1.79 125 10:23 30.03.2022
4544 Clouds 24 1012 78 10000 1.73 142 09:23 30.03.2022
4545 Clouds 22 1011 90 10000 1.49 140 07:32 30.03.2022
4546 Clouds 21 1010 97 10000 1.53 127 05:40 30.03.2022
4547 Clouds 21 1009 98 10000 1.61 128 03:39 30.03.2022
4548 Clouds 21 1009 92 10000 0.74 139 00:31 30.03.2022
4549 Clouds 21 1011 91 10000 1.35 180 22:25 29.03.2022
4550 Clouds 21 1011 91 10000 1.35 180 21:44 29.03.2022
4551 Clouds 22 1011 88 10000 1 192 20:52 29.03.2022
4552 Clouds 22 1010 85 10000 0.81 159 19:53 29.03.2022
4553 Clouds 23 1009 82 10000 0.93 142 18:55 29.03.2022
4554 Clouds 24 1009 79 10000 0.39 121 18:19 29.03.2022
4555 Clouds 24 1008 75 10000 0.99 159 17:21 29.03.2022
4556 Clouds 24 1008 75 10000 0.99 159 16:56 29.03.2022
4557 Clouds 26 1009 69 10000 1.49 137 15:57 29.03.2022
4558 Clouds 25 1010 72 10000 1.61 140 14:50 29.03.2022
4559 Clouds 24 1010 78 10000 1.78 146 13:53 29.03.2022
4560 Clouds 23 1011 82 10000 1.52 162 12:47 29.03.2022
4561 Clouds 23 1012 84 10000 1.42 184 11:31 29.03.2022
4562 Clouds 22 1013 88 10000 1.55 160 10:27 29.03.2022
4563 Rain 22 1013 92 10000 1.63 158 09:23 29.03.2022
4564 Clouds 22 1010 92 10000 1.07 184 06:55 29.03.2022
4565 Clouds 22 1009 96 10000 0.89 204 03:49 29.03.2022
4566 Rain 23 1010 92 10000 1.48 125 23:54 28.03.2022
4567 Rain 24 1009 82 10000 2.41 147 23:19 28.03.2022
4568 Rain 24 1009 82 10000 2.41 147 22:47 28.03.2022
4569 Clouds 24 1008 82 10000 1.27 148 22:22 28.03.2022
4570 Clouds 25 1008 79 10000 1.42 155 20:53 28.03.2022
4571 Clouds 27 1007 66 10000 2.2 172 19:59 28.03.2022
4572 Clouds 27 1007 66 10000 2.2 172 19:40 28.03.2022
4573 Clouds 28 1005 58 10000 1.82 153 18:52 28.03.2022
4574 Clouds 30 1004 50 10000 0.81 179 18:19 28.03.2022
4575 Clouds 30 1004 50 10000 0.81 179 17:30 28.03.2022
4576 Clouds 35 1004 33 10000 0.92 169 15:54 28.03.2022
4577 Clouds 38 1005 27 10000 0.78 113 14:27 28.03.2022
4578 Clouds 36 1006 31 10000 0.65 338 13:35 28.03.2022
4579 Clouds 32 1010 45 10000 0.72 149 11:57 28.03.2022
4580 Clouds 31 1011 49 10000 1.48 142 10:49 28.03.2022
4581 Clouds 30 1012 56 10000 1.71 159 09:38 28.03.2022
4582 Clouds 26 1013 73 10000 1.66 156 08:49 28.03.2022
4583 Clouds 23 1012 92 10000 1.62 170 08:21 28.03.2022
4584 Clouds 21 1012 97 10000 1.47 160 07:27 28.03.2022
4585 Clouds 21 1010 99 10000 1.21 148 02:48 28.03.2022
4586 Rain 22 1012 99 10000 0.54 214 22:59 27.03.2022
4587 Rain 22 1010 98 10000 1.18 138 22:22 27.03.2022
4588 Rain 22 1010 98 10000 1.18 138 21:40 27.03.2022
4589 Rain 22 1010 97 10000 1.44 154 20:53 27.03.2022
4590 Clouds 25 1008 73 10000 1.64 136 19:44 27.03.2022
4591 Clouds 26 1007 68 10000 1.38 128 18:47 27.03.2022
4592 Clouds 26 1007 68 10000 1.38 128 18:47 27.03.2022
4593 Clouds 28 1007 59 10000 1.64 112 18:26 27.03.2022
4594 Clouds 28 1007 59 10000 1.64 112 17:38 27.03.2022
4595 Clouds 33 1005 41 10000 1.04 336 15:57 27.03.2022
4596 Clouds 30 1008 51 10000 0.58 66 14:22 27.03.2022
4597 Clouds 30 1008 52 10000 0.83 105 13:42 27.03.2022
4598 Clouds 28 1011 59 10000 1.14 145 11:46 27.03.2022
4599 Clouds 25 1012 74 10000 0.85 182 10:23 27.03.2022
4600 Clouds 25 1010 71 10000 1.77 154 07:55 27.03.2022
4601 Clouds 22 1008 88 10000 0.82 130 05:19 27.03.2022
4602 Clouds 24 1007 77 10000 0.9 197 00:37 27.03.2022
4603 Clouds 25 1008 69 10000 1.57 128 22:58 26.03.2022
4604 Clouds 25 1008 68 10000 1.8 138 22:27 26.03.2022
4605 Clouds 25 1008 68 10000 1.8 138 21:31 26.03.2022
4606 Clouds 26 1006 66 10000 1.41 185 19:45 26.03.2022
4607 Clouds 27 1006 61 10000 1.62 206 18:56 26.03.2022
4608 Clouds 28 1005 55 10000 1.43 198 17:44 26.03.2022
4609 Clouds 28 1005 55 10000 1.43 198 17:44 26.03.2022
4610 Clouds 30 1004 50 10000 1.11 200 17:22 26.03.2022
4611 Clouds 34 1004 40 10000 0.64 195 15:52 26.03.2022
4612 Clouds 37 1004 29 10000 1.19 55 14:21 26.03.2022
4613 Clouds 37 1004 29 10000 1.19 55 13:51 26.03.2022
4614 Clouds 37 1005 28 10000 1.8 49 12:36 26.03.2022
4615 Clouds 34 1008 39 10000 1.51 96 11:18 26.03.2022
4616 Clouds 29 1011 57 10000 1.69 123 09:22 26.03.2022
4617 Clouds 26 1011 76 10000 1.46 128 07:36 26.03.2022
4618 Clouds 21 1010 97 10000 0.91 71 05:52 26.03.2022
4619 Clouds 21 1008 98 10000 0.95 114 03:32 26.03.2022
4620 Rain 20 1010 97 10000 1.09 215 22:57 25.03.2022
4621 Rain 22 1011 93 10000 1.9 118 20:58 25.03.2022
4622 Rain 22 1011 93 10000 1.9 118 20:37 25.03.2022
4623 Clouds 23 1007 91 10000 1.09 231 19:21 25.03.2022
4624 Clouds 23 1007 91 10000 1.09 231 18:37 25.03.2022
4625 Rain 23 1007 90 10000 0.94 184 17:34 25.03.2022
4626 Rain 23 1007 90 10000 0.94 184 17:34 25.03.2022
4627 Rain 25 1006 73 10000 1.6 77 16:38 25.03.2022
4628 Rain 32 1005 47 10000 4.59 19 15:46 25.03.2022
4629 Clouds 34 1004 39 10000 1.16 15 13:32 25.03.2022
4630 Clear 39 1006 28 10000 0.75 97 11:49 25.03.2022
4631 Clear 35 1009 37 10000 1 180 09:46 25.03.2022
4632 Clear 33 1010 46 10000 1.01 177 08:59 25.03.2022
4633 Clouds 29 1011 57 10000 0.49 159 07:47 25.03.2022
4634 Rain 23 1011 92 10000 0.48 245 07:21 25.03.2022
4635 Clouds 22 1008 79 10000 0.72 142 03:58 25.03.2022
4636 Clouds 22 1008 86 10000 1.23 195 23:54 24.03.2022
4637 Clouds 24 1009 71 10000 1.01 146 22:24 24.03.2022
4638 Clouds 24 1008 71 10000 0.56 224 21:29 24.03.2022
4639 Clouds 24 1008 70 10000 1.03 297 19:50 24.03.2022
4640 Rain 25 1007 68 10000 0.74 172 18:46 24.03.2022
4641 Clouds 27 1006 60 10000 1.14 19 17:38 24.03.2022
4642 Clouds 30 1005 50 10000 0.63 81 16:39 24.03.2022
4643 Clouds 36 1004 31 10000 2.4 177 14:58 24.03.2022
4644 Clouds 36 1004 31 10000 2.4 177 14:39 24.03.2022
4645 Clouds 37 1005 29 10000 1.97 153 13:36 24.03.2022
4646 Clouds 37 1006 30 10000 1.17 154 12:35 24.03.2022
4647 Clouds 36 1008 33 10000 1.51 176 11:31 24.03.2022
4648 Clouds 31 1011 50 10000 2.38 171 09:34 24.03.2022
4649 Clouds 29 1012 60 10000 2.34 164 08:39 24.03.2022
4650 Clouds 21 1012 98 10000 1.28 146 05:45 24.03.2022
4651 Rain 21 1012 99 10000 1.04 137 00:47 24.03.2022
4652 Rain 21 1012 96 7720 1.5 44 22:23 23.03.2022
4653 Rain 22 1011 90 10000 0.95 293 21:24 23.03.2022
4654 Rain 22 1011 90 10000 0.95 293 20:46 23.03.2022
4655 Rain 23 1010 85 10000 0.4 244 19:33 23.03.2022
4656 Clouds 25 1007 71 10000 1.16 342 18:19 23.03.2022
4657 Clouds 28 1006 63 10000 1.1 21 17:26 23.03.2022
4658 Clouds 31 1006 50 10000 1.25 25 16:18 23.03.2022
4659 Clouds 30 1006 51 10000 1.59 7 14:49 23.03.2022
4660 Clouds 34 1007 39 10000 0.55 31 13:34 23.03.2022
4661 Clouds 31 1010 49 10000 1.39 138 11:38 23.03.2022
4662 Clouds 28 1013 61 10000 1.74 150 08:49 23.03.2022
4663 Clouds 21 1013 92 10000 1.12 176 06:25 23.03.2022
4664 Clouds 21 1012 92 10000 0.98 149 03:44 23.03.2022
4665 Clouds 21 1013 93 10000 1.12 148 00:28 23.03.2022
4666 Clouds 22 1014 90 10000 1.09 182 21:53 22.03.2022
4667 Clouds 22 1014 89 10000 0.99 175 21:23 22.03.2022
4668 Clouds 23 1013 87 10000 1.02 146 20:30 22.03.2022
4669 Clouds 22 1011 92 10000 1.24 183 19:27 22.03.2022
4670 Clouds 22 1011 92 10000 1.24 183 18:50 22.03.2022
4671 Clouds 23 1010 92 10000 1.74 187 17:44 22.03.2022
4672 Clouds 24 1010 89 10000 1.21 151 16:58 22.03.2022
4673 Clouds 24 1009 87 10000 0.3 215 15:48 22.03.2022
4674 Rain 26 1009 83 10000 0.54 218 15:21 22.03.2022
4675 Rain 26 1009 83 10000 0.54 218 14:45 22.03.2022
4676 Rain 27 1009 71 10000 1.13 172 14:24 22.03.2022
4677 Rain 28 1010 61 10000 1.37 190 12:40 22.03.2022
4678 Clouds 27 1012 64 10000 2.41 194 11:26 22.03.2022
4679 Clouds 27 1012 68 10000 2.33 189 09:52 22.03.2022
4680 Clouds 23 1012 92 10000 1.95 177 07:44 22.03.2022
4681 Clouds 20 1008 98 10000 3.31 206 04:29 22.03.2022
4682 Clouds 20 1010 99 10000 2.46 205 02:52 22.03.2022
4683 Rain 21 1011 96 10000 0.83 208 23:19 21.03.2022
4684 Rain 21 1011 94 10000 2.17 73 21:47 21.03.2022
4685 Clouds 21 1009 94 10000 0.84 125 20:45 21.03.2022
4686 Clouds 20 1009 97 10000 0.81 81 20:24 21.03.2022
4687 Clouds 20 1009 97 10000 0.81 81 19:48 21.03.2022
4688 Rain 21 1007 98 10000 1.51 150 19:22 21.03.2022
4689 Rain 20 1007 97 10000 1.57 90 17:36 21.03.2022
4690 Rain 21 1005 97 10000 3.91 279 16:59 21.03.2022
4691 Rain 21 1005 97 10000 3.91 279 16:36 21.03.2022
4692 Rain 22 1006 98 8244 2.36 321 15:45 21.03.2022
4693 Rain 27 1003 77 5976 1.91 356 14:47 21.03.2022
4694 Clouds 35 1005 38 10000 2.13 196 13:27 21.03.2022
4695 Clouds 36 1006 37 10000 1.73 201 12:22 21.03.2022
4696 Clouds 36 1006 37 10000 1.73 201 11:39 21.03.2022
4697 Clouds 32 1009 49 10000 1.71 170 09:54 21.03.2022
4698 Clouds 26 1010 77 10000 1.62 174 07:54 21.03.2022
4699 Clouds 23 1010 93 10000 1.77 175 06:31 21.03.2022
4700 Clouds 22 1008 99 10000 1.09 196 02:24 21.03.2022
4701 Clouds 22 1009 99 10000 0.66 262 23:26 20.03.2022
4702 Clouds 22 1009 99 10000 0.66 262 22:42 20.03.2022
4703 Rain 22 1010 99 10000 1.27 278 21:44 20.03.2022
4704 Rain 22 1010 99 10000 0.37 200 20:59 20.03.2022
4705 Rain 22 1010 99 10000 0.37 200 20:39 20.03.2022
4706 Rain 22 1009 97 9295 2.33 118 19:56 20.03.2022
4707 Rain 24 1007 83 10000 3.03 125 19:25 20.03.2022
4708 Rain 27 1005 67 10000 0.75 117 17:50 20.03.2022
4709 Clouds 30 1004 55 10000 1.38 308 17:28 20.03.2022
4710 Clouds 30 1004 55 10000 1.38 308 16:41 20.03.2022
4711 Clouds 32 1003 45 10000 1.52 221 14:53 20.03.2022
4712 Clouds 33 1004 42 10000 1.34 257 13:46 20.03.2022
4713 Clouds 37 1006 31 10000 1.29 242 12:21 20.03.2022
4714 Clouds 36 1008 34 10000 1.49 228 10:38 20.03.2022
4715 Clouds 31 1010 48 10000 1.7 225 08:35 20.03.2022
4716 Clouds 23 1010 91 10000 1.27 211 06:40 20.03.2022
4717 Rain 23 1007 78 10000 1.36 169 03:27 20.03.2022
4718 Clouds 27 1005 53 10000 1.55 256 00:59 20.03.2022
4719 Clouds 27 1005 53 10000 1.55 256 00:35 20.03.2022
4720 Clouds 28 1006 50 10000 1.07 195 22:42 19.03.2022
4721 Clouds 28 1006 46 10000 1.2 178 21:27 19.03.2022
4722 Clouds 29 1005 45 10000 1.16 205 20:19 19.03.2022
4723 Clouds 30 1004 41 10000 1.28 236 18:44 19.03.2022
4724 Clouds 30 1004 40 10000 1.38 269 17:57 19.03.2022
4725 Clouds 30 1004 40 10000 1.38 269 17:34 19.03.2022
4726 Clouds 37 1002 25 10000 1.04 337 15:43 19.03.2022
4727 Clouds 40 1002 22 10000 0.8 65 14:21 19.03.2022
4728 Clouds 39 1004 24 10000 0.74 97 12:56 19.03.2022
4729 Clouds 39 1004 24 10000 0.74 97 12:38 19.03.2022
4730 Clouds 39 1006 26 10000 0.64 105 11:49 19.03.2022
4731 Clouds 37 1008 29 10000 0.79 152 10:41 19.03.2022
4732 Clouds 21 1010 83 10000 1.05 168 05:59 19.03.2022
4733 Clouds 21 1008 85 10000 0.92 164 02:48 19.03.2022
4734 Clouds 21 1008 83 10000 1.02 152 01:32 19.03.2022
4735 Clouds 24 1009 71 10000 2.11 150 23:22 18.03.2022
4736 Clouds 24 1010 69 10000 1.55 154 22:25 18.03.2022
4737 Clouds 25 1010 66 10000 1.55 151 20:48 18.03.2022
4738 Clouds 25 1009 67 10000 1.64 153 19:49 18.03.2022
4739 Clouds 25 1009 65 10000 1.66 143 19:19 18.03.2022
4740 Clouds 28 1007 56 10000 1.75 121 17:27 18.03.2022
4741 Clouds 28 1007 56 10000 1.75 121 16:45 18.03.2022
4742 Clouds 33 1006 36 10000 1.71 79 14:37 18.03.2022
4743 Clouds 34 1006 32 10000 1.39 90 14:18 18.03.2022
4744 Clouds 35 1008 34 10000 1.42 165 12:19 18.03.2022
4745 Clouds 33 1010 38 10000 1.52 162 10:38 18.03.2022
4746 Clouds 29 1012 52 10000 1.84 159 09:21 18.03.2022
4747 Clouds 26 1012 63 10000 1.95 155 07:45 18.03.2022
4748 Clouds 21 1011 87 10000 0.98 158 05:39 18.03.2022
4749 Clouds 21 1009 82 10000 1.19 165 02:44 18.03.2022
4750 Clouds 22 1010 76 10000 0.91 146 00:21 18.03.2022
4751 Clouds 23 1010 75 10000 1.04 149 22:54 17.03.2022
4752 Clouds 23 1010 73 10000 1.11 163 22:21 17.03.2022
4753 Clouds 23 1010 73 10000 1.11 163 21:47 17.03.2022
4754 Clouds 24 1010 71 10000 1.13 167 21:18 17.03.2022
4755 Clouds 24 1010 71 10000 1.13 167 20:30 17.03.2022
4756 Clouds 24 1010 68 10000 1.27 179 19:39 17.03.2022
4757 Clouds 25 1008 63 10000 1.5 181 18:55 17.03.2022
4758 Clouds 26 1008 57 10000 1.48 161 17:47 17.03.2022
4759 Clouds 32 1006 39 10000 0.92 47 16:30 17.03.2022
4760 Clouds 32 1006 39 10000 0.92 47 15:43 17.03.2022
4761 Clouds 34 1005 31 10000 1.32 30 15:21 17.03.2022
4762 Clouds 34 1006 30 10000 0.81 39 13:48 17.03.2022
4763 Clouds 34 1006 33 10000 0.56 152 12:48 17.03.2022
4764 Clouds 36 1008 30 10000 0.36 135 11:47 17.03.2022
4765 Clouds 34 1009 35 10000 0.89 218 11:22 17.03.2022
4766 Clouds 32 1011 46 10000 1.34 198 09:41 17.03.2022
4767 Clouds 27 1012 67 10000 1.71 196 08:21 17.03.2022
4768 Clouds 22 1011 91 10000 0.47 182 06:18 17.03.2022
4769 Clouds 21 1011 96 10000 0.24 51 05:25 17.03.2022
4770 Clouds 23 1008 88 10000 1.2 197 00:33 17.03.2022
4771 Clouds 24 1008 83 10000 1.92 217 22:58 16.03.2022
4772 Clouds 24 1008 83 10000 1.92 217 22:37 16.03.2022
4773 Clouds 24 1009 81 10000 2.14 240 21:58 16.03.2022
4774 Clouds 25 1008 78 10000 2.37 245 21:18 16.03.2022
4775 Clouds 25 1008 78 10000 2.37 245 21:18 16.03.2022
4776 Clouds 27 1006 70 10000 1.6 232 19:25 16.03.2022
4777 Clouds 27 1005 66 10000 1.33 234 18:43 16.03.2022
4778 Clouds 29 1004 57 10000 1.91 254 18:18 16.03.2022
4779 Clouds 29 1004 57 10000 1.91 254 17:36 16.03.2022
4780 Clouds 31 1002 51 10000 2.16 247 16:36 16.03.2022
4781 Clouds 34 1002 41 10000 2.78 232 15:35 16.03.2022
4782 Clouds 34 1003 39 10000 1.7 252 13:41 16.03.2022
4783 Clouds 38 1004 27 10000 0.52 14 12:57 16.03.2022
4784 Clouds 36 1008 37 10000 1.04 177 11:26 16.03.2022
4785 Clouds 36 1008 37 10000 1.04 177 10:43 16.03.2022
4786 Clouds 33 1009 48 10000 1.19 169 09:57 16.03.2022
4787 Clouds 29 1011 65 10000 0.86 92 08:33 16.03.2022
4788 Clouds 22 1007 84 10000 1.04 156 02:46 16.03.2022
4789 Clouds 22 1007 86 10000 0.96 173 23:37 15.03.2022
4790 Clouds 23 1007 85 10000 1.21 190 22:36 15.03.2022
4791 Clouds 23 1007 82 10000 0.87 241 21:27 15.03.2022
4792 Clouds 24 1007 77 10000 1.29 259 19:47 15.03.2022
4793 Clouds 25 1006 73 10000 0.74 267 18:35 15.03.2022
4794 Rain 25 1004 71 10000 1.67 188 16:45 15.03.2022
4795 Rain 28 1004 57 10000 0.79 103 15:44 15.03.2022
4796 Clouds 33 1002 42 10000 2.88 146 14:54 15.03.2022
4797 Clouds 33 1002 42 10000 2.88 146 14:30 15.03.2022
4798 Clouds 37 1004 29 10000 1.32 70 13:24 15.03.2022
4799 Clouds 39 1006 28 10000 0.26 45 11:34 15.03.2022
4800 Clouds 37 1008 32 10000 0.64 84 10:55 15.03.2022
4801 Clouds 30 1010 54 10000 0.94 134 09:29 15.03.2022
4802 Clouds 30 1010 54 10000 0.94 134 08:32 15.03.2022
4803 Clouds 27 1010 66 10000 0.91 129 07:39 15.03.2022
4804 Clouds 25 1010 69 10000 1.14 136 06:32 15.03.2022
4805 Clouds 23 1007 77 10000 1.12 122 01:57 15.03.2022
4806 Clouds 23 1008 80 10000 0.4 100 23:31 14.03.2022
4807 Clouds 23 1009 77 10000 1.23 135 22:54 14.03.2022
4808 Clouds 24 1009 69 10000 1.53 74 21:56 14.03.2022
4809 Clouds 25 1009 66 10000 0.55 90 21:18 14.03.2022
4810 Clouds 25 1009 66 10000 0.55 90 20:30 14.03.2022
4811 Clouds 25 1008 63 10000 0.55 60 19:47 14.03.2022
4812 Clouds 27 1006 62 10000 0.88 173 18:20 14.03.2022
4813 Clouds 27 1006 62 10000 0.88 173 17:42 14.03.2022
4814 Clouds 28 1005 61 10000 0.85 169 16:37 14.03.2022
4815 Clouds 33 1004 40 10000 0.79 88 15:20 14.03.2022
4816 Clouds 33 1005 43 10000 0.84 193 13:59 14.03.2022
4817 Clouds 35 1009 37 10000 0.99 161 11:27 14.03.2022
4818 Clouds 33 1010 45 10000 1.42 170 09:58 14.03.2022
4819 Clouds 33 1010 45 10000 1.42 170 09:38 14.03.2022
4820 Clouds 30 1011 56 10000 1.46 166 09:18 14.03.2022
4821 Clouds 30 1011 56 10000 1.46 166 08:46 14.03.2022
4822 Clouds 23 1011 92 10000 0.84 156 07:19 14.03.2022
4823 Clouds 21 1009 98 10000 1.27 178 03:36 14.03.2022
4824 Clouds 21 1009 98 10000 1.14 163 01:42 14.03.2022
4825 Clouds 21 1009 97 10000 1.17 107 00:35 14.03.2022
4826 Clouds 23 1010 80 10000 0.95 181 21:55 13.03.2022
4827 Clouds 23 1010 78 10000 0.41 94 21:26 13.03.2022
4828 Clouds 23 1010 78 10000 0.41 94 20:46 13.03.2022
4829 Clouds 24 1009 75 10000 0.66 132 20:23 13.03.2022
4830 Clouds 24 1009 75 10000 0.66 132 19:42 13.03.2022
4831 Clouds 25 1008 72 10000 1.13 180 19:23 13.03.2022
4832 Clouds 25 1008 72 10000 1.13 180 18:45 13.03.2022
4833 Clouds 25 1007 71 10000 1.44 162 18:26 13.03.2022
4834 Clouds 25 1007 71 10000 1.44 162 17:39 13.03.2022
4835 Clouds 28 1006 61 10000 2.04 183 16:46 13.03.2022
4836 Clouds 29 1005 55 10000 1.69 212 16:25 13.03.2022
4837 Clouds 29 1005 55 10000 1.69 212 15:42 13.03.2022
4838 Clouds 32 1005 45 10000 1.28 208 14:41 13.03.2022
4839 Clouds 33 1006 41 10000 1.94 186 13:29 13.03.2022
4840 Clouds 29 1011 61 10000 3.09 240 12:25 13.03.2022
4841 Clouds 33 1008 42 10000 2.1 192 11:44 13.03.2022
4842 Clouds 32 1009 45 10000 2.24 188 10:50 13.03.2022
4843 Clouds 30 1011 51 10000 2.32 177 10:29 13.03.2022
4844 Clouds 30 1011 51 10000 2.32 177 09:42 13.03.2022
4845 Clouds 28 1011 60 10000 2.19 172 08:50 13.03.2022
4846 Clouds 28 1011 60 10000 2.19 172 08:30 13.03.2022
4847 Clouds 22 1012 94 10000 1.46 186 07:19 13.03.2022
4848 Clouds 21 1010 100 10000 0.83 187 04:58 13.03.2022
4849 Clouds 21 1007 99 10000 0.47 219 01:47 13.03.2022
4850 Rain 21 1010 99 10000 1.62 191 23:28 12.03.2022
4851 Rain 21 1011 99 10000 1.63 166 21:39 12.03.2022
4852 Rain 21 1009 97 10000 0.52 200 20:19 12.03.2022
4853 Rain 21 1009 97 10000 0.52 200 19:46 12.03.2022
4854 Rain 22 1008 95 6407 0.3 201 18:40 12.03.2022
4855 Rain 24 1007 76 10000 1.21 327 17:53 12.03.2022
4856 Clouds 30 1005 50 10000 2 311 16:28 12.03.2022
4857 Clouds 30 1005 50 10000 2 311 16:28 12.03.2022
4858 Clouds 30 1005 50 10000 2 311 15:50 12.03.2022
4859 Clouds 30 1005 48 10000 2.21 305 15:21 12.03.2022
4860 Clouds 31 1005 47 10000 2.46 297 13:53 12.03.2022
4861 Clouds 31 1007 46 10000 1.95 294 12:28 12.03.2022
4862 Clouds 31 1007 46 10000 1.95 294 11:53 12.03.2022
4863 Clouds 31 1007 46 10000 1.95 294 11:33 12.03.2022
4864 Clouds 28 1010 60 10000 2.25 239 10:24 12.03.2022
4865 Clouds 28 1010 60 10000 2.25 239 09:43 12.03.2022
4866 Clouds 23 1011 87 10000 0.97 251 07:52 12.03.2022
4867 Rain 22 1010 94 10000 1.32 226 06:30 12.03.2022
4868 Rain 21 1007 99 6984 2.01 204 00:31 12.03.2022
4869 Clouds 21 1007 99 10000 1.18 282 23:41 11.03.2022
4870 Rain 21 1008 99 10000 2.02 325 22:32 11.03.2022
4871 Rain 22 1008 94 10000 1.8 319 21:24 11.03.2022
4872 Rain 22 1008 94 10000 1.8 319 21:24 11.03.2022
4873 Rain 22 1008 94 10000 1.8 319 20:46 11.03.2022
4874 Rain 23 1007 93 10000 1.67 320 20:26 11.03.2022
4875 Rain 23 1007 93 10000 1.67 320 19:32 11.03.2022
4876 Rain 24 1004 86 10000 0.87 188 17:53 11.03.2022
4877 Rain 28 1001 63 10000 2.01 156 17:24 11.03.2022
4878 Clouds 34 1001 40 10000 0.42 277 15:58 11.03.2022
4879 Clouds 35 1000 38 10000 1.25 253 15:29 11.03.2022
4880 Clouds 38 1004 32 10000 1.24 232 13:28 11.03.2022
4881 Clouds 36 1004 35 10000 1.46 224 12:30 11.03.2022
4882 Clouds 35 1006 39 10000 1.59 220 11:57 11.03.2022
4883 Clouds 31 1007 52 10000 1.59 218 10:30 11.03.2022
4884 Clouds 30 1008 56 10000 1.55 199 09:33 11.03.2022
4885 Clouds 25 1009 78 10000 1.85 213 08:27 11.03.2022
4886 Clouds 25 1009 78 10000 1.85 213 07:46 11.03.2022
4887 Clouds 22 1008 95 10000 0.61 68 06:25 11.03.2022
4888 Clouds 21 1006 96 10000 1.36 231 04:28 11.03.2022
4889 Clouds 23 1005 88 10000 0.99 267 00:39 11.03.2022
4890 Clouds 24 1005 81 10000 0.89 261 22:32 10.03.2022
4891 Clouds 24 1005 79 10000 1.14 236 21:52 10.03.2022
4892 Clouds 24 1005 78 10000 0.92 219 21:24 10.03.2022
4893 Rain 25 1005 75 10000 1.45 199 20:18 10.03.2022
4894 Clouds 28 1004 57 10000 1.48 233 18:56 10.03.2022
4895 Clouds 29 1002 52 10000 0.65 219 17:37 10.03.2022
4896 Clouds 32 1001 46 10000 0.83 143 16:42 10.03.2022
4897 Clouds 37 1001 30 10000 1.47 101 15:27 10.03.2022
4898 Clouds 38 1001 29 10000 0.86 131 13:41 10.03.2022
4899 Clouds 37 1003 30 10000 1.18 186 12:35 10.03.2022
4900 Clouds 37 1006 35 10000 1.07 176 11:26 10.03.2022
4901 Clouds 30 1009 56 10000 1.01 159 09:28 10.03.2022
4902 Clouds 26 1009 79 10000 1.05 157 07:47 10.03.2022
4903 Clouds 21 1008 98 10000 1.15 155 05:30 10.03.2022
4904 Rain 21 1007 99 10000 0.74 177 01:56 10.03.2022
4905 Clouds 22 1006 96 10000 0.7 346 23:30 09.03.2022
4906 Rain 22 1008 96 10000 0.18 149 21:56 09.03.2022
4907 Rain 22 1008 96 10000 0.18 149 21:36 09.03.2022
4908 Rain 22 1007 96 9789 1.88 17 20:31 09.03.2022
4909 Clouds 30 1002 47 10000 1.27 228 18:35 09.03.2022
4910 Clouds 33 1001 41 10000 0.35 137 17:27 09.03.2022
4911 Clouds 33 1001 41 10000 0.35 137 16:35 09.03.2022
4912 Clouds 36 999 31 10000 0.79 177 15:31 09.03.2022
4913 Clouds 39 1001 26 10000 1.32 216 13:54 09.03.2022
4914 Clouds 39 1003 26 10000 1.58 206 12:56 09.03.2022
4915 Clouds 38 1004 29 10000 1.58 192 12:18 09.03.2022
4916 Clouds 38 1004 29 10000 1.58 192 11:36 09.03.2022
4917 Clouds 36 1006 32 10000 1.61 185 10:38 09.03.2022
4918 Clouds 31 1008 49 10000 1.76 168 08:59 09.03.2022
4919 Clouds 27 1009 65 10000 1.31 152 08:25 09.03.2022
4920 Clouds 21 1006 96 10000 0.75 120 03:50 09.03.2022
4921 Clouds 23 1005 85 10000 1.38 162 00:47 09.03.2022
4922 Clouds 24 1005 78 10000 0.84 270 22:48 08.03.2022
4923 Clouds 25 1006 73 10000 1.65 142 22:29 08.03.2022
4924 Clouds 26 1006 67 10000 2.77 111 21:23 08.03.2022
4925 Clouds 26 1006 67 10000 2.77 111 20:44 08.03.2022
4926 Clouds 27 1005 60 10000 2.03 123 19:42 08.03.2022
4927 Clouds 26 1004 61 10000 0.17 14 18:44 08.03.2022
4928 Clouds 29 1003 51 10000 0.32 103 17:37 08.03.2022
4929 Clouds 36 1001 33 10000 0.04 125 16:26 08.03.2022
4930 Clouds 36 1002 31 10000 1.69 164 14:19 08.03.2022
4931 Clouds 39 1003 27 10000 1.84 172 12:43 08.03.2022
4932 Clouds 38 1004 29 10000 2.01 171 11:45 08.03.2022
4933 Clouds 37 1006 33 10000 2.19 178 10:48 08.03.2022
4934 Clouds 34 1007 40 10000 2.35 176 09:51 08.03.2022
4935 Clouds 28 1009 68 10000 2.13 173 07:32 08.03.2022
4936 Clouds 21 1008 97 10000 1.06 196 05:43 08.03.2022
4937 Clouds 21 1007 96 10000 1.14 181 23:51 07.03.2022
4938 Rain 22 1009 90 10000 1.57 200 21:57 07.03.2022
4939 Rain 22 1009 90 10000 1.57 200 21:32 07.03.2022
4940 Rain 22 1008 88 10000 0.49 11 20:48 07.03.2022
4941 Clouds 23 1007 87 10000 1.04 17 20:20 07.03.2022
4942 Clouds 23 1007 87 10000 1.04 17 19:31 07.03.2022
4943 Clouds 26 1004 60 10000 1.47 174 18:42 07.03.2022
4944 Clouds 28 1003 51 10000 1.25 214 17:50 07.03.2022
4945 Clouds 32 1002 42 10000 1.19 291 16:55 07.03.2022
4946 Clouds 34 1001 34 10000 0.53 194 15:50 07.03.2022
4947 Clouds 38 1002 25 10000 1.22 132 13:51 07.03.2022
4948 Clouds 38 1004 30 10000 1.95 195 12:27 07.03.2022
4949 Clouds 36 1006 36 10000 1.78 185 10:38 07.03.2022
4950 Clouds 30 1008 56 10000 2.22 184 08:57 07.03.2022
4951 Clouds 22 1008 96 10000 1.1 182 04:43 07.03.2022
4952 Clouds 23 1006 83 10000 0.89 195 00:22 07.03.2022
4953 Clouds 23 1006 83 10000 0.89 195 23:35 06.03.2022
4954 Clouds 23 1007 82 10000 0.9 190 22:40 06.03.2022
4955 Clouds 24 1007 80 10000 1.04 160 21:47 06.03.2022
4956 Clouds 25 1007 76 10000 0.8 196 20:38 06.03.2022
4957 Clouds 25 1007 73 10000 1.55 36 20:20 06.03.2022
4958 Rain 25 1005 73 10000 2.62 67 18:52 06.03.2022
4959 Clouds 27 1004 62 10000 0.42 282 18:23 06.03.2022
4960 Clouds 30 1003 53 10000 0.87 267 17:21 06.03.2022
4961 Clouds 30 1003 53 10000 0.87 267 16:41 06.03.2022
4962 Clouds 33 1002 40 10000 1.63 169 15:49 06.03.2022
4963 Clouds 33 1002 40 10000 1.63 169 15:49 06.03.2022
4964 Clouds 34 1002 38 10000 0.8 79 14:49 06.03.2022
4965 Clouds 34 1002 38 10000 0.8 79 14:30 06.03.2022
4966 Clouds 39 1004 29 10000 1.08 225 12:50 06.03.2022
4967 Clouds 39 1004 29 10000 1.08 225 12:31 06.03.2022
4968 Clouds 35 1007 39 10000 1.98 206 10:53 06.03.2022
4969 Clouds 33 1008 47 10000 1.87 196 09:54 06.03.2022
4970 Clouds 26 1009 80 10000 1.63 180 08:29 06.03.2022
4971 Clouds 26 1009 80 10000 1.63 180 08:29 06.03.2022
4972 Clouds 26 1009 80 10000 1.63 180 07:34 06.03.2022
4973 Clouds 21 1008 98 10000 1.05 186 04:46 06.03.2022
4974 Clouds 22 1005 82 10000 1.17 174 00:49 06.03.2022
4975 Clouds 23 1006 77 10000 0.83 193 00:29 06.03.2022
4976 Clouds 24 1006 70 10000 0.9 254 23:21 05.03.2022
4977 Clouds 24 1006 70 10000 0.9 254 22:43 05.03.2022
4978 Clouds 24 1006 68 10000 1.31 210 21:45 05.03.2022
4979 Clouds 25 1005 64 10000 1.17 191 21:20 05.03.2022
4980 Clouds 26 1004 58 10000 1.21 229 19:24 05.03.2022
4981 Clouds 26 1004 58 10000 1.21 229 18:51 05.03.2022
4982 Clouds 29 1002 47 10000 0.91 181 17:43 05.03.2022
4983 Clouds 33 1001 37 10000 1.47 184 16:26 05.03.2022
4984 Clouds 33 1001 37 10000 1.47 184 15:30 05.03.2022
4985 Clouds 35 1001 32 10000 1.36 165 14:44 05.03.2022
4986 Clouds 38 1002 23 10000 1.19 184 14:26 05.03.2022
4987 Clouds 40 1003 23 10000 1.4 198 13:20 05.03.2022
4988 Clouds 39 1005 26 10000 1.48 190 11:46 05.03.2022
4989 Clouds 37 1007 31 10000 1.78 207 11:18 05.03.2022
4990 Clouds 35 1008 36 10000 1.74 211 09:58 05.03.2022
4991 Clouds 32 1009 43 10000 1.54 204 08:57 05.03.2022
4992 Clouds 29 1010 53 10000 1.33 191 07:37 05.03.2022
4993 Clouds 21 1009 82 10000 0.08 114 05:42 05.03.2022
4994 Clouds 22 1006 81 10000 0.67 227 02:20 05.03.2022
4995 Clouds 22 1007 72 10000 0.68 275 23:36 04.03.2022
4996 Clouds 24 1008 67 10000 1.72 339 22:42 04.03.2022
4997 Clouds 24 1007 64 10000 0.22 245 21:47 04.03.2022
4998 Clouds 25 1006 62 10000 0.81 122 20:52 04.03.2022
4999 Clouds 25 1006 61 10000 1.23 100 20:22 04.03.2022
5000 Clouds 25 1006 61 10000 1.23 100 19:35 04.03.2022
5001 Clouds 26 1005 59 10000 1.29 132 18:43 04.03.2022
5002 Clouds 26 1005 65 10000 0.57 152 17:31 04.03.2022
5003 Clouds 28 1004 58 10000 2.01 195 16:43 04.03.2022
5004 Clouds 31 1003 43 10000 1.04 174 15:28 04.03.2022
5005 Clouds 37 1003 28 10000 1.03 185 14:19 04.03.2022
5006 Clouds 39 1004 26 10000 0.95 207 13:24 04.03.2022
5007 Clouds 39 1006 27 10000 0.89 195 11:40 04.03.2022
5008 Clouds 38 1008 31 10000 0.72 220 10:42 04.03.2022
5009 Clouds 35 1009 38 10000 0.88 212 09:40 04.03.2022
5010 Clouds 31 1011 48 10000 1.18 192 08:34 04.03.2022
5011 Clouds 23 1011 86 10000 0.24 213 07:23 04.03.2022
5012 Clear 20 1009 93 10000 0.49 88 03:50 04.03.2022
5013 Clouds 21 1009 93 10000 1.17 328 00:24 04.03.2022
5014 Clouds 21 1010 93 10000 0.51 317 22:21 03.03.2022
5015 Clouds 21 1010 93 10000 0.51 317 21:40 03.03.2022
5016 Clouds 22 1009 91 10000 0.47 72 21:18 03.03.2022
5017 Rain 22 1008 89 10000 1.33 191 19:48 03.03.2022
5018 Rain 23 1008 86 10000 2.04 213 18:51 03.03.2022
5019 Rain 23 1008 83 10000 1.57 72 18:22 03.03.2022
5020 Clouds 29 1006 53 10000 1.22 5 17:28 03.03.2022
5021 Clouds 32 1005 44 10000 1.59 297 16:22 03.03.2022
5022 Clouds 30 1006 50 10000 1.98 307 15:20 03.03.2022
5023 Clouds 30 1006 50 10000 1.98 307 14:42 03.03.2022
5024 Clouds 30 1009 53 10000 1.15 320 13:18 03.03.2022
5025 Clouds 28 1010 59 10000 1.07 185 11:51 03.03.2022
5026 Clouds 27 1012 62 10000 1.02 155 10:41 03.03.2022
5027 Clouds 25 1013 77 10000 1.53 133 08:52 03.03.2022
5028 Clouds 24 1013 80 10000 1.86 144 07:45 03.03.2022
5029 Clouds 23 1013 82 10000 2.31 146 06:35 03.03.2022
5030 Clouds 22 1010 92 10000 0.93 152 01:52 03.03.2022
5031 Clouds 22 1011 93 10000 1.16 236 23:29 02.03.2022
5032 Clouds 22 1011 93 10000 1.16 236 22:52 02.03.2022
5033 Clouds 22 1012 92 10000 1.29 142 21:32 02.03.2022
5034 Clouds 22 1012 91 10000 1.74 159 20:46 02.03.2022
5035 Clouds 23 1011 85 10000 2.05 157 20:24 02.03.2022
5036 Clouds 23 1011 85 10000 2.05 157 19:36 02.03.2022
5037 Clouds 24 1010 76 10000 1.98 156 18:46 02.03.2022
5038 Clouds 25 1009 69 10000 1.26 221 18:18 02.03.2022
5039 Clouds 25 1009 69 10000 1.26 221 17:32 02.03.2022
5040 Clouds 27 1007 63 10000 1.39 224 16:51 02.03.2022
5041 Clouds 29 1007 54 10000 1.16 264 14:48 02.03.2022
5042 Clouds 28 1008 63 10000 0.23 187 13:25 02.03.2022
5043 Clouds 30 1008 52 10000 0.8 205 12:44 02.03.2022
5044 Clouds 29 1009 55 10000 0.85 214 11:53 02.03.2022
5045 Clouds 28 1010 62 10000 1.41 245 11:24 02.03.2022
5046 Clouds 28 1010 62 10000 1.41 245 11:24 02.03.2022
5047 Clouds 29 1011 59 10000 2.05 233 09:47 02.03.2022
5048 Clouds 26 1012 73 10000 1.57 213 09:23 02.03.2022
5049 Clouds 23 1013 87 10000 0.89 147 07:51 02.03.2022
5050 Clouds 23 1012 89 10000 1.15 194 06:57 02.03.2022
5051 Clouds 22 1009 93 10000 0.4 154 02:54 02.03.2022
5052 Clouds 23 1008 88 10000 2.13 210 00:33 02.03.2022
5053 Clouds 23 1010 87 10000 1.47 169 22:50 01.03.2022
5054 Clouds 23 1010 87 10000 1.47 169 22:31 01.03.2022
5055 Rain 25 1009 77 10000 2.44 229 21:25 01.03.2022
5056 Rain 25 1009 77 10000 2.44 229 20:32 01.03.2022
5057 Clouds 27 1006 61 10000 2.24 236 19:50 01.03.2022
5058 Clouds 27 1006 59 10000 1.86 248 18:51 01.03.2022
5059 Clouds 27 1005 58 10000 1.55 209 18:21 01.03.2022
5060 Clouds 27 1005 58 10000 1.55 209 17:37 01.03.2022
5061 Clouds 31 1004 47 10000 0.88 256 16:35 01.03.2022
5062 Clouds 35 1003 31 10000 1.25 355 15:45 01.03.2022
5063 Clouds 37 1003 27 10000 1.08 35 14:41 01.03.2022
5064 Clouds 37 1004 28 10000 0.34 121 14:23 01.03.2022
5065 Clouds 37 1005 30 10000 0.45 156 13:26 01.03.2022
5066 Clouds 36 1006 34 10000 1.06 206 12:35 01.03.2022
5067 Clouds 36 1006 34 10000 1.06 206 12:35 01.03.2022
5068 Clouds 32 1009 46 10000 1.71 177 10:52 01.03.2022
5069 Clouds 28 1011 63 10000 2.04 177 09:25 01.03.2022
5070 Clouds 25 1012 79 10000 1.61 166 08:19 01.03.2022
5071 Clouds 23 1010 85 10000 1.52 177 06:28 01.03.2022
5072 Clouds 23 1008 82 10000 1.05 186 02:48 01.03.2022
5073 Clouds 23 1007 80 10000 1.04 167 00:40 01.03.2022
5074 Clouds 24 1008 77 10000 1.38 164 23:35 28.02.2022
5075 Clouds 24 1008 78 10000 1.37 170 22:28 28.02.2022
5076 Clouds 24 1008 78 10000 1.37 170 21:43 28.02.2022
5077 Clouds 23 1008 79 10000 0.8 178 20:33 28.02.2022
5078 Clouds 24 1007 79 10000 1.19 217 19:42 28.02.2022
5079 Clouds 24 1007 81 10000 1.42 177 18:49 28.02.2022
5080 Clouds 25 1006 76 10000 1.37 184 17:33 28.02.2022
5081 Clouds 27 1006 70 10000 1.88 185 16:54 28.02.2022
5082 Clouds 28 1006 69 10000 2.38 177 15:59 28.02.2022
5083 Rain 25 1005 82 10000 2.69 198 14:32 28.02.2022
5084 Rain 27 1006 72 9764 1.99 157 13:52 28.02.2022
5085 Rain 27 1006 72 9764 1.99 157 13:52 28.02.2022
5086 Clouds 34 1005 39 10000 1.53 212 13:18 28.02.2022
5087 Clouds 37 1006 32 10000 1.73 172 11:59 28.02.2022
5088 Clouds 35 1008 37 10000 1.98 152 11:19 28.02.2022
5089 Clouds 32 1010 45 10000 2 146 10:22 28.02.2022
5090 Clouds 32 1010 45 10000 2 146 09:44 28.02.2022
5091 Clouds 29 1011 58 10000 2.05 131 08:53 28.02.2022
5092 Clouds 24 1011 83 10000 1.62 114 07:58 28.02.2022
5093 Clouds 23 1009 81 10000 0.96 171 05:54 28.02.2022
5094 Clouds 23 1008 81 10000 1.83 175 04:30 28.02.2022
5095 Clouds 24 1007 72 10000 1.76 168 00:52 28.02.2022
5096 Clouds 26 1009 64 10000 1.52 119 22:53 27.02.2022
5097 Clouds 26 1009 64 10000 1.52 119 22:32 27.02.2022
5098 Clouds 24 1009 67 10000 0.98 161 21:42 27.02.2022
5099 Clear 25 1008 62 10000 0.95 200 20:44 27.02.2022
5100 Clear 26 1007 56 10000 1.25 191 20:18 27.02.2022
5101 Clear 26 1007 56 10000 1.25 191 19:48 27.02.2022
5102 Clouds 29 1006 46 10000 1.35 204 19:21 27.02.2022
5103 Clouds 25 1007 71 10000 1.77 212 18:33 27.02.2022
5104 Rain 27 1007 66 10000 2.07 211 17:49 27.02.2022
5105 Clouds 30 1004 50 10000 1.82 249 16:25 27.02.2022
5106 Rain 33 1004 43 10000 0.21 237 15:21 27.02.2022
5107 Clouds 36 1005 32 10000 0.81 200 12:37 27.02.2022
5108 Clouds 38 1007 28 10000 1.17 213 11:51 27.02.2022
5109 Clouds 37 1009 31 10000 1.04 180 10:37 27.02.2022
5110 Clouds 35 1010 38 10000 1.18 143 09:58 27.02.2022
5111 Clouds 35 1010 38 10000 1.18 143 09:58 27.02.2022
5112 Clouds 30 1011 51 10000 1.36 116 09:23 27.02.2022
5113 Clouds 30 1011 51 10000 1.36 116 08:45 27.02.2022
5114 Clouds 23 1009 83 10000 0.97 190 06:26 27.02.2022
5115 Clouds 23 1009 84 10000 1.25 172 03:44 27.02.2022
5116 Clouds 23 1009 80 10000 2.08 149 23:57 26.02.2022
5117 Rain 24 1010 71 10000 2.95 134 22:43 26.02.2022
5118 Clouds 26 1008 60 10000 1.04 210 21:29 26.02.2022
5119 Clouds 26 1008 60 10000 1.04 210 20:43 26.02.2022
5120 Rain 26 1008 58 10000 1.74 219 19:57 26.02.2022
5121 Rain 26 1008 58 10000 1.74 219 19:33 26.02.2022
5122 Rain 26 1008 63 10000 0.94 68 18:34 26.02.2022
5123 Clouds 28 1006 53 10000 1.22 220 17:37 26.02.2022
5124 Clouds 32 1005 43 10000 1.53 203 16:39 26.02.2022
5125 Clouds 34 1004 35 10000 1.16 210 15:42 26.02.2022
5126 Clouds 34 1004 35 10000 0.4 251 15:19 26.02.2022
5127 Clouds 34 1004 35 10000 0.4 251 14:44 26.02.2022
5128 Clouds 36 1005 30 10000 0.49 214 14:19 26.02.2022
5129 Clouds 39 1006 24 10000 0.56 177 12:53 26.02.2022
5130 Clouds 38 1008 28 10000 0.97 222 11:53 26.02.2022
5131 Clouds 36 1010 34 10000 1.16 184 11:26 26.02.2022
5132 Clouds 34 1011 41 10000 1.27 149 10:19 26.02.2022
5133 Clouds 31 1012 49 10000 1.53 135 08:35 26.02.2022
5134 Clouds 25 1011 72 10000 1.76 167 06:40 26.02.2022
5135 Clouds 23 1010 80 10000 1.72 202 00:25 26.02.2022
5136 Clouds 23 1010 76 10000 1.64 186 22:43 25.02.2022
5137 Clouds 24 1010 72 10000 1.63 187 21:33 25.02.2022
5138 Clouds 24 1010 70 10000 1.53 197 20:56 25.02.2022
5139 Clouds 25 1009 65 10000 1.27 211 20:27 25.02.2022
5140 Clouds 29 1007 47 10000 0.86 146 17:57 25.02.2022
5141 Clouds 30 1006 44 10000 0.8 170 17:20 25.02.2022
5142 Clouds 33 1006 37 10000 0.52 190 16:19 25.02.2022
5143 Clouds 35 1005 32 10000 1.44 215 15:24 25.02.2022
5144 Clouds 35 1005 32 10000 1.44 215 15:24 25.02.2022
5145 Clouds 35 1005 32 10000 1.44 215 14:56 25.02.2022
5146 Clouds 35 1005 32 10000 1.44 215 14:37 25.02.2022
5147 Clouds 34 1006 33 10000 1.24 213 13:30 25.02.2022
5148 Clouds 37 1007 28 10000 0.74 191 12:33 25.02.2022
5149 Clouds 34 1010 39 10000 1.76 167 11:22 25.02.2022
5150 Clouds 32 1012 46 10000 2.16 165 10:24 25.02.2022
5151 Clouds 32 1012 46 10000 2.16 165 09:51 25.02.2022
5152 Clouds 29 1013 55 10000 2.34 179 08:42 25.02.2022
5153 Clouds 26 1013 68 10000 2.06 186 07:35 25.02.2022
5154 Clouds 21 1012 95 10000 1.09 166 05:45 25.02.2022
5155 Clouds 21 1010 97 10000 1.2 195 02:49 25.02.2022
5156 Clouds 22 1010 88 10000 1.64 178 22:55 24.02.2022
5157 Rain 22 1011 90 10000 1.76 180 21:51 24.02.2022
5158 Rain 22 1011 90 10000 1.76 180 21:31 24.02.2022
5159 Rain 22 1011 87 10000 0.96 195 20:53 24.02.2022
5160 Rain 24 1010 74 10000 1.06 155 19:38 24.02.2022
5161 Clouds 25 1009 68 10000 2.13 144 18:36 24.02.2022
5162 Clouds 26 1008 61 10000 1.63 162 18:18 24.02.2022
5163 Clouds 26 1008 61 10000 1.63 162 17:33 24.02.2022
5164 Clouds 30 1006 48 10000 0.76 270 16:29 24.02.2022
5165 Clouds 30 1006 48 10000 0.76 270 15:46 24.02.2022
5166 Clouds 32 1006 43 10000 1.13 244 14:52 24.02.2022
5167 Clouds 33 1006 39 10000 1.16 270 14:20 24.02.2022
5168 Clouds 33 1006 39 10000 1.16 270 13:39 24.02.2022
5169 Clouds 37 1008 29 10000 1.51 233 12:28 24.02.2022
5170 Clouds 35 1010 35 10000 1.86 214 10:40 24.02.2022
5171 Clouds 30 1013 53 10000 1.87 195 08:56 24.02.2022
5172 Clouds 30 1013 53 10000 1.87 195 08:38 24.02.2022
5173 Rain 21 1013 94 10000 1.23 190 05:52 24.02.2022
5174 Clouds 24 1010 76 10000 1.98 193 01:56 24.02.2022
5175 Clouds 26 1010 62 10000 1.93 143 22:38 23.02.2022
5176 Clouds 27 1010 55 10000 2.44 145 21:37 23.02.2022
5177 Clouds 27 1009 52 10000 1.35 176 20:31 23.02.2022
5178 Clouds 27 1008 52 10000 1.53 155 19:44 23.02.2022
5179 Clouds 28 1007 41 10000 1.47 167 18:32 23.02.2022
5180 Clouds 29 1006 40 10000 1.27 188 17:30 23.02.2022
5181 Clouds 36 1004 26 10000 0.92 293 14:34 23.02.2022
5182 Clouds 39 1006 22 10000 1.05 259 12:37 23.02.2022
5183 Clouds 36 1009 31 10000 1.25 232 11:24 23.02.2022
5184 Clouds 36 1009 31 10000 1.25 232 10:31 23.02.2022
5185 Clouds 31 1011 48 10000 1.4 156 08:58 23.02.2022
5186 Clouds 28 1012 59 10000 1.43 156 07:57 23.02.2022
5187 Clouds 21 1010 79 10000 0.21 247 03:48 23.02.2022
5188 Clouds 23 1009 54 10000 1.62 168 00:26 23.02.2022
5189 Clouds 23 1009 54 10000 1.62 168 23:35 22.02.2022
5190 Clouds 23 1009 52 10000 1.03 198 22:31 22.02.2022
5191 Clouds 24 1009 50 10000 0.33 227 21:49 22.02.2022
5192 Clouds 24 1009 50 10000 0.33 227 21:30 22.02.2022
5193 Clouds 24 1008 48 10000 0.46 160 20:52 22.02.2022
5194 Clouds 25 1007 46 10000 0.59 201 20:29 22.02.2022
5195 Clouds 25 1007 46 10000 0.59 201 19:36 22.02.2022
5196 Clouds 26 1006 43 10000 1.22 231 19:18 22.02.2022
5197 Clouds 28 1005 36 10000 1.42 199 17:46 22.02.2022
5198 Clouds 31 1004 31 10000 0.89 199 17:20 22.02.2022
5199 Clouds 31 1004 31 10000 0.89 199 16:36 22.02.2022
5200 Clouds 36 1004 20 10000 0.19 255 15:39 22.02.2022
5201 Clouds 37 1004 17 10000 0.75 322 14:44 22.02.2022
5202 Clouds 38 1007 18 10000 1.07 289 12:21 22.02.2022
5203 Clouds 37 1009 23 10000 0.82 249 10:39 22.02.2022
5204 Clouds 27 1012 49 10000 1.04 115 07:52 22.02.2022
5205 Clouds 24 1012 59 10000 0.78 116 07:26 22.02.2022
5206 Clouds 19 1010 71 10000 0.8 133 04:30 22.02.2022
5207 Clouds 21 1009 63 10000 0.53 217 00:49 22.02.2022
5208 Clouds 23 1009 56 10000 0.66 141 22:44 21.02.2022
5209 Clouds 23 1009 54 10000 0.83 150 21:31 21.02.2022
5210 Clouds 24 1009 52 10000 0.95 151 20:34 21.02.2022
5211 Clouds 24 1009 52 10000 0.95 151 20:34 21.02.2022
5212 Clouds 25 1007 53 10000 1.32 112 18:42 21.02.2022
5213 Clouds 30 1005 41 10000 1.69 158 16:50 21.02.2022
5214 Clouds 35 1005 26 10000 1.75 152 14:52 21.02.2022
5215 Clouds 35 1005 26 10000 1.75 152 14:52 21.02.2022
5216 Clouds 36 1006 25 10000 1.34 120 14:21 21.02.2022
5217 Clouds 36 1007 24 10000 1.1 29 12:59 21.02.2022
5218 Clouds 36 1009 26 10000 0.95 11 12:23 21.02.2022
5219 Clouds 35 1011 33 10000 0.68 41 10:51 21.02.2022
5220 Clouds 32 1012 41 10000 0.99 77 09:30 21.02.2022
5221 Clouds 32 1012 41 10000 0.99 77 09:30 21.02.2022
5222 Clouds 19 1012 99 10000 0.81 127 02:58 21.02.2022
5223 Clouds 20 1012 98 10000 0.91 195 23:32 20.02.2022
5224 Clouds 21 1013 98 10000 0.9 217 22:20 20.02.2022
5225 Clouds 21 1013 98 10000 0.9 217 21:42 20.02.2022
5226 Clouds 21 1013 98 10000 1.06 207 20:53 20.02.2022
5227 Clouds 21 1013 96 10000 1.17 207 20:23 20.02.2022
5228 Clouds 21 1013 96 10000 1.17 207 19:30 20.02.2022
5229 Clouds 21 1012 95 10000 1.55 174 18:49 20.02.2022
5230 Clouds 21 1011 93 10000 1.44 170 18:31 20.02.2022
5231 Clouds 22 1011 91 10000 2.19 156 17:34 20.02.2022
5232 Rain 23 1013 88 6000 3.09 60 15:31 20.02.2022
5233 Rain 23 1013 88 7000 2.06 300 14:41 20.02.2022
5234 Clouds 31 1008 43 10000 1.09 177 13:23 20.02.2022
5235 Clouds 35 1010 33 10000 0.87 255 12:22 20.02.2022
5236 Clouds 32 1012 45 10000 1.51 229 10:21 20.02.2022
5237 Clouds 32 1012 45 10000 1.51 229 09:53 20.02.2022
5238 Clouds 26 1013 67 10000 1.24 206 07:45 20.02.2022
5239 Clouds 23 1009 81 10000 1.38 204 00:54 20.02.2022
5240 Clouds 24 1010 78 10000 1.58 194 00:29 20.02.2022
5241 Clouds 25 1010 70 10000 2.49 196 22:25 19.02.2022
5242 Clouds 25 1010 70 10000 2.49 196 21:57 19.02.2022
5243 Clouds 25 1010 70 10000 2.55 203 20:48 19.02.2022
5244 Clouds 26 1009 69 10000 2.71 183 19:42 19.02.2022
5245 Clouds 27 1007 55 10000 3.1 189 19:20 19.02.2022
5246 Clouds 24 1008 82 10000 2.22 198 18:29 19.02.2022
5247 Clouds 32 1007 62 7000 3.09 90 17:33 19.02.2022
5248 Rain 26 1006 69 10000 2.55 191 16:21 19.02.2022
5249 Rain 32 1008 55 7000 2.06 180 14:56 19.02.2022
5250 Rain 32 1008 55 7000 2.06 180 14:37 19.02.2022
5251 Clouds 30 1011 62 7000 4.12 120 11:59 19.02.2022
5252 Clouds 30 1011 62 7000 4.12 120 11:36 19.02.2022
5253 Clouds 33 1010 41 10000 1.48 153 09:34 19.02.2022
5254 Clouds 24 1010 73 10000 2.27 153 06:52 19.02.2022
5255 Clouds 23 1007 79 10000 1.99 196 02:38 19.02.2022
5256 Clouds 23 1009 83 10000 2.18 214 23:28 18.02.2022
5257 Clouds 24 1009 78 10000 3.02 174 21:30 18.02.2022
5258 Clouds 24 1009 76 10000 3.01 166 20:33 18.02.2022
5259 Clouds 23 1008 79 10000 1.59 159 19:51 18.02.2022
5260 Clouds 24 1007 74 10000 1.08 144 18:49 18.02.2022
5261 Clouds 25 1005 65 10000 0.65 266 18:19 18.02.2022
5262 Clouds 27 1004 63 10000 0.29 2 17:21 18.02.2022
5263 Rain 28 1004 59 10000 2.62 283 14:47 18.02.2022
5264 Rain 31 1004 52 10000 2.07 294 13:54 18.02.2022
5265 Clouds 34 1004 35 10000 0.49 314 12:51 18.02.2022
5266 Clouds 39 1005 25 10000 0.24 113 11:58 18.02.2022
5267 Clouds 37 1007 30 10000 1.04 186 11:21 18.02.2022
5268 Clear 34 1009 37 10000 1.77 185 09:30 18.02.2022
5269 Clouds 25 1010 63 10000 1.19 182 06:51 18.02.2022
5270 Clouds 21 1009 78 10000 0.23 130 05:37 18.02.2022
5271 Clouds 26 1006 53 10000 0.79 183 22:47 17.02.2022
5272 Clouds 27 1006 50 10000 1.16 198 21:43 17.02.2022
5273 Clouds 28 1006 46 10000 1.33 203 20:52 17.02.2022
5274 Clouds 28 1006 46 10000 1.33 203 20:34 17.02.2022
5275 Clouds 28 1006 47 10000 0.79 239 19:43 17.02.2022
5276 Clouds 29 1005 39 10000 1.5 41 18:37 17.02.2022
5277 Clouds 31 1004 33 10000 1.94 40 17:48 17.02.2022
5278 Clear 37 1001 22 10000 0.93 265 16:20 17.02.2022
5279 Clear 38 1002 21 10000 1.07 307 14:57 17.02.2022
5280 Clear 38 1003 22 10000 1.12 325 14:19 17.02.2022
5281 Clouds 38 1006 26 10000 0.74 321 12:24 17.02.2022
5282 Clouds 36 1008 30 10000 0.15 358 11:21 17.02.2022
5283 Clouds 29 1010 47 10000 1.67 157 08:38 17.02.2022
5284 Clouds 21 1008 83 10000 1.52 174 00:29 17.02.2022
5285 Clouds 22 1009 82 10000 1.33 195 22:41 16.02.2022
5286 Clouds 23 1009 74 10000 1.33 167 20:46 16.02.2022
5287 Clouds 25 1009 67 10000 1.97 169 19:43 16.02.2022
5288 Clouds 25 1009 83 8000 3.09 180 18:36 16.02.2022
5289 -273 0 0 0 0 0 17:39 16.02.2022
5290 -273 0 0 0 0 0 17:36 16.02.2022
5291 -273 0 0 0 0 0 17:36 16.02.2022
5292 Clouds 28 1009 74 8000 2.06 120 15:30 16.02.2022
5293 Clouds 27 1010 78 10000 2.06 120 14:57 16.02.2022
5294 Clouds 26 1012 69 10000 2.06 120 12:34 16.02.2022
5295 Clouds 35 1008 34 10000 1.93 255 11:53 16.02.2022
5296 Clouds 34 1009 39 10000 1.58 253 10:52 16.02.2022
5297 Clouds 32 1011 46 10000 0.76 267 10:29 16.02.2022
5298 Clouds 21 1012 100 6000 0 0 06:57 16.02.2022
5299 Clouds 21 1009 94 10000 1.06 147 03:46 16.02.2022
5300 Clouds 23 1009 76 10000 1.31 170 22:35 15.02.2022
5301 Clouds 24 1009 68 10000 1.79 168 21:59 15.02.2022
5302 Clouds 24 1009 68 10000 1.79 168 21:59 15.02.2022
5303 Clouds 24 1009 68 10000 1.79 168 21:39 15.02.2022
5304 Clouds 25 1009 63 10000 1.82 170 21:21 15.02.2022
5305 Clouds 25 1009 63 10000 1.82 170 20:48 15.02.2022
5306 Clouds 26 1009 56 10000 1.56 175 19:48 15.02.2022
5307 Clouds 27 1007 54 10000 1.04 177 18:45 15.02.2022
5308 Clouds 27 1007 54 10000 1 206 18:19 15.02.2022
5309 Clouds 27 1007 54 10000 1 206 17:47 15.02.2022
5310 Clouds 32 1007 55 7000 3.09 300 16:30 15.02.2022
5311 Clouds 34 1005 32 10000 1.14 243 14:39 15.02.2022
5312 Clouds 34 1010 49 8000 4.12 210 13:26 15.02.2022
5313 Clouds 30 1012 62 8000 2.06 0 11:52 15.02.2022
5314 Clouds 36 1009 33 10000 0.72 253 10:57 15.02.2022
5315 Clouds 31 1012 47 10000 0.38 112 09:25 15.02.2022
5316 Mist 21 1012 100 3000 0 0 06:48 15.02.2022
5317 Clouds 23 1008 65 10000 1.24 194 00:26 15.02.2022
5318 Clouds 25 1008 58 10000 1.59 218 22:20 14.02.2022
5319 Clouds 26 1009 53 10000 1.45 233 21:24 14.02.2022
5320 Clouds 27 1008 49 10000 1.27 272 20:23 14.02.2022
5321 Clouds 27 1008 49 10000 1.27 272 19:30 14.02.2022
5322 Clouds 29 1006 43 10000 1.38 202 18:27 14.02.2022
5323 Thunderstorm 30 1008 66 6000 0 0 17:43 14.02.2022
5324 Thunderstorm 30 1008 66 6000 0 0 17:43 14.02.2022
5325 Thunderstorm 30 1008 66 6000 0 0 17:24 14.02.2022
5326 Clouds 31 1008 58 7000 3.09 340 15:58 14.02.2022
5327 Clouds 32 1010 55 8000 0 0 13:40 14.02.2022
5328 Clouds 32 1010 55 8000 0 0 13:22 14.02.2022
5329 Clouds 32 1011 55 8000 3.09 250 12:32 14.02.2022
5330 Clouds 30 1011 62 8000 0 0 11:54 14.02.2022
5331 Clouds 30 1012 58 8000 4.12 130 10:31 14.02.2022
5332 Clouds 31 1011 48 10000 1.32 182 08:37 14.02.2022
5333 Clouds 25 1011 73 10000 1.33 199 07:27 14.02.2022
5334 Clouds 22 1007 80 10000 1.35 171 23:41 13.02.2022
5335 Clouds 22 1008 74 10000 1.3 168 22:42 13.02.2022
5336 Clouds 23 1008 64 10000 1.54 156 22:23 13.02.2022
5337 Clouds 24 1008 53 10000 1.61 174 21:29 13.02.2022
5338 Clouds 24 1008 53 10000 1.61 174 20:33 13.02.2022
5339 Clouds 27 1006 37 10000 1.21 111 19:29 13.02.2022
5340 Clouds 27 1006 37 10000 1.21 111 18:44 13.02.2022
5341 Clouds 29 1004 30 10000 1.07 55 17:57 13.02.2022
5342 Clouds 37 1002 18 10000 2.63 25 15:54 13.02.2022
5343 Clouds 38 1002 18 10000 1.73 13 15:20 13.02.2022
5344 Clouds 34 1008 49 8000 4.12 270 13:59 13.02.2022
5345 Clouds 39 1005 21 10000 1.12 1 12:50 13.02.2022
5346 Clouds 39 1007 23 10000 0.92 345 11:35 13.02.2022
5347 Clouds 37 1008 29 10000 0.27 322 10:32 13.02.2022
5348 Clouds 35 1010 39 10000 0.5 179 09:45 13.02.2022
5349 Clouds 23 1011 80 10000 0.97 117 07:21 13.02.2022
5350 Clouds 24 1006 65 10000 1.1 227 00:35 13.02.2022
5351 Clouds 24 1007 63 10000 0.66 252 23:42 12.02.2022
5352 Clouds 25 1008 63 10000 0.68 324 22:33 12.02.2022
5353 Clouds 26 1007 60 10000 0.17 18 21:27 12.02.2022
5354 Clouds 26 1007 60 10000 0.17 18 20:34 12.02.2022
5355 Clouds 27 1007 57 10000 0.89 268 19:27 12.02.2022
5356 Clouds 29 1008 74 7000 0 0 18:53 12.02.2022
5357 Clouds 29 1008 74 7000 0 0 18:35 12.02.2022
5358 Clouds 32 1004 39 10000 0.47 180 17:19 12.02.2022
5359 Clouds 36 1003 27 10000 0.52 96 16:26 12.02.2022
5360 Clouds 33 1007 46 8000 3.09 220 15:51 12.02.2022
5361 Clouds 33 1007 46 8000 3.09 220 15:51 12.02.2022
5362 Clouds 36 1003 27 10000 0.82 88 14:31 12.02.2022
5363 Clouds 38 1005 27 10000 1.25 18 13:22 12.02.2022
5364 Clouds 36 1008 34 10000 0.41 147 10:42 12.02.2022
5365 Clouds 29 1012 61 6000 2.06 160 09:50 12.02.2022
5366 Clouds 31 1011 48 10000 1.07 115 09:26 12.02.2022
5367 Clouds 31 1011 48 10000 1.07 115 08:44 12.02.2022
5368 Clouds 22 1010 78 10000 0.46 177 05:40 12.02.2022
5369 Clouds 22 1009 77 10000 1.16 151 04:30 12.02.2022
5370 Clouds 22 1007 74 10000 0.67 110 02:18 12.02.2022
5371 Clouds 25 1007 65 10000 1.4 186 22:37 11.02.2022
5372 Clouds 24 1008 69 10000 1.48 178 22:18 11.02.2022
5373 Clouds 24 1008 69 10000 1.48 178 22:18 11.02.2022
5374 Clouds 25 1008 63 10000 1.71 158 20:41 11.02.2022
5375 Clouds 26 1007 59 10000 0.98 137 19:48 11.02.2022
5376 Clouds 26 1006 60 10000 0.89 202 19:27 11.02.2022
5377 Clouds 28 1007 74 7000 0 0 18:26 11.02.2022
5378 Clouds 31 1008 58 7000 1.54 0 17:26 11.02.2022
5379 Clouds 32 1006 51 8000 3.09 190 16:26 11.02.2022
5380 Clouds 32 1003 40 10000 1.35 201 14:44 11.02.2022
5381 Clouds 34 1003 36 10000 0.99 357 14:23 11.02.2022
5382 Clouds 34 1003 36 10000 0.99 357 13:59 11.02.2022
5383 Clouds 34 1003 36 10000 0.99 357 13:39 11.02.2022
5384 Clouds 38 1005 28 10000 0.67 46 12:19 11.02.2022
5385 Clouds 35 1008 39 10000 1.35 91 10:24 11.02.2022
5386 Clouds 32 1009 46 10000 1.34 144 08:49 11.02.2022
5387 Clouds 29 1009 57 10000 1.86 169 08:28 11.02.2022
5388 Clouds 28 1009 56 10000 1.67 161 07:34 11.02.2022
5389 Clouds 23 1007 82 10000 0.7 188 02:40 11.02.2022
5390 Clouds 23 1006 81 10000 1.09 163 02:19 11.02.2022
5391 Clouds 24 1007 73 10000 1.54 153 23:36 10.02.2022
5392 Clouds 26 1008 65 10000 1.88 156 21:53 10.02.2022
5393 Clouds 26 1008 66 10000 2.02 170 21:24 10.02.2022
5394 Clouds 26 1008 66 10000 2.02 170 20:48 10.02.2022
5395 Clouds 25 1007 69 10000 0.9 80 19:26 10.02.2022
5396 Clouds 25 1007 69 10000 0.9 80 18:47 10.02.2022
5397 Clouds 31 1005 44 10000 0.51 315 17:27 10.02.2022
5398 Clouds 31 1005 44 10000 0.51 315 16:57 10.02.2022
5399 Clouds 34 1004 32 10000 1.5 189 16:20 10.02.2022
5400 Clouds 34 1004 32 10000 1.5 189 15:33 10.02.2022
5401 Clouds 35 1004 32 10000 1.74 191 14:49 10.02.2022
5402 Clouds 35 1005 34 10000 1.91 188 14:29 10.02.2022
5403 Clouds 30 1009 62 6000 2.06 180 13:33 10.02.2022
5404 Clouds 34 1007 39 10000 2.15 181 12:51 10.02.2022
5405 Clouds 30 1010 58 6000 2.06 210 11:38 10.02.2022
5406 Clouds 32 1009 45 10000 1.85 160 11:20 10.02.2022
5407 Clouds 32 1010 48 10000 2.52 181 10:18 10.02.2022
5408 Clouds 27 1012 78 7000 3.09 180 09:25 10.02.2022
5409 Clouds 28 1011 62 10000 2.44 173 07:37 10.02.2022
5410 Clouds 23 1010 85 10000 1.27 195 05:51 10.02.2022
5411 Clouds 21 1009 87 10000 1.36 160 01:57 10.02.2022
5412 Clouds 22 1009 82 10000 1.28 153 00:50 10.02.2022
5413 Clouds 22 1009 85 10000 1.54 135 00:50 10.02.2022
5414 Clouds 23 1009 81 10000 1.72 127 00:29 10.02.2022
5415 Clouds 23 1009 77 10000 1.57 176 23:26 09.02.2022
5416 Clouds 23 1009 77 10000 1.57 176 22:37 09.02.2022
5417 Clouds 24 1010 75 10000 1.71 190 21:52 09.02.2022
5418 Clouds 24 1010 75 10000 1.71 190 21:32 09.02.2022
5419 Clouds 24 1009 73 10000 1.35 214 20:51 09.02.2022
5420 Clouds 24 1009 73 10000 1.35 214 20:31 09.02.2022
5421 Clouds 25 1008 71 10000 1.11 214 19:59 09.02.2022
5422 Clouds 25 1008 71 10000 1.11 214 19:38 09.02.2022
5423 Clouds 30 1005 45 10000 1.56 202 17:39 09.02.2022
5424 Haze 32 1008 45 5000 3.09 180 16:53 09.02.2022
5425 Haze 34 1007 40 5000 2.06 160 15:52 09.02.2022
5426 Haze 34 1007 40 5000 2.06 160 14:42 09.02.2022
5427 Clouds 38 1007 26 10000 1.47 332 12:28 09.02.2022
5428 Clouds 37 1009 30 10000 1.31 337 10:55 09.02.2022
5429 Clouds 37 1009 30 10000 1.31 337 10:30 09.02.2022
5430 Clouds 34 1010 36 10000 1.41 354 09:40 09.02.2022
5431 Clouds 32 1011 43 10000 1.57 10 09:19 09.02.2022
5432 Clouds 29 1011 54 10000 1.55 27 07:55 09.02.2022
5433 Clouds 22 1010 67 10000 1.09 65 05:30 09.02.2022
5434 Clouds 22 1009 68 10000 0.84 67 03:50 09.02.2022
5435 Clouds 23 1007 65 10000 0.81 254 00:53 09.02.2022
5436 Clouds 23 1008 60 10000 0.92 240 23:33 08.02.2022
5437 Clouds 23 1008 59 10000 0.53 216 22:47 08.02.2022
5438 Clouds 24 1009 59 10000 0.03 12 22:21 08.02.2022
5439 Clouds 24 1009 59 10000 0.03 12 21:49 08.02.2022
5440 Clouds 24 1009 57 10000 0.58 29 21:21 08.02.2022
5441 Clouds 24 1009 57 10000 0.58 29 20:44 08.02.2022
5442 Clouds 24 1008 56 10000 0.2 90 19:46 08.02.2022
5443 Haze 28 1009 57 3000 0 0 18:48 08.02.2022
5444 Clouds 27 1006 41 10000 1.18 190 17:43 08.02.2022
5445 Clouds 32 1005 31 10000 0.12 231 16:30 08.02.2022
5446 Clouds 36 1004 19 10000 1.13 25 15:30 08.02.2022
5447 Clouds 36 1004 19 10000 1.13 25 15:30 08.02.2022
5448 Clouds 36 1004 19 10000 1.13 25 15:30 08.02.2022
5449 Haze 34 1009 26 4000 0 0 14:36 08.02.2022
5450 Clouds 37 1006 21 10000 1.71 5 13:24 08.02.2022
5451 Clouds 37 1007 23 10000 1.33 357 11:38 08.02.2022
5452 Clouds 34 1010 33 10000 1.31 11 10:23 08.02.2022
5453 Haze 26 1013 73 5000 0 0 09:44 08.02.2022
5454 Mist 21 1012 94 4000 0 0 07:53 08.02.2022
5455 Clouds 21 1011 80 10000 0.06 118 05:41 08.02.2022
5456 Clouds 20 1010 81 10000 0.96 171 04:39 08.02.2022
5457 Clouds 20 1010 78 10000 0.83 113 04:21 08.02.2022
5458 Clouds 20 1010 78 10000 0.83 113 03:36 08.02.2022
5459 Clouds 20 1010 77 10000 1.04 44 03:18 08.02.2022
5460 Clouds 20 1010 77 10000 1.04 44 02:59 08.02.2022
5461 Clouds 20 1010 77 10000 1.04 44 02:36 08.02.2022
5462 Clouds 21 1009 76 10000 1.47 16 02:18 08.02.2022
5463 Clouds 21 1009 76 10000 1.47 16 01:44 08.02.2022
5464 Clouds 21 1009 76 10000 1.47 16 01:44 08.02.2022
5465 Clouds 21 1009 74 10000 0.61 280 01:24 08.02.2022
5466 Clouds 21 1009 74 10000 0.61 280 00:54 08.02.2022
5467 Clouds 22 1009 61 10000 1.5 169 23:55 07.02.2022
5468 Clouds 22 1009 61 10000 1.5 169 23:37 07.02.2022
5469 Clouds 22 1010 53 10000 1.12 153 23:18 07.02.2022
5470 Clouds 23 1010 48 10000 0.44 105 22:20 07.02.2022
5471 Clouds 23 1010 48 10000 0.44 105 21:55 07.02.2022
5472 Clouds 24 1009 43 10000 0.96 144 21:29 07.02.2022
5473 Clouds 24 1009 43 10000 0.96 144 20:59 07.02.2022
5474 Clouds 24 1009 43 10000 0.96 144 20:40 07.02.2022
5475 Clouds 25 1008 37 10000 1.28 146 19:51 07.02.2022
5476 Clouds 25 1008 37 10000 1.28 146 19:32 07.02.2022
5477 Clouds 27 1006 30 10000 0.76 198 17:52 07.02.2022
5478 Haze 31 1009 48 3000 2.06 50 16:53 07.02.2022
5479 Haze 31 1009 51 3000 2.06 30 15:49 07.02.2022
5480 Clouds 37 1005 15 10000 0.26 348 14:55 07.02.2022
5481 Clouds 38 1006 14 10000 0.5 27 13:28 07.02.2022
5482 Clouds 38 1006 14 10000 0.5 27 12:52 07.02.2022
5483 Clouds 37 1008 14 10000 1.01 69 11:58 07.02.2022
5484 Clouds 37 1008 14 10000 1.01 69 11:35 07.02.2022
5485 Clouds 35 1010 16 10000 1.48 62 10:50 07.02.2022
5486 Clouds 35 1010 16 10000 1.48 62 10:30 07.02.2022
5487 Clouds 32 1012 19 10000 1.62 63 09:53 07.02.2022
5488 Clouds 30 1013 24 10000 1.44 64 09:18 07.02.2022
5489 Clouds 30 1013 24 10000 1.44 64 08:36 07.02.2022
5490 Clouds 22 1013 45 10000 1.17 64 06:54 07.02.2022
5491 Clouds 22 1013 45 10000 1.17 64 06:33 07.02.2022
5492 Clouds 20 1010 55 10000 0.55 53 02:58 07.02.2022
5493 Clouds 21 1010 55 10000 0.37 260 00:44 07.02.2022
5494 Clouds 21 1010 51 10000 1.1 220 23:47 06.02.2022
5495 Clouds 23 1010 47 10000 0.48 307 22:48 06.02.2022
5496 Clouds 24 1010 43 10000 0.92 31 21:54 06.02.2022
5497 Clouds 24 1010 43 10000 0.92 31 21:35 06.02.2022
5498 Clouds 25 1010 42 10000 1.42 36 20:54 06.02.2022
5499 Clouds 25 1010 42 10000 1.42 36 20:31 06.02.2022
5500 Clouds 25 1009 41 10000 1.5 44 19:37 06.02.2022
5501 Haze 25 1010 83 3000 0 0 18:40 06.02.2022
5502 Haze 27 1010 69 3000 0 0 17:55 06.02.2022
5503 Clouds 32 1006 33 10000 1.72 25 17:18 06.02.2022
5504 Haze 28 1010 57 3000 0 0 16:38 06.02.2022
5505 Clouds 35 1005 24 10000 1.96 10 15:48 06.02.2022
5506 Clouds 36 1005 23 10000 1.71 1 15:26 06.02.2022
5507 Clouds 36 1005 23 10000 1.71 1 14:36 06.02.2022
5508 Clouds 36 1005 23 10000 1.71 1 14:36 06.02.2022
5509 Clouds 37 1007 24 10000 1.77 5 13:25 06.02.2022
5510 Clouds 36 1007 27 10000 1.48 2 12:51 06.02.2022
5511 Clouds 35 1010 31 10000 1.45 351 11:27 06.02.2022
5512 Clouds 35 1010 31 10000 1.45 351 10:30 06.02.2022
5513 Clouds 32 1012 45 10000 0.84 66 08:53 06.02.2022
5514 Clouds 28 1013 56 10000 0.89 129 07:51 06.02.2022
5515 Clouds 21 1011 84 10000 0.73 152 05:31 06.02.2022
5516 Clouds 20 1010 83 10000 0.3 111 02:49 06.02.2022
5517 Clouds 21 1010 82 10000 0.12 48 02:24 06.02.2022
5518 Clouds 21 1010 79 10000 0.97 182 00:27 06.02.2022
5519 Clouds 22 1011 78 10000 1.76 126 22:22 05.02.2022
5520 Clouds 22 1011 83 10000 1.61 127 21:18 05.02.2022
5521 Clouds 22 1010 86 10000 1.87 122 20:24 05.02.2022
5522 Mist 25 1011 83 4000 1.54 0 19:46 05.02.2022
5523 Clouds 24 1009 76 10000 2.16 154 18:52 05.02.2022
5524 Clouds 25 1008 72 10000 2.14 152 17:39 05.02.2022
5525 Clouds 25 1008 72 10000 2.14 152 17:39 05.02.2022
5526 Rain 25 1008 73 10000 1.44 233 16:48 05.02.2022
5527 Rain 30 1010 62 7000 3.09 210 15:34 05.02.2022
5528 Clouds 27 1007 60 10000 0.62 36 14:55 05.02.2022
5529 Clouds 30 1012 62 10000 0 0 12:47 05.02.2022
5530 Clouds 30 1012 62 10000 0 0 12:22 05.02.2022
5531 Clouds 28 1014 69 7000 3.09 260 10:48 05.02.2022
5532 Clouds 32 1012 46 10000 1.53 210 09:53 05.02.2022
5533 Clouds 32 1012 46 10000 1.53 210 09:30 05.02.2022
5534 Clouds 27 1013 62 10000 1.79 181 07:51 05.02.2022
5535 Clouds 24 1012 74 10000 1.59 168 06:57 05.02.2022
5536 Clouds 22 1010 83 10000 1.4 146 04:29 05.02.2022
5537 Clouds 22 1009 81 10000 1.05 151 01:19 05.02.2022
5538 Clouds 22 1009 81 10000 1.27 162 00:52 05.02.2022
5539 Clouds 23 1010 80 10000 1.27 162 23:39 04.02.2022
5540 Clouds 23 1010 78 10000 1.54 177 23:21 04.02.2022
5541 Clouds 23 1011 76 10000 1.42 188 21:54 04.02.2022
5542 Clouds 23 1011 76 10000 1.42 188 21:36 04.02.2022
5543 Clouds 24 1011 74 10000 1.15 188 21:18 04.02.2022
5544 Rain 24 1010 73 10000 1.37 178 19:39 04.02.2022
5545 Clouds 27 1011 83 10000 0 0 17:40 04.02.2022
5546 Clouds 28 1011 69 10000 2.06 200 15:39 04.02.2022
5547 Clouds 34 1005 34 10000 1.16 262 14:52 04.02.2022
5548 Clouds 29 1012 65 10000 2.06 220 13:31 04.02.2022
5549 Clouds 36 1008 31 10000 0.94 314 12:43 04.02.2022
5550 Clouds 35 1009 34 10000 0.83 279 11:41 04.02.2022
5551 Clouds 34 1011 39 10000 0.75 242 10:36 04.02.2022
5552 Clouds 24 1014 88 7000 3.09 180 08:34 04.02.2022
5553 Clouds 21 1012 93 10000 0.42 131 06:18 04.02.2022
5554 Clouds 21 1010 91 10000 0.89 200 02:42 04.02.2022
5555 Clouds 22 1010 87 10000 1.26 165 01:22 04.02.2022
5556 Clouds 23 1011 80 10000 1.36 195 23:29 03.02.2022
5557 Clouds 23 1011 80 10000 1.36 195 22:31 03.02.2022
5558 Clouds 23 1010 77 10000 1.44 217 21:48 03.02.2022
5559 Clouds 24 1010 72 10000 1.46 214 20:36 03.02.2022
5560 Clouds 26 1009 64 10000 2.16 217 20:18 03.02.2022
5561 Clouds 26 1009 62 10000 2.17 232 19:26 03.02.2022
5562 Clouds 27 1008 57 10000 1.55 219 18:28 03.02.2022
5563 Clouds 27 1008 57 10000 1.55 219 17:32 03.02.2022
5564 Clouds 31 1006 45 10000 1.46 241 16:24 03.02.2022
5565 Clouds 31 1006 45 10000 2.12 250 14:28 03.02.2022
5566 Clouds 32 1007 42 10000 2.23 259 12:40 03.02.2022
5567 Clouds 35 1010 33 10000 1.4 332 10:36 03.02.2022
5568 Clouds 28 1012 58 10000 0.22 214 08:23 03.02.2022
5569 Clouds 23 1010 79 10000 0.72 157 03:57 03.02.2022
5570 Clouds 23 1009 68 10000 1.11 166 00:30 03.02.2022
5571 Clouds 24 1010 67 10000 1.25 215 22:55 02.02.2022
5572 Clouds 24 1011 66 10000 1.54 229 21:53 02.02.2022
5573 Clouds 24 1011 66 10000 1.54 229 21:30 02.02.2022
5574 Clouds 24 1011 65 10000 0.84 219 20:33 02.02.2022
5575 Clouds 24 1010 65 10000 0.7 187 19:51 02.02.2022
5576 Clouds 24 1009 64 10000 0.89 183 19:20 02.02.2022
5577 Clouds 25 1008 61 10000 1.05 203 18:27 02.02.2022
5578 Clouds 25 1008 61 10000 1.05 203 17:38 02.02.2022
5579 Clouds 28 1007 55 10000 0.97 226 17:19 02.02.2022
5580 Clouds 28 1007 55 10000 0.97 226 16:30 02.02.2022
5581 Clouds 30 1008 43 10000 1.14 287 12:54 02.02.2022
5582 Clouds 28 1012 74 7000 2.06 270 11:51 02.02.2022
5583 Clouds 30 1009 45 10000 0.81 266 11:31 02.02.2022
5584 Clouds 29 1011 51 10000 1.03 69 09:46 02.02.2022
5585 Clouds 22 1010 77 10000 0.25 168 06:18 02.02.2022
5586 Clouds 22 1009 72 10000 1.39 162 22:44 01.02.2022
5587 Clouds 23 1009 69 10000 1.16 153 21:36 01.02.2022
5588 Clouds 23 1008 67 10000 0.9 177 19:57 01.02.2022
5589 Clouds 25 1006 64 10000 1.43 182 17:38 01.02.2022
5590 Clouds 27 1005 57 10000 1.49 180 16:33 01.02.2022
5591 Clouds 30 1007 43 10000 2.31 198 13:28 01.02.2022
5592 Clouds 31 1007 42 10000 2.58 198 12:30 01.02.2022
5593 Clouds 26 1012 78 8000 0 0 10:44 01.02.2022
5594 Clouds 22 1009 81 10000 1.87 175 02:32 01.02.2022
5595 Clouds 23 1009 79 10000 1.71 173 23:40 31.01.2022
5596 Clouds 23 1010 77 10000 1.7 169 22:48 31.01.2022
5597 Clouds 24 1010 73 10000 1.96 154 21:38 31.01.2022
5598 Clouds 24 1010 68 10000 1.45 141 20:45 31.01.2022
5599 Clouds 24 1009 61 10000 1.4 127 20:26 31.01.2022
5600 Haze 24 1011 88 5000 0 0 18:55 31.01.2022
5601 Clouds 25 1007 42 10000 1.64 133 18:20 31.01.2022
5602 Clouds 27 1006 38 10000 1.63 106 17:25 31.01.2022
5603 Clouds 32 1005 29 10000 0.97 102 16:25 31.01.2022
5604 Clouds 35 1005 20 10000 0.35 218 14:54 31.01.2022
5605 Clouds 36 1006 19 10000 0.61 244 13:51 31.01.2022
5606 Clouds 36 1007 19 10000 0.42 269 12:38 31.01.2022
5607 Clouds 35 1009 21 10000 0.35 282 11:42 31.01.2022
5608 Clouds 31 1010 26 10000 0.41 279 10:49 31.01.2022
5609 Clouds 29 1011 31 10000 0.69 149 09:45 31.01.2022
5610 Clouds 30 1011 29 10000 1.42 164 08:58 31.01.2022
5611 Clouds 30 1011 29 10000 1.42 164 08:39 31.01.2022
5612 Clouds 26 1011 36 10000 1.05 170 08:20 31.01.2022
5613 Clouds 22 1010 43 10000 0.54 248 06:18 31.01.2022
5614 Clouds 23 1008 38 10000 0.67 19 00:44 31.01.2022
5615 Clouds 23 1009 41 10000 0.29 302 22:38 30.01.2022
5616 Clouds 23 1009 41 10000 0.18 178 22:20 30.01.2022
5617 Clouds 23 1009 41 10000 0.18 178 21:38 30.01.2022
5618 Clouds 24 1008 41 10000 0.43 182 21:18 30.01.2022
5619 Clouds 24 1008 41 10000 0.43 182 20:45 30.01.2022
5620 Clouds 24 1008 39 10000 0.27 105 20:26 30.01.2022
5621 Clouds 26 1006 36 10000 0.21 32 19:24 30.01.2022
5622 Clouds 26 1006 36 10000 0.21 32 18:36 30.01.2022
5623 Clouds 27 1005 34 10000 0.3 295 17:54 30.01.2022
5624 Clouds 31 1004 31 10000 0.51 307 17:21 30.01.2022
5625 Clouds 31 1004 31 10000 0.51 307 16:39 30.01.2022
5626 Clouds 36 1003 18 10000 0.94 348 16:21 30.01.2022
5627 Clouds 36 1003 18 10000 0.94 348 15:49 30.01.2022
5628 Clouds 36 1003 18 10000 0.94 348 15:31 30.01.2022
5629 Clouds 37 1003 17 10000 1.04 7 14:46 30.01.2022
5630 Clouds 37 1005 17 10000 1.27 37 12:47 30.01.2022
5631 Haze 30 1011 54 4000 3.09 120 11:53 30.01.2022
5632 Clouds 35 1008 18 10000 1.8 43 10:32 30.01.2022
5633 Clouds 33 1010 21 10000 1.99 43 09:50 30.01.2022
5634 Clouds 30 1011 26 10000 1.88 50 08:54 30.01.2022
5635 Clouds 22 1011 46 10000 0.99 64 07:28 30.01.2022
5636 Clouds 20 1009 52 10000 0.56 55 01:56 30.01.2022
5637 Clouds 20 1009 52 10000 0.56 55 01:56 30.01.2022
5638 Clear 21 1009 48 10000 0.68 200 00:23 30.01.2022
5639 Clear 22 1009 46 10000 0.77 209 23:18 29.01.2022
5640 Clear 22 1010 45 10000 0.42 115 21:49 29.01.2022
5641 Clear 23 1009 42 10000 1 95 21:24 29.01.2022
5642 Clear 24 1008 39 10000 0.91 145 20:28 29.01.2022
5643 Clear 24 1008 39 10000 0.91 145 19:34 29.01.2022
5644 Clear 25 1008 37 10000 0.53 191 18:52 29.01.2022
5645 Clouds 27 1006 35 10000 0.52 263 18:23 29.01.2022
5646 Clear 31 1005 31 10000 0.19 2 17:29 29.01.2022
5647 Clouds 35 1005 20 10000 1 8 15:57 29.01.2022
5648 Clear 37 1005 16 10000 1.66 30 14:23 29.01.2022
5649 Clear 37 1005 16 10000 1.66 30 13:42 29.01.2022
5650 Clouds 37 1006 16 10000 1.84 37 13:23 29.01.2022
5651 Clouds 36 1008 16 10000 1.99 47 11:47 29.01.2022
5652 Clouds 35 1009 18 10000 2.02 55 11:24 29.01.2022
5653 Clouds 30 1012 30 10000 1.62 56 08:43 29.01.2022
5654 Mist 18 1012 94 1500 0 0 06:55 29.01.2022
5655 Clouds 21 1009 57 10000 0.62 287 00:35 29.01.2022
5656 Clouds 22 1009 53 10000 1.15 286 23:51 28.01.2022
5657 Clouds 23 1009 48 10000 0.77 246 22:50 28.01.2022
5658 Clouds 23 1009 47 10000 0.49 220 22:21 28.01.2022
5659 Clouds 23 1009 47 10000 0.49 220 21:35 28.01.2022
5660 Clouds 24 1008 44 10000 0.49 159 20:29 28.01.2022
5661 Clouds 25 1007 42 10000 0.74 172 19:28 28.01.2022
5662 Clouds 25 1007 42 10000 0.74 172 18:42 28.01.2022
5663 Clouds 29 1006 39 10000 0.33 19 16:46 28.01.2022
5664 Clouds 35 1005 22 10000 1.99 38 15:18 28.01.2022
5665 Clouds 35 1005 22 10000 2.1 37 13:37 28.01.2022
5666 Clouds 35 1008 23 10000 1.63 26 12:27 28.01.2022
5667 Clouds 34 1009 29 10000 1.55 27 10:49 28.01.2022
5668 Clouds 31 1011 43 10000 1.79 33 09:49 28.01.2022
5669 Clouds 27 1012 65 10000 1.61 32 07:43 28.01.2022
5670 Clouds 24 1012 76 10000 1.58 38 06:39 28.01.2022
5671 Clouds 21 1009 89 10000 0.65 151 03:53 28.01.2022
5672 Clouds 21 1008 88 10000 0.89 185 02:31 28.01.2022
5673 Clouds 22 1008 87 10000 0.62 212 01:59 28.01.2022
5674 Clouds 22 1008 87 10000 0.62 212 01:30 28.01.2022
5675 Clouds 23 1009 79 10000 1.19 162 22:48 27.01.2022
5676 Clouds 23 1009 78 10000 1.47 183 21:45 27.01.2022
5677 Clouds 24 1009 72 10000 1.54 171 21:26 27.01.2022
5678 Clouds 26 1009 63 10000 1.8 147 20:23 27.01.2022
5679 Clouds 26 1007 56 10000 1.4 185 18:24 27.01.2022
5680 Clouds 29 1006 50 10000 1.72 198 17:26 27.01.2022
5681 Clouds 33 1005 35 10000 0.42 338 14:25 27.01.2022
5682 Clouds 37 1006 26 10000 1.11 335 13:19 27.01.2022
5683 Clouds 36 1008 30 10000 1.4 312 12:25 27.01.2022
5684 Clouds 33 1010 43 10000 1.24 288 09:56 27.01.2022
5685 Clouds 31 1011 50 10000 0.56 279 08:41 27.01.2022
5686 Clouds 28 1010 60 10000 1.74 207 08:18 27.01.2022
5687 Clouds 22 1008 78 10000 1.5 226 03:37 27.01.2022
5688 Clouds 23 1007 66 10000 1.09 162 00:25 27.01.2022
5689 Clouds 24 1007 64 10000 1.25 204 22:37 26.01.2022
5690 Clouds 25 1008 58 10000 1.25 232 21:44 26.01.2022
5691 Clouds 26 1007 56 10000 1.2 239 20:59 26.01.2022
5692 Clouds 26 1007 56 10000 1.2 239 20:35 26.01.2022
5693 Clouds 26 1006 57 10000 1.04 211 19:52 26.01.2022
5694 Clouds 26 1005 57 10000 1.22 246 18:52 26.01.2022
5695 Clouds 27 1005 54 10000 1.22 229 18:24 26.01.2022
5696 Clouds 27 1005 54 10000 1.22 229 17:39 26.01.2022
5697 Clouds 30 1004 48 10000 1.42 239 17:19 26.01.2022
5698 Clouds 34 1003 34 10000 1.29 234 16:25 26.01.2022
5699 Clouds 34 1003 33 10000 0.82 197 15:23 26.01.2022
5700 Clouds 36 1005 28 10000 0.47 336 12:44 26.01.2022
5701 Clouds 36 1008 34 10000 0.36 19 10:57 26.01.2022
5702 Clouds 34 1009 42 10000 0.33 133 09:58 26.01.2022
5703 Clouds 34 1009 42 10000 0.33 133 09:39 26.01.2022
5704 Clouds 24 1010 78 10000 1.09 118 07:28 26.01.2022
5705 Clouds 22 1007 87 10000 1.2 147 00:42 26.01.2022
5706 Clouds 23 1007 85 10000 1.22 168 23:43 25.01.2022
5707 Clouds 23 1008 84 10000 1.26 188 22:49 25.01.2022
5708 Clouds 23 1008 82 10000 1.16 148 22:19 25.01.2022
5709 Clouds 23 1008 82 10000 1.16 148 21:34 25.01.2022
5710 Clouds 24 1008 79 10000 1.34 155 20:46 25.01.2022
5711 Clouds 25 1007 73 10000 1.18 169 19:58 25.01.2022
5712 Clouds 25 1007 73 10000 1.18 169 19:58 25.01.2022
5713 Clouds 25 1007 73 10000 1.18 169 19:32 25.01.2022
5714 Clouds 26 1005 69 10000 1.65 195 18:20 25.01.2022
5715 Clouds 26 1005 69 10000 1.65 195 17:39 25.01.2022
5716 Clouds 28 1004 63 10000 1.48 180 16:35 25.01.2022
5717 Clouds 29 1004 54 10000 1.34 179 15:39 25.01.2022
5718 Clouds 33 1003 40 10000 0.58 127 15:20 25.01.2022
5719 Clouds 33 1003 40 10000 0.58 127 14:56 25.01.2022
5720 Clouds 36 1006 31 10000 1.32 6 12:23 25.01.2022
5721 Clouds 33 1009 44 10000 0.45 73 09:39 25.01.2022
5722 Clouds 27 1010 65 10000 1.28 65 08:21 25.01.2022
5723 Clouds 25 1010 77 10000 1.22 67 07:27 25.01.2022
5724 Clouds 22 1008 88 10000 0.84 214 05:54 25.01.2022
5725 Clouds 22 1009 87 10000 0.75 157 00:57 25.01.2022
5726 Clouds 22 1009 85 10000 0.86 121 23:36 24.01.2022
5727 Clouds 23 1009 84 10000 0.97 139 23:18 24.01.2022
5728 Clouds 23 1009 84 10000 0.97 139 22:53 24.01.2022
5729 Clouds 23 1009 84 10000 0.97 139 22:35 24.01.2022
5730 Clouds 23 1009 81 10000 1.3 152 21:42 24.01.2022
5731 Clouds 23 1009 76 10000 1.4 168 21:24 24.01.2022
5732 Clouds 24 1008 72 10000 1.18 175 20:28 24.01.2022
5733 Clouds 24 1008 72 10000 1.18 175 19:38 24.01.2022
5734 Clouds 26 1007 66 10000 1.48 152 18:50 24.01.2022
5735 Clouds 27 1006 57 10000 1.06 149 17:43 24.01.2022
5736 Clouds 27 1005 55 10000 0.31 180 17:22 24.01.2022
5737 Clouds 27 1005 55 10000 0.31 180 16:32 24.01.2022
5738 Clouds 28 1005 54 10000 0.74 31 15:51 24.01.2022
5739 Clouds 34 1005 35 10000 0.99 339 14:19 24.01.2022
5740 Clouds 34 1006 36 10000 1.43 319 12:35 24.01.2022
5741 Clouds 31 1011 62 7000 2.06 210 11:42 24.01.2022
5742 Clouds 33 1010 45 10000 0.84 135 10:23 24.01.2022
5743 Clouds 33 1010 45 10000 0.84 135 09:46 24.01.2022
5744 Clouds 27 1012 69 10000 1.26 132 08:18 24.01.2022
5745 Clouds 22 1009 84 10000 1.17 166 02:29 24.01.2022
5746 Clouds 23 1009 82 10000 1.24 169 01:26 24.01.2022
5747 Clouds 22 1009 81 10000 1.3 163 00:32 24.01.2022
5748 Clouds 23 1009 78 10000 1.3 156 23:46 23.01.2022
5749 Clouds 24 1010 71 10000 1.37 175 22:21 23.01.2022
5750 Clouds 24 1010 71 10000 1.37 175 21:41 23.01.2022
5751 Clouds 25 1010 67 10000 1.39 162 21:23 23.01.2022
5752 Clouds 26 1010 63 10000 1.24 156 20:23 23.01.2022
5753 Clouds 26 1008 58 10000 1.14 187 19:19 23.01.2022
5754 Clouds 26 1008 58 10000 1.14 187 18:41 23.01.2022
5755 Clouds 27 1009 78 8000 0 0 17:25 23.01.2022
5756 Clouds 29 1006 51 10000 0.66 115 16:18 23.01.2022
5757 Clouds 31 1005 45 10000 0.68 118 14:52 23.01.2022
5758 Clouds 32 1006 40 10000 0.45 142 14:19 23.01.2022
5759 Clouds 33 1007 35 10000 0.28 79 12:47 23.01.2022
5760 Clouds 36 1008 29 10000 0.33 156 12:21 23.01.2022
5761 Clouds 35 1010 33 10000 1.1 163 11:27 23.01.2022
5762 Clouds 35 1010 33 10000 1.1 163 10:59 23.01.2022
5763 Clouds 33 1011 40 10000 1.54 158 10:25 23.01.2022
5764 Clouds 33 1011 40 10000 1.54 158 09:33 23.01.2022
5765 Clouds 30 1012 48 10000 1.7 147 08:50 23.01.2022
5766 Clouds 21 1011 73 10000 1.25 160 04:41 23.01.2022
5767 Clouds 21 1010 69 10000 0.62 91 01:43 23.01.2022
5768 Clouds 22 1010 66 10000 0.18 141 00:56 23.01.2022
5769 Clouds 22 1010 63 10000 1.07 189 00:22 23.01.2022
5770 Clouds 23 1010 61 10000 1.1 185 23:18 22.01.2022
5771 Clouds 23 1010 61 10000 1.1 185 22:34 22.01.2022
5772 Clouds 23 1010 61 10000 1.1 185 22:34 22.01.2022
5773 Clouds 23 1011 56 10000 0.32 162 21:18 22.01.2022
5774 Clouds 24 1010 54 10000 0.68 142 19:46 22.01.2022
5775 Clouds 25 1009 50 10000 0.97 129 18:43 22.01.2022
5776 Clouds 26 1008 46 10000 0.26 172 17:56 22.01.2022
5777 Clouds 26 1008 46 10000 0.26 172 17:35 22.01.2022
5778 Clouds 29 1007 43 10000 0.66 294 16:55 22.01.2022
5779 Clouds 33 1006 29 10000 1.14 329 15:49 22.01.2022
5780 Clouds 34 1006 25 10000 1.46 342 14:57 22.01.2022
5781 Clear 35 1006 25 10000 1.49 346 13:36 22.01.2022
5782 Clear 35 1008 25 10000 1.49 354 12:47 22.01.2022
5783 Clouds 34 1009 28 10000 1.26 5 12:24 22.01.2022
5784 Clouds 33 1011 32 10000 1.14 22 10:55 22.01.2022
5785 Clouds 32 1012 37 10000 0.96 26 10:28 22.01.2022
5786 Clouds 32 1012 37 10000 0.96 26 09:46 22.01.2022
5787 Clouds 29 1013 45 10000 0.74 41 08:51 22.01.2022
5788 Clouds 23 1013 65 10000 0.38 98 07:29 22.01.2022
5789 Clouds 19 1011 74 10000 0.26 177 04:52 22.01.2022
5790 Clouds 20 1010 69 10000 0.38 16 01:33 22.01.2022
5791 Clouds 21 1010 64 10000 0.83 109 23:30 21.01.2022
5792 Clouds 22 1011 61 10000 1.09 117 22:20 21.01.2022
5793 Clouds 23 1010 56 10000 0.35 110 19:56 21.01.2022
5794 Clouds 24 1009 57 10000 0.67 135 18:36 21.01.2022
5795 Clouds 28 1007 50 10000 0.42 56 17:25 21.01.2022
5796 Clouds 33 1007 28 10000 1.56 60 15:28 21.01.2022
5797 Clouds 34 1008 26 10000 1.57 39 13:18 21.01.2022
5798 Clouds 34 1008 25 10000 1.57 46 12:37 21.01.2022
5799 Haze 30 1013 45 5000 3.09 360 11:27 21.01.2022
5800 Clouds 31 1012 30 10000 2.19 55 10:18 21.01.2022
5801 Clouds 25 1013 62 10000 1.95 62 08:23 21.01.2022
5802 Clouds 21 1012 94 10000 1.15 64 04:49 21.01.2022
5803 Clouds 21 1012 94 10000 1.15 64 04:49 21.01.2022
5804 Clouds 22 1011 85 10000 0.29 116 23:31 20.01.2022
5805 Clouds 23 1011 79 10000 1.05 80 22:21 20.01.2022
5806 Clouds 23 1011 79 10000 1.05 80 21:42 20.01.2022
5807 Clouds 24 1010 76 10000 1.24 152 20:40 20.01.2022
5808 Clouds 25 1009 71 10000 0.89 169 19:19 20.01.2022
5809 Clouds 25 1009 71 10000 0.89 169 19:19 20.01.2022
5810 Clouds 27 1008 66 10000 0.45 145 18:23 20.01.2022
5811 Clouds 28 1007 62 10000 0.89 151 16:53 20.01.2022
5812 Clouds 31 1006 50 10000 1.34 150 15:41 20.01.2022
5813 Clouds 33 1006 39 10000 1.44 152 14:41 20.01.2022
5814 Clouds 33 1007 39 10000 1.29 142 13:41 20.01.2022
5815 Clouds 33 1008 37 10000 1.63 40 12:34 20.01.2022
5816 Clouds 34 1009 38 10000 1.68 32 11:50 20.01.2022
5817 Clouds 33 1011 42 10000 1.52 32 10:39 20.01.2022
5818 Clouds 31 1013 50 10000 1.39 45 09:36 20.01.2022
5819 Clouds 25 1014 79 10000 0.47 95 07:51 20.01.2022
5820 Clouds 22 1011 82 10000 0.41 246 00:46 20.01.2022
5821 Clouds 23 1012 78 10000 0.72 112 22:59 19.01.2022
5822 Clouds 23 1012 77 10000 0.3 15 22:21 19.01.2022
5823 Clouds 24 1012 73 10000 0.8 56 21:23 19.01.2022
5824 Clouds 24 1012 73 10000 0.8 56 20:46 19.01.2022
5825 Clouds 25 1011 68 10000 0.61 115 19:45 19.01.2022
5826 Clouds 26 1010 71 10000 0.5 122 18:29 19.01.2022
5827 Clouds 26 1010 71 10000 0.5 122 17:45 19.01.2022
5828 Clouds 26 1009 69 10000 0.68 138 16:47 19.01.2022
5829 Clouds 28 1008 62 10000 0.44 96 14:42 19.01.2022
5830 Clouds 33 1009 39 10000 1.55 19 12:43 19.01.2022
5831 Clouds 33 1011 38 10000 1.82 22 11:41 19.01.2022
5832 Clouds 31 1014 47 10000 1.62 55 10:23 19.01.2022
5833 Clouds 31 1014 47 10000 1.62 55 09:34 19.01.2022
5834 Clouds 22 1015 80 10000 1.48 118 06:56 19.01.2022
5835 Clouds 19 1013 97 10000 0.95 98 02:41 19.01.2022
5836 Clouds 21 1015 94 10000 0.99 124 23:20 18.01.2022
5837 Clouds 21 1015 94 10000 0.99 124 22:34 18.01.2022
5838 Clouds 21 1015 90 10000 1 128 20:59 18.01.2022
5839 Clouds 22 1015 84 10000 1.17 142 19:55 18.01.2022
5840 Clouds 22 1015 84 10000 1.17 142 19:36 18.01.2022
5841 Clouds 22 1014 82 10000 1.04 172 18:51 18.01.2022
5842 Clouds 23 1014 80 10000 0.85 201 17:58 18.01.2022
5843 Clouds 25 1013 73 10000 0.98 234 16:50 18.01.2022
5844 Clouds 27 1012 59 10000 1.37 244 15:47 18.01.2022
5845 Clouds 28 1012 58 10000 1.49 242 15:21 18.01.2022
5846 Rain 26 1013 70 10000 1.44 249 12:47 18.01.2022
5847 Rain 24 1015 91 10000 0.7 223 10:47 18.01.2022
5848 Clouds 23 1016 89 10000 0.61 138 08:59 18.01.2022
5849 Clouds 22 1016 93 10000 0.59 132 07:55 18.01.2022
5850 Clouds 21 1013 92 10000 0.74 231 02:34 18.01.2022
5851 Clouds 21 1014 94 10000 0.58 255 23:39 17.01.2022
5852 Rain 20 1015 95 10000 0.81 337 22:27 17.01.2022
5853 Rain 20 1015 95 10000 0.81 337 21:35 17.01.2022
5854 Clouds 22 1014 85 10000 0.39 212 20:24 17.01.2022
5855 Clouds 22 1013 80 10000 0.66 7 18:30 17.01.2022
5856 Clouds 23 1012 78 10000 1.16 354 17:44 17.01.2022
5857 Clouds 26 1011 70 10000 1.07 349 16:44 17.01.2022
5858 Clouds 29 1010 51 10000 0.79 288 15:22 17.01.2022
5859 Clouds 29 1010 51 10000 0.79 288 14:56 17.01.2022
5860 Clouds 26 1013 63 10000 0.63 351 13:26 17.01.2022
5861 Clouds 26 1013 63 10000 0.63 351 12:56 17.01.2022
5862 Clouds 25 1014 67 10000 0.92 358 11:49 17.01.2022
5863 Clouds 24 1016 75 10000 0.56 48 10:21 17.01.2022
5864 Clouds 24 1016 75 10000 0.56 48 09:34 17.01.2022
5865 Clouds 20 1015 93 10000 0.79 152 07:24 17.01.2022
5866 Clouds 21 1015 89 10000 0.58 165 06:56 17.01.2022
5867 Clouds 20 1013 94 10000 0.86 151 00:55 17.01.2022
5868 Clouds 20 1014 94 10000 0.73 20 22:30 16.01.2022
5869 Clouds 20 1013 96 10000 0.73 145 20:36 16.01.2022
5870 Clouds 23 1013 88 10000 0 0 18:52 16.01.2022
5871 Clouds 25 1012 88 10000 3.09 250 17:59 16.01.2022
5872 Clouds 25 1012 88 10000 3.09 250 17:21 16.01.2022
5873 Clouds 25 1012 88 10000 2.06 180 16:38 16.01.2022
5874 Clouds 27 1013 74 10000 2.06 250 14:31 16.01.2022
5875 Clouds 26 1014 78 10000 3.09 260 13:49 16.01.2022
5876 Clouds 26 1014 78 10000 3.09 260 12:48 16.01.2022
5877 Clouds 25 1015 78 10000 2.06 250 11:42 16.01.2022
5878 Clouds 24 1015 83 10000 0 0 10:54 16.01.2022
5879 Clouds 22 1013 88 10000 2.14 185 10:19 16.01.2022
5880 Clouds 22 1015 94 8000 3.09 220 09:51 16.01.2022
5881 Clouds 22 1015 94 8000 3.09 220 09:22 16.01.2022
5882 Thunderstorm 21 1016 100 6000 2.06 180 07:33 16.01.2022
5883 Rain 21 1011 99 10000 1.2 65 00:42 16.01.2022
5884 Clouds 21 1011 98 10000 1.39 29 23:49 15.01.2022
5885 Rain 21 1012 98 10000 1.37 13 21:37 15.01.2022
5886 Rain 21 1011 97 7680 1.93 2 21:19 15.01.2022
5887 Rain 21 1011 97 7680 1.93 2 20:39 15.01.2022
5888 Clouds 23 1008 83 10000 0.83 223 19:29 15.01.2022
5889 Rain 24 1008 87 10000 1.22 259 18:37 15.01.2022
5890 Rain 31 1008 62 6000 1.54 0 16:58 15.01.2022
5891 Clouds 33 1008 52 6000 2.06 250 15:42 15.01.2022
5892 Clouds 35 1006 38 10000 0.18 282 13:52 15.01.2022
5893 Clouds 31 1013 33 8000 2.57 180 11:46 15.01.2022
5894 Clouds 30 1013 70 8000 2.06 160 10:25 15.01.2022
5895 Clouds 23 1013 87 10000 0.77 187 06:40 15.01.2022
5896 Clouds 22 1011 93 10000 1.29 147 23:49 14.01.2022
5897 Clouds 22 1012 93 10000 1.19 164 21:41 14.01.2022
5898 Clouds 22 1012 92 10000 1.16 153 20:37 14.01.2022
5899 Clouds 23 1012 88 10000 1.27 149 19:58 14.01.2022
5900 Clouds 23 1011 83 10000 1.27 131 18:46 14.01.2022
5901 Clouds 29 1011 74 8000 0 0 17:57 14.01.2022
5902 Clouds 30 1010 66 8000 3.09 120 16:47 14.01.2022
5903 Clouds 28 1009 62 10000 0.87 164 15:33 14.01.2022
5904 Clouds 28 1009 62 10000 0.87 164 15:33 14.01.2022
5905 Clouds 31 1011 62 8000 3.09 260 14:30 14.01.2022
5906 Clouds 29 1011 56 10000 1.25 192 13:27 14.01.2022
5907 Clouds 27 1012 65 10000 1.28 180 12:20 14.01.2022
5908 Clouds 24 1013 84 10000 0.97 188 10:46 14.01.2022
5909 Clouds 22 1014 94 10000 1.25 181 08:54 14.01.2022
5910 Clouds 22 1014 95 10000 1.68 200 07:46 14.01.2022
5911 Rain 20 1013 99 10000 1.74 220 03:50 14.01.2022
5912 Rain 21 1013 99 10000 1.15 179 00:44 14.01.2022
5913 Rain 21 1014 98 10000 0.89 308 21:57 13.01.2022
5914 Rain 21 1014 98 10000 0.89 308 21:30 13.01.2022
5915 Rain 21 1014 97 10000 1.04 286 20:33 13.01.2022
5916 Rain 22 1013 94 10000 0.43 109 19:32 13.01.2022
5917 Rain 24 1014 88 7000 0 0 18:50 13.01.2022
5918 Rain 25 1013 83 8000 0 0 17:23 13.01.2022
5919 Rain 26 1007 79 10000 2.41 251 15:49 13.01.2022
5920 Rain 29 1008 63 10000 1.97 275 15:26 13.01.2022
5921 Clouds 27 1008 75 10000 1.11 346 13:42 13.01.2022
5922 Rain 29 1010 60 10000 0.89 258 11:43 13.01.2022
5923 Clouds 23 1015 94 7000 0 0 09:37 13.01.2022
5924 Clouds 25 1013 78 10000 1.38 188 08:54 13.01.2022
5925 Clouds 24 1013 86 10000 1.28 167 08:22 13.01.2022
5926 Clouds 23 1012 90 10000 1.29 170 07:21 13.01.2022
5927 Clouds 23 1011 94 10000 1.1 136 05:56 13.01.2022
5928 Clouds 23 1010 95 10000 1.08 196 05:18 13.01.2022
5929 Clouds 23 1009 94 10000 1.35 197 01:46 13.01.2022
5930 Clouds 23 1009 90 10000 1.1 247 23:54 12.01.2022
5931 Clouds 23 1009 90 10000 1.1 247 23:34 12.01.2022
5932 Clouds 24 1009 89 10000 1.31 267 22:49 12.01.2022
5933 Clouds 24 1009 88 10000 1.25 238 21:54 12.01.2022
5934 Clouds 24 1010 88 10000 0.97 265 21:21 12.01.2022
5935 Clouds 24 1010 88 10000 0.97 265 20:53 12.01.2022
5936 Clouds 24 1008 87 10000 1.05 199 19:24 12.01.2022
5937 Rain 24 1007 91 10000 2.37 200 18:28 12.01.2022
5938 Rain 30 1009 70 8000 4.12 240 16:59 12.01.2022
5939 Clouds 30 1009 70 8000 4.12 250 15:53 12.01.2022
5940 Clouds 33 1004 45 10000 1.29 265 14:46 12.01.2022
5941 Clouds 36 1006 37 10000 0.94 303 12:58 12.01.2022
5942 Clouds 25 1012 83 7000 2.06 360 09:59 12.01.2022
5943 Rain 29 1011 63 10000 1.41 31 08:33 12.01.2022
5944 Clouds 22 1012 94 6000 2.06 360 07:33 12.01.2022
5945 Clouds 23 1009 85 10000 0.71 163 05:30 12.01.2022
5946 Clouds 25 1008 77 10000 0.87 109 23:29 11.01.2022
5947 Clouds 25 1008 77 10000 0.87 109 22:41 11.01.2022
5948 Clouds 26 1008 73 10000 0.26 146 22:20 11.01.2022
5949 Clouds 26 1008 72 10000 1.03 3 20:49 11.01.2022
5950 Clouds 27 1007 70 10000 0.69 117 19:42 11.01.2022
5951 Clouds 27 1005 67 10000 2.06 122 18:25 11.01.2022
5952 Clouds 29 1004 57 10000 2.02 89 17:18 11.01.2022
5953 Clouds 31 1006 70 8000 2.06 140 16:36 11.01.2022
5954 Clouds 35 1003 38 10000 0.7 2 14:59 11.01.2022
5955 Clouds 35 1003 38 10000 0.7 2 14:40 11.01.2022
5956 Clouds 31 1008 70 8000 3.09 140 13:54 11.01.2022
5957 Clouds 31 1008 70 8000 3.09 140 13:31 11.01.2022
5958 Clouds 31 1009 70 8000 3.09 140 12:37 11.01.2022
5959 Clouds 29 1011 74 8000 3.09 120 10:52 11.01.2022
5960 Clouds 30 1009 55 10000 1.38 168 08:58 11.01.2022
5961 Clouds 23 1008 81 10000 1.09 152 06:28 11.01.2022
5962 Clouds 23 1007 78 10000 0.43 173 00:30 11.01.2022
5963 Clouds 23 1007 77 10000 0.3 170 23:41 10.01.2022
5964 Clouds 23 1007 78 10000 0.62 229 22:51 10.01.2022
5965 Clouds 24 1007 78 10000 0.76 189 22:18 10.01.2022
5966 Clouds 24 1007 78 10000 0.76 189 21:48 10.01.2022
5967 Clouds 24 1008 78 10000 0.95 183 21:19 10.01.2022
5968 Clouds 24 1008 78 10000 0.95 183 20:56 10.01.2022
5969 Clouds 24 1007 78 10000 0.84 135 20:26 10.01.2022
5970 Clouds 24 1007 78 10000 0.84 135 19:41 10.01.2022
5971 Clouds 25 1006 76 10000 0.72 152 19:20 10.01.2022
5972 Clouds 25 1006 79 10000 0.98 202 18:48 10.01.2022
5973 Clouds 27 1005 70 10000 1.76 145 17:24 10.01.2022
5974 Clouds 27 1005 70 10000 1.76 145 16:41 10.01.2022
5975 Clouds 35 1003 37 10000 1.79 294 15:20 10.01.2022
5976 Clouds 35 1004 37 10000 1.38 284 13:41 10.01.2022
5977 Clouds 34 1007 44 10000 1.61 209 11:58 10.01.2022
5978 Clouds 32 1008 52 10000 1.65 195 11:24 10.01.2022
5979 Clouds 27 1009 69 10000 1.36 181 09:46 10.01.2022
5980 Clouds 24 1009 84 10000 0.94 152 06:47 10.01.2022
5981 Clouds 23 1009 86 10000 0.95 165 05:49 10.01.2022
5982 Clouds 23 1007 89 10000 1.08 206 01:30 10.01.2022
5983 Clouds 23 1007 88 10000 0.96 165 00:24 10.01.2022
5984 Clouds 23 1008 86 10000 0.88 171 23:29 09.01.2022
5985 Clouds 23 1008 86 10000 0.88 171 22:37 09.01.2022
5986 Clouds 24 1008 83 10000 1.07 118 21:46 09.01.2022
5987 Clouds 24 1009 82 10000 1.35 110 21:23 09.01.2022
5988 Clouds 24 1009 82 10000 1.35 110 21:23 09.01.2022
5989 Clouds 24 1009 82 10000 1.35 110 20:50 09.01.2022
5990 Clouds 24 1009 82 10000 1.35 110 20:32 09.01.2022
5991 Clouds 24 1008 79 10000 1.4 170 19:44 09.01.2022
5992 Clouds 25 1008 79 10000 1.35 171 19:23 09.01.2022
5993 Clouds 25 1008 79 10000 1.35 171 18:51 09.01.2022
5994 Clouds 23 1007 84 10000 1.36 173 18:33 09.01.2022
5995 Clouds 24 1006 84 10000 1.59 209 17:30 09.01.2022
5996 Rain 32 1008 62 8000 0 0 16:51 09.01.2022
5997 Rain 33 1008 55 8000 2.06 0 15:57 09.01.2022
5998 Rain 33 1008 55 8000 2.06 0 15:34 09.01.2022
5999 Rain 32 1008 58 8000 2.06 180 14:40 09.01.2022
6000 Clouds 32 1009 62 10000 1.54 0 13:50 09.01.2022
6001 Clouds 37 1005 31 10000 0.86 350 12:48 09.01.2022
6002 Clouds 31 1011 66 10000 4.12 190 11:51 09.01.2022
6003 Clouds 30 1012 70 10000 4.12 170 10:52 09.01.2022
6004 Clouds 34 1009 41 10000 0.81 234 09:42 09.01.2022
6005 Clouds 26 1012 83 8000 3.09 230 08:34 09.01.2022
6006 Clouds 23 1008 83 10000 0.63 204 03:55 09.01.2022
6007 Clouds 24 1007 80 10000 0.79 177 01:23 09.01.2022
6008 Clouds 25 1008 77 10000 0.98 183 23:39 08.01.2022
6009 Clouds 24 1008 77 10000 0.85 196 22:59 08.01.2022
6010 Clouds 25 1009 74 10000 0.73 309 22:19 08.01.2022
6011 Clouds 26 1008 72 10000 0.4 200 21:25 08.01.2022
6012 Clouds 26 1008 72 10000 0.4 200 20:41 08.01.2022
6013 Clouds 26 1008 71 10000 1.2 175 20:19 08.01.2022
6014 Clouds 27 1007 63 10000 1.03 209 18:34 08.01.2022
6015 Clouds 30 1009 70 7000 2.06 120 17:22 08.01.2022
6016 Clouds 31 1008 62 7000 3.09 120 15:52 08.01.2022
6017 Clouds 34 1004 40 10000 0.47 90 14:44 08.01.2022
6018 Clouds 37 1006 32 10000 0.51 44 13:25 08.01.2022
6019 Clouds 36 1009 35 10000 0.57 130 11:25 08.01.2022
6020 Clouds 34 1010 42 10000 1.08 138 10:25 08.01.2022
6021 Clouds 34 1010 42 10000 1.08 138 09:47 08.01.2022
6022 Clouds 28 1011 60 10000 1.15 107 07:50 08.01.2022
6023 Clouds 22 1008 72 10000 0.44 137 02:50 08.01.2022
6024 Clouds 23 1008 71 10000 0.5 169 00:41 08.01.2022
6025 Clouds 23 1009 67 10000 0.97 164 22:47 07.01.2022
6026 Clouds 24 1009 63 10000 0.82 205 20:58 07.01.2022
6027 Clear 25 1009 61 10000 0.56 213 20:19 07.01.2022
6028 Clouds 26 1008 58 10000 0.39 135 19:18 07.01.2022
6029 Haze 27 1009 78 5000 0 0 18:44 07.01.2022
6030 Clouds 29 1006 54 10000 1.04 68 17:26 07.01.2022
6031 Clouds 29 1006 54 10000 1.04 68 16:39 07.01.2022
6032 Clouds 32 1010 51 7000 3.09 250 13:56 07.01.2022
6033 Clouds 32 1010 51 7000 3.09 250 13:38 07.01.2022
6034 Clouds 36 1006 31 10000 1.25 62 12:49 07.01.2022
6035 Clouds 32 1011 42 10000 1.61 88 09:37 07.01.2022
6036 Clouds 21 1009 76 10000 0.36 157 02:56 07.01.2022
6037 Clouds 21 1009 74 10000 0.64 143 01:54 07.01.2022
6038 Clouds 22 1009 71 10000 0.65 142 01:28 07.01.2022
6039 Clouds 22 1009 71 10000 0.65 142 00:59 07.01.2022
6040 Clouds 22 1009 69 10000 0.53 237 23:53 06.01.2022
6041 Clouds 23 1010 67 10000 1.15 324 21:28 06.01.2022
6042 Clouds 24 1010 63 10000 1.02 351 20:22 06.01.2022
6043 Clouds 24 1010 63 10000 1.02 351 19:45 06.01.2022
6044 Clouds 25 1009 60 10000 0.51 26 18:34 06.01.2022
6045 Haze 29 1009 70 5000 0 0 17:41 06.01.2022
6046 Clouds 28 1007 56 10000 0.38 54 16:52 06.01.2022
6047 Clouds 31 1009 58 6000 1.54 0 15:48 06.01.2022
6048 Clouds 31 1009 58 6000 1.54 0 15:26 06.01.2022
6049 Clouds 32 1009 55 6000 1.54 0 14:51 06.01.2022
6050 Clouds 34 1007 33 10000 1.41 85 14:18 06.01.2022
6051 Haze 30 1011 58 5000 2.06 360 12:56 06.01.2022
6052 Haze 30 1012 58 5000 0 0 11:43 06.01.2022
6053 Haze 30 1012 58 5000 0 0 11:23 06.01.2022
6054 Clear 29 1013 53 10000 1.18 136 08:59 06.01.2022
6055 Clouds 21 1009 85 10000 0.6 194 01:37 06.01.2022
6056 Clouds 21 1010 83 10000 1.21 184 23:40 05.01.2022
6057 Clouds 22 1011 81 10000 1.23 209 22:59 05.01.2022
6058 Clouds 22 1011 81 10000 1.23 209 22:33 05.01.2022
6059 Clouds 22 1012 79 10000 1.14 209 21:52 05.01.2022
6060 Clouds 22 1012 76 10000 0.82 212 21:21 05.01.2022
6061 Clouds 23 1012 73 10000 0.31 186 20:19 05.01.2022
6062 Clouds 24 1010 69 10000 0.78 128 18:54 05.01.2022
6063 Clouds 28 1011 74 7000 0 0 17:45 05.01.2022
6064 Clouds 27 1009 64 10000 0.78 82 16:51 05.01.2022
6065 Clouds 31 1008 50 10000 0.8 75 15:43 05.01.2022
6066 Clouds 33 1008 37 10000 1.05 46 14:28 05.01.2022
6067 Clouds 33 1008 37 10000 1.05 46 13:32 05.01.2022
6068 Clouds 33 1011 41 10000 1.07 41 11:45 05.01.2022
6069 Clouds 25 1014 74 10000 1 89 08:20 05.01.2022
6070 Clouds 21 1013 94 10000 0.69 145 06:25 05.01.2022
6071 Clouds 20 1011 94 10000 1.01 219 00:59 05.01.2022
6072 Clouds 21 1012 91 10000 1.35 211 23:29 04.01.2022
6073 Clouds 21 1012 91 10000 1.35 211 22:58 04.01.2022
6074 Clouds 21 1012 87 10000 1.4 222 21:31 04.01.2022
6075 Clouds 22 1012 80 10000 0.89 216 19:55 04.01.2022
6076 Clouds 24 1010 78 10000 1.13 230 18:19 04.01.2022
6077 Clouds 26 1012 78 7000 2.06 280 16:53 04.01.2022
6078 Clouds 26 1012 78 7000 2.06 280 16:30 04.01.2022
6079 Clouds 30 1008 52 10000 0.61 298 14:54 04.01.2022
6080 Clouds 30 1008 52 10000 0.61 298 14:36 04.01.2022
6081 Clouds 25 1012 83 7000 0 0 13:40 04.01.2022
6082 Rain 26 1012 77 10000 0.73 351 10:59 04.01.2022
6083 Rain 25 1012 81 10000 0.77 11 09:58 04.01.2022
6084 Fog 21 1015 100 800 0 0 08:35 04.01.2022
6085 Rain 21 1010 98 10000 1.21 174 03:39 04.01.2022
6086 Clouds 22 1009 93 10000 0.91 244 00:42 04.01.2022
6087 Clouds 22 1010 93 10000 1 236 23:44 03.01.2022
6088 Clouds 22 1010 93 10000 1.13 177 22:21 03.01.2022
6089 Clouds 22 1010 93 10000 1.13 177 21:35 03.01.2022
6090 Clouds 23 1010 88 10000 1.28 188 20:28 03.01.2022
6091 Clouds 23 1009 91 10000 1.5 205 18:54 03.01.2022
6092 Clouds 24 1008 91 10000 1.36 189 18:28 03.01.2022
6093 Clouds 25 1007 85 10000 1.51 167 17:18 03.01.2022
6094 Rain 25 1010 83 10000 3.09 190 15:50 03.01.2022
6095 Clouds 29 1005 62 10000 0.43 138 14:31 03.01.2022
6096 Rain 25 1009 87 10000 0.8 62 12:51 03.01.2022
6097 Rain 23 1014 94 8000 2.06 0 11:50 03.01.2022
6098 Rain 24 1014 88 8000 4.12 210 10:37 03.01.2022
6099 Clouds 28 1011 69 10000 1.12 109 08:54 03.01.2022
6100 Clouds 26 1011 82 10000 0.84 139 07:51 03.01.2022
6101 Clouds 21 1008 98 10000 0.69 160 01:55 03.01.2022
6102 Clouds 22 1009 97 10000 0.58 13 23:22 02.01.2022
6103 Clouds 22 1009 97 10000 0.58 13 22:55 02.01.2022
6104 Clouds 22 1010 97 10000 0.56 0 21:52 02.01.2022
6105 Rain 22 1010 98 10000 0.93 53 20:45 02.01.2022
6106 Rain 22 1010 97 10000 1.45 51 20:24 02.01.2022
6107 Rain 22 1010 97 10000 1.45 51 19:31 02.01.2022
6108 Rain 23 1008 88 10000 0.71 108 18:51 02.01.2022
6109 Thunderstorm 29 1007 65 7000 6.17 340 17:56 02.01.2022
6110 Thunderstorm 29 1007 65 7000 6.17 340 17:38 02.01.2022
6111 Rain 26 1006 77 10000 1.66 278 17:19 02.01.2022
6112 Clouds 29 1005 65 10000 1.52 295 16:27 02.01.2022
6113 Clouds 30 1005 61 10000 0.92 15 14:38 02.01.2022
6114 Clouds 35 1006 38 10000 0.71 6 12:57 02.01.2022
6115 Clouds 34 1008 42 10000 0.62 359 12:25 02.01.2022
6116 Clouds 31 1011 66 10000 4.12 160 11:33 02.01.2022
6117 Clouds 33 1009 46 10000 0.22 214 10:50 02.01.2022
6118 Clear 32 1010 53 10000 0.39 175 09:52 02.01.2022
6119 Clouds 23 1012 92 10000 0.22 293 07:26 02.01.2022
6120 Clouds 22 1008 88 10000 0.42 226 02:19 02.01.2022
6121 Clouds 23 1009 82 10000 0.11 275 23:40 01.01.2022
6122 Clouds 23 1009 80 10000 0.24 41 23:22 01.01.2022
6123 Clouds 24 1010 79 10000 0.43 116 22:23 01.01.2022
6124 Clouds 24 1010 79 10000 0.43 116 21:44 01.01.2022
6125 Clouds 24 1010 78 10000 0.86 123 20:56 01.01.2022
6126 Clouds 25 1011 94 7000 0 0 19:59 01.01.2022
6127 Clouds 25 1011 94 7000 0 0 19:30 01.01.2022
6128 Clouds 26 1008 72 10000 0.76 92 18:29 01.01.2022
6129 Clouds 30 1009 66 10000 0 0 16:51 01.01.2022
6130 Clouds 30 1009 66 10000 0 0 16:29 01.01.2022
6131 Clouds 30 1010 62 10000 1.54 0 15:30 01.01.2022
6132 Clear 33 1007 42 10000 0.41 122 14:21 01.01.2022
6133 Clouds 28 1010 69 10000 2.06 170 12:50 01.01.2022
6134 Clouds 28 1013 69 10000 2.06 220 11:59 01.01.2022
6135 Clouds 28 1013 69 10000 2.06 220 11:24 01.01.2022
6136 Clouds 32 1011 49 10000 1.1 167 10:42 01.01.2022
6137 Clouds 30 1012 55 10000 1.42 170 09:47 01.01.2022
6138 Clouds 25 1013 75 10000 1.46 149 08:26 01.01.2022
6139 Clouds 25 1013 75 10000 1.46 149 07:55 01.01.2022
6140 Clouds 25 1013 75 10000 1.46 149 07:34 01.01.2022
6141 Clouds 22 1013 91 10000 1.32 154 06:41 01.01.2022
6142 Clouds 21 1012 97 10000 1.11 186 04:38 01.01.2022
6143 Clouds 20 1011 99 10000 0.99 162 02:54 01.01.2022
6144 Clouds 21 1012 97 10000 1.15 174 23:52 31.12.2021
6145 Clouds 21 1013 99 10000 1.29 159 21:54 31.12.2021
6146 Rain 21 1014 98 10000 0.96 140 20:41 31.12.2021
6147 Clouds 21 1014 98 10000 1.1 129 19:31 31.12.2021
6148 Clouds 21 1013 97 10000 0.78 130 18:46 31.12.2021
6149 Clouds 22 1012 97 10000 0.83 128 17:45 31.12.2021
6150 Clouds 23 1011 93 10000 0.76 114 17:19 31.12.2021
6151 Clouds 23 1011 93 10000 0.76 114 16:44 31.12.2021
6152 Clouds 24 1011 89 10000 1.57 150 15:58 31.12.2021
6153 Clouds 24 1011 89 10000 1.57 150 15:40 31.12.2021
6154 Clouds 24 1010 88 10000 1.61 151 15:19 31.12.2021
6155 Clouds 24 1010 88 10000 1.61 151 14:33 31.12.2021
6156 Rain 23 1010 93 10000 1.45 160 13:44 31.12.2021
6157 Rain 23 1011 95 10000 1.42 160 12:49 31.12.2021
6158 Rain 26 1011 85 10000 1.56 175 12:19 31.12.2021
6159 Rain 26 1011 85 10000 1.56 175 11:33 31.12.2021
6160 Rain 26 1012 84 6833 1.89 178 10:41 31.12.2021
6161 Rain 26 1013 81 10000 2.34 181 10:23 31.12.2021
6162 Rain 26 1013 81 10000 2.34 181 09:33 31.12.2021
6163 Rain 25 1013 91 6883 2.2 178 08:50 31.12.2021
6164 Rain 24 1013 92 8998 1.78 188 07:49 31.12.2021
6165 Rain 22 1009 97 10000 0.84 236 01:38 31.12.2021
6166 Rain 22 1011 97 10000 1.44 214 22:54 30.12.2021
6167 Rain 22 1011 96 10000 1.08 212 22:27 30.12.2021
6168 Rain 22 1011 96 10000 1.08 212 21:38 30.12.2021
6169 Clouds 22 1011 97 10000 1.26 179 20:58 30.12.2021
6170 Clouds 22 1011 97 10000 1.26 179 20:35 30.12.2021
6171 Rain 22 1011 97 10000 1.43 209 19:50 30.12.2021
6172 Rain 22 1010 96 10000 1.45 203 19:28 30.12.2021
6173 Rain 22 1009 97 10000 1.77 189 18:26 30.12.2021
6174 Rain 23 1008 93 10000 1.74 177 16:50 30.12.2021
6175 Rain 24 1007 91 10000 1.09 202 15:53 30.12.2021
6176 Rain 24 1007 91 10000 1.09 202 15:53 30.12.2021
6177 Rain 26 1006 83 10000 0.59 265 14:54 30.12.2021
6178 Rain 26 1006 83 10000 0.59 265 14:35 30.12.2021
6179 Rain 31 1007 57 10000 1.96 297 13:25 30.12.2021
6180 Rain 32 1008 54 10000 1.21 269 11:53 30.12.2021
6181 Clouds 28 1011 68 10000 0.83 299 10:28 30.12.2021
6182 Clouds 28 1011 68 10000 0.83 299 09:44 30.12.2021
6183 Clouds 23 1011 93 10000 0.22 183 06:56 30.12.2021
6184 Clouds 21 1010 97 10000 0.45 135 05:20 30.12.2021
6185 Clouds 21 1009 98 10000 0.5 143 03:40 30.12.2021
6186 Clouds 21 1009 98 10000 0.39 203 02:27 30.12.2021
6187 Clouds 22 1010 98 10000 0.88 21 23:37 29.12.2021
6188 Clouds 22 1010 97 10000 0.69 13 22:35 29.12.2021
6189 Clouds 22 1010 96 10000 0.14 355 21:55 29.12.2021
6190 Clouds 22 1010 96 10000 0.32 264 20:57 29.12.2021
6191 Rain 22 1010 95 10000 0.58 80 20:29 29.12.2021
6192 Thunderstorm 24 1011 94 7000 0 0 19:31 29.12.2021
6193 Rain 23 1009 95 10000 0.77 113 18:42 29.12.2021
6194 Rain 24 1009 91 10000 0.44 143 17:49 29.12.2021
6195 Rain 25 1007 87 10000 0.38 94 17:26 29.12.2021
6196 Rain 29 1007 65 10000 0.4 219 16:21 29.12.2021
6197 Clouds 31 1006 55 10000 0.37 170 15:21 29.12.2021
6198 Clouds 31 1010 62 10000 2.06 330 13:31 29.12.2021
6199 Rain 32 1008 49 10000 0.8 109 12:35 29.12.2021
6200 Clouds 32 1011 50 10000 1.08 171 11:23 29.12.2021
6201 Clouds 30 1012 55 10000 1.03 153 09:35 29.12.2021
6202 Mist 22 1013 100 3000 0 0 07:45 29.12.2021
6203 Clouds 23 1013 83 10000 0.9 185 06:34 29.12.2021
6204 Clouds 21 1012 95 10000 0.44 169 05:57 29.12.2021
6205 Clouds 20 1011 99 10000 0.8 168 05:27 29.12.2021
6206 Clouds 20 1011 99 10000 0.9 174 01:27 29.12.2021
6207 Clouds 21 1011 99 10000 0.93 182 23:59 28.12.2021
6208 Clouds 21 1012 99 10000 0.87 196 22:57 28.12.2021
6209 Clouds 21 1012 99 10000 0.87 196 22:57 28.12.2021
6210 Clouds 21 1012 97 10000 0.84 190 22:25 28.12.2021
6211 Clouds 21 1012 97 10000 0.84 190 21:55 28.12.2021
6212 Clouds 21 1012 97 10000 0.84 190 21:35 28.12.2021
6213 Clouds 21 1012 96 10000 0.28 192 20:32 28.12.2021
6214 Clouds 22 1011 95 10000 0.49 182 18:56 28.12.2021
6215 Clouds 22 1010 93 10000 0.04 80 18:28 28.12.2021
6216 Clouds 22 1010 93 10000 0.04 80 17:42 28.12.2021
6217 Clouds 26 1008 75 10000 0.74 351 16:25 28.12.2021
6218 Clouds 28 1010 69 10000 2.06 0 15:41 28.12.2021
6219 Clouds 26 1009 73 10000 0.97 351 14:57 28.12.2021
6220 Clouds 26 1009 73 10000 0.97 351 14:57 28.12.2021
6221 Clouds 26 1009 73 10000 0.97 351 14:38 28.12.2021
6222 Clouds 25 1009 81 10000 0.53 272 14:20 28.12.2021
6223 Clouds 25 1009 81 10000 0.53 272 13:38 28.12.2021
6224 Clouds 23 1011 92 10000 1.24 157 12:56 28.12.2021
6225 Rain 22 1011 94 10000 1.1 191 12:38 28.12.2021
6226 Rain 21 1014 97 10000 1.07 222 10:52 28.12.2021
6227 Clouds 22 1014 94 6000 2.06 30 07:39 28.12.2021
6228 Rain 22 1014 100 6000 3.09 240 06:40 28.12.2021
6229 Clouds 21 1011 94 10000 1.55 172 23:42 27.12.2021
6230 Clouds 21 1012 94 10000 1.59 139 22:53 27.12.2021
6231 Clouds 21 1012 93 10000 2.05 113 21:33 27.12.2021
6232 Rain 22 1013 93 10000 2.57 89 20:45 27.12.2021
6233 Rain 23 1011 95 10000 2.54 91 19:56 27.12.2021
6234 Rain 23 1011 95 10000 2.54 91 19:38 27.12.2021
6235 Clouds 23 1008 94 10000 0.85 203 17:55 27.12.2021
6236 Clouds 23 1008 94 10000 0.85 203 17:37 27.12.2021
6237 Rain 24 1008 92 10000 1.28 193 16:36 27.12.2021
6238 Rain 27 1009 83 10000 3.09 300 15:51 27.12.2021
6239 Rain 28 1007 75 10000 1.33 268 14:30 27.12.2021
6240 Rain 30 1007 62 10000 1.8 299 13:38 27.12.2021
6241 Rain 31 1009 57 10000 0.65 205 11:41 27.12.2021
6242 Clouds 28 1011 68 10000 1.27 173 10:28 27.12.2021
6243 Clouds 23 1014 94 6000 2.06 160 09:38 27.12.2021
6244 Clouds 23 1011 95 10000 1.21 161 07:35 27.12.2021
6245 Fog 21 1013 100 500 0 0 06:30 27.12.2021
6246 Clouds 22 1009 98 10000 0.09 127 01:59 27.12.2021
6247 Clouds 22 1010 97 10000 0.65 147 23:52 26.12.2021
6248 Clouds 22 1010 97 10000 0.65 147 23:34 26.12.2021
6249 Rain 22 1011 98 10000 0.79 174 21:53 26.12.2021
6250 Rain 22 1011 96 8184 0.86 176 20:42 26.12.2021
6251 Rain 23 1010 94 9190 0.75 178 19:31 26.12.2021
6252 Rain 23 1009 96 10000 0.64 271 18:23 26.12.2021
6253 Rain 25 1008 84 10000 0.44 343 15:57 26.12.2021
6254 Clouds 28 1008 66 10000 0.9 275 14:27 26.12.2021
6255 Clouds 28 1008 66 10000 0.9 275 13:40 26.12.2021
6256 Clouds 29 1009 62 10000 0.98 315 13:18 26.12.2021
6257 Rain 30 1010 62 10000 0.67 316 12:27 26.12.2021
6258 Rain 25 1012 87 10000 0.66 199 10:22 26.12.2021
6259 Rain 25 1012 87 7873 0.89 170 09:19 26.12.2021
6260 Rain 25 1012 87 7873 0.89 170 08:40 26.12.2021
6261 Clouds 22 1012 97 10000 0.56 164 07:25 26.12.2021
6262 Rain 22 1009 97 10000 0.48 177 01:24 26.12.2021
6263 Clouds 22 1010 97 10000 0.55 45 23:53 25.12.2021
6264 Clouds 22 1010 96 10000 0.84 145 23:27 25.12.2021
6265 Clouds 22 1010 96 10000 1.73 166 22:23 25.12.2021
6266 Clouds 23 1011 96 10000 1.6 159 20:48 25.12.2021
6267 Rain 22 1010 97 10000 1.68 176 19:23 25.12.2021
6268 Rain 27 1009 83 7000 0 0 18:55 25.12.2021
6269 Clouds 29 1009 74 8000 0 0 17:32 25.12.2021
6270 Rain 30 1009 66 8000 2.06 230 16:36 25.12.2021
6271 Rain 28 1007 75 10000 1.05 201 14:46 25.12.2021
6272 Rain 27 1008 80 10000 0.81 195 13:30 25.12.2021
6273 Rain 29 1012 70 10000 3.09 190 11:46 25.12.2021
6274 Rain 27 1013 78 7000 3.09 130 09:51 25.12.2021
6275 Clouds 24 1013 92 10000 0.77 79 08:38 25.12.2021
6276 Clouds 22 1009 98 10000 1.02 178 02:59 25.12.2021
6277 Clouds 22 1009 97 10000 1.09 175 00:33 25.12.2021
6278 Clouds 22 1009 97 10000 1.18 168 23:39 24.12.2021
6279 Clouds 22 1010 96 10000 1.08 148 19:40 24.12.2021
6280 Rain 22 1010 96 10000 0.92 141 19:22 24.12.2021
6281 Rain 29 1009 70 7000 2.06 320 16:53 24.12.2021
6282 Rain 29 1009 70 7000 2.06 320 16:21 24.12.2021
6283 Rain 30 1009 66 7000 2.06 320 15:48 24.12.2021
6284 Rain 25 1007 90 4282 1.4 18 14:47 24.12.2021
6285 Rain 29 1006 69 10000 1 260 14:24 24.12.2021
6286 Rain 30 1010 66 8000 3.09 160 13:39 24.12.2021
6287 Rain 28 1011 74 8000 3.09 160 12:48 24.12.2021
6288 Clouds 27 1012 74 8000 3.09 140 11:58 24.12.2021
6289 Clouds 27 1011 68 10000 1.43 212 11:27 24.12.2021
6290 Clouds 27 1011 68 10000 1.43 212 10:59 24.12.2021
6291 Clouds 27 1012 70 10000 1.26 187 10:28 24.12.2021
6292 Clouds 27 1012 70 10000 0.94 157 08:26 24.12.2021
6293 Clouds 27 1012 70 10000 0.94 157 07:50 24.12.2021
6294 Clouds 22 1008 96 10000 1.19 174 03:21 24.12.2021
6295 Clouds 22 1009 93 10000 1.36 156 00:19 24.12.2021
6296 Clouds 23 1010 89 10000 1.35 165 23:23 23.12.2021
6297 Clouds 23 1010 89 10000 1.35 165 22:40 23.12.2021
6298 Clouds 23 1010 86 10000 1.3 151 22:20 23.12.2021
6299 Clouds 23 1010 86 10000 1.3 151 21:34 23.12.2021
6300 Clouds 24 1010 84 10000 1.63 178 20:21 23.12.2021
6301 Clouds 25 1010 88 6000 0 0 18:53 23.12.2021
6302 Clouds 24 1008 83 10000 1.18 162 17:57 23.12.2021
6303 Clouds 25 1007 78 10000 0.52 154 16:58 23.12.2021
6304 Clouds 27 1007 65 10000 1.21 174 16:26 23.12.2021
6305 Clouds 27 1007 65 10000 1.21 174 15:32 23.12.2021
6306 Clouds 28 1006 60 10000 1.08 177 14:55 23.12.2021
6307 Clouds 28 1006 60 10000 1.08 177 14:37 23.12.2021
6308 Clouds 27 1007 62 10000 1.11 168 13:22 23.12.2021
6309 Clouds 27 1010 64 10000 0.77 141 10:54 23.12.2021
6310 Clouds 27 1010 64 10000 0.77 141 10:54 23.12.2021
6311 Clouds 25 1010 79 10000 0.61 191 09:52 23.12.2021
6312 Clouds 25 1010 79 10000 0.61 191 09:31 23.12.2021
6313 Clouds 24 1011 82 10000 0.26 52 08:25 23.12.2021
6314 Clouds 24 1011 82 10000 0.26 52 08:25 23.12.2021
6315 Clouds 23 1009 78 10000 0.55 205 04:39 23.12.2021
6316 Clouds 24 1008 66 10000 0.51 114 23:43 22.12.2021
6317 Clouds 25 1009 63 10000 0.74 163 22:49 22.12.2021
6318 Clouds 25 1009 63 10000 0.42 174 21:57 22.12.2021
6319 Clouds 25 1009 62 10000 0.1 104 21:29 22.12.2021
6320 Clouds 25 1009 62 10000 0.1 104 20:52 22.12.2021
6321 Clouds 25 1009 62 10000 0.1 104 20:33 22.12.2021
6322 Clouds 26 1009 58 10000 0.11 359 19:37 22.12.2021
6323 Clouds 27 1007 55 10000 0.24 281 18:19 22.12.2021
6324 Clouds 27 1007 55 10000 0.24 281 17:37 22.12.2021
6325 Clouds 31 1009 51 6000 3.09 340 15:49 22.12.2021
6326 Clouds 34 1005 34 10000 1.45 344 13:46 22.12.2021
6327 Clouds 34 1006 34 10000 0.71 35 12:44 22.12.2021
6328 Clouds 33 1009 36 10000 1.62 43 10:48 22.12.2021
6329 Clouds 31 1010 40 10000 1.73 48 09:40 22.12.2021
6330 Clouds 26 1011 71 10000 1.44 37 07:48 22.12.2021
6331 Clouds 23 1010 89 10000 1.07 50 05:51 22.12.2021
6332 Clouds 23 1010 89 10000 0.91 55 05:28 22.12.2021
6333 Clouds 23 1010 89 10000 0.91 55 04:54 22.12.2021
6334 Clouds 23 1010 89 10000 0.91 55 04:30 22.12.2021
6335 Clouds 23 1009 90 10000 1.27 47 03:34 22.12.2021
6336 Clouds 23 1008 90 10000 0.73 107 01:37 22.12.2021
6337 Clouds 24 1009 85 10000 0.95 147 23:33 21.12.2021
6338 Haze 23 1012 94 6000 0 0 22:29 21.12.2021
6339 Clouds 24 1010 84 10000 0.78 188 21:51 21.12.2021
6340 Rain 24 1011 81 10000 0.91 131 21:24 21.12.2021
6341 Clouds 25 1010 72 10000 1.14 107 20:23 21.12.2021
6342 Clouds 25 1010 72 10000 1.14 107 19:46 21.12.2021
6343 Clouds 26 1009 66 10000 1.24 110 19:19 21.12.2021
6344 Haze 26 1010 78 6000 0 0 18:22 21.12.2021
6345 Haze 29 1009 70 6000 0 0 17:51 21.12.2021
6346 Clouds 27 1007 64 10000 1.1 106 16:39 21.12.2021
6347 Clouds 33 1006 39 10000 1.78 77 15:29 21.12.2021
6348 Clouds 33 1006 38 10000 1.77 78 13:51 21.12.2021
6349 Clouds 33 1006 38 10000 1.77 78 13:31 21.12.2021
6350 Clouds 31 1009 47 10000 2.57 39 12:20 21.12.2021
6351 Clouds 32 1010 46 10000 2 43 10:37 21.12.2021
6352 Clouds 30 1012 58 10000 1.41 47 09:35 21.12.2021
6353 Clouds 27 1013 67 10000 1.32 66 08:30 21.12.2021
6354 Clouds 28 1013 66 10000 1.17 83 07:32 21.12.2021
6355 Clouds 25 1012 76 10000 1.09 62 06:54 21.12.2021
6356 Clouds 23 1009 82 10000 0.66 180 03:22 21.12.2021
6357 Clouds 23 1009 82 10000 0.48 145 01:18 21.12.2021
6358 Clouds 23 1009 82 10000 0.6 161 23:34 20.12.2021
6359 Clouds 23 1010 81 10000 0.42 101 22:34 20.12.2021
6360 Clouds 23 1010 80 10000 0.43 215 21:48 20.12.2021
6361 Clouds 24 1010 80 10000 0.73 224 21:24 20.12.2021
6362 Clouds 24 1010 80 10000 0.73 224 20:48 20.12.2021
6363 Clouds 24 1010 79 10000 0.9 229 19:55 20.12.2021
6364 Clouds 24 1010 79 10000 0.9 229 19:32 20.12.2021
6365 Clouds 25 1010 94 6000 0 0 18:55 20.12.2021
6366 Clouds 25 1010 94 6000 0 0 18:25 20.12.2021
6367 Clouds 25 1008 76 10000 0.63 189 17:46 20.12.2021
6368 Clouds 28 1010 78 6000 2.06 340 16:43 20.12.2021
6369 Clouds 28 1010 78 7000 2.06 340 15:52 20.12.2021
6370 Clouds 31 1007 51 10000 1.11 62 14:56 20.12.2021
6371 Clouds 32 1009 49 10000 0.68 2 13:24 20.12.2021
6372 Rain 28 1011 75 10000 0.39 59 11:27 20.12.2021
6373 Rain 28 1012 81 10000 0.97 93 09:51 20.12.2021
6374 Rain 28 1012 81 10000 0.97 93 09:31 20.12.2021
6375 Mist 23 1014 94 4000 0 0 08:42 20.12.2021
6376 Clouds 25 1013 88 10000 0.74 149 07:55 20.12.2021
6377 Clouds 25 1013 88 10000 0.74 149 07:31 20.12.2021
6378 Clouds 21 1011 98 10000 0.45 119 04:36 20.12.2021
6379 Clouds 22 1010 92 10000 0.13 195 00:18 20.12.2021
6380 Clouds 23 1012 94 6000 2.06 120 22:53 19.12.2021
6381 Clouds 22 1011 91 10000 0.88 164 21:55 19.12.2021
6382 Clouds 22 1011 91 10000 0.88 164 21:31 19.12.2021
6383 Clouds 24 1012 94 6000 2.06 120 20:34 19.12.2021
6384 Clouds 23 1010 90 10000 1.21 171 19:52 19.12.2021
6385 Clouds 23 1010 90 10000 1.21 171 19:32 19.12.2021
6386 Clouds 23 1010 92 10000 0.84 125 18:30 19.12.2021
6387 Thunderstorm 25 1009 83 7000 3.09 30 17:53 19.12.2021
6388 Clouds 24 1008 90 10000 0.95 79 17:20 19.12.2021
6389 Thunderstorm 28 1010 69 7000 3.09 30 16:26 19.12.2021
6390 Thunderstorm 22 1017 73 6000 3.09 360 15:43 19.12.2021
6391 Clouds 28 1008 66 10000 1.52 146 15:21 19.12.2021
6392 Clouds 28 1008 66 10000 1.52 146 14:42 19.12.2021
6393 Rain 32 1010 55 10000 3.09 210 13:24 19.12.2021
6394 Rain 31 1012 62 10000 3.09 260 12:46 19.12.2021
6395 Rain 31 1012 62 10000 3.09 260 12:23 19.12.2021
6396 Rain 31 1012 62 10000 3.09 270 11:21 19.12.2021
6397 Rain 27 1012 81 10000 1.05 68 10:26 19.12.2021
6398 Rain 27 1012 81 10000 1.05 68 09:42 19.12.2021
6399 Rain 29 1012 67 10000 0.55 137 08:35 19.12.2021
6400 Clouds 21 1011 98 10000 0.87 177 04:45 19.12.2021
6401 Rain 21 1011 98 10000 1.05 146 01:33 19.12.2021
6402 Rain 21 1010 97 10000 0.48 184 00:52 19.12.2021
6403 Rain 22 1011 95 10000 1.26 202 22:37 18.12.2021
6404 Rain 22 1012 94 10000 1.15 176 21:58 18.12.2021
6405 Rain 22 1012 94 10000 1.15 176 21:35 18.12.2021
6406 Clouds 22 1012 93 10000 0.86 165 20:44 18.12.2021
6407 Clouds 23 1011 92 10000 0.59 172 20:18 18.12.2021
6408 Rain 23 1010 91 10000 1.09 205 19:25 18.12.2021
6409 Clouds 25 1009 80 10000 0.75 198 18:22 18.12.2021
6410 Clouds 25 1009 80 10000 0.75 198 17:48 18.12.2021
6411 Rain 26 1008 81 10000 0.27 151 16:26 18.12.2021
6412 Rain 26 1008 81 10000 0.27 151 16:26 18.12.2021
6413 Rain 26 1008 78 10000 1.1 239 15:27 18.12.2021
6414 Rain 26 1008 78 10000 1.1 239 14:48 18.12.2021
6415 Clouds 31 1008 55 10000 1.22 204 13:21 18.12.2021
6416 Clouds 32 1010 51 10000 1.74 164 11:22 18.12.2021
6417 Clouds 31 1012 55 10000 1.69 155 09:40 18.12.2021
6418 Clouds 29 1013 62 10000 1.87 160 08:47 18.12.2021
6419 Clouds 27 1013 70 10000 2.07 171 08:23 18.12.2021
6420 Clouds 22 1010 93 10000 1.07 177 03:42 18.12.2021
6421 Clouds 23 1010 89 10000 1.4 180 00:29 18.12.2021
6422 Clouds 23 1010 89 10000 1.4 180 23:44 17.12.2021
6423 Clouds 23 1011 89 10000 1.59 165 21:57 17.12.2021
6424 Clouds 23 1011 87 10000 1.61 169 21:19 17.12.2021
6425 Clouds 23 1011 87 10000 1.61 169 20:40 17.12.2021
6426 Clouds 24 1010 81 10000 2.07 168 19:24 17.12.2021
6427 Clouds 26 1011 83 7000 0 0 18:38 17.12.2021
6428 Clouds 24 1009 84 10000 1.42 155 17:31 17.12.2021
6429 Clouds 25 1008 81 10000 1.15 162 16:46 17.12.2021
6430 Clouds 27 1008 74 10000 0.82 217 16:22 17.12.2021
6431 Rain 28 1007 71 10000 0.89 203 15:25 17.12.2021
6432 Rain 28 1007 71 10000 0.89 203 14:40 17.12.2021
6433 Clouds 29 1012 65 10000 2.06 240 12:47 17.12.2021
6434 Clouds 27 1013 78 10000 2.06 270 11:46 17.12.2021
6435 Clouds 31 1011 52 10000 1.06 66 10:37 17.12.2021
6436 Clouds 25 1015 88 10000 0 0 09:33 17.12.2021
6437 Clouds 24 1014 94 7000 0 0 08:30 17.12.2021
6438 Clouds 22 1012 97 10000 0.67 153 06:22 17.12.2021
6439 Clouds 22 1010 98 10000 0.78 206 02:53 17.12.2021
6440 Rain 22 1010 98 10000 2.26 228 23:25 16.12.2021
6441 Rain 22 1012 98 10000 1.77 224 22:24 16.12.2021
6442 Rain 22 1012 98 10000 1.77 224 22:24 16.12.2021
6443 Rain 22 1012 98 10000 1.77 224 21:50 16.12.2021
6444 Rain 23 1011 97 7997 0.43 258 21:25 16.12.2021
6445 Rain 23 1011 97 7997 0.43 258 20:30 16.12.2021
6446 Rain 22 1011 98 10000 1.05 350 19:42 16.12.2021
6447 Rain 23 1010 94 8413 1.67 294 18:38 16.12.2021
6448 Rain 23 1008 95 10000 1.18 244 17:56 16.12.2021
6449 Rain 23 1008 95 10000 1.18 244 17:30 16.12.2021
6450 Rain 27 1005 73 10000 1.53 148 16:21 16.12.2021
6451 Clouds 31 1005 55 10000 1.42 188 14:50 16.12.2021
6452 Clouds 33 1007 50 10000 1.1 215 13:25 16.12.2021
6453 Clouds 31 1009 57 10000 0.87 178 11:20 16.12.2021
6454 Clouds 31 1009 57 10000 0.87 178 10:58 16.12.2021
6455 Clouds 29 1010 63 10000 1.06 193 10:20 16.12.2021
6456 Clouds 25 1010 83 10000 0.89 90 07:48 16.12.2021
6457 Clouds 23 1008 95 10000 0.2 141 06:21 16.12.2021
6458 Clouds 23 1007 95 10000 1.28 136 00:54 16.12.2021
6459 Clouds 23 1008 95 10000 1.31 143 23:25 15.12.2021
6460 Clouds 23 1008 95 10000 1.31 143 22:43 15.12.2021
6461 Clouds 23 1009 94 10000 0.65 124 21:55 15.12.2021
6462 Clouds 23 1008 95 10000 0.91 198 21:26 15.12.2021
6463 Rain 23 1009 95 10000 1.07 193 20:18 15.12.2021
6464 Rain 23 1009 95 10000 1.07 193 19:45 15.12.2021
6465 Rain 23 1008 91 10000 0.21 219 18:37 15.12.2021
6466 Thunderstorm 28 1007 83 6000 5.14 340 17:53 15.12.2021
6467 Thunderstorm 28 1007 83 6000 5.14 340 17:34 15.12.2021
6468 Clouds 30 1005 61 10000 0.71 26 16:28 15.12.2021
6469 Clouds 30 1005 61 10000 0.71 26 15:46 15.12.2021
6470 Clouds 32 1004 46 10000 0.54 133 15:27 15.12.2021
6471 Clouds 33 1004 42 10000 1.1 142 14:18 15.12.2021
6472 Clouds 31 1009 66 10000 4.12 200 12:37 15.12.2021
6473 Clouds 29 1011 74 10000 3.09 160 10:27 15.12.2021
6474 Clouds 30 1009 54 10000 1.63 146 08:55 15.12.2021
6475 Clouds 26 1009 71 10000 1.11 147 07:25 15.12.2021
6476 Clouds 23 1007 78 10000 0.8 200 01:20 15.12.2021
6477 Clouds 24 1007 77 10000 1.1 177 23:42 14.12.2021
6478 Clouds 24 1007 73 10000 1.04 182 22:49 14.12.2021
6479 Clouds 25 1007 68 10000 1.01 155 22:19 14.12.2021
6480 Clouds 27 1008 62 10000 1.32 161 20:29 14.12.2021
6481 Clouds 27 1008 62 10000 1.32 161 19:43 14.12.2021
6482 Clouds 27 1007 60 10000 1.35 161 19:19 14.12.2021
6483 Clouds 27 1006 59 10000 0.69 148 18:25 14.12.2021
6484 Clouds 30 1007 66 8000 0 0 17:33 14.12.2021
6485 Clouds 32 1007 62 10000 0 0 16:40 14.12.2021
6486 Clouds 32 1007 58 10000 0 0 15:36 14.12.2021
6487 Clouds 32 1008 58 10000 4.12 180 13:31 14.12.2021
6488 Clouds 34 1007 39 10000 0.35 197 12:00 14.12.2021
6489 Clouds 33 1009 45 10000 1.1 179 11:24 14.12.2021
6490 Clouds 28 1011 69 8000 3.09 160 10:23 14.12.2021
6491 Clouds 27 1012 78 8000 2.06 60 09:43 14.12.2021
6492 Clouds 26 1011 67 10000 1.78 147 08:28 14.12.2021
6493 Clouds 26 1011 67 10000 1.78 147 07:43 14.12.2021
6494 Clouds 22 1010 89 10000 1.11 163 05:35 14.12.2021
6495 Clouds 23 1009 83 10000 1.39 180 22:56 13.12.2021
6496 Clouds 23 1009 78 10000 1.4 177 21:53 13.12.2021
6497 Clouds 23 1009 78 10000 1.4 177 21:33 13.12.2021
6498 Clouds 24 1009 77 10000 1.14 182 20:43 13.12.2021
6499 Clouds 25 1008 76 10000 1.21 190 19:53 13.12.2021
6500 Clouds 25 1007 75 10000 1.18 186 18:33 13.12.2021
6501 Clouds 27 1005 66 10000 1.18 188 17:26 13.12.2021
6502 Clouds 31 1005 57 10000 0.83 235 15:54 13.12.2021
6503 Clouds 31 1005 57 10000 0.83 235 15:32 13.12.2021
6504 Clouds 31 1008 66 10000 1.54 0 13:47 13.12.2021
6505 Clouds 31 1009 70 10000 0 0 12:59 13.12.2021
6506 Clouds 34 1007 45 10000 0.33 334 12:19 13.12.2021
6507 Clouds 30 1010 70 10000 3.09 120 11:35 13.12.2021
6508 Clouds 33 1009 50 10000 0.28 107 10:47 13.12.2021
6509 Clouds 31 1010 57 10000 0.8 96 09:41 13.12.2021
6510 Clouds 27 1011 75 10000 0.63 138 07:57 13.12.2021
6511 Clouds 22 1010 96 10000 0.15 195 05:36 13.12.2021
6512 Clouds 21 1008 99 10000 0.8 165 03:30 13.12.2021
6513 Clouds 23 1008 93 10000 1.3 185 23:26 12.12.2021
6514 Clouds 23 1009 93 10000 1.19 201 21:41 12.12.2021
6515 Clouds 24 1009 91 10000 1.21 225 20:28 12.12.2021
6516 Clouds 24 1008 89 10000 1.14 211 18:43 12.12.2021
6517 Clouds 27 1008 89 6000 2.06 160 17:45 12.12.2021
6518 Clouds 28 1007 83 10000 3.09 220 16:28 12.12.2021
6519 Clouds 30 1007 74 10000 4.12 220 15:51 12.12.2021
6520 Clouds 30 1005 61 10000 0.89 133 15:26 12.12.2021
6521 Clouds 30 1005 61 10000 0.89 133 14:37 12.12.2021
6522 Clouds 28 1008 78 10000 3.09 200 13:34 12.12.2021
6523 Clouds 31 1007 57 10000 0.82 252 12:32 12.12.2021
6524 Clouds 29 1008 67 10000 1.19 198 11:44 12.12.2021
6525 Clouds 26 1009 81 10000 1.07 173 11:24 12.12.2021
6526 Clouds 27 1010 78 10000 3.09 160 10:32 12.12.2021
6527 Clouds 24 1010 91 10000 0.92 185 09:39 12.12.2021
6528 Clouds 25 1011 88 8000 3.09 160 08:34 12.12.2021
6529 Clouds 23 1009 95 10000 0.33 184 06:20 12.12.2021
6530 Clouds 23 1008 96 10000 0.18 134 05:22 12.12.2021
6531 Clouds 23 1007 93 10000 0.69 259 03:57 12.12.2021
6532 Clouds 23 1006 93 10000 1.12 166 23:48 11.12.2021
6533 Clouds 23 1008 92 10000 1.25 154 22:24 11.12.2021
6534 Clouds 23 1008 92 10000 1.25 154 21:52 11.12.2021
6535 Clouds 23 1008 90 10000 1.36 161 21:21 11.12.2021
6536 Clouds 24 1007 89 10000 0.6 139 19:37 11.12.2021
6537 Clouds 23 1006 90 10000 0.46 279 18:53 11.12.2021
6538 Clouds 23 1005 91 10000 0.48 117 18:30 11.12.2021
6539 Rain 23 1004 94 10000 0.85 238 17:37 11.12.2021
6540 Rain 24 1004 88 10000 2.29 348 15:55 11.12.2021
6541 Rain 24 1004 88 10000 2.29 348 15:35 11.12.2021
6542 Clouds 34 1004 44 10000 0.78 112 13:21 11.12.2021
6543 Clouds 32 1006 53 10000 0.84 97 11:46 11.12.2021
6544 Clouds 34 1008 47 10000 0.61 82 09:47 11.12.2021
6545 Clouds 32 1008 55 10000 0.69 82 09:18 11.12.2021
6546 Clouds 22 1006 93 10000 0.7 197 02:40 11.12.2021
6547 Clouds 23 1006 89 10000 0.43 148 00:42 11.12.2021
6548 Clouds 23 1007 88 10000 0.45 158 23:24 10.12.2021
6549 Clouds 24 1008 87 10000 0.35 167 21:57 10.12.2021
6550 Clouds 24 1008 87 10000 0.35 167 21:37 10.12.2021
6551 Rain 24 1007 84 10000 1.01 228 19:22 10.12.2021
6552 Clouds 25 1006 76 10000 0.79 103 18:57 10.12.2021
6553 Clouds 29 1007 74 8000 0 0 17:21 10.12.2021
6554 Clouds 27 1005 71 10000 0.22 75 16:30 10.12.2021
6555 Clouds 31 1007 62 9000 2.06 330 15:42 10.12.2021
6556 Clouds 31 1007 62 9000 2.06 330 15:22 10.12.2021
6557 Clouds 32 1008 62 10000 3.09 340 13:52 10.12.2021
6558 Clouds 33 1004 45 10000 0.89 79 13:31 10.12.2021
6559 Clouds 32 1006 49 10000 0.99 43 12:47 10.12.2021
6560 Clouds 33 1007 46 10000 0.99 6 11:34 10.12.2021
6561 Clouds 31 1009 52 10000 0.9 18 10:50 10.12.2021
6562 Clouds 27 1010 68 10000 1.35 44 09:30 10.12.2021
6563 Clouds 25 1010 76 10000 0.98 155 07:21 10.12.2021
6564 Clear 22 1008 84 10000 0.79 159 02:53 10.12.2021
6565 Clear 22 1008 83 10000 0.25 169 01:32 10.12.2021
6566 Clear 23 1008 79 10000 0.68 91 23:39 09.12.2021
6567 Clear 24 1009 77 10000 0.34 79 22:41 09.12.2021
6568 Clear 24 1009 76 10000 0.52 76 22:20 09.12.2021
6569 Clear 24 1009 76 10000 0.52 76 21:38 09.12.2021
6570 Clear 24 1009 75 10000 0.53 49 20:34 09.12.2021
6571 Clouds 26 1008 69 10000 0.6 43 19:22 09.12.2021
6572 Clouds 26 1008 69 10000 0.6 43 18:59 09.12.2021
6573 Clouds 27 1006 67 10000 0.81 308 17:58 09.12.2021
6574 Clouds 27 1006 68 10000 0.82 354 17:28 09.12.2021
6575 Clouds 27 1006 68 10000 0.82 354 16:57 09.12.2021
6576 Clouds 30 1005 58 10000 0.41 63 16:20 09.12.2021
6577 Clouds 32 1005 50 10000 0.59 94 14:58 09.12.2021
6578 Clouds 33 1006 45 10000 0.96 141 13:52 09.12.2021
6579 Clouds 34 1007 42 10000 0.74 155 12:47 09.12.2021
6580 Clouds 33 1010 50 10000 1.01 158 11:29 09.12.2021
6581 Clouds 31 1011 58 10000 1.14 154 10:20 09.12.2021
6582 Clouds 24 1012 92 10000 1.57 161 06:53 09.12.2021
6583 Clouds 22 1010 97 10000 1.02 174 03:55 09.12.2021
6584 Clouds 23 1010 90 10000 0.86 180 00:25 09.12.2021
6585 Clouds 23 1010 90 10000 0.86 180 23:36 08.12.2021
6586 Clouds 23 1011 89 10000 0.46 193 22:57 08.12.2021
6587 Clouds 23 1011 90 10000 0.38 316 21:50 08.12.2021
6588 Clouds 23 1011 90 10000 0.38 316 21:32 08.12.2021
6589 Rain 23 1011 88 10000 0.46 143 20:31 08.12.2021
6590 Clouds 24 1011 85 10000 0.44 180 19:55 08.12.2021
6591 Clouds 24 1010 83 10000 0.46 269 18:57 08.12.2021
6592 Clouds 26 1009 75 10000 1.34 261 18:22 08.12.2021
6593 Clouds 26 1008 74 10000 1.18 288 16:49 08.12.2021
6594 Clouds 29 1007 65 10000 1.38 294 15:41 08.12.2021
6595 Clouds 31 1007 52 10000 1.63 301 15:21 08.12.2021
6596 Clouds 31 1009 52 10000 1.67 303 13:21 08.12.2021
6597 Clouds 30 1012 59 10000 1.27 321 10:42 08.12.2021
6598 Clouds 28 1012 68 10000 0.25 304 09:32 08.12.2021
6599 Clouds 25 1012 85 10000 1.78 213 08:31 08.12.2021
6600 Rain 22 1012 97 10000 0.68 223 05:37 08.12.2021
6601 Clouds 22 1010 96 10000 0.97 208 00:27 08.12.2021
6602 Clouds 22 1010 96 10000 0.67 251 22:52 07.12.2021
6603 Clouds 22 1010 95 10000 1.45 225 21:25 07.12.2021
6604 Clouds 23 1010 96 10000 1.46 247 20:25 07.12.2021
6605 Clouds 24 1008 87 10000 0.82 209 18:59 07.12.2021
6606 Clouds 25 1007 85 10000 1.56 306 18:21 07.12.2021
6607 Clouds 26 1006 81 10000 1.17 292 17:24 07.12.2021
6608 Clouds 26 1006 81 10000 1.17 292 16:42 07.12.2021
6609 Clouds 29 1007 69 10000 1.68 298 15:59 07.12.2021
6610 Clouds 31 1006 57 10000 1.07 297 14:38 07.12.2021
6611 Clouds 32 1008 54 10000 1.58 296 13:40 07.12.2021
6612 Clouds 31 1010 56 10000 1.29 294 12:22 07.12.2021
6613 Clouds 30 1011 62 10000 0.64 274 10:56 07.12.2021
6614 Clouds 26 1012 77 10000 0.27 177 09:20 07.12.2021
6615 Clouds 25 1012 86 10000 0.93 174 07:35 07.12.2021
6616 Clouds 21 1012 96 10000 0.76 146 05:51 07.12.2021
6617 Clouds 21 1010 97 10000 1.02 158 03:25 07.12.2021
6618 Clouds 22 1010 92 10000 0.86 41 23:23 06.12.2021
6619 Clouds 22 1010 92 10000 0.86 41 22:40 06.12.2021
6620 Rain 23 1010 90 10000 1.1 83 21:59 06.12.2021
6621 Rain 23 1010 90 10000 1.1 83 21:31 06.12.2021
6622 Clouds 23 1010 88 10000 0.95 162 20:32 06.12.2021
6623 Clouds 23 1010 88 10000 0.95 162 20:32 06.12.2021
6624 Clouds 24 1009 84 10000 0.2 327 19:24 06.12.2021
6625 Clouds 24 1009 91 10000 0.34 162 18:40 06.12.2021
6626 Rain 24 1008 88 10000 0.18 335 17:54 06.12.2021
6627 Rain 24 1008 88 10000 0.18 335 17:33 06.12.2021
6628 Clouds 29 1007 69 10000 0.15 54 15:51 06.12.2021
6629 Clouds 31 1006 55 10000 1.16 139 14:38 06.12.2021
6630 Clouds 31